<?xml version="1.0" encoding="UTF-8" standalone="no" ?>
<gpx xmlns="http://www.topografix.com/GPX/1/1" xmlns:xsi="http://www.w3.org/2001/XMLSchema-instance" xsi:schemaLocation="http://www.topografix.com/GPX/1/1 http://www.topografix.com/GPX/1/1/gpx.xsd" version="1.1" creator="VisuGPX - https://www.visugpx.com">
  <metadata>
    <name>Sortie Dimanche 7 avril 2024 départ 8h45 parking Gamm-Vert St-Girons</name>
    <desc><![CDATA[Pour demain, deux possibilités :
— Trace rouge… Un niveau plus confirmé par le Pas de Rossan (très sympa, mais avec des passages techniques caillouteux).
— Trace bleue… Par Alas, joli parcours, mais avec moins de dénivelé.]]></desc>
  </metadata>
  <trk>
    <name><![CDATA[Pas de Rossan - Passages techniques]]></name>
    <extensions>
      <line xmlns="http://www.topografix.com/GPX/gpx_style/0/2">
        <color>ff0000</color>
        <width>4</width>
          <extensions>
            <sens>1</sens>
          </extensions>
      </line>
    </extensions>
    <trkseg>
      <trkpt lat="42.96966" lon="1.06828">
        <ele>841.4</ele>
        <time>2022-01-29T13:15:03.000Z</time>
      </trkpt>
      <trkpt lat="42.96973" lon="1.0682">
        <ele>841.5</ele>
        <time>2022-01-29T13:15:07.000Z</time>
      </trkpt>
      <trkpt lat="42.96981" lon="1.0681">
        <ele>842.1</ele>
        <time>2022-01-29T13:15:11.000Z</time>
      </trkpt>
      <trkpt lat="42.96989" lon="1.06801">
        <ele>842.3</ele>
        <time>2022-01-29T13:15:15.000Z</time>
      </trkpt>
      <trkpt lat="42.96997" lon="1.06794">
        <ele>842.8</ele>
        <time>2022-01-29T13:15:19.000Z</time>
      </trkpt>
      <trkpt lat="42.97007" lon="1.06795">
        <ele>843.6</ele>
        <time>2022-01-29T13:15:23.000Z</time>
      </trkpt>
      <trkpt lat="42.97018" lon="1.06796">
        <ele>845.2</ele>
        <time>2022-01-29T13:15:27.000Z</time>
      </trkpt>
      <trkpt lat="42.97027" lon="1.068">
        <ele>846.3</ele>
        <time>2022-01-29T13:15:31.000Z</time>
      </trkpt>
      <trkpt lat="42.97036" lon="1.06807">
        <ele>847</ele>
        <time>2022-01-29T13:15:35.000Z</time>
      </trkpt>
      <trkpt lat="42.97046" lon="1.06809">
        <ele>847.9</ele>
        <time>2022-01-29T13:15:39.000Z</time>
      </trkpt>
      <trkpt lat="42.97056" lon="1.06805">
        <ele>849.2</ele>
        <time>2022-01-29T13:15:43.000Z</time>
      </trkpt>
      <trkpt lat="42.97065" lon="1.06799">
        <ele>850.2</ele>
        <time>2022-01-29T13:15:47.000Z</time>
      </trkpt>
      <trkpt lat="42.97074" lon="1.06792">
        <ele>851.6</ele>
        <time>2022-01-29T13:15:51.000Z</time>
      </trkpt>
      <trkpt lat="42.97083" lon="1.06785">
        <ele>852.5</ele>
        <time>2022-01-29T13:15:55.000Z</time>
      </trkpt>
      <trkpt lat="42.97091" lon="1.06775">
        <ele>853.6</ele>
        <time>2022-01-29T13:15:59.000Z</time>
      </trkpt>
      <trkpt lat="42.971" lon="1.06766">
        <ele>855.6</ele>
        <time>2022-01-29T13:16:04.000Z</time>
      </trkpt>
      <trkpt lat="42.97108" lon="1.06757">
        <ele>856.5</ele>
        <time>2022-01-29T13:16:08.000Z</time>
      </trkpt>
      <trkpt lat="42.97118" lon="1.06751">
        <ele>858.5</ele>
        <time>2022-01-29T13:16:12.000Z</time>
      </trkpt>
      <trkpt lat="42.97126" lon="1.06743">
        <ele>860.3</ele>
        <time>2022-01-29T13:16:16.000Z</time>
      </trkpt>
      <trkpt lat="42.97136" lon="1.06736">
        <ele>861.6</ele>
        <time>2022-01-29T13:16:20.000Z</time>
      </trkpt>
      <trkpt lat="42.97145" lon="1.06732">
        <ele>863.3</ele>
        <time>2022-01-29T13:16:25.000Z</time>
      </trkpt>
      <trkpt lat="42.97155" lon="1.06727">
        <ele>865.3</ele>
        <time>2022-01-29T13:16:30.000Z</time>
      </trkpt>
      <trkpt lat="42.97165" lon="1.06725">
        <ele>866.8</ele>
        <time>2022-01-29T13:16:34.000Z</time>
      </trkpt>
      <trkpt lat="42.97174" lon="1.06726">
        <ele>867.8</ele>
        <time>2022-01-29T13:16:37.000Z</time>
      </trkpt>
      <trkpt lat="42.97184" lon="1.06726">
        <ele>869.3</ele>
        <time>2022-01-29T13:16:41.000Z</time>
      </trkpt>
      <trkpt lat="42.97195" lon="1.06728">
        <ele>870.5</ele>
        <time>2022-01-29T13:16:45.000Z</time>
      </trkpt>
      <trkpt lat="42.97204" lon="1.06731">
        <ele>871.8</ele>
        <time>2022-01-29T13:16:49.000Z</time>
      </trkpt>
      <trkpt lat="42.97213" lon="1.06735">
        <ele>873.5</ele>
        <time>2022-01-29T13:16:53.000Z</time>
      </trkpt>
      <trkpt lat="42.97223" lon="1.06737">
        <ele>874.9</ele>
        <time>2022-01-29T13:16:58.000Z</time>
      </trkpt>
      <trkpt lat="42.9723" lon="1.06727">
        <ele>876.5</ele>
        <time>2022-01-29T13:17:03.000Z</time>
      </trkpt>
      <trkpt lat="42.97236" lon="1.06715">
        <ele>878.3</ele>
        <time>2022-01-29T13:17:08.000Z</time>
      </trkpt>
      <trkpt lat="42.97244" lon="1.06704">
        <ele>879.3</ele>
        <time>2022-01-29T13:17:13.000Z</time>
      </trkpt>
      <trkpt lat="42.97249" lon="1.06692">
        <ele>881</ele>
        <time>2022-01-29T13:17:18.000Z</time>
      </trkpt>
      <trkpt lat="42.97256" lon="1.06681">
        <ele>883.1</ele>
        <time>2022-01-29T13:17:23.000Z</time>
      </trkpt>
      <trkpt lat="42.97262" lon="1.06671">
        <ele>884.5</ele>
        <time>2022-01-29T13:17:28.000Z</time>
      </trkpt>
      <trkpt lat="42.9727" lon="1.06662">
        <ele>887.6</ele>
        <time>2022-01-29T13:17:35.000Z</time>
      </trkpt>
      <trkpt lat="42.97279" lon="1.06657">
        <ele>889</ele>
        <time>2022-01-29T13:17:40.000Z</time>
      </trkpt>
      <trkpt lat="42.97288" lon="1.06655">
        <ele>890.6</ele>
        <time>2022-01-29T13:17:44.000Z</time>
      </trkpt>
      <trkpt lat="42.97298" lon="1.06653">
        <ele>892.6</ele>
        <time>2022-01-29T13:17:49.000Z</time>
      </trkpt>
      <trkpt lat="42.97303" lon="1.06652">
        <ele>893.9</ele>
        <time>2022-01-29T13:17:55.000Z</time>
      </trkpt>
      <trkpt lat="42.97304" lon="1.06652">
        <ele>894.2</ele>
        <time>2022-01-29T13:17:57.000Z</time>
      </trkpt>
      <trkpt lat="42.97303" lon="1.0665">
        <ele>895.1</ele>
        <time>2022-01-29T13:18:02.000Z</time>
      </trkpt>
      <trkpt lat="42.97302" lon="1.0665">
        <ele>889.3</ele>
        <time>2022-01-29T13:18:53.000Z</time>
      </trkpt>
      <trkpt lat="42.97302" lon="1.0665">
        <ele>885.8</ele>
        <time>2022-01-29T13:19:10.000Z</time>
      </trkpt>
      <trkpt lat="42.97302" lon="1.0665">
        <ele>877.4</ele>
        <time>2022-01-29T13:20:23.000Z</time>
      </trkpt>
      <trkpt lat="42.97302" lon="1.0665">
        <ele>876.5</ele>
        <time>2022-01-29T13:20:43.000Z</time>
      </trkpt>
      <trkpt lat="42.97301" lon="1.06649">
        <ele>876.8</ele>
        <time>2022-01-29T13:20:46.000Z</time>
      </trkpt>
      <trkpt lat="42.97301" lon="1.06648">
        <ele>876.8</ele>
        <time>2022-01-29T13:20:52.000Z</time>
      </trkpt>
      <trkpt lat="42.97302" lon="1.06634">
        <ele>877.7</ele>
        <time>2022-01-29T13:20:59.000Z</time>
      </trkpt>
      <trkpt lat="42.97308" lon="1.06621">
        <ele>879</ele>
        <time>2022-01-29T13:21:04.000Z</time>
      </trkpt>
      <trkpt lat="42.97314" lon="1.06608">
        <ele>880.5</ele>
        <time>2022-01-29T13:21:08.000Z</time>
      </trkpt>
      <trkpt lat="42.9732" lon="1.06596">
        <ele>881.6</ele>
        <time>2022-01-29T13:21:12.000Z</time>
      </trkpt>
      <trkpt lat="42.97326" lon="1.06584">
        <ele>883.5</ele>
        <time>2022-01-29T13:21:16.000Z</time>
      </trkpt>
      <trkpt lat="42.97331" lon="1.06573">
        <ele>884.2</ele>
        <time>2022-01-29T13:21:19.000Z</time>
      </trkpt>
      <trkpt lat="42.97337" lon="1.0656">
        <ele>886.2</ele>
        <time>2022-01-29T13:21:23.000Z</time>
      </trkpt>
      <trkpt lat="42.97343" lon="1.06548">
        <ele>888.6</ele>
        <time>2022-01-29T13:21:27.000Z</time>
      </trkpt>
      <trkpt lat="42.97351" lon="1.0654">
        <ele>890.3</ele>
        <time>2022-01-29T13:21:31.000Z</time>
      </trkpt>
      <trkpt lat="42.97358" lon="1.06533">
        <ele>891.6</ele>
        <time>2022-01-29T13:21:34.000Z</time>
      </trkpt>
      <trkpt lat="42.97365" lon="1.06523">
        <ele>893.7</ele>
        <time>2022-01-29T13:21:38.000Z</time>
      </trkpt>
      <trkpt lat="42.97374" lon="1.06515">
        <ele>895.3</ele>
        <time>2022-01-29T13:21:42.000Z</time>
      </trkpt>
      <trkpt lat="42.97384" lon="1.06509">
        <ele>897.3</ele>
        <time>2022-01-29T13:21:46.000Z</time>
      </trkpt>
      <trkpt lat="42.97393" lon="1.06507">
        <ele>898.3</ele>
        <time>2022-01-29T13:21:49.000Z</time>
      </trkpt>
      <trkpt lat="42.97402" lon="1.06505">
        <ele>899.9</ele>
        <time>2022-01-29T13:21:52.000Z</time>
      </trkpt>
      <trkpt lat="42.97413" lon="1.06503">
        <ele>900.8</ele>
        <time>2022-01-29T13:21:55.000Z</time>
      </trkpt>
      <trkpt lat="42.97423" lon="1.06498">
        <ele>902</ele>
        <time>2022-01-29T13:21:58.000Z</time>
      </trkpt>
      <trkpt lat="42.97434" lon="1.06488">
        <ele>903.3</ele>
        <time>2022-01-29T13:22:01.000Z</time>
      </trkpt>
      <trkpt lat="42.97442" lon="1.06479">
        <ele>903.6</ele>
        <time>2022-01-29T13:22:03.000Z</time>
      </trkpt>
      <trkpt lat="42.9745" lon="1.06469">
        <ele>904.5</ele>
        <time>2022-01-29T13:22:05.000Z</time>
      </trkpt>
      <trkpt lat="42.97456" lon="1.06458">
        <ele>904.8</ele>
        <time>2022-01-29T13:22:07.000Z</time>
      </trkpt>
      <trkpt lat="42.97462" lon="1.06446">
        <ele>905</ele>
        <time>2022-01-29T13:22:09.000Z</time>
      </trkpt>
      <trkpt lat="42.97467" lon="1.06433">
        <ele>905.8</ele>
        <time>2022-01-29T13:22:11.000Z</time>
      </trkpt>
      <trkpt lat="42.9747" lon="1.06419">
        <ele>906.1</ele>
        <time>2022-01-29T13:22:13.000Z</time>
      </trkpt>
      <trkpt lat="42.97469" lon="1.06404">
        <ele>906.3</ele>
        <time>2022-01-29T13:22:15.000Z</time>
      </trkpt>
      <trkpt lat="42.97469" lon="1.06387">
        <ele>907.3</ele>
        <time>2022-01-29T13:22:17.000Z</time>
      </trkpt>
      <trkpt lat="42.97467" lon="1.0637">
        <ele>907.1</ele>
        <time>2022-01-29T13:22:19.000Z</time>
      </trkpt>
      <trkpt lat="42.97464" lon="1.0635">
        <ele>907.6</ele>
        <time>2022-01-29T13:22:21.000Z</time>
      </trkpt>
      <trkpt lat="42.97461" lon="1.06328">
        <ele>907.9</ele>
        <time>2022-01-29T13:22:23.000Z</time>
      </trkpt>
      <trkpt lat="42.97456" lon="1.06305">
        <ele>908.3</ele>
        <time>2022-01-29T13:22:25.000Z</time>
      </trkpt>
      <trkpt lat="42.97453" lon="1.06293">
        <ele>908.5</ele>
        <time>2022-01-29T13:22:26.000Z</time>
      </trkpt>
      <trkpt lat="42.9745" lon="1.06281">
        <ele>908.3</ele>
        <time>2022-01-29T13:22:27.000Z</time>
      </trkpt>
      <trkpt lat="42.97447" lon="1.06268">
        <ele>908.1</ele>
        <time>2022-01-29T13:22:28.000Z</time>
      </trkpt>
      <trkpt lat="42.97446" lon="1.06255">
        <ele>908.2</ele>
        <time>2022-01-29T13:22:29.000Z</time>
      </trkpt>
      <trkpt lat="42.97444" lon="1.06241">
        <ele>908.4</ele>
        <time>2022-01-29T13:22:30.000Z</time>
      </trkpt>
      <trkpt lat="42.97442" lon="1.06229">
        <ele>908.2</ele>
        <time>2022-01-29T13:22:31.000Z</time>
      </trkpt>
      <trkpt lat="42.9744" lon="1.06207">
        <ele>907.9</ele>
        <time>2022-01-29T13:22:33.000Z</time>
      </trkpt>
      <trkpt lat="42.97445" lon="1.06193">
        <ele>908.4</ele>
        <time>2022-01-29T13:22:35.000Z</time>
      </trkpt>
      <trkpt lat="42.97454" lon="1.06186">
        <ele>909</ele>
        <time>2022-01-29T13:22:37.000Z</time>
      </trkpt>
      <trkpt lat="42.97463" lon="1.0618">
        <ele>909.7</ele>
        <time>2022-01-29T13:22:39.000Z</time>
      </trkpt>
      <trkpt lat="42.97473" lon="1.06174">
        <ele>909.8</ele>
        <time>2022-01-29T13:22:41.000Z</time>
      </trkpt>
      <trkpt lat="42.97484" lon="1.06168">
        <ele>909.8</ele>
        <time>2022-01-29T13:22:43.000Z</time>
      </trkpt>
      <trkpt lat="42.97496" lon="1.06163">
        <ele>909.9</ele>
        <time>2022-01-29T13:22:45.000Z</time>
      </trkpt>
      <trkpt lat="42.97508" lon="1.06157">
        <ele>910.3</ele>
        <time>2022-01-29T13:22:47.000Z</time>
      </trkpt>
      <trkpt lat="42.9752" lon="1.06149">
        <ele>910.4</ele>
        <time>2022-01-29T13:22:49.000Z</time>
      </trkpt>
      <trkpt lat="42.97531" lon="1.06139">
        <ele>910.3</ele>
        <time>2022-01-29T13:22:51.000Z</time>
      </trkpt>
      <trkpt lat="42.97542" lon="1.06129">
        <ele>910.3</ele>
        <time>2022-01-29T13:22:53.000Z</time>
      </trkpt>
      <trkpt lat="42.97553" lon="1.06118">
        <ele>910.3</ele>
        <time>2022-01-29T13:22:55.000Z</time>
      </trkpt>
      <trkpt lat="42.97563" lon="1.06105">
        <ele>909.9</ele>
        <time>2022-01-29T13:22:57.000Z</time>
      </trkpt>
      <trkpt lat="42.97572" lon="1.06091">
        <ele>910.6</ele>
        <time>2022-01-29T13:22:59.000Z</time>
      </trkpt>
      <trkpt lat="42.97579" lon="1.06077">
        <ele>910.4</ele>
        <time>2022-01-29T13:23:01.000Z</time>
      </trkpt>
      <trkpt lat="42.97587" lon="1.06062">
        <ele>910.1</ele>
        <time>2022-01-29T13:23:03.000Z</time>
      </trkpt>
      <trkpt lat="42.97592" lon="1.06046">
        <ele>910.2</ele>
        <time>2022-01-29T13:23:05.000Z</time>
      </trkpt>
      <trkpt lat="42.97593" lon="1.0603">
        <ele>910</ele>
        <time>2022-01-29T13:23:07.000Z</time>
      </trkpt>
      <trkpt lat="42.97591" lon="1.06014">
        <ele>909.8</ele>
        <time>2022-01-29T13:23:09.000Z</time>
      </trkpt>
      <trkpt lat="42.97589" lon="1.05999">
        <ele>909.9</ele>
        <time>2022-01-29T13:23:11.000Z</time>
      </trkpt>
      <trkpt lat="42.97586" lon="1.05984">
        <ele>909.9</ele>
        <time>2022-01-29T13:23:13.000Z</time>
      </trkpt>
      <trkpt lat="42.97582" lon="1.05969">
        <ele>910.1</ele>
        <time>2022-01-29T13:23:15.000Z</time>
      </trkpt>
      <trkpt lat="42.97575" lon="1.05955">
        <ele>909.6</ele>
        <time>2022-01-29T13:23:17.000Z</time>
      </trkpt>
      <trkpt lat="42.97569" lon="1.05941">
        <ele>909.7</ele>
        <time>2022-01-29T13:23:19.000Z</time>
      </trkpt>
      <trkpt lat="42.97563" lon="1.05928">
        <ele>910.1</ele>
        <time>2022-01-29T13:23:21.000Z</time>
      </trkpt>
      <trkpt lat="42.97556" lon="1.05916">
        <ele>909.5</ele>
        <time>2022-01-29T13:23:23.000Z</time>
      </trkpt>
      <trkpt lat="42.97548" lon="1.05903">
        <ele>908.9</ele>
        <time>2022-01-29T13:23:25.000Z</time>
      </trkpt>
      <trkpt lat="42.9754" lon="1.0589">
        <ele>909</ele>
        <time>2022-01-29T13:23:27.000Z</time>
      </trkpt>
      <trkpt lat="42.97532" lon="1.05876">
        <ele>908.4</ele>
        <time>2022-01-29T13:23:29.000Z</time>
      </trkpt>
      <trkpt lat="42.97525" lon="1.05861">
        <ele>908</ele>
        <time>2022-01-29T13:23:31.000Z</time>
      </trkpt>
      <trkpt lat="42.97517" lon="1.05847">
        <ele>907.8</ele>
        <time>2022-01-29T13:23:33.000Z</time>
      </trkpt>
      <trkpt lat="42.97509" lon="1.05834">
        <ele>907.5</ele>
        <time>2022-01-29T13:23:35.000Z</time>
      </trkpt>
      <trkpt lat="42.975" lon="1.05821">
        <ele>907.2</ele>
        <time>2022-01-29T13:23:37.000Z</time>
      </trkpt>
      <trkpt lat="42.97492" lon="1.05808">
        <ele>906.9</ele>
        <time>2022-01-29T13:23:39.000Z</time>
      </trkpt>
      <trkpt lat="42.97483" lon="1.05796">
        <ele>906.2</ele>
        <time>2022-01-29T13:23:41.000Z</time>
      </trkpt>
      <trkpt lat="42.97475" lon="1.05784">
        <ele>905.9</ele>
        <time>2022-01-29T13:23:43.000Z</time>
      </trkpt>
      <trkpt lat="42.97466" lon="1.05774">
        <ele>905.3</ele>
        <time>2022-01-29T13:23:45.000Z</time>
      </trkpt>
      <trkpt lat="42.97458" lon="1.05764">
        <ele>905.5</ele>
        <time>2022-01-29T13:23:47.000Z</time>
      </trkpt>
      <trkpt lat="42.97454" lon="1.05752">
        <ele>904.2</ele>
        <time>2022-01-29T13:23:50.000Z</time>
      </trkpt>
      <trkpt lat="42.97457" lon="1.05737">
        <ele>903.3</ele>
        <time>2022-01-29T13:23:54.000Z</time>
      </trkpt>
      <trkpt lat="42.97465" lon="1.05726">
        <ele>902.9</ele>
        <time>2022-01-29T13:23:57.000Z</time>
      </trkpt>
      <trkpt lat="42.97473" lon="1.05714">
        <ele>902.8</ele>
        <time>2022-01-29T13:24:00.000Z</time>
      </trkpt>
      <trkpt lat="42.97482" lon="1.05702">
        <ele>902.1</ele>
        <time>2022-01-29T13:24:03.000Z</time>
      </trkpt>
      <trkpt lat="42.97488" lon="1.0569">
        <ele>901.6</ele>
        <time>2022-01-29T13:24:06.000Z</time>
      </trkpt>
      <trkpt lat="42.97497" lon="1.0568">
        <ele>901.2</ele>
        <time>2022-01-29T13:24:09.000Z</time>
      </trkpt>
      <trkpt lat="42.97504" lon="1.05673">
        <ele>900.5</ele>
        <time>2022-01-29T13:24:12.000Z</time>
      </trkpt>
      <trkpt lat="42.97514" lon="1.05664">
        <ele>900.1</ele>
        <time>2022-01-29T13:24:16.000Z</time>
      </trkpt>
      <trkpt lat="42.97521" lon="1.05654">
        <ele>899.4</ele>
        <time>2022-01-29T13:24:19.000Z</time>
      </trkpt>
      <trkpt lat="42.97528" lon="1.0564">
        <ele>899</ele>
        <time>2022-01-29T13:24:22.000Z</time>
      </trkpt>
      <trkpt lat="42.97531" lon="1.05627">
        <ele>899</ele>
        <time>2022-01-29T13:24:25.000Z</time>
      </trkpt>
      <trkpt lat="42.97535" lon="1.05614">
        <ele>898.3</ele>
        <time>2022-01-29T13:24:28.000Z</time>
      </trkpt>
      <trkpt lat="42.97537" lon="1.05601">
        <ele>897.5</ele>
        <time>2022-01-29T13:24:31.000Z</time>
      </trkpt>
      <trkpt lat="42.97536" lon="1.05587">
        <ele>897.3</ele>
        <time>2022-01-29T13:24:35.000Z</time>
      </trkpt>
      <trkpt lat="42.97537" lon="1.05574">
        <ele>896.7</ele>
        <time>2022-01-29T13:24:39.000Z</time>
      </trkpt>
      <trkpt lat="42.97545" lon="1.05567">
        <ele>895.9</ele>
        <time>2022-01-29T13:24:43.000Z</time>
      </trkpt>
      <trkpt lat="42.97556" lon="1.05565">
        <ele>895</ele>
        <time>2022-01-29T13:24:48.000Z</time>
      </trkpt>
      <trkpt lat="42.97567" lon="1.05559">
        <ele>894.6</ele>
        <time>2022-01-29T13:24:52.000Z</time>
      </trkpt>
      <trkpt lat="42.97575" lon="1.05548">
        <ele>894.8</ele>
        <time>2022-01-29T13:24:56.000Z</time>
      </trkpt>
      <trkpt lat="42.97582" lon="1.05536">
        <ele>894.4</ele>
        <time>2022-01-29T13:25:01.000Z</time>
      </trkpt>
      <trkpt lat="42.9759" lon="1.05527">
        <ele>894</ele>
        <time>2022-01-29T13:25:06.000Z</time>
      </trkpt>
      <trkpt lat="42.976" lon="1.05521">
        <ele>894.3</ele>
        <time>2022-01-29T13:25:11.000Z</time>
      </trkpt>
      <trkpt lat="42.9761" lon="1.05515">
        <ele>893.9</ele>
        <time>2022-01-29T13:25:16.000Z</time>
      </trkpt>
      <trkpt lat="42.9762" lon="1.05506">
        <ele>893.7</ele>
        <time>2022-01-29T13:25:20.000Z</time>
      </trkpt>
      <trkpt lat="42.97627" lon="1.05497">
        <ele>893.9</ele>
        <time>2022-01-29T13:25:23.000Z</time>
      </trkpt>
      <trkpt lat="42.97632" lon="1.05483">
        <ele>893</ele>
        <time>2022-01-29T13:25:27.000Z</time>
      </trkpt>
      <trkpt lat="42.97634" lon="1.05471">
        <ele>892.7</ele>
        <time>2022-01-29T13:25:30.000Z</time>
      </trkpt>
      <trkpt lat="42.97637" lon="1.05457">
        <ele>892.7</ele>
        <time>2022-01-29T13:25:33.000Z</time>
      </trkpt>
      <trkpt lat="42.97641" lon="1.05441">
        <ele>892.4</ele>
        <time>2022-01-29T13:25:36.000Z</time>
      </trkpt>
      <trkpt lat="42.97645" lon="1.05428">
        <ele>892.3</ele>
        <time>2022-01-29T13:25:38.000Z</time>
      </trkpt>
      <trkpt lat="42.97649" lon="1.05414">
        <ele>892</ele>
        <time>2022-01-29T13:25:40.000Z</time>
      </trkpt>
      <trkpt lat="42.97653" lon="1.05398">
        <ele>891.7</ele>
        <time>2022-01-29T13:25:42.000Z</time>
      </trkpt>
      <trkpt lat="42.97658" lon="1.0538">
        <ele>891.2</ele>
        <time>2022-01-29T13:25:44.000Z</time>
      </trkpt>
      <trkpt lat="42.97665" lon="1.05359">
        <ele>890.7</ele>
        <time>2022-01-29T13:25:46.000Z</time>
      </trkpt>
      <trkpt lat="42.97675" lon="1.05338">
        <ele>890.3</ele>
        <time>2022-01-29T13:25:48.000Z</time>
      </trkpt>
      <trkpt lat="42.97681" lon="1.05327">
        <ele>890.4</ele>
        <time>2022-01-29T13:25:49.000Z</time>
      </trkpt>
      <trkpt lat="42.97687" lon="1.05316">
        <ele>890.1</ele>
        <time>2022-01-29T13:25:50.000Z</time>
      </trkpt>
      <trkpt lat="42.97693" lon="1.05306">
        <ele>889.7</ele>
        <time>2022-01-29T13:25:51.000Z</time>
      </trkpt>
      <trkpt lat="42.977" lon="1.05295">
        <ele>889.3</ele>
        <time>2022-01-29T13:25:52.000Z</time>
      </trkpt>
      <trkpt lat="42.97707" lon="1.05284">
        <ele>889.5</ele>
        <time>2022-01-29T13:25:53.000Z</time>
      </trkpt>
      <trkpt lat="42.97714" lon="1.05272">
        <ele>889.5</ele>
        <time>2022-01-29T13:25:54.000Z</time>
      </trkpt>
      <trkpt lat="42.97721" lon="1.0526">
        <ele>889.3</ele>
        <time>2022-01-29T13:25:55.000Z</time>
      </trkpt>
      <trkpt lat="42.97728" lon="1.05248">
        <ele>888.2</ele>
        <time>2022-01-29T13:25:56.000Z</time>
      </trkpt>
      <trkpt lat="42.97736" lon="1.05237">
        <ele>887.7</ele>
        <time>2022-01-29T13:25:57.000Z</time>
      </trkpt>
      <trkpt lat="42.97744" lon="1.05226">
        <ele>887.4</ele>
        <time>2022-01-29T13:25:58.000Z</time>
      </trkpt>
      <trkpt lat="42.97752" lon="1.05216">
        <ele>887.4</ele>
        <time>2022-01-29T13:25:59.000Z</time>
      </trkpt>
      <trkpt lat="42.97759" lon="1.05206">
        <ele>887.2</ele>
        <time>2022-01-29T13:26:00.000Z</time>
      </trkpt>
      <trkpt lat="42.97767" lon="1.05196">
        <ele>886.3</ele>
        <time>2022-01-29T13:26:01.000Z</time>
      </trkpt>
      <trkpt lat="42.97774" lon="1.05186">
        <ele>886</ele>
        <time>2022-01-29T13:26:02.000Z</time>
      </trkpt>
      <trkpt lat="42.97782" lon="1.05176">
        <ele>885.3</ele>
        <time>2022-01-29T13:26:03.000Z</time>
      </trkpt>
      <trkpt lat="42.97789" lon="1.05166">
        <ele>884.7</ele>
        <time>2022-01-29T13:26:04.000Z</time>
      </trkpt>
      <trkpt lat="42.97797" lon="1.05156">
        <ele>884.5</ele>
        <time>2022-01-29T13:26:05.000Z</time>
      </trkpt>
      <trkpt lat="42.97805" lon="1.05147">
        <ele>884.2</ele>
        <time>2022-01-29T13:26:06.000Z</time>
      </trkpt>
      <trkpt lat="42.97813" lon="1.05139">
        <ele>884.1</ele>
        <time>2022-01-29T13:26:07.000Z</time>
      </trkpt>
      <trkpt lat="42.97827" lon="1.05127">
        <ele>883</ele>
        <time>2022-01-29T13:26:09.000Z</time>
      </trkpt>
      <trkpt lat="42.97841" lon="1.05114">
        <ele>882.5</ele>
        <time>2022-01-29T13:26:11.000Z</time>
      </trkpt>
      <trkpt lat="42.97854" lon="1.05099">
        <ele>881.6</ele>
        <time>2022-01-29T13:26:13.000Z</time>
      </trkpt>
      <trkpt lat="42.97864" lon="1.05084">
        <ele>880.6</ele>
        <time>2022-01-29T13:26:15.000Z</time>
      </trkpt>
      <trkpt lat="42.97867" lon="1.05067">
        <ele>880</ele>
        <time>2022-01-29T13:26:17.000Z</time>
      </trkpt>
      <trkpt lat="42.97865" lon="1.05047">
        <ele>879.7</ele>
        <time>2022-01-29T13:26:19.000Z</time>
      </trkpt>
      <trkpt lat="42.97858" lon="1.05026">
        <ele>878.6</ele>
        <time>2022-01-29T13:26:21.000Z</time>
      </trkpt>
      <trkpt lat="42.9785" lon="1.05004">
        <ele>877.5</ele>
        <time>2022-01-29T13:26:23.000Z</time>
      </trkpt>
      <trkpt lat="42.97846" lon="1.04992">
        <ele>877</ele>
        <time>2022-01-29T13:26:24.000Z</time>
      </trkpt>
      <trkpt lat="42.97842" lon="1.0498">
        <ele>876.6</ele>
        <time>2022-01-29T13:26:25.000Z</time>
      </trkpt>
      <trkpt lat="42.97837" lon="1.04968">
        <ele>875.2</ele>
        <time>2022-01-29T13:26:26.000Z</time>
      </trkpt>
      <trkpt lat="42.97832" lon="1.04956">
        <ele>874.7</ele>
        <time>2022-01-29T13:26:27.000Z</time>
      </trkpt>
      <trkpt lat="42.97827" lon="1.04944">
        <ele>874.4</ele>
        <time>2022-01-29T13:26:28.000Z</time>
      </trkpt>
      <trkpt lat="42.97822" lon="1.04932">
        <ele>874</ele>
        <time>2022-01-29T13:26:29.000Z</time>
      </trkpt>
      <trkpt lat="42.97816" lon="1.0492">
        <ele>873</ele>
        <time>2022-01-29T13:26:30.000Z</time>
      </trkpt>
      <trkpt lat="42.97811" lon="1.04908">
        <ele>872.5</ele>
        <time>2022-01-29T13:26:31.000Z</time>
      </trkpt>
      <trkpt lat="42.97805" lon="1.04897">
        <ele>872.2</ele>
        <time>2022-01-29T13:26:32.000Z</time>
      </trkpt>
      <trkpt lat="42.978" lon="1.04886">
        <ele>871.9</ele>
        <time>2022-01-29T13:26:33.000Z</time>
      </trkpt>
      <trkpt lat="42.97794" lon="1.04875">
        <ele>871.2</ele>
        <time>2022-01-29T13:26:34.000Z</time>
      </trkpt>
      <trkpt lat="42.97789" lon="1.04864">
        <ele>870.2</ele>
        <time>2022-01-29T13:26:35.000Z</time>
      </trkpt>
      <trkpt lat="42.97782" lon="1.04843">
        <ele>868.7</ele>
        <time>2022-01-29T13:26:37.000Z</time>
      </trkpt>
      <trkpt lat="42.9778" lon="1.04822">
        <ele>867.6</ele>
        <time>2022-01-29T13:26:39.000Z</time>
      </trkpt>
      <trkpt lat="42.97788" lon="1.04802">
        <ele>867.9</ele>
        <time>2022-01-29T13:26:41.000Z</time>
      </trkpt>
      <trkpt lat="42.978" lon="1.04789">
        <ele>867.3</ele>
        <time>2022-01-29T13:26:43.000Z</time>
      </trkpt>
      <trkpt lat="42.97815" lon="1.04778">
        <ele>864.8</ele>
        <time>2022-01-29T13:26:45.000Z</time>
      </trkpt>
      <trkpt lat="42.9783" lon="1.04765">
        <ele>863.4</ele>
        <time>2022-01-29T13:26:47.000Z</time>
      </trkpt>
      <trkpt lat="42.97844" lon="1.0475">
        <ele>861.5</ele>
        <time>2022-01-29T13:26:49.000Z</time>
      </trkpt>
      <trkpt lat="42.97858" lon="1.04739">
        <ele>859</ele>
        <time>2022-01-29T13:26:51.000Z</time>
      </trkpt>
      <trkpt lat="42.97867" lon="1.04734">
        <ele>858.5</ele>
        <time>2022-01-29T13:26:52.000Z</time>
      </trkpt>
      <trkpt lat="42.97886" lon="1.04733">
        <ele>857.8</ele>
        <time>2022-01-29T13:26:54.000Z</time>
      </trkpt>
      <trkpt lat="42.97896" lon="1.04733">
        <ele>857.3</ele>
        <time>2022-01-29T13:26:55.000Z</time>
      </trkpt>
      <trkpt lat="42.97907" lon="1.04735">
        <ele>856.9</ele>
        <time>2022-01-29T13:26:56.000Z</time>
      </trkpt>
      <trkpt lat="42.97916" lon="1.04737">
        <ele>856.7</ele>
        <time>2022-01-29T13:26:57.000Z</time>
      </trkpt>
      <trkpt lat="42.97926" lon="1.04737">
        <ele>855.8</ele>
        <time>2022-01-29T13:26:58.000Z</time>
      </trkpt>
      <trkpt lat="42.97935" lon="1.04735">
        <ele>855</ele>
        <time>2022-01-29T13:26:59.000Z</time>
      </trkpt>
      <trkpt lat="42.97945" lon="1.04732">
        <ele>854.4</ele>
        <time>2022-01-29T13:27:00.000Z</time>
      </trkpt>
      <trkpt lat="42.97953" lon="1.04728">
        <ele>853.9</ele>
        <time>2022-01-29T13:27:01.000Z</time>
      </trkpt>
      <trkpt lat="42.97962" lon="1.04724">
        <ele>853.5</ele>
        <time>2022-01-29T13:27:02.000Z</time>
      </trkpt>
      <trkpt lat="42.9797" lon="1.04719">
        <ele>853.1</ele>
        <time>2022-01-29T13:27:03.000Z</time>
      </trkpt>
      <trkpt lat="42.97986" lon="1.04709">
        <ele>851.8</ele>
        <time>2022-01-29T13:27:05.000Z</time>
      </trkpt>
      <trkpt lat="42.98001" lon="1.04698">
        <ele>850.3</ele>
        <time>2022-01-29T13:27:07.000Z</time>
      </trkpt>
      <trkpt lat="42.98017" lon="1.04693">
        <ele>849.1</ele>
        <time>2022-01-29T13:27:09.000Z</time>
      </trkpt>
      <trkpt lat="42.98032" lon="1.04693">
        <ele>847.6</ele>
        <time>2022-01-29T13:27:11.000Z</time>
      </trkpt>
      <trkpt lat="42.98046" lon="1.0469">
        <ele>847.2</ele>
        <time>2022-01-29T13:27:13.000Z</time>
      </trkpt>
      <trkpt lat="42.98058" lon="1.0468">
        <ele>845.9</ele>
        <time>2022-01-29T13:27:15.000Z</time>
      </trkpt>
      <trkpt lat="42.98067" lon="1.04664">
        <ele>844.6</ele>
        <time>2022-01-29T13:27:17.000Z</time>
      </trkpt>
      <trkpt lat="42.98071" lon="1.04645">
        <ele>843.8</ele>
        <time>2022-01-29T13:27:19.000Z</time>
      </trkpt>
      <trkpt lat="42.98071" lon="1.04626">
        <ele>842.4</ele>
        <time>2022-01-29T13:27:21.000Z</time>
      </trkpt>
      <trkpt lat="42.98069" lon="1.04608">
        <ele>841.6</ele>
        <time>2022-01-29T13:27:23.000Z</time>
      </trkpt>
      <trkpt lat="42.98068" lon="1.04588">
        <ele>840.6</ele>
        <time>2022-01-29T13:27:25.000Z</time>
      </trkpt>
      <trkpt lat="42.98067" lon="1.04569">
        <ele>839</ele>
        <time>2022-01-29T13:27:27.000Z</time>
      </trkpt>
      <trkpt lat="42.98065" lon="1.0455">
        <ele>837.8</ele>
        <time>2022-01-29T13:27:29.000Z</time>
      </trkpt>
      <trkpt lat="42.98063" lon="1.0453">
        <ele>836.7</ele>
        <time>2022-01-29T13:27:31.000Z</time>
      </trkpt>
      <trkpt lat="42.98062" lon="1.0451">
        <ele>836.2</ele>
        <time>2022-01-29T13:27:33.000Z</time>
      </trkpt>
      <trkpt lat="42.9806" lon="1.0449">
        <ele>835.3</ele>
        <time>2022-01-29T13:27:35.000Z</time>
      </trkpt>
      <trkpt lat="42.98056" lon="1.0447">
        <ele>834.2</ele>
        <time>2022-01-29T13:27:37.000Z</time>
      </trkpt>
      <trkpt lat="42.98053" lon="1.0445">
        <ele>833.7</ele>
        <time>2022-01-29T13:27:39.000Z</time>
      </trkpt>
      <trkpt lat="42.98058" lon="1.04431">
        <ele>832.1</ele>
        <time>2022-01-29T13:27:41.000Z</time>
      </trkpt>
      <trkpt lat="42.98066" lon="1.04419">
        <ele>830.9</ele>
        <time>2022-01-29T13:27:43.000Z</time>
      </trkpt>
      <trkpt lat="42.98075" lon="1.04408">
        <ele>829.5</ele>
        <time>2022-01-29T13:27:46.000Z</time>
      </trkpt>
      <trkpt lat="42.98079" lon="1.04394">
        <ele>828.4</ele>
        <time>2022-01-29T13:27:49.000Z</time>
      </trkpt>
      <trkpt lat="42.9808" lon="1.0438">
        <ele>827.7</ele>
        <time>2022-01-29T13:27:52.000Z</time>
      </trkpt>
      <trkpt lat="42.98079" lon="1.04364">
        <ele>826.7</ele>
        <time>2022-01-29T13:27:56.000Z</time>
      </trkpt>
      <trkpt lat="42.98079" lon="1.04349">
        <ele>824.9</ele>
        <time>2022-01-29T13:28:00.000Z</time>
      </trkpt>
      <trkpt lat="42.98078" lon="1.04335">
        <ele>823.6</ele>
        <time>2022-01-29T13:28:04.000Z</time>
      </trkpt>
      <trkpt lat="42.98078" lon="1.0432">
        <ele>822.7</ele>
        <time>2022-01-29T13:28:08.000Z</time>
      </trkpt>
      <trkpt lat="42.98078" lon="1.04305">
        <ele>821.2</ele>
        <time>2022-01-29T13:28:12.000Z</time>
      </trkpt>
      <trkpt lat="42.98076" lon="1.04291">
        <ele>820.1</ele>
        <time>2022-01-29T13:28:16.000Z</time>
      </trkpt>
      <trkpt lat="42.98073" lon="1.04276">
        <ele>819.8</ele>
        <time>2022-01-29T13:28:20.000Z</time>
      </trkpt>
      <trkpt lat="42.98071" lon="1.04261">
        <ele>818.5</ele>
        <time>2022-01-29T13:28:24.000Z</time>
      </trkpt>
      <trkpt lat="42.98069" lon="1.04246">
        <ele>817.9</ele>
        <time>2022-01-29T13:28:28.000Z</time>
      </trkpt>
      <trkpt lat="42.98068" lon="1.04231">
        <ele>817.4</ele>
        <time>2022-01-29T13:28:32.000Z</time>
      </trkpt>
      <trkpt lat="42.98067" lon="1.04216">
        <ele>816.4</ele>
        <time>2022-01-29T13:28:36.000Z</time>
      </trkpt>
      <trkpt lat="42.98066" lon="1.042">
        <ele>816</ele>
        <time>2022-01-29T13:28:40.000Z</time>
      </trkpt>
      <trkpt lat="42.98064" lon="1.04184">
        <ele>815.4</ele>
        <time>2022-01-29T13:28:44.000Z</time>
      </trkpt>
      <trkpt lat="42.98062" lon="1.04168">
        <ele>814.8</ele>
        <time>2022-01-29T13:28:48.000Z</time>
      </trkpt>
      <trkpt lat="42.98061" lon="1.04156">
        <ele>814.6</ele>
        <time>2022-01-29T13:28:51.000Z</time>
      </trkpt>
      <trkpt lat="42.98059" lon="1.04143">
        <ele>814.7</ele>
        <time>2022-01-29T13:28:54.000Z</time>
      </trkpt>
      <trkpt lat="42.98056" lon="1.04131">
        <ele>814.5</ele>
        <time>2022-01-29T13:28:57.000Z</time>
      </trkpt>
      <trkpt lat="42.98053" lon="1.04119">
        <ele>814.6</ele>
        <time>2022-01-29T13:29:00.000Z</time>
      </trkpt>
      <trkpt lat="42.98052" lon="1.04106">
        <ele>814.1</ele>
        <time>2022-01-29T13:29:03.000Z</time>
      </trkpt>
      <trkpt lat="42.98051" lon="1.04093">
        <ele>814.1</ele>
        <time>2022-01-29T13:29:06.000Z</time>
      </trkpt>
      <trkpt lat="42.98049" lon="1.0408">
        <ele>814.1</ele>
        <time>2022-01-29T13:29:09.000Z</time>
      </trkpt>
      <trkpt lat="42.98048" lon="1.04067">
        <ele>814.5</ele>
        <time>2022-01-29T13:29:12.000Z</time>
      </trkpt>
      <trkpt lat="42.98046" lon="1.04055">
        <ele>814.2</ele>
        <time>2022-01-29T13:29:15.000Z</time>
      </trkpt>
      <trkpt lat="42.98046" lon="1.04041">
        <ele>814.3</ele>
        <time>2022-01-29T13:29:18.000Z</time>
      </trkpt>
      <trkpt lat="42.98044" lon="1.04029">
        <ele>814.5</ele>
        <time>2022-01-29T13:29:21.000Z</time>
      </trkpt>
      <trkpt lat="42.98044" lon="1.04016">
        <ele>814.3</ele>
        <time>2022-01-29T13:29:24.000Z</time>
      </trkpt>
      <trkpt lat="42.98044" lon="1.04003">
        <ele>814.4</ele>
        <time>2022-01-29T13:29:27.000Z</time>
      </trkpt>
      <trkpt lat="42.98046" lon="1.0399">
        <ele>814.5</ele>
        <time>2022-01-29T13:29:30.000Z</time>
      </trkpt>
      <trkpt lat="42.98047" lon="1.03977">
        <ele>814.7</ele>
        <time>2022-01-29T13:29:33.000Z</time>
      </trkpt>
      <trkpt lat="42.98047" lon="1.03964">
        <ele>814.8</ele>
        <time>2022-01-29T13:29:36.000Z</time>
      </trkpt>
      <trkpt lat="42.98044" lon="1.03949">
        <ele>815.2</ele>
        <time>2022-01-29T13:29:40.000Z</time>
      </trkpt>
      <trkpt lat="42.9804" lon="1.03936">
        <ele>814.7</ele>
        <time>2022-01-29T13:29:43.000Z</time>
      </trkpt>
      <trkpt lat="42.98036" lon="1.03924">
        <ele>815.7</ele>
        <time>2022-01-29T13:29:46.000Z</time>
      </trkpt>
      <trkpt lat="42.98033" lon="1.03912">
        <ele>816.3</ele>
        <time>2022-01-29T13:29:49.000Z</time>
      </trkpt>
      <trkpt lat="42.98029" lon="1.03897">
        <ele>816.7</ele>
        <time>2022-01-29T13:29:53.000Z</time>
      </trkpt>
      <trkpt lat="42.98026" lon="1.03885">
        <ele>816.9</ele>
        <time>2022-01-29T13:29:56.000Z</time>
      </trkpt>
      <trkpt lat="42.98023" lon="1.03872">
        <ele>817.2</ele>
        <time>2022-01-29T13:29:59.000Z</time>
      </trkpt>
      <trkpt lat="42.9802" lon="1.0386">
        <ele>817.9</ele>
        <time>2022-01-29T13:30:02.000Z</time>
      </trkpt>
      <trkpt lat="42.98022" lon="1.03844">
        <ele>818.7</ele>
        <time>2022-01-29T13:30:06.000Z</time>
      </trkpt>
      <trkpt lat="42.9803" lon="1.03838">
        <ele>819.2</ele>
        <time>2022-01-29T13:30:09.000Z</time>
      </trkpt>
      <trkpt lat="42.9804" lon="1.03837">
        <ele>819.3</ele>
        <time>2022-01-29T13:30:12.000Z</time>
      </trkpt>
      <trkpt lat="42.98051" lon="1.03837">
        <ele>819.6</ele>
        <time>2022-01-29T13:30:15.000Z</time>
      </trkpt>
      <trkpt lat="42.98062" lon="1.03837">
        <ele>820.2</ele>
        <time>2022-01-29T13:30:18.000Z</time>
      </trkpt>
      <trkpt lat="42.98073" lon="1.03838">
        <ele>820.6</ele>
        <time>2022-01-29T13:30:21.000Z</time>
      </trkpt>
      <trkpt lat="42.98085" lon="1.03839">
        <ele>821.1</ele>
        <time>2022-01-29T13:30:24.000Z</time>
      </trkpt>
      <trkpt lat="42.98096" lon="1.03841">
        <ele>821.5</ele>
        <time>2022-01-29T13:30:27.000Z</time>
      </trkpt>
      <trkpt lat="42.98105" lon="1.03844">
        <ele>821.7</ele>
        <time>2022-01-29T13:30:30.000Z</time>
      </trkpt>
      <trkpt lat="42.98115" lon="1.03848">
        <ele>821.9</ele>
        <time>2022-01-29T13:30:33.000Z</time>
      </trkpt>
      <trkpt lat="42.98126" lon="1.03851">
        <ele>822.2</ele>
        <time>2022-01-29T13:30:36.000Z</time>
      </trkpt>
      <trkpt lat="42.98137" lon="1.03853">
        <ele>822.3</ele>
        <time>2022-01-29T13:30:39.000Z</time>
      </trkpt>
      <trkpt lat="42.98147" lon="1.03856">
        <ele>822.5</ele>
        <time>2022-01-29T13:30:42.000Z</time>
      </trkpt>
      <trkpt lat="42.98157" lon="1.03858">
        <ele>822.8</ele>
        <time>2022-01-29T13:30:45.000Z</time>
      </trkpt>
      <trkpt lat="42.98167" lon="1.03861">
        <ele>823</ele>
        <time>2022-01-29T13:30:48.000Z</time>
      </trkpt>
      <trkpt lat="42.98176" lon="1.03863">
        <ele>823.3</ele>
        <time>2022-01-29T13:30:51.000Z</time>
      </trkpt>
      <trkpt lat="42.98186" lon="1.03865">
        <ele>823.3</ele>
        <time>2022-01-29T13:30:54.000Z</time>
      </trkpt>
      <trkpt lat="42.98196" lon="1.03867">
        <ele>823.3</ele>
        <time>2022-01-29T13:30:57.000Z</time>
      </trkpt>
      <trkpt lat="42.98206" lon="1.03867">
        <ele>823.3</ele>
        <time>2022-01-29T13:31:00.000Z</time>
      </trkpt>
      <trkpt lat="42.98215" lon="1.03868">
        <ele>823.2</ele>
        <time>2022-01-29T13:31:03.000Z</time>
      </trkpt>
      <trkpt lat="42.98225" lon="1.0387">
        <ele>823</ele>
        <time>2022-01-29T13:31:06.000Z</time>
      </trkpt>
      <trkpt lat="42.98234" lon="1.03873">
        <ele>822.9</ele>
        <time>2022-01-29T13:31:09.000Z</time>
      </trkpt>
      <trkpt lat="42.98244" lon="1.03876">
        <ele>823</ele>
        <time>2022-01-29T13:31:12.000Z</time>
      </trkpt>
      <trkpt lat="42.98253" lon="1.03881">
        <ele>822.9</ele>
        <time>2022-01-29T13:31:15.000Z</time>
      </trkpt>
      <trkpt lat="42.98262" lon="1.03886">
        <ele>822.7</ele>
        <time>2022-01-29T13:31:18.000Z</time>
      </trkpt>
      <trkpt lat="42.98271" lon="1.03892">
        <ele>823</ele>
        <time>2022-01-29T13:31:21.000Z</time>
      </trkpt>
      <trkpt lat="42.9828" lon="1.03898">
        <ele>822.4</ele>
        <time>2022-01-29T13:31:24.000Z</time>
      </trkpt>
      <trkpt lat="42.98288" lon="1.03905">
        <ele>822</ele>
        <time>2022-01-29T13:31:27.000Z</time>
      </trkpt>
      <trkpt lat="42.98297" lon="1.0391">
        <ele>821.7</ele>
        <time>2022-01-29T13:31:30.000Z</time>
      </trkpt>
      <trkpt lat="42.98306" lon="1.03913">
        <ele>821.4</ele>
        <time>2022-01-29T13:31:33.000Z</time>
      </trkpt>
      <trkpt lat="42.98315" lon="1.03917">
        <ele>821.5</ele>
        <time>2022-01-29T13:31:36.000Z</time>
      </trkpt>
      <trkpt lat="42.98325" lon="1.0392">
        <ele>821.4</ele>
        <time>2022-01-29T13:31:39.000Z</time>
      </trkpt>
      <trkpt lat="42.98334" lon="1.03926">
        <ele>820.8</ele>
        <time>2022-01-29T13:31:42.000Z</time>
      </trkpt>
      <trkpt lat="42.98343" lon="1.0393">
        <ele>820.4</ele>
        <time>2022-01-29T13:31:45.000Z</time>
      </trkpt>
      <trkpt lat="42.98352" lon="1.03934">
        <ele>820.5</ele>
        <time>2022-01-29T13:31:48.000Z</time>
      </trkpt>
      <trkpt lat="42.98362" lon="1.03935">
        <ele>820.2</ele>
        <time>2022-01-29T13:31:51.000Z</time>
      </trkpt>
      <trkpt lat="42.98372" lon="1.03935">
        <ele>820.4</ele>
        <time>2022-01-29T13:31:54.000Z</time>
      </trkpt>
      <trkpt lat="42.98381" lon="1.03934">
        <ele>820.2</ele>
        <time>2022-01-29T13:31:57.000Z</time>
      </trkpt>
      <trkpt lat="42.9839" lon="1.03932">
        <ele>820.4</ele>
        <time>2022-01-29T13:32:00.000Z</time>
      </trkpt>
      <trkpt lat="42.98399" lon="1.03929">
        <ele>820.4</ele>
        <time>2022-01-29T13:32:03.000Z</time>
      </trkpt>
      <trkpt lat="42.9841" lon="1.03922">
        <ele>820.1</ele>
        <time>2022-01-29T13:32:07.000Z</time>
      </trkpt>
      <trkpt lat="42.98419" lon="1.03913">
        <ele>820.2</ele>
        <time>2022-01-29T13:32:11.000Z</time>
      </trkpt>
      <trkpt lat="42.98427" lon="1.03903">
        <ele>820.2</ele>
        <time>2022-01-29T13:32:15.000Z</time>
      </trkpt>
      <trkpt lat="42.98434" lon="1.03892">
        <ele>820.9</ele>
        <time>2022-01-29T13:32:19.000Z</time>
      </trkpt>
      <trkpt lat="42.98442" lon="1.03884">
        <ele>821.4</ele>
        <time>2022-01-29T13:32:22.000Z</time>
      </trkpt>
      <trkpt lat="42.98451" lon="1.03874">
        <ele>821.9</ele>
        <time>2022-01-29T13:32:26.000Z</time>
      </trkpt>
      <trkpt lat="42.9846" lon="1.03864">
        <ele>822.2</ele>
        <time>2022-01-29T13:32:30.000Z</time>
      </trkpt>
      <trkpt lat="42.98468" lon="1.03856">
        <ele>822.9</ele>
        <time>2022-01-29T13:32:33.000Z</time>
      </trkpt>
      <trkpt lat="42.98477" lon="1.0385">
        <ele>823.3</ele>
        <time>2022-01-29T13:32:36.000Z</time>
      </trkpt>
      <trkpt lat="42.98487" lon="1.03844">
        <ele>824</ele>
        <time>2022-01-29T13:32:40.000Z</time>
      </trkpt>
      <trkpt lat="42.98495" lon="1.03837">
        <ele>824.7</ele>
        <time>2022-01-29T13:32:43.000Z</time>
      </trkpt>
      <trkpt lat="42.98501" lon="1.03827">
        <ele>824.7</ele>
        <time>2022-01-29T13:32:46.000Z</time>
      </trkpt>
      <trkpt lat="42.98508" lon="1.03814">
        <ele>824.9</ele>
        <time>2022-01-29T13:32:50.000Z</time>
      </trkpt>
      <trkpt lat="42.98514" lon="1.038">
        <ele>825.4</ele>
        <time>2022-01-29T13:32:54.000Z</time>
      </trkpt>
      <trkpt lat="42.98517" lon="1.03789">
        <ele>825.3</ele>
        <time>2022-01-29T13:32:57.000Z</time>
      </trkpt>
      <trkpt lat="42.98521" lon="1.03775">
        <ele>825.3</ele>
        <time>2022-01-29T13:33:01.000Z</time>
      </trkpt>
      <trkpt lat="42.98525" lon="1.0376">
        <ele>825</ele>
        <time>2022-01-29T13:33:05.000Z</time>
      </trkpt>
      <trkpt lat="42.98528" lon="1.03745">
        <ele>825.8</ele>
        <time>2022-01-29T13:33:09.000Z</time>
      </trkpt>
      <trkpt lat="42.98532" lon="1.03731">
        <ele>825.4</ele>
        <time>2022-01-29T13:33:13.000Z</time>
      </trkpt>
      <trkpt lat="42.98535" lon="1.03715">
        <ele>825.7</ele>
        <time>2022-01-29T13:33:17.000Z</time>
      </trkpt>
      <trkpt lat="42.98539" lon="1.037">
        <ele>826.1</ele>
        <time>2022-01-29T13:33:21.000Z</time>
      </trkpt>
      <trkpt lat="42.98542" lon="1.03688">
        <ele>826.1</ele>
        <time>2022-01-29T13:33:24.000Z</time>
      </trkpt>
      <trkpt lat="42.98546" lon="1.03672">
        <ele>826</ele>
        <time>2022-01-29T13:33:28.000Z</time>
      </trkpt>
      <trkpt lat="42.98549" lon="1.0366">
        <ele>826.1</ele>
        <time>2022-01-29T13:33:31.000Z</time>
      </trkpt>
      <trkpt lat="42.98552" lon="1.03647">
        <ele>826.3</ele>
        <time>2022-01-29T13:33:34.000Z</time>
      </trkpt>
      <trkpt lat="42.98554" lon="1.03633">
        <ele>826.8</ele>
        <time>2022-01-29T13:33:37.000Z</time>
      </trkpt>
      <trkpt lat="42.98556" lon="1.0362">
        <ele>827.3</ele>
        <time>2022-01-29T13:33:40.000Z</time>
      </trkpt>
      <trkpt lat="42.98558" lon="1.03606">
        <ele>827.9</ele>
        <time>2022-01-29T13:33:43.000Z</time>
      </trkpt>
      <trkpt lat="42.98559" lon="1.03593">
        <ele>828.7</ele>
        <time>2022-01-29T13:33:46.000Z</time>
      </trkpt>
      <trkpt lat="42.98559" lon="1.0358">
        <ele>829.4</ele>
        <time>2022-01-29T13:33:49.000Z</time>
      </trkpt>
      <trkpt lat="42.9856" lon="1.03568">
        <ele>830.6</ele>
        <time>2022-01-29T13:33:52.000Z</time>
      </trkpt>
      <trkpt lat="42.9856" lon="1.03556">
        <ele>830.7</ele>
        <time>2022-01-29T13:33:55.000Z</time>
      </trkpt>
      <trkpt lat="42.98561" lon="1.0354">
        <ele>831.5</ele>
        <time>2022-01-29T13:33:59.000Z</time>
      </trkpt>
      <trkpt lat="42.9856" lon="1.03526">
        <ele>832.6</ele>
        <time>2022-01-29T13:34:03.000Z</time>
      </trkpt>
      <trkpt lat="42.9856" lon="1.03514">
        <ele>833.6</ele>
        <time>2022-01-29T13:34:08.000Z</time>
      </trkpt>
      <trkpt lat="42.98561" lon="1.03501">
        <ele>835.2</ele>
        <time>2022-01-29T13:34:13.000Z</time>
      </trkpt>
      <trkpt lat="42.9856" lon="1.03487">
        <ele>836.1</ele>
        <time>2022-01-29T13:34:18.000Z</time>
      </trkpt>
      <trkpt lat="42.98561" lon="1.03473">
        <ele>837.4</ele>
        <time>2022-01-29T13:34:23.000Z</time>
      </trkpt>
      <trkpt lat="42.98561" lon="1.0346">
        <ele>838.2</ele>
        <time>2022-01-29T13:34:27.000Z</time>
      </trkpt>
      <trkpt lat="42.98561" lon="1.03446">
        <ele>839.8</ele>
        <time>2022-01-29T13:34:31.000Z</time>
      </trkpt>
      <trkpt lat="42.98562" lon="1.03432">
        <ele>840.4</ele>
        <time>2022-01-29T13:34:35.000Z</time>
      </trkpt>
      <trkpt lat="42.98563" lon="1.03418">
        <ele>841.2</ele>
        <time>2022-01-29T13:34:39.000Z</time>
      </trkpt>
      <trkpt lat="42.98564" lon="1.03404">
        <ele>842.4</ele>
        <time>2022-01-29T13:34:43.000Z</time>
      </trkpt>
      <trkpt lat="42.98565" lon="1.03389">
        <ele>843.8</ele>
        <time>2022-01-29T13:34:47.000Z</time>
      </trkpt>
      <trkpt lat="42.98566" lon="1.03374">
        <ele>844.5</ele>
        <time>2022-01-29T13:34:51.000Z</time>
      </trkpt>
      <trkpt lat="42.98567" lon="1.0336">
        <ele>845.3</ele>
        <time>2022-01-29T13:34:55.000Z</time>
      </trkpt>
      <trkpt lat="42.98568" lon="1.03344">
        <ele>846.6</ele>
        <time>2022-01-29T13:34:59.000Z</time>
      </trkpt>
      <trkpt lat="42.98568" lon="1.03329">
        <ele>847</ele>
        <time>2022-01-29T13:35:03.000Z</time>
      </trkpt>
      <trkpt lat="42.98569" lon="1.03314">
        <ele>847.6</ele>
        <time>2022-01-29T13:35:07.000Z</time>
      </trkpt>
      <trkpt lat="42.9857" lon="1.03299">
        <ele>848.9</ele>
        <time>2022-01-29T13:35:11.000Z</time>
      </trkpt>
      <trkpt lat="42.98572" lon="1.03284">
        <ele>849.5</ele>
        <time>2022-01-29T13:35:15.000Z</time>
      </trkpt>
      <trkpt lat="42.98573" lon="1.03269">
        <ele>850.8</ele>
        <time>2022-01-29T13:35:19.000Z</time>
      </trkpt>
      <trkpt lat="42.98574" lon="1.03255">
        <ele>851</ele>
        <time>2022-01-29T13:35:23.000Z</time>
      </trkpt>
      <trkpt lat="42.98573" lon="1.0324">
        <ele>852.6</ele>
        <time>2022-01-29T13:35:27.000Z</time>
      </trkpt>
      <trkpt lat="42.98572" lon="1.03226">
        <ele>853.1</ele>
        <time>2022-01-29T13:35:31.000Z</time>
      </trkpt>
      <trkpt lat="42.98571" lon="1.03211">
        <ele>853.7</ele>
        <time>2022-01-29T13:35:35.000Z</time>
      </trkpt>
      <trkpt lat="42.9857" lon="1.03197">
        <ele>854.8</ele>
        <time>2022-01-29T13:35:39.000Z</time>
      </trkpt>
      <trkpt lat="42.98569" lon="1.03183">
        <ele>855.3</ele>
        <time>2022-01-29T13:35:43.000Z</time>
      </trkpt>
      <trkpt lat="42.98568" lon="1.03169">
        <ele>856.6</ele>
        <time>2022-01-29T13:35:47.000Z</time>
      </trkpt>
      <trkpt lat="42.98567" lon="1.03155">
        <ele>857</ele>
        <time>2022-01-29T13:35:51.000Z</time>
      </trkpt>
      <trkpt lat="42.98564" lon="1.03142">
        <ele>857.9</ele>
        <time>2022-01-29T13:35:55.000Z</time>
      </trkpt>
      <trkpt lat="42.9856" lon="1.03131">
        <ele>858.5</ele>
        <time>2022-01-29T13:35:59.000Z</time>
      </trkpt>
      <trkpt lat="42.98557" lon="1.03116">
        <ele>859.4</ele>
        <time>2022-01-29T13:36:04.000Z</time>
      </trkpt>
      <trkpt lat="42.98553" lon="1.03102">
        <ele>860.5</ele>
        <time>2022-01-29T13:36:09.000Z</time>
      </trkpt>
      <trkpt lat="42.98549" lon="1.03091">
        <ele>861.3</ele>
        <time>2022-01-29T13:36:13.000Z</time>
      </trkpt>
      <trkpt lat="42.98545" lon="1.0308">
        <ele>862.4</ele>
        <time>2022-01-29T13:36:17.000Z</time>
      </trkpt>
      <trkpt lat="42.98542" lon="1.03066">
        <ele>863</ele>
        <time>2022-01-29T13:36:22.000Z</time>
      </trkpt>
      <trkpt lat="42.98539" lon="1.03054">
        <ele>863.5</ele>
        <time>2022-01-29T13:36:26.000Z</time>
      </trkpt>
      <trkpt lat="42.98535" lon="1.0304">
        <ele>864.8</ele>
        <time>2022-01-29T13:36:31.000Z</time>
      </trkpt>
      <trkpt lat="42.98531" lon="1.03025">
        <ele>866</ele>
        <time>2022-01-29T13:36:36.000Z</time>
      </trkpt>
      <trkpt lat="42.98528" lon="1.03011">
        <ele>866.3</ele>
        <time>2022-01-29T13:36:41.000Z</time>
      </trkpt>
      <trkpt lat="42.98524" lon="1.02998">
        <ele>867.6</ele>
        <time>2022-01-29T13:36:46.000Z</time>
      </trkpt>
      <trkpt lat="42.98519" lon="1.02984">
        <ele>868.4</ele>
        <time>2022-01-29T13:36:51.000Z</time>
      </trkpt>
      <trkpt lat="42.98513" lon="1.02971">
        <ele>869.6</ele>
        <time>2022-01-29T13:36:56.000Z</time>
      </trkpt>
      <trkpt lat="42.98509" lon="1.02958">
        <ele>870.1</ele>
        <time>2022-01-29T13:37:01.000Z</time>
      </trkpt>
      <trkpt lat="42.98504" lon="1.02946">
        <ele>870.6</ele>
        <time>2022-01-29T13:37:05.000Z</time>
      </trkpt>
      <trkpt lat="42.985" lon="1.02935">
        <ele>871.6</ele>
        <time>2022-01-29T13:37:09.000Z</time>
      </trkpt>
      <trkpt lat="42.98496" lon="1.02921">
        <ele>872.4</ele>
        <time>2022-01-29T13:37:14.000Z</time>
      </trkpt>
      <trkpt lat="42.98492" lon="1.02909">
        <ele>873.1</ele>
        <time>2022-01-29T13:37:18.000Z</time>
      </trkpt>
      <trkpt lat="42.98489" lon="1.02895">
        <ele>874.5</ele>
        <time>2022-01-29T13:37:23.000Z</time>
      </trkpt>
      <trkpt lat="42.98486" lon="1.02882">
        <ele>875</ele>
        <time>2022-01-29T13:37:27.000Z</time>
      </trkpt>
      <trkpt lat="42.98483" lon="1.0287">
        <ele>876.4</ele>
        <time>2022-01-29T13:37:31.000Z</time>
      </trkpt>
      <trkpt lat="42.9848" lon="1.02855">
        <ele>877.3</ele>
        <time>2022-01-29T13:37:36.000Z</time>
      </trkpt>
      <trkpt lat="42.98476" lon="1.02843">
        <ele>877.9</ele>
        <time>2022-01-29T13:37:40.000Z</time>
      </trkpt>
      <trkpt lat="42.98472" lon="1.0283">
        <ele>879.2</ele>
        <time>2022-01-29T13:37:44.000Z</time>
      </trkpt>
      <trkpt lat="42.98468" lon="1.02819">
        <ele>880.1</ele>
        <time>2022-01-29T13:37:48.000Z</time>
      </trkpt>
      <trkpt lat="42.98463" lon="1.02807">
        <ele>880.8</ele>
        <time>2022-01-29T13:37:52.000Z</time>
      </trkpt>
      <trkpt lat="42.98459" lon="1.02796">
        <ele>881.7</ele>
        <time>2022-01-29T13:37:56.000Z</time>
      </trkpt>
      <trkpt lat="42.98455" lon="1.02784">
        <ele>882.6</ele>
        <time>2022-01-29T13:38:00.000Z</time>
      </trkpt>
      <trkpt lat="42.98451" lon="1.0277">
        <ele>883.8</ele>
        <time>2022-01-29T13:38:05.000Z</time>
      </trkpt>
      <trkpt lat="42.98448" lon="1.02759">
        <ele>884.7</ele>
        <time>2022-01-29T13:38:09.000Z</time>
      </trkpt>
      <trkpt lat="42.98445" lon="1.02747">
        <ele>885.8</ele>
        <time>2022-01-29T13:38:13.000Z</time>
      </trkpt>
      <trkpt lat="42.98442" lon="1.02734">
        <ele>886.7</ele>
        <time>2022-01-29T13:38:17.000Z</time>
      </trkpt>
      <trkpt lat="42.9844" lon="1.02721">
        <ele>887.8</ele>
        <time>2022-01-29T13:38:21.000Z</time>
      </trkpt>
      <trkpt lat="42.98439" lon="1.02708">
        <ele>888.6</ele>
        <time>2022-01-29T13:38:25.000Z</time>
      </trkpt>
      <trkpt lat="42.98438" lon="1.02694">
        <ele>889.6</ele>
        <time>2022-01-29T13:38:29.000Z</time>
      </trkpt>
      <trkpt lat="42.98437" lon="1.02681">
        <ele>890.8</ele>
        <time>2022-01-29T13:38:33.000Z</time>
      </trkpt>
      <trkpt lat="42.98429" lon="1.02675">
        <ele>891.6</ele>
        <time>2022-01-29T13:38:38.000Z</time>
      </trkpt>
      <trkpt lat="42.98427" lon="1.02689">
        <ele>892.1</ele>
        <time>2022-01-29T13:38:42.000Z</time>
      </trkpt>
      <trkpt lat="42.9843" lon="1.02702">
        <ele>892.5</ele>
        <time>2022-01-29T13:38:46.000Z</time>
      </trkpt>
      <trkpt lat="42.98431" lon="1.02716">
        <ele>893.3</ele>
        <time>2022-01-29T13:38:50.000Z</time>
      </trkpt>
      <trkpt lat="42.98433" lon="1.0273">
        <ele>893.5</ele>
        <time>2022-01-29T13:38:54.000Z</time>
      </trkpt>
      <trkpt lat="42.98434" lon="1.02744">
        <ele>895.1</ele>
        <time>2022-01-29T13:38:58.000Z</time>
      </trkpt>
      <trkpt lat="42.98436" lon="1.02758">
        <ele>895.4</ele>
        <time>2022-01-29T13:39:02.000Z</time>
      </trkpt>
      <trkpt lat="42.98437" lon="1.02773">
        <ele>896.7</ele>
        <time>2022-01-29T13:39:06.000Z</time>
      </trkpt>
      <trkpt lat="42.98437" lon="1.02786">
        <ele>897.2</ele>
        <time>2022-01-29T13:39:10.000Z</time>
      </trkpt>
      <trkpt lat="42.98435" lon="1.028">
        <ele>897.8</ele>
        <time>2022-01-29T13:39:14.000Z</time>
      </trkpt>
      <trkpt lat="42.98434" lon="1.02814">
        <ele>898.9</ele>
        <time>2022-01-29T13:39:18.000Z</time>
      </trkpt>
      <trkpt lat="42.98433" lon="1.02827">
        <ele>899.8</ele>
        <time>2022-01-29T13:39:22.000Z</time>
      </trkpt>
      <trkpt lat="42.98433" lon="1.0284">
        <ele>900.7</ele>
        <time>2022-01-29T13:39:26.000Z</time>
      </trkpt>
      <trkpt lat="42.98434" lon="1.02853">
        <ele>901.2</ele>
        <time>2022-01-29T13:39:30.000Z</time>
      </trkpt>
      <trkpt lat="42.98438" lon="1.02866">
        <ele>901.8</ele>
        <time>2022-01-29T13:39:34.000Z</time>
      </trkpt>
      <trkpt lat="42.98439" lon="1.02878">
        <ele>902.7</ele>
        <time>2022-01-29T13:39:38.000Z</time>
      </trkpt>
      <trkpt lat="42.9843" lon="1.02871">
        <ele>903.6</ele>
        <time>2022-01-29T13:39:44.000Z</time>
      </trkpt>
      <trkpt lat="42.98429" lon="1.02858">
        <ele>904.4</ele>
        <time>2022-01-29T13:39:48.000Z</time>
      </trkpt>
      <trkpt lat="42.98426" lon="1.02844">
        <ele>905</ele>
        <time>2022-01-29T13:39:52.000Z</time>
      </trkpt>
      <trkpt lat="42.98423" lon="1.02832">
        <ele>905.5</ele>
        <time>2022-01-29T13:39:56.000Z</time>
      </trkpt>
      <trkpt lat="42.9842" lon="1.02819">
        <ele>906.5</ele>
        <time>2022-01-29T13:40:00.000Z</time>
      </trkpt>
      <trkpt lat="42.98417" lon="1.02806">
        <ele>907.2</ele>
        <time>2022-01-29T13:40:04.000Z</time>
      </trkpt>
      <trkpt lat="42.98414" lon="1.02792">
        <ele>908.2</ele>
        <time>2022-01-29T13:40:08.000Z</time>
      </trkpt>
      <trkpt lat="42.98411" lon="1.02779">
        <ele>909.1</ele>
        <time>2022-01-29T13:40:12.000Z</time>
      </trkpt>
      <trkpt lat="42.98408" lon="1.02767">
        <ele>909.4</ele>
        <time>2022-01-29T13:40:16.000Z</time>
      </trkpt>
      <trkpt lat="42.98406" lon="1.02754">
        <ele>910.3</ele>
        <time>2022-01-29T13:40:20.000Z</time>
      </trkpt>
      <trkpt lat="42.98404" lon="1.02741">
        <ele>911.4</ele>
        <time>2022-01-29T13:40:24.000Z</time>
      </trkpt>
      <trkpt lat="42.98403" lon="1.02729">
        <ele>911.8</ele>
        <time>2022-01-29T13:40:28.000Z</time>
      </trkpt>
      <trkpt lat="42.984" lon="1.02714">
        <ele>913</ele>
        <time>2022-01-29T13:40:33.000Z</time>
      </trkpt>
      <trkpt lat="42.98398" lon="1.027">
        <ele>914.2</ele>
        <time>2022-01-29T13:40:38.000Z</time>
      </trkpt>
      <trkpt lat="42.98394" lon="1.02689">
        <ele>915.9</ele>
        <time>2022-01-29T13:40:43.000Z</time>
      </trkpt>
      <trkpt lat="42.9839" lon="1.02675">
        <ele>916.5</ele>
        <time>2022-01-29T13:40:48.000Z</time>
      </trkpt>
      <trkpt lat="42.98383" lon="1.02665">
        <ele>917.3</ele>
        <time>2022-01-29T13:40:53.000Z</time>
      </trkpt>
      <trkpt lat="42.9838" lon="1.02653">
        <ele>919.6</ele>
        <time>2022-01-29T13:41:07.000Z</time>
      </trkpt>
      <trkpt lat="42.98375" lon="1.0264">
        <ele>920.5</ele>
        <time>2022-01-29T13:41:12.000Z</time>
      </trkpt>
      <trkpt lat="42.98369" lon="1.02627">
        <ele>920.9</ele>
        <time>2022-01-29T13:41:17.000Z</time>
      </trkpt>
      <trkpt lat="42.98364" lon="1.02613">
        <ele>921.8</ele>
        <time>2022-01-29T13:41:22.000Z</time>
      </trkpt>
      <trkpt lat="42.9836" lon="1.02601">
        <ele>922.5</ele>
        <time>2022-01-29T13:41:26.000Z</time>
      </trkpt>
      <trkpt lat="42.98357" lon="1.02587">
        <ele>923.1</ele>
        <time>2022-01-29T13:41:30.000Z</time>
      </trkpt>
      <trkpt lat="42.98354" lon="1.02574">
        <ele>923.9</ele>
        <time>2022-01-29T13:41:34.000Z</time>
      </trkpt>
      <trkpt lat="42.98351" lon="1.0256">
        <ele>924.7</ele>
        <time>2022-01-29T13:41:38.000Z</time>
      </trkpt>
      <trkpt lat="42.98348" lon="1.02547">
        <ele>924.9</ele>
        <time>2022-01-29T13:41:42.000Z</time>
      </trkpt>
      <trkpt lat="42.98347" lon="1.02533">
        <ele>925.7</ele>
        <time>2022-01-29T13:41:46.000Z</time>
      </trkpt>
      <trkpt lat="42.98352" lon="1.02521">
        <ele>926.4</ele>
        <time>2022-01-29T13:41:50.000Z</time>
      </trkpt>
      <trkpt lat="42.98362" lon="1.02512">
        <ele>927.7</ele>
        <time>2022-01-29T13:41:54.000Z</time>
      </trkpt>
      <trkpt lat="42.98371" lon="1.02506">
        <ele>928.4</ele>
        <time>2022-01-29T13:41:57.000Z</time>
      </trkpt>
      <trkpt lat="42.98379" lon="1.02498">
        <ele>928.7</ele>
        <time>2022-01-29T13:42:00.000Z</time>
      </trkpt>
      <trkpt lat="42.98385" lon="1.02487">
        <ele>929.4</ele>
        <time>2022-01-29T13:42:03.000Z</time>
      </trkpt>
      <trkpt lat="42.98388" lon="1.02473">
        <ele>929.7</ele>
        <time>2022-01-29T13:42:07.000Z</time>
      </trkpt>
      <trkpt lat="42.98391" lon="1.0246">
        <ele>930.5</ele>
        <time>2022-01-29T13:42:10.000Z</time>
      </trkpt>
      <trkpt lat="42.98393" lon="1.02446">
        <ele>931.2</ele>
        <time>2022-01-29T13:42:13.000Z</time>
      </trkpt>
      <trkpt lat="42.98396" lon="1.02433">
        <ele>931.2</ele>
        <time>2022-01-29T13:42:16.000Z</time>
      </trkpt>
      <trkpt lat="42.98399" lon="1.02421">
        <ele>931.4</ele>
        <time>2022-01-29T13:42:19.000Z</time>
      </trkpt>
      <trkpt lat="42.98402" lon="1.02409">
        <ele>932.1</ele>
        <time>2022-01-29T13:42:22.000Z</time>
      </trkpt>
      <trkpt lat="42.98405" lon="1.02397">
        <ele>932.2</ele>
        <time>2022-01-29T13:42:25.000Z</time>
      </trkpt>
      <trkpt lat="42.98407" lon="1.02385">
        <ele>932.3</ele>
        <time>2022-01-29T13:42:28.000Z</time>
      </trkpt>
      <trkpt lat="42.98408" lon="1.02372">
        <ele>932.9</ele>
        <time>2022-01-29T13:42:31.000Z</time>
      </trkpt>
      <trkpt lat="42.9841" lon="1.0236">
        <ele>932.9</ele>
        <time>2022-01-29T13:42:34.000Z</time>
      </trkpt>
      <trkpt lat="42.98414" lon="1.02347">
        <ele>933.6</ele>
        <time>2022-01-29T13:42:37.000Z</time>
      </trkpt>
      <trkpt lat="42.98418" lon="1.02335">
        <ele>933.9</ele>
        <time>2022-01-29T13:42:40.000Z</time>
      </trkpt>
      <trkpt lat="42.98419" lon="1.02322">
        <ele>934.4</ele>
        <time>2022-01-29T13:42:43.000Z</time>
      </trkpt>
      <trkpt lat="42.98422" lon="1.02309">
        <ele>934.7</ele>
        <time>2022-01-29T13:42:46.000Z</time>
      </trkpt>
      <trkpt lat="42.98425" lon="1.02296">
        <ele>934.7</ele>
        <time>2022-01-29T13:42:49.000Z</time>
      </trkpt>
      <trkpt lat="42.98429" lon="1.02283">
        <ele>935</ele>
        <time>2022-01-29T13:42:52.000Z</time>
      </trkpt>
      <trkpt lat="42.98432" lon="1.0227">
        <ele>935.3</ele>
        <time>2022-01-29T13:42:55.000Z</time>
      </trkpt>
      <trkpt lat="42.98434" lon="1.02258">
        <ele>935.7</ele>
        <time>2022-01-29T13:42:58.000Z</time>
      </trkpt>
      <trkpt lat="42.98438" lon="1.02242">
        <ele>935.5</ele>
        <time>2022-01-29T13:43:02.000Z</time>
      </trkpt>
      <trkpt lat="42.98441" lon="1.0223">
        <ele>936.1</ele>
        <time>2022-01-29T13:43:05.000Z</time>
      </trkpt>
      <trkpt lat="42.98445" lon="1.02217">
        <ele>936.1</ele>
        <time>2022-01-29T13:43:08.000Z</time>
      </trkpt>
      <trkpt lat="42.98448" lon="1.02204">
        <ele>936.2</ele>
        <time>2022-01-29T13:43:11.000Z</time>
      </trkpt>
      <trkpt lat="42.98451" lon="1.02192">
        <ele>936.4</ele>
        <time>2022-01-29T13:43:14.000Z</time>
      </trkpt>
      <trkpt lat="42.98454" lon="1.02179">
        <ele>936.6</ele>
        <time>2022-01-29T13:43:17.000Z</time>
      </trkpt>
      <trkpt lat="42.98458" lon="1.02164">
        <ele>936.9</ele>
        <time>2022-01-29T13:43:20.000Z</time>
      </trkpt>
      <trkpt lat="42.98462" lon="1.02148">
        <ele>936.8</ele>
        <time>2022-01-29T13:43:23.000Z</time>
      </trkpt>
      <trkpt lat="42.98465" lon="1.02133">
        <ele>936.7</ele>
        <time>2022-01-29T13:43:26.000Z</time>
      </trkpt>
      <trkpt lat="42.98467" lon="1.02118">
        <ele>936.8</ele>
        <time>2022-01-29T13:43:29.000Z</time>
      </trkpt>
      <trkpt lat="42.9847" lon="1.02102">
        <ele>936.8</ele>
        <time>2022-01-29T13:43:32.000Z</time>
      </trkpt>
      <trkpt lat="42.9847" lon="1.02089">
        <ele>936.7</ele>
        <time>2022-01-29T13:43:34.000Z</time>
      </trkpt>
      <trkpt lat="42.98469" lon="1.02075">
        <ele>937</ele>
        <time>2022-01-29T13:43:36.000Z</time>
      </trkpt>
      <trkpt lat="42.98464" lon="1.02062">
        <ele>936.6</ele>
        <time>2022-01-29T13:43:38.000Z</time>
      </trkpt>
      <trkpt lat="42.98459" lon="1.02047">
        <ele>936.2</ele>
        <time>2022-01-29T13:43:40.000Z</time>
      </trkpt>
      <trkpt lat="42.98456" lon="1.02032">
        <ele>936.2</ele>
        <time>2022-01-29T13:43:42.000Z</time>
      </trkpt>
      <trkpt lat="42.98453" lon="1.02015">
        <ele>935.8</ele>
        <time>2022-01-29T13:43:44.000Z</time>
      </trkpt>
      <trkpt lat="42.98447" lon="1.01999">
        <ele>935.9</ele>
        <time>2022-01-29T13:43:46.000Z</time>
      </trkpt>
      <trkpt lat="42.98438" lon="1.01985">
        <ele>935.7</ele>
        <time>2022-01-29T13:43:48.000Z</time>
      </trkpt>
      <trkpt lat="42.98428" lon="1.01968">
        <ele>935.1</ele>
        <time>2022-01-29T13:43:50.000Z</time>
      </trkpt>
      <trkpt lat="42.98422" lon="1.01947">
        <ele>935</ele>
        <time>2022-01-29T13:43:52.000Z</time>
      </trkpt>
      <trkpt lat="42.98424" lon="1.01935">
        <ele>934.7</ele>
        <time>2022-01-29T13:43:53.000Z</time>
      </trkpt>
      <trkpt lat="42.98429" lon="1.01912">
        <ele>934.2</ele>
        <time>2022-01-29T13:43:55.000Z</time>
      </trkpt>
      <trkpt lat="42.98431" lon="1.01889">
        <ele>934.5</ele>
        <time>2022-01-29T13:43:57.000Z</time>
      </trkpt>
      <trkpt lat="42.98432" lon="1.01868">
        <ele>933.8</ele>
        <time>2022-01-29T13:43:59.000Z</time>
      </trkpt>
      <trkpt lat="42.98438" lon="1.01849">
        <ele>933.5</ele>
        <time>2022-01-29T13:44:01.000Z</time>
      </trkpt>
      <trkpt lat="42.98445" lon="1.01832">
        <ele>933.5</ele>
        <time>2022-01-29T13:44:03.000Z</time>
      </trkpt>
      <trkpt lat="42.98453" lon="1.01816">
        <ele>933.1</ele>
        <time>2022-01-29T13:44:05.000Z</time>
      </trkpt>
      <trkpt lat="42.98457" lon="1.018">
        <ele>932.7</ele>
        <time>2022-01-29T13:44:07.000Z</time>
      </trkpt>
      <trkpt lat="42.98463" lon="1.01785">
        <ele>932</ele>
        <time>2022-01-29T13:44:09.000Z</time>
      </trkpt>
      <trkpt lat="42.98472" lon="1.01774">
        <ele>931.8</ele>
        <time>2022-01-29T13:44:11.000Z</time>
      </trkpt>
      <trkpt lat="42.9848" lon="1.01764">
        <ele>931.6</ele>
        <time>2022-01-29T13:44:13.000Z</time>
      </trkpt>
      <trkpt lat="42.98484" lon="1.01752">
        <ele>931</ele>
        <time>2022-01-29T13:44:15.000Z</time>
      </trkpt>
      <trkpt lat="42.98483" lon="1.01736">
        <ele>930.8</ele>
        <time>2022-01-29T13:44:18.000Z</time>
      </trkpt>
      <trkpt lat="42.9848" lon="1.01722">
        <ele>930.1</ele>
        <time>2022-01-29T13:44:21.000Z</time>
      </trkpt>
      <trkpt lat="42.98477" lon="1.0171">
        <ele>930.1</ele>
        <time>2022-01-29T13:44:24.000Z</time>
      </trkpt>
      <trkpt lat="42.98472" lon="1.01698">
        <ele>929.4</ele>
        <time>2022-01-29T13:44:27.000Z</time>
      </trkpt>
      <trkpt lat="42.98469" lon="1.01686">
        <ele>929.4</ele>
        <time>2022-01-29T13:44:30.000Z</time>
      </trkpt>
      <trkpt lat="42.98464" lon="1.01674">
        <ele>928.9</ele>
        <time>2022-01-29T13:44:34.000Z</time>
      </trkpt>
      <trkpt lat="42.9846" lon="1.01662">
        <ele>929</ele>
        <time>2022-01-29T13:44:38.000Z</time>
      </trkpt>
      <trkpt lat="42.98455" lon="1.01649">
        <ele>928.9</ele>
        <time>2022-01-29T13:44:42.000Z</time>
      </trkpt>
      <trkpt lat="42.98451" lon="1.01637">
        <ele>928.8</ele>
        <time>2022-01-29T13:44:46.000Z</time>
      </trkpt>
      <trkpt lat="42.98449" lon="1.01625">
        <ele>928.6</ele>
        <time>2022-01-29T13:44:50.000Z</time>
      </trkpt>
      <trkpt lat="42.98446" lon="1.01611">
        <ele>929.1</ele>
        <time>2022-01-29T13:44:55.000Z</time>
      </trkpt>
      <trkpt lat="42.9844" lon="1.01598">
        <ele>929</ele>
        <time>2022-01-29T13:45:01.000Z</time>
      </trkpt>
      <trkpt lat="42.98434" lon="1.01585">
        <ele>928.6</ele>
        <time>2022-01-29T13:45:05.000Z</time>
      </trkpt>
      <trkpt lat="42.98428" lon="1.01571">
        <ele>928.9</ele>
        <time>2022-01-29T13:45:09.000Z</time>
      </trkpt>
      <trkpt lat="42.98423" lon="1.01561">
        <ele>929.1</ele>
        <time>2022-01-29T13:45:12.000Z</time>
      </trkpt>
      <trkpt lat="42.98417" lon="1.01551">
        <ele>929.2</ele>
        <time>2022-01-29T13:45:15.000Z</time>
      </trkpt>
      <trkpt lat="42.98411" lon="1.01537">
        <ele>929.8</ele>
        <time>2022-01-29T13:45:19.000Z</time>
      </trkpt>
      <trkpt lat="42.98405" lon="1.01525">
        <ele>930.4</ele>
        <time>2022-01-29T13:45:23.000Z</time>
      </trkpt>
      <trkpt lat="42.98399" lon="1.01513">
        <ele>930.6</ele>
        <time>2022-01-29T13:45:27.000Z</time>
      </trkpt>
      <trkpt lat="42.98395" lon="1.01502">
        <ele>931</ele>
        <time>2022-01-29T13:45:31.000Z</time>
      </trkpt>
      <trkpt lat="42.9839" lon="1.0149">
        <ele>930.8</ele>
        <time>2022-01-29T13:45:35.000Z</time>
      </trkpt>
      <trkpt lat="42.98384" lon="1.01479">
        <ele>931.6</ele>
        <time>2022-01-29T13:45:39.000Z</time>
      </trkpt>
      <trkpt lat="42.98379" lon="1.01468">
        <ele>931.7</ele>
        <time>2022-01-29T13:45:43.000Z</time>
      </trkpt>
      <trkpt lat="42.98373" lon="1.01458">
        <ele>932.1</ele>
        <time>2022-01-29T13:45:47.000Z</time>
      </trkpt>
      <trkpt lat="42.98367" lon="1.01448">
        <ele>932.5</ele>
        <time>2022-01-29T13:45:51.000Z</time>
      </trkpt>
      <trkpt lat="42.9836" lon="1.01439">
        <ele>933.1</ele>
        <time>2022-01-29T13:45:55.000Z</time>
      </trkpt>
      <trkpt lat="42.98353" lon="1.0143">
        <ele>933.2</ele>
        <time>2022-01-29T13:45:59.000Z</time>
      </trkpt>
      <trkpt lat="42.98345" lon="1.01421">
        <ele>933.8</ele>
        <time>2022-01-29T13:46:03.000Z</time>
      </trkpt>
      <trkpt lat="42.98336" lon="1.01414">
        <ele>934.6</ele>
        <time>2022-01-29T13:46:07.000Z</time>
      </trkpt>
      <trkpt lat="42.98329" lon="1.01407">
        <ele>934.4</ele>
        <time>2022-01-29T13:46:11.000Z</time>
      </trkpt>
      <trkpt lat="42.98319" lon="1.01399">
        <ele>935.2</ele>
        <time>2022-01-29T13:46:16.000Z</time>
      </trkpt>
      <trkpt lat="42.98311" lon="1.01392">
        <ele>935.2</ele>
        <time>2022-01-29T13:46:20.000Z</time>
      </trkpt>
      <trkpt lat="42.98303" lon="1.01385">
        <ele>935.6</ele>
        <time>2022-01-29T13:46:24.000Z</time>
      </trkpt>
      <trkpt lat="42.98294" lon="1.01379">
        <ele>935.7</ele>
        <time>2022-01-29T13:46:28.000Z</time>
      </trkpt>
      <trkpt lat="42.98283" lon="1.01377">
        <ele>936.2</ele>
        <time>2022-01-29T13:46:33.000Z</time>
      </trkpt>
      <trkpt lat="42.98274" lon="1.01375">
        <ele>936.3</ele>
        <time>2022-01-29T13:46:37.000Z</time>
      </trkpt>
      <trkpt lat="42.98264" lon="1.01373">
        <ele>937.3</ele>
        <time>2022-01-29T13:46:41.000Z</time>
      </trkpt>
      <trkpt lat="42.98255" lon="1.01374">
        <ele>937.4</ele>
        <time>2022-01-29T13:46:45.000Z</time>
      </trkpt>
      <trkpt lat="42.98245" lon="1.01378">
        <ele>937.9</ele>
        <time>2022-01-29T13:46:49.000Z</time>
      </trkpt>
      <trkpt lat="42.98237" lon="1.01383">
        <ele>938.8</ele>
        <time>2022-01-29T13:46:53.000Z</time>
      </trkpt>
      <trkpt lat="42.98229" lon="1.0139">
        <ele>939</ele>
        <time>2022-01-29T13:46:57.000Z</time>
      </trkpt>
      <trkpt lat="42.98221" lon="1.01396">
        <ele>939.4</ele>
        <time>2022-01-29T13:47:01.000Z</time>
      </trkpt>
      <trkpt lat="42.98214" lon="1.01403">
        <ele>939.9</ele>
        <time>2022-01-29T13:47:05.000Z</time>
      </trkpt>
      <trkpt lat="42.98205" lon="1.01411">
        <ele>940</ele>
        <time>2022-01-29T13:47:10.000Z</time>
      </trkpt>
      <trkpt lat="42.98196" lon="1.0142">
        <ele>940.1</ele>
        <time>2022-01-29T13:47:14.000Z</time>
      </trkpt>
      <trkpt lat="42.98191" lon="1.0143">
        <ele>940.7</ele>
        <time>2022-01-29T13:47:18.000Z</time>
      </trkpt>
      <trkpt lat="42.98188" lon="1.01444">
        <ele>941.1</ele>
        <time>2022-01-29T13:47:23.000Z</time>
      </trkpt>
      <trkpt lat="42.9819" lon="1.01458">
        <ele>941.5</ele>
        <time>2022-01-29T13:47:28.000Z</time>
      </trkpt>
      <trkpt lat="42.98195" lon="1.01469">
        <ele>942.1</ele>
        <time>2022-01-29T13:47:32.000Z</time>
      </trkpt>
      <trkpt lat="42.98198" lon="1.01481">
        <ele>942.6</ele>
        <time>2022-01-29T13:47:36.000Z</time>
      </trkpt>
      <trkpt lat="42.98196" lon="1.01495">
        <ele>943.4</ele>
        <time>2022-01-29T13:47:40.000Z</time>
      </trkpt>
      <trkpt lat="42.98192" lon="1.01507">
        <ele>943.8</ele>
        <time>2022-01-29T13:47:44.000Z</time>
      </trkpt>
      <trkpt lat="42.98187" lon="1.01519">
        <ele>944.3</ele>
        <time>2022-01-29T13:47:48.000Z</time>
      </trkpt>
      <trkpt lat="42.98181" lon="1.01529">
        <ele>944.9</ele>
        <time>2022-01-29T13:47:52.000Z</time>
      </trkpt>
      <trkpt lat="42.98175" lon="1.01541">
        <ele>945.9</ele>
        <time>2022-01-29T13:47:57.000Z</time>
      </trkpt>
      <trkpt lat="42.98168" lon="1.01553">
        <ele>946.3</ele>
        <time>2022-01-29T13:48:02.000Z</time>
      </trkpt>
      <trkpt lat="42.98164" lon="1.01565">
        <ele>947.1</ele>
        <time>2022-01-29T13:48:06.000Z</time>
      </trkpt>
      <trkpt lat="42.98159" lon="1.01575">
        <ele>947.5</ele>
        <time>2022-01-29T13:48:10.000Z</time>
      </trkpt>
      <trkpt lat="42.98154" lon="1.01586">
        <ele>948.8</ele>
        <time>2022-01-29T13:48:14.000Z</time>
      </trkpt>
      <trkpt lat="42.98152" lon="1.01598">
        <ele>949.2</ele>
        <time>2022-01-29T13:48:18.000Z</time>
      </trkpt>
      <trkpt lat="42.98148" lon="1.01612">
        <ele>950.9</ele>
        <time>2022-01-29T13:48:23.000Z</time>
      </trkpt>
      <trkpt lat="42.98146" lon="1.01625">
        <ele>951</ele>
        <time>2022-01-29T13:48:27.000Z</time>
      </trkpt>
      <trkpt lat="42.98143" lon="1.01637">
        <ele>952.1</ele>
        <time>2022-01-29T13:48:31.000Z</time>
      </trkpt>
      <trkpt lat="42.9814" lon="1.01652">
        <ele>953.8</ele>
        <time>2022-01-29T13:48:36.000Z</time>
      </trkpt>
      <trkpt lat="42.98133" lon="1.01661">
        <ele>954.2</ele>
        <time>2022-01-29T13:48:40.000Z</time>
      </trkpt>
      <trkpt lat="42.98125" lon="1.01668">
        <ele>955.9</ele>
        <time>2022-01-29T13:48:44.000Z</time>
      </trkpt>
      <trkpt lat="42.98115" lon="1.01668">
        <ele>956.4</ele>
        <time>2022-01-29T13:48:48.000Z</time>
      </trkpt>
      <trkpt lat="42.98108" lon="1.01659">
        <ele>958</ele>
        <time>2022-01-29T13:48:52.000Z</time>
      </trkpt>
      <trkpt lat="42.98103" lon="1.01647">
        <ele>959.2</ele>
        <time>2022-01-29T13:48:56.000Z</time>
      </trkpt>
      <trkpt lat="42.98099" lon="1.01633">
        <ele>960.9</ele>
        <time>2022-01-29T13:49:01.000Z</time>
      </trkpt>
      <trkpt lat="42.98091" lon="1.01624">
        <ele>962.3</ele>
        <time>2022-01-29T13:49:06.000Z</time>
      </trkpt>
      <trkpt lat="42.98083" lon="1.01614">
        <ele>963.7</ele>
        <time>2022-01-29T13:49:11.000Z</time>
      </trkpt>
      <trkpt lat="42.98076" lon="1.01606">
        <ele>964.8</ele>
        <time>2022-01-29T13:49:15.000Z</time>
      </trkpt>
      <trkpt lat="42.98068" lon="1.01598">
        <ele>965.6</ele>
        <time>2022-01-29T13:49:19.000Z</time>
      </trkpt>
      <trkpt lat="42.98058" lon="1.01593">
        <ele>967.1</ele>
        <time>2022-01-29T13:49:23.000Z</time>
      </trkpt>
      <trkpt lat="42.98047" lon="1.01589">
        <ele>968</ele>
        <time>2022-01-29T13:49:27.000Z</time>
      </trkpt>
      <trkpt lat="42.98038" lon="1.01584">
        <ele>969.7</ele>
        <time>2022-01-29T13:49:31.000Z</time>
      </trkpt>
      <trkpt lat="42.98029" lon="1.01576">
        <ele>971</ele>
        <time>2022-01-29T13:49:36.000Z</time>
      </trkpt>
      <trkpt lat="42.98023" lon="1.01566">
        <ele>972.2</ele>
        <time>2022-01-29T13:49:40.000Z</time>
      </trkpt>
      <trkpt lat="42.98018" lon="1.01554">
        <ele>974.2</ele>
        <time>2022-01-29T13:49:44.000Z</time>
      </trkpt>
      <trkpt lat="42.98014" lon="1.01542">
        <ele>975.8</ele>
        <time>2022-01-29T13:49:48.000Z</time>
      </trkpt>
      <trkpt lat="42.9801" lon="1.01531">
        <ele>978.4</ele>
        <time>2022-01-29T13:49:52.000Z</time>
      </trkpt>
      <trkpt lat="42.98006" lon="1.01517">
        <ele>979.9</ele>
        <time>2022-01-29T13:49:56.000Z</time>
      </trkpt>
      <trkpt lat="42.98001" lon="1.01504">
        <ele>981.2</ele>
        <time>2022-01-29T13:50:00.000Z</time>
      </trkpt>
      <trkpt lat="42.97998" lon="1.01492">
        <ele>982.4</ele>
        <time>2022-01-29T13:50:04.000Z</time>
      </trkpt>
      <trkpt lat="42.97994" lon="1.01481">
        <ele>983.7</ele>
        <time>2022-01-29T13:50:08.000Z</time>
      </trkpt>
      <trkpt lat="42.97989" lon="1.01468">
        <ele>985.9</ele>
        <time>2022-01-29T13:50:13.000Z</time>
      </trkpt>
      <trkpt lat="42.97986" lon="1.01456">
        <ele>987.2</ele>
        <time>2022-01-29T13:50:17.000Z</time>
      </trkpt>
      <trkpt lat="42.97982" lon="1.01441">
        <ele>989.2</ele>
        <time>2022-01-29T13:50:22.000Z</time>
      </trkpt>
      <trkpt lat="42.97979" lon="1.0143">
        <ele>990.2</ele>
        <time>2022-01-29T13:50:26.000Z</time>
      </trkpt>
      <trkpt lat="42.97975" lon="1.01417">
        <ele>991.6</ele>
        <time>2022-01-29T13:50:30.000Z</time>
      </trkpt>
      <trkpt lat="42.97971" lon="1.01403">
        <ele>993.3</ele>
        <time>2022-01-29T13:50:35.000Z</time>
      </trkpt>
      <trkpt lat="42.97968" lon="1.01392">
        <ele>994.4</ele>
        <time>2022-01-29T13:50:39.000Z</time>
      </trkpt>
      <trkpt lat="42.97964" lon="1.01379">
        <ele>996.4</ele>
        <time>2022-01-29T13:50:44.000Z</time>
      </trkpt>
      <trkpt lat="42.97961" lon="1.01367">
        <ele>997.5</ele>
        <time>2022-01-29T13:50:48.000Z</time>
      </trkpt>
      <trkpt lat="42.97957" lon="1.01356">
        <ele>999.2</ele>
        <time>2022-01-29T13:50:52.000Z</time>
      </trkpt>
      <trkpt lat="42.97954" lon="1.01343">
        <ele>1000.6</ele>
        <time>2022-01-29T13:50:56.000Z</time>
      </trkpt>
      <trkpt lat="42.97952" lon="1.0133">
        <ele>1001.6</ele>
        <time>2022-01-29T13:51:00.000Z</time>
      </trkpt>
      <trkpt lat="42.9795" lon="1.01318">
        <ele>1002.5</ele>
        <time>2022-01-29T13:51:04.000Z</time>
      </trkpt>
      <trkpt lat="42.97949" lon="1.01304">
        <ele>1003.9</ele>
        <time>2022-01-29T13:51:08.000Z</time>
      </trkpt>
      <trkpt lat="42.97949" lon="1.01291">
        <ele>1005.4</ele>
        <time>2022-01-29T13:51:12.000Z</time>
      </trkpt>
      <trkpt lat="42.9795" lon="1.01278">
        <ele>1006.8</ele>
        <time>2022-01-29T13:51:16.000Z</time>
      </trkpt>
      <trkpt lat="42.97952" lon="1.01266">
        <ele>1008</ele>
        <time>2022-01-29T13:51:20.000Z</time>
      </trkpt>
      <trkpt lat="42.97956" lon="1.01254">
        <ele>1009.2</ele>
        <time>2022-01-29T13:51:24.000Z</time>
      </trkpt>
      <trkpt lat="42.97961" lon="1.01243">
        <ele>1011.2</ele>
        <time>2022-01-29T13:51:28.000Z</time>
      </trkpt>
      <trkpt lat="42.97967" lon="1.01232">
        <ele>1012</ele>
        <time>2022-01-29T13:51:32.000Z</time>
      </trkpt>
      <trkpt lat="42.9797" lon="1.0122">
        <ele>1013.8</ele>
        <time>2022-01-29T13:51:36.000Z</time>
      </trkpt>
      <trkpt lat="42.9797" lon="1.01206">
        <ele>1014.4</ele>
        <time>2022-01-29T13:51:40.000Z</time>
      </trkpt>
      <trkpt lat="42.97967" lon="1.01193">
        <ele>1015.6</ele>
        <time>2022-01-29T13:51:44.000Z</time>
      </trkpt>
      <trkpt lat="42.97964" lon="1.0118">
        <ele>1016.7</ele>
        <time>2022-01-29T13:51:48.000Z</time>
      </trkpt>
      <trkpt lat="42.97962" lon="1.01167">
        <ele>1017.6</ele>
        <time>2022-01-29T13:51:52.000Z</time>
      </trkpt>
      <trkpt lat="42.97953" lon="1.01165">
        <ele>1018.6</ele>
        <time>2022-01-29T13:51:57.000Z</time>
      </trkpt>
      <trkpt lat="42.97953" lon="1.01179">
        <ele>1019.9</ele>
        <time>2022-01-29T13:52:01.000Z</time>
      </trkpt>
      <trkpt lat="42.97956" lon="1.01194">
        <ele>1020.5</ele>
        <time>2022-01-29T13:52:05.000Z</time>
      </trkpt>
      <trkpt lat="42.97955" lon="1.0121">
        <ele>1020.9</ele>
        <time>2022-01-29T13:52:09.000Z</time>
      </trkpt>
      <trkpt lat="42.97953" lon="1.01224">
        <ele>1021.6</ele>
        <time>2022-01-29T13:52:13.000Z</time>
      </trkpt>
      <trkpt lat="42.97948" lon="1.01237">
        <ele>1022.4</ele>
        <time>2022-01-29T13:52:17.000Z</time>
      </trkpt>
      <trkpt lat="42.97941" lon="1.01248">
        <ele>1023.4</ele>
        <time>2022-01-29T13:52:21.000Z</time>
      </trkpt>
      <trkpt lat="42.97934" lon="1.01259">
        <ele>1023.9</ele>
        <time>2022-01-29T13:52:25.000Z</time>
      </trkpt>
      <trkpt lat="42.97926" lon="1.01271">
        <ele>1025.1</ele>
        <time>2022-01-29T13:52:29.000Z</time>
      </trkpt>
      <trkpt lat="42.97921" lon="1.01285">
        <ele>1026.1</ele>
        <time>2022-01-29T13:52:33.000Z</time>
      </trkpt>
      <trkpt lat="42.97919" lon="1.01297">
        <ele>1027.3</ele>
        <time>2022-01-29T13:52:36.000Z</time>
      </trkpt>
      <trkpt lat="42.97918" lon="1.0131">
        <ele>1028.2</ele>
        <time>2022-01-29T13:52:39.000Z</time>
      </trkpt>
      <trkpt lat="42.97918" lon="1.01323">
        <ele>1028.6</ele>
        <time>2022-01-29T13:52:42.000Z</time>
      </trkpt>
      <trkpt lat="42.97917" lon="1.01337">
        <ele>1029.2</ele>
        <time>2022-01-29T13:52:45.000Z</time>
      </trkpt>
      <trkpt lat="42.97915" lon="1.01349">
        <ele>1029.9</ele>
        <time>2022-01-29T13:52:48.000Z</time>
      </trkpt>
      <trkpt lat="42.97914" lon="1.01361">
        <ele>1030.7</ele>
        <time>2022-01-29T13:52:51.000Z</time>
      </trkpt>
      <trkpt lat="42.97912" lon="1.01374">
        <ele>1031.8</ele>
        <time>2022-01-29T13:52:54.000Z</time>
      </trkpt>
      <trkpt lat="42.97909" lon="1.01386">
        <ele>1032.4</ele>
        <time>2022-01-29T13:52:57.000Z</time>
      </trkpt>
      <trkpt lat="42.97908" lon="1.01399">
        <ele>1033.1</ele>
        <time>2022-01-29T13:53:00.000Z</time>
      </trkpt>
      <trkpt lat="42.97909" lon="1.01411">
        <ele>1033.8</ele>
        <time>2022-01-29T13:53:03.000Z</time>
      </trkpt>
      <trkpt lat="42.9791" lon="1.01427">
        <ele>1034.8</ele>
        <time>2022-01-29T13:53:07.000Z</time>
      </trkpt>
      <trkpt lat="42.9791" lon="1.01443">
        <ele>1035.6</ele>
        <time>2022-01-29T13:53:11.000Z</time>
      </trkpt>
      <trkpt lat="42.97909" lon="1.01459">
        <ele>1037.1</ele>
        <time>2022-01-29T13:53:15.000Z</time>
      </trkpt>
      <trkpt lat="42.9791" lon="1.01474">
        <ele>1038.1</ele>
        <time>2022-01-29T13:53:19.000Z</time>
      </trkpt>
      <trkpt lat="42.9791" lon="1.01488">
        <ele>1038.6</ele>
        <time>2022-01-29T13:53:23.000Z</time>
      </trkpt>
      <trkpt lat="42.97909" lon="1.01501">
        <ele>1039.7</ele>
        <time>2022-01-29T13:53:27.000Z</time>
      </trkpt>
      <trkpt lat="42.9791" lon="1.01515">
        <ele>1040.7</ele>
        <time>2022-01-29T13:53:31.000Z</time>
      </trkpt>
      <trkpt lat="42.9791" lon="1.01529">
        <ele>1041.4</ele>
        <time>2022-01-29T13:53:35.000Z</time>
      </trkpt>
      <trkpt lat="42.9791" lon="1.01543">
        <ele>1042.1</ele>
        <time>2022-01-29T13:53:39.000Z</time>
      </trkpt>
      <trkpt lat="42.97909" lon="1.01557">
        <ele>1042.7</ele>
        <time>2022-01-29T13:53:43.000Z</time>
      </trkpt>
      <trkpt lat="42.97909" lon="1.01572">
        <ele>1043.8</ele>
        <time>2022-01-29T13:53:47.000Z</time>
      </trkpt>
      <trkpt lat="42.97908" lon="1.01586">
        <ele>1044.3</ele>
        <time>2022-01-29T13:53:51.000Z</time>
      </trkpt>
      <trkpt lat="42.97907" lon="1.01601">
        <ele>1044.8</ele>
        <time>2022-01-29T13:53:55.000Z</time>
      </trkpt>
      <trkpt lat="42.97905" lon="1.01615">
        <ele>1045.5</ele>
        <time>2022-01-29T13:53:59.000Z</time>
      </trkpt>
      <trkpt lat="42.97903" lon="1.01628">
        <ele>1046.6</ele>
        <time>2022-01-29T13:54:03.000Z</time>
      </trkpt>
      <trkpt lat="42.97901" lon="1.01641">
        <ele>1047</ele>
        <time>2022-01-29T13:54:07.000Z</time>
      </trkpt>
      <trkpt lat="42.97898" lon="1.01654">
        <ele>1047.9</ele>
        <time>2022-01-29T13:54:11.000Z</time>
      </trkpt>
      <trkpt lat="42.97893" lon="1.01666">
        <ele>1048.6</ele>
        <time>2022-01-29T13:54:15.000Z</time>
      </trkpt>
      <trkpt lat="42.97888" lon="1.01676">
        <ele>1049.6</ele>
        <time>2022-01-29T13:54:19.000Z</time>
      </trkpt>
      <trkpt lat="42.97881" lon="1.01686">
        <ele>1050.7</ele>
        <time>2022-01-29T13:54:23.000Z</time>
      </trkpt>
      <trkpt lat="42.97876" lon="1.01697">
        <ele>1051.6</ele>
        <time>2022-01-29T13:54:27.000Z</time>
      </trkpt>
      <trkpt lat="42.97871" lon="1.01708">
        <ele>1052</ele>
        <time>2022-01-29T13:54:31.000Z</time>
      </trkpt>
      <trkpt lat="42.97866" lon="1.01719">
        <ele>1053.1</ele>
        <time>2022-01-29T13:54:35.000Z</time>
      </trkpt>
      <trkpt lat="42.97863" lon="1.01732">
        <ele>1054.1</ele>
        <time>2022-01-29T13:54:39.000Z</time>
      </trkpt>
      <trkpt lat="42.9786" lon="1.01745">
        <ele>1054.4</ele>
        <time>2022-01-29T13:54:43.000Z</time>
      </trkpt>
      <trkpt lat="42.97857" lon="1.01758">
        <ele>1055.4</ele>
        <time>2022-01-29T13:54:47.000Z</time>
      </trkpt>
      <trkpt lat="42.97854" lon="1.01772">
        <ele>1056.5</ele>
        <time>2022-01-29T13:54:51.000Z</time>
      </trkpt>
      <trkpt lat="42.97851" lon="1.01785">
        <ele>1056.9</ele>
        <time>2022-01-29T13:54:55.000Z</time>
      </trkpt>
      <trkpt lat="42.97849" lon="1.01798">
        <ele>1057.8</ele>
        <time>2022-01-29T13:54:59.000Z</time>
      </trkpt>
      <trkpt lat="42.97847" lon="1.0181">
        <ele>1058.3</ele>
        <time>2022-01-29T13:55:03.000Z</time>
      </trkpt>
      <trkpt lat="42.97845" lon="1.01822">
        <ele>1059.3</ele>
        <time>2022-01-29T13:55:07.000Z</time>
      </trkpt>
      <trkpt lat="42.97843" lon="1.01834">
        <ele>1059.9</ele>
        <time>2022-01-29T13:55:11.000Z</time>
      </trkpt>
      <trkpt lat="42.9784" lon="1.01846">
        <ele>1060.5</ele>
        <time>2022-01-29T13:55:15.000Z</time>
      </trkpt>
      <trkpt lat="42.97836" lon="1.0186">
        <ele>1061.1</ele>
        <time>2022-01-29T13:55:20.000Z</time>
      </trkpt>
      <trkpt lat="42.97835" lon="1.01875">
        <ele>1061.7</ele>
        <time>2022-01-29T13:55:25.000Z</time>
      </trkpt>
      <trkpt lat="42.97832" lon="1.0189">
        <ele>1062.4</ele>
        <time>2022-01-29T13:55:30.000Z</time>
      </trkpt>
      <trkpt lat="42.97829" lon="1.01905">
        <ele>1063.1</ele>
        <time>2022-01-29T13:55:35.000Z</time>
      </trkpt>
      <trkpt lat="42.97825" lon="1.01918">
        <ele>1063.7</ele>
        <time>2022-01-29T13:55:39.000Z</time>
      </trkpt>
      <trkpt lat="42.97821" lon="1.0193">
        <ele>1064.2</ele>
        <time>2022-01-29T13:55:43.000Z</time>
      </trkpt>
      <trkpt lat="42.97817" lon="1.01942">
        <ele>1065</ele>
        <time>2022-01-29T13:55:50.000Z</time>
      </trkpt>
      <trkpt lat="42.97816" lon="1.01943">
        <ele>1064.7</ele>
        <time>2022-01-29T13:55:52.000Z</time>
      </trkpt>
      <trkpt lat="42.97817" lon="1.01943">
        <ele>1064.8</ele>
        <time>2022-01-29T13:55:53.000Z</time>
      </trkpt>
      <trkpt lat="42.97816" lon="1.01943">
        <ele>1065</ele>
        <time>2022-01-29T13:55:55.000Z</time>
      </trkpt>
      <trkpt lat="42.97817" lon="1.01943">
        <ele>1065.3</ele>
        <time>2022-01-29T13:56:03.000Z</time>
      </trkpt>
      <trkpt lat="42.97816" lon="1.01943">
        <ele>1065</ele>
        <time>2022-01-29T13:56:05.000Z</time>
      </trkpt>
      <trkpt lat="42.9782" lon="1.01941">
        <ele>1065.3</ele>
        <time>2022-01-29T13:56:14.000Z</time>
      </trkpt>
      <trkpt lat="42.9782" lon="1.01941">
        <ele>1065.3</ele>
        <time>2022-01-29T13:56:18.000Z</time>
      </trkpt>
      <trkpt lat="42.97816" lon="1.01938">
        <ele>1064.7</ele>
        <time>2022-01-29T13:56:28.000Z</time>
      </trkpt>
      <trkpt lat="42.97816" lon="1.01938">
        <ele>1064.9</ele>
        <time>2022-01-29T13:56:48.000Z</time>
      </trkpt>
      <trkpt lat="42.97815" lon="1.01937">
        <ele>1065.3</ele>
        <time>2022-01-29T13:56:51.000Z</time>
      </trkpt>
      <trkpt lat="42.97815" lon="1.01937">
        <ele>1065.4</ele>
        <time>2022-01-29T13:57:02.000Z</time>
      </trkpt>
      <trkpt lat="42.97815" lon="1.01937">
        <ele>1066.1</ele>
        <time>2022-01-29T13:58:15.000Z</time>
      </trkpt>
      <trkpt lat="42.97815" lon="1.01937">
        <ele>1066.4</ele>
        <time>2022-01-29T13:58:51.000Z</time>
      </trkpt>
      <trkpt lat="42.97814" lon="1.01937">
        <ele>1066.3</ele>
        <time>2022-01-29T13:58:53.000Z</time>
      </trkpt>
      <trkpt lat="42.97812" lon="1.01935">
        <ele>1066.1</ele>
        <time>2022-01-29T13:58:59.000Z</time>
      </trkpt>
      <trkpt lat="42.97811" lon="1.01935">
        <ele>1066.4</ele>
        <time>2022-01-29T13:59:23.000Z</time>
      </trkpt>
      <trkpt lat="42.97811" lon="1.01935">
        <ele>1066.3</ele>
        <time>2022-01-29T14:00:04.000Z</time>
      </trkpt>
      <trkpt lat="42.97811" lon="1.01935">
        <ele>1067</ele>
        <time>2022-01-29T14:02:03.000Z</time>
      </trkpt>
      <trkpt lat="42.97813" lon="1.01935">
        <ele>1067</ele>
        <time>2022-01-29T14:02:07.000Z</time>
      </trkpt>
      <trkpt lat="42.97813" lon="1.01935">
        <ele>1067</ele>
        <time>2022-01-29T14:02:23.000Z</time>
      </trkpt>
      <trkpt lat="42.97814" lon="1.01935">
        <ele>1066.6</ele>
        <time>2022-01-29T14:02:26.000Z</time>
      </trkpt>
      <trkpt lat="42.97815" lon="1.01935">
        <ele>1066.4</ele>
        <time>2022-01-29T14:02:43.000Z</time>
      </trkpt>
      <trkpt lat="42.97822" lon="1.01945">
        <ele>1066.4</ele>
        <time>2022-01-29T14:02:52.000Z</time>
      </trkpt>
      <trkpt lat="42.97828" lon="1.01956">
        <ele>1066.6</ele>
        <time>2022-01-29T14:02:57.000Z</time>
      </trkpt>
      <trkpt lat="42.97838" lon="1.01964">
        <ele>1067.2</ele>
        <time>2022-01-29T14:03:02.000Z</time>
      </trkpt>
      <trkpt lat="42.97843" lon="1.01976">
        <ele>1067</ele>
        <time>2022-01-29T14:03:06.000Z</time>
      </trkpt>
      <trkpt lat="42.97839" lon="1.0199">
        <ele>1067</ele>
        <time>2022-01-29T14:03:10.000Z</time>
      </trkpt>
      <trkpt lat="42.97835" lon="1.02005">
        <ele>1067.1</ele>
        <time>2022-01-29T14:03:15.000Z</time>
      </trkpt>
      <trkpt lat="42.97834" lon="1.0202">
        <ele>1067.2</ele>
        <time>2022-01-29T14:03:20.000Z</time>
      </trkpt>
      <trkpt lat="42.97832" lon="1.02032">
        <ele>1068</ele>
        <time>2022-01-29T14:03:24.000Z</time>
      </trkpt>
      <trkpt lat="42.9783" lon="1.02045">
        <ele>1068</ele>
        <time>2022-01-29T14:03:28.000Z</time>
      </trkpt>
      <trkpt lat="42.97829" lon="1.02059">
        <ele>1068.7</ele>
        <time>2022-01-29T14:03:32.000Z</time>
      </trkpt>
      <trkpt lat="42.97829" lon="1.02071">
        <ele>1069</ele>
        <time>2022-01-29T14:03:35.000Z</time>
      </trkpt>
      <trkpt lat="42.9783" lon="1.02086">
        <ele>1069.5</ele>
        <time>2022-01-29T14:03:39.000Z</time>
      </trkpt>
      <trkpt lat="42.9783" lon="1.02098">
        <ele>1069.8</ele>
        <time>2022-01-29T14:03:44.000Z</time>
      </trkpt>
      <trkpt lat="42.97829" lon="1.02113">
        <ele>1070</ele>
        <time>2022-01-29T14:03:49.000Z</time>
      </trkpt>
      <trkpt lat="42.97828" lon="1.02128">
        <ele>1070.5</ele>
        <time>2022-01-29T14:03:54.000Z</time>
      </trkpt>
      <trkpt lat="42.97827" lon="1.02142">
        <ele>1070.8</ele>
        <time>2022-01-29T14:03:58.000Z</time>
      </trkpt>
      <trkpt lat="42.97826" lon="1.02157">
        <ele>1070.5</ele>
        <time>2022-01-29T14:04:02.000Z</time>
      </trkpt>
      <trkpt lat="42.97825" lon="1.02172">
        <ele>1070.4</ele>
        <time>2022-01-29T14:04:06.000Z</time>
      </trkpt>
      <trkpt lat="42.97824" lon="1.02186">
        <ele>1070.8</ele>
        <time>2022-01-29T14:04:09.000Z</time>
      </trkpt>
      <trkpt lat="42.97822" lon="1.02198">
        <ele>1070.5</ele>
        <time>2022-01-29T14:04:11.000Z</time>
      </trkpt>
      <trkpt lat="42.97819" lon="1.02212">
        <ele>1070.8</ele>
        <time>2022-01-29T14:04:13.000Z</time>
      </trkpt>
      <trkpt lat="42.97812" lon="1.02223">
        <ele>1069.9</ele>
        <time>2022-01-29T14:04:15.000Z</time>
      </trkpt>
      <trkpt lat="42.97804" lon="1.02233">
        <ele>1069.7</ele>
        <time>2022-01-29T14:04:17.000Z</time>
      </trkpt>
      <trkpt lat="42.97796" lon="1.02244">
        <ele>1069.7</ele>
        <time>2022-01-29T14:04:19.000Z</time>
      </trkpt>
      <trkpt lat="42.97788" lon="1.02256">
        <ele>1069.7</ele>
        <time>2022-01-29T14:04:21.000Z</time>
      </trkpt>
      <trkpt lat="42.97781" lon="1.02267">
        <ele>1069.6</ele>
        <time>2022-01-29T14:04:23.000Z</time>
      </trkpt>
      <trkpt lat="42.97774" lon="1.02276">
        <ele>1069.6</ele>
        <time>2022-01-29T14:04:25.000Z</time>
      </trkpt>
      <trkpt lat="42.97766" lon="1.02285">
        <ele>1069</ele>
        <time>2022-01-29T14:04:27.000Z</time>
      </trkpt>
      <trkpt lat="42.97756" lon="1.02294">
        <ele>1069.6</ele>
        <time>2022-01-29T14:04:29.000Z</time>
      </trkpt>
      <trkpt lat="42.97745" lon="1.02306">
        <ele>1069</ele>
        <time>2022-01-29T14:04:31.000Z</time>
      </trkpt>
      <trkpt lat="42.97731" lon="1.02318">
        <ele>1068.5</ele>
        <time>2022-01-29T14:04:33.000Z</time>
      </trkpt>
      <trkpt lat="42.97719" lon="1.02332">
        <ele>1068</ele>
        <time>2022-01-29T14:04:35.000Z</time>
      </trkpt>
      <trkpt lat="42.97709" lon="1.02345">
        <ele>1067.7</ele>
        <time>2022-01-29T14:04:37.000Z</time>
      </trkpt>
      <trkpt lat="42.97699" lon="1.02355">
        <ele>1067.5</ele>
        <time>2022-01-29T14:04:39.000Z</time>
      </trkpt>
      <trkpt lat="42.97689" lon="1.02363">
        <ele>1066.8</ele>
        <time>2022-01-29T14:04:41.000Z</time>
      </trkpt>
      <trkpt lat="42.97678" lon="1.02371">
        <ele>1066</ele>
        <time>2022-01-29T14:04:43.000Z</time>
      </trkpt>
      <trkpt lat="42.97669" lon="1.0238">
        <ele>1066</ele>
        <time>2022-01-29T14:04:45.000Z</time>
      </trkpt>
      <trkpt lat="42.97664" lon="1.02391">
        <ele>1065.2</ele>
        <time>2022-01-29T14:04:47.000Z</time>
      </trkpt>
      <trkpt lat="42.97661" lon="1.02404">
        <ele>1064.5</ele>
        <time>2022-01-29T14:04:49.000Z</time>
      </trkpt>
      <trkpt lat="42.97653" lon="1.02417">
        <ele>1063.7</ele>
        <time>2022-01-29T14:04:51.000Z</time>
      </trkpt>
      <trkpt lat="42.97641" lon="1.02422">
        <ele>1063.3</ele>
        <time>2022-01-29T14:04:53.000Z</time>
      </trkpt>
      <trkpt lat="42.97631" lon="1.02425">
        <ele>1062.7</ele>
        <time>2022-01-29T14:04:55.000Z</time>
      </trkpt>
      <trkpt lat="42.9762" lon="1.02429">
        <ele>1062.3</ele>
        <time>2022-01-29T14:04:58.000Z</time>
      </trkpt>
      <trkpt lat="42.97609" lon="1.02431">
        <ele>1061.7</ele>
        <time>2022-01-29T14:05:01.000Z</time>
      </trkpt>
      <trkpt lat="42.97599" lon="1.02435">
        <ele>1061.7</ele>
        <time>2022-01-29T14:05:04.000Z</time>
      </trkpt>
      <trkpt lat="42.97589" lon="1.02438">
        <ele>1061.3</ele>
        <time>2022-01-29T14:05:07.000Z</time>
      </trkpt>
      <trkpt lat="42.97579" lon="1.02442">
        <ele>1060.7</ele>
        <time>2022-01-29T14:05:11.000Z</time>
      </trkpt>
      <trkpt lat="42.9757" lon="1.02446">
        <ele>1060.4</ele>
        <time>2022-01-29T14:05:14.000Z</time>
      </trkpt>
      <trkpt lat="42.97561" lon="1.0245">
        <ele>1060.6</ele>
        <time>2022-01-29T14:05:18.000Z</time>
      </trkpt>
      <trkpt lat="42.97552" lon="1.02454">
        <ele>1060.5</ele>
        <time>2022-01-29T14:05:22.000Z</time>
      </trkpt>
      <trkpt lat="42.97542" lon="1.02457">
        <ele>1059.5</ele>
        <time>2022-01-29T14:05:26.000Z</time>
      </trkpt>
      <trkpt lat="42.97533" lon="1.0246">
        <ele>1059.4</ele>
        <time>2022-01-29T14:05:31.000Z</time>
      </trkpt>
      <trkpt lat="42.97523" lon="1.02461">
        <ele>1059.5</ele>
        <time>2022-01-29T14:05:35.000Z</time>
      </trkpt>
      <trkpt lat="42.97514" lon="1.02461">
        <ele>1059.9</ele>
        <time>2022-01-29T14:05:39.000Z</time>
      </trkpt>
      <trkpt lat="42.97504" lon="1.02465">
        <ele>1059.6</ele>
        <time>2022-01-29T14:05:43.000Z</time>
      </trkpt>
      <trkpt lat="42.97494" lon="1.02466">
        <ele>1060</ele>
        <time>2022-01-29T14:05:48.000Z</time>
      </trkpt>
      <trkpt lat="42.97484" lon="1.02465">
        <ele>1060.5</ele>
        <time>2022-01-29T14:05:53.000Z</time>
      </trkpt>
      <trkpt lat="42.97474" lon="1.02465">
        <ele>1060.7</ele>
        <time>2022-01-29T14:05:57.000Z</time>
      </trkpt>
      <trkpt lat="42.97464" lon="1.02467">
        <ele>1061.2</ele>
        <time>2022-01-29T14:06:01.000Z</time>
      </trkpt>
      <trkpt lat="42.97452" lon="1.02466">
        <ele>1061.2</ele>
        <time>2022-01-29T14:06:05.000Z</time>
      </trkpt>
      <trkpt lat="42.97441" lon="1.02465">
        <ele>1061.5</ele>
        <time>2022-01-29T14:06:09.000Z</time>
      </trkpt>
      <trkpt lat="42.97432" lon="1.02465">
        <ele>1061.9</ele>
        <time>2022-01-29T14:06:13.000Z</time>
      </trkpt>
      <trkpt lat="42.97421" lon="1.02467">
        <ele>1062.2</ele>
        <time>2022-01-29T14:06:17.000Z</time>
      </trkpt>
      <trkpt lat="42.97413" lon="1.02475">
        <ele>1062.5</ele>
        <time>2022-01-29T14:06:21.000Z</time>
      </trkpt>
      <trkpt lat="42.97404" lon="1.02481">
        <ele>1062.5</ele>
        <time>2022-01-29T14:06:25.000Z</time>
      </trkpt>
      <trkpt lat="42.97397" lon="1.0249">
        <ele>1063.1</ele>
        <time>2022-01-29T14:06:29.000Z</time>
      </trkpt>
      <trkpt lat="42.97392" lon="1.025">
        <ele>1062.7</ele>
        <time>2022-01-29T14:06:32.000Z</time>
      </trkpt>
      <trkpt lat="42.97385" lon="1.02509">
        <ele>1063</ele>
        <time>2022-01-29T14:06:35.000Z</time>
      </trkpt>
      <trkpt lat="42.97378" lon="1.02517">
        <ele>1063.2</ele>
        <time>2022-01-29T14:06:38.000Z</time>
      </trkpt>
      <trkpt lat="42.97372" lon="1.02528">
        <ele>1063.2</ele>
        <time>2022-01-29T14:06:41.000Z</time>
      </trkpt>
      <trkpt lat="42.97365" lon="1.0254">
        <ele>1063.1</ele>
        <time>2022-01-29T14:06:44.000Z</time>
      </trkpt>
      <trkpt lat="42.97359" lon="1.02549">
        <ele>1063.4</ele>
        <time>2022-01-29T14:06:46.000Z</time>
      </trkpt>
      <trkpt lat="42.97353" lon="1.02562">
        <ele>1063.5</ele>
        <time>2022-01-29T14:06:48.000Z</time>
      </trkpt>
      <trkpt lat="42.97347" lon="1.02576">
        <ele>1063.2</ele>
        <time>2022-01-29T14:06:50.000Z</time>
      </trkpt>
      <trkpt lat="42.97342" lon="1.02591">
        <ele>1063.9</ele>
        <time>2022-01-29T14:06:52.000Z</time>
      </trkpt>
      <trkpt lat="42.97335" lon="1.02606">
        <ele>1063.7</ele>
        <time>2022-01-29T14:06:54.000Z</time>
      </trkpt>
      <trkpt lat="42.9733" lon="1.02621">
        <ele>1062.9</ele>
        <time>2022-01-29T14:06:56.000Z</time>
      </trkpt>
      <trkpt lat="42.97325" lon="1.02637">
        <ele>1062.9</ele>
        <time>2022-01-29T14:06:58.000Z</time>
      </trkpt>
      <trkpt lat="42.97322" lon="1.02653">
        <ele>1062.6</ele>
        <time>2022-01-29T14:07:00.000Z</time>
      </trkpt>
      <trkpt lat="42.97318" lon="1.02668">
        <ele>1062.2</ele>
        <time>2022-01-29T14:07:02.000Z</time>
      </trkpt>
      <trkpt lat="42.97316" lon="1.02683">
        <ele>1061.9</ele>
        <time>2022-01-29T14:07:04.000Z</time>
      </trkpt>
      <trkpt lat="42.97315" lon="1.02697">
        <ele>1062.7</ele>
        <time>2022-01-29T14:07:06.000Z</time>
      </trkpt>
      <trkpt lat="42.97313" lon="1.02711">
        <ele>1062.8</ele>
        <time>2022-01-29T14:07:08.000Z</time>
      </trkpt>
      <trkpt lat="42.97311" lon="1.02723">
        <ele>1062.4</ele>
        <time>2022-01-29T14:07:10.000Z</time>
      </trkpt>
      <trkpt lat="42.97308" lon="1.02736">
        <ele>1061.1</ele>
        <time>2022-01-29T14:07:12.000Z</time>
      </trkpt>
      <trkpt lat="42.97307" lon="1.0275">
        <ele>1061.4</ele>
        <time>2022-01-29T14:07:14.000Z</time>
      </trkpt>
      <trkpt lat="42.97308" lon="1.02765">
        <ele>1060.8</ele>
        <time>2022-01-29T14:07:16.000Z</time>
      </trkpt>
      <trkpt lat="42.97313" lon="1.02778">
        <ele>1060.8</ele>
        <time>2022-01-29T14:07:18.000Z</time>
      </trkpt>
      <trkpt lat="42.97319" lon="1.0279">
        <ele>1059.9</ele>
        <time>2022-01-29T14:07:21.000Z</time>
      </trkpt>
      <trkpt lat="42.97321" lon="1.02805">
        <ele>1059.2</ele>
        <time>2022-01-29T14:07:24.000Z</time>
      </trkpt>
      <trkpt lat="42.9732" lon="1.02817">
        <ele>1059.7</ele>
        <time>2022-01-29T14:07:27.000Z</time>
      </trkpt>
      <trkpt lat="42.97323" lon="1.02832">
        <ele>1059.8</ele>
        <time>2022-01-29T14:07:31.000Z</time>
      </trkpt>
      <trkpt lat="42.97331" lon="1.02844">
        <ele>1059.7</ele>
        <time>2022-01-29T14:07:35.000Z</time>
      </trkpt>
      <trkpt lat="42.97335" lon="1.02859">
        <ele>1059.3</ele>
        <time>2022-01-29T14:07:39.000Z</time>
      </trkpt>
      <trkpt lat="42.97335" lon="1.02875">
        <ele>1060.2</ele>
        <time>2022-01-29T14:07:42.000Z</time>
      </trkpt>
      <trkpt lat="42.97336" lon="1.02888">
        <ele>1059.9</ele>
        <time>2022-01-29T14:07:44.000Z</time>
      </trkpt>
      <trkpt lat="42.97337" lon="1.02901">
        <ele>1059.4</ele>
        <time>2022-01-29T14:07:47.000Z</time>
      </trkpt>
      <trkpt lat="42.9734" lon="1.02913">
        <ele>1059</ele>
        <time>2022-01-29T14:07:50.000Z</time>
      </trkpt>
      <trkpt lat="42.97346" lon="1.02926">
        <ele>1059.6</ele>
        <time>2022-01-29T14:07:54.000Z</time>
      </trkpt>
      <trkpt lat="42.9735" lon="1.02939">
        <ele>1060.1</ele>
        <time>2022-01-29T14:07:58.000Z</time>
      </trkpt>
      <trkpt lat="42.97351" lon="1.02954">
        <ele>1060</ele>
        <time>2022-01-29T14:08:02.000Z</time>
      </trkpt>
      <trkpt lat="42.97348" lon="1.02967">
        <ele>1060.2</ele>
        <time>2022-01-29T14:08:06.000Z</time>
      </trkpt>
      <trkpt lat="42.97345" lon="1.02979">
        <ele>1060.6</ele>
        <time>2022-01-29T14:08:10.000Z</time>
      </trkpt>
      <trkpt lat="42.97342" lon="1.02991">
        <ele>1060.7</ele>
        <time>2022-01-29T14:08:14.000Z</time>
      </trkpt>
      <trkpt lat="42.97348" lon="1.03001">
        <ele>1061</ele>
        <time>2022-01-29T14:08:18.000Z</time>
      </trkpt>
      <trkpt lat="42.97352" lon="1.03014">
        <ele>1061.3</ele>
        <time>2022-01-29T14:08:22.000Z</time>
      </trkpt>
      <trkpt lat="42.97352" lon="1.03028">
        <ele>1062.2</ele>
        <time>2022-01-29T14:08:27.000Z</time>
      </trkpt>
      <trkpt lat="42.9736" lon="1.03039">
        <ele>1062.2</ele>
        <time>2022-01-29T14:08:32.000Z</time>
      </trkpt>
      <trkpt lat="42.97363" lon="1.0305">
        <ele>1062.4</ele>
        <time>2022-01-29T14:08:36.000Z</time>
      </trkpt>
      <trkpt lat="42.97364" lon="1.03064">
        <ele>1063.9</ele>
        <time>2022-01-29T14:08:40.000Z</time>
      </trkpt>
      <trkpt lat="42.97366" lon="1.03078">
        <ele>1064.7</ele>
        <time>2022-01-29T14:08:45.000Z</time>
      </trkpt>
      <trkpt lat="42.97364" lon="1.03091">
        <ele>1065.7</ele>
        <time>2022-01-29T14:08:52.000Z</time>
      </trkpt>
      <trkpt lat="42.97362" lon="1.03102">
        <ele>1068.1</ele>
        <time>2022-01-29T14:09:02.000Z</time>
      </trkpt>
      <trkpt lat="42.97362" lon="1.03103">
        <ele>1069.2</ele>
        <time>2022-01-29T14:09:09.000Z</time>
      </trkpt>
      <trkpt lat="42.97362" lon="1.03103">
        <ele>1070.8</ele>
        <time>2022-01-29T14:09:15.000Z</time>
      </trkpt>
      <trkpt lat="42.97362" lon="1.03103">
        <ele>1071.7</ele>
        <time>2022-01-29T14:09:22.000Z</time>
      </trkpt>
      <trkpt lat="42.97365" lon="1.03116">
        <ele>1072.9</ele>
        <time>2022-01-29T14:09:27.000Z</time>
      </trkpt>
      <trkpt lat="42.97368" lon="1.03129">
        <ele>1073.9</ele>
        <time>2022-01-29T14:09:32.000Z</time>
      </trkpt>
      <trkpt lat="42.97369" lon="1.03143">
        <ele>1074.9</ele>
        <time>2022-01-29T14:09:37.000Z</time>
      </trkpt>
      <trkpt lat="42.97373" lon="1.03157">
        <ele>1075.8</ele>
        <time>2022-01-29T14:09:43.000Z</time>
      </trkpt>
      <trkpt lat="42.97377" lon="1.03169">
        <ele>1076.9</ele>
        <time>2022-01-29T14:09:49.000Z</time>
      </trkpt>
      <trkpt lat="42.9738" lon="1.03181">
        <ele>1078</ele>
        <time>2022-01-29T14:09:54.000Z</time>
      </trkpt>
      <trkpt lat="42.97382" lon="1.0319">
        <ele>1079.1</ele>
        <time>2022-01-29T14:10:02.000Z</time>
      </trkpt>
      <trkpt lat="42.97382" lon="1.0319">
        <ele>1079.3</ele>
        <time>2022-01-29T14:10:03.000Z</time>
      </trkpt>
      <trkpt lat="42.97382" lon="1.03191">
        <ele>1079.6</ele>
        <time>2022-01-29T14:10:06.000Z</time>
      </trkpt>
      <trkpt lat="42.97382" lon="1.03191">
        <ele>1079.6</ele>
        <time>2022-01-29T14:10:07.000Z</time>
      </trkpt>
      <trkpt lat="42.97386" lon="1.03203">
        <ele>1080.8</ele>
        <time>2022-01-29T14:10:19.000Z</time>
      </trkpt>
      <trkpt lat="42.97386" lon="1.03215">
        <ele>1081.6</ele>
        <time>2022-01-29T14:10:25.000Z</time>
      </trkpt>
      <trkpt lat="42.97385" lon="1.03228">
        <ele>1082.1</ele>
        <time>2022-01-29T14:10:30.000Z</time>
      </trkpt>
      <trkpt lat="42.97382" lon="1.03241">
        <ele>1083.2</ele>
        <time>2022-01-29T14:10:35.000Z</time>
      </trkpt>
      <trkpt lat="42.97382" lon="1.03256">
        <ele>1084</ele>
        <time>2022-01-29T14:10:40.000Z</time>
      </trkpt>
      <trkpt lat="42.97382" lon="1.03271">
        <ele>1084.7</ele>
        <time>2022-01-29T14:10:45.000Z</time>
      </trkpt>
      <trkpt lat="42.97382" lon="1.03284">
        <ele>1085.7</ele>
        <time>2022-01-29T14:10:50.000Z</time>
      </trkpt>
      <trkpt lat="42.97391" lon="1.03292">
        <ele>1086.9</ele>
        <time>2022-01-29T14:10:58.000Z</time>
      </trkpt>
      <trkpt lat="42.97393" lon="1.03294">
        <ele>1087.2</ele>
        <time>2022-01-29T14:11:01.000Z</time>
      </trkpt>
      <trkpt lat="42.97394" lon="1.03293">
        <ele>1087.5</ele>
        <time>2022-01-29T14:11:04.000Z</time>
      </trkpt>
      <trkpt lat="42.97396" lon="1.0329">
        <ele>1087.6</ele>
        <time>2022-01-29T14:11:09.000Z</time>
      </trkpt>
      <trkpt lat="42.97396" lon="1.03289">
        <ele>1087.8</ele>
        <time>2022-01-29T14:11:11.000Z</time>
      </trkpt>
      <trkpt lat="42.97391" lon="1.03289">
        <ele>1088</ele>
        <time>2022-01-29T14:11:19.000Z</time>
      </trkpt>
      <trkpt lat="42.97391" lon="1.03289">
        <ele>1087.8</ele>
        <time>2022-01-29T14:11:21.000Z</time>
      </trkpt>
      <trkpt lat="42.97391" lon="1.03289">
        <ele>1087.8</ele>
        <time>2022-01-29T14:11:24.000Z</time>
      </trkpt>
      <trkpt lat="42.97391" lon="1.03289">
        <ele>1088.1</ele>
        <time>2022-01-29T14:11:33.000Z</time>
      </trkpt>
      <trkpt lat="42.9739" lon="1.03284">
        <ele>1088.7</ele>
        <time>2022-01-29T14:11:42.000Z</time>
      </trkpt>
      <trkpt lat="42.9739" lon="1.03284">
        <ele>1087.7</ele>
        <time>2022-01-29T14:11:48.000Z</time>
      </trkpt>
      <trkpt lat="42.974" lon="1.03289">
        <ele>1087.4</ele>
        <time>2022-01-29T14:11:54.000Z</time>
      </trkpt>
      <trkpt lat="42.97409" lon="1.03296">
        <ele>1087.7</ele>
        <time>2022-01-29T14:11:59.000Z</time>
      </trkpt>
      <trkpt lat="42.97414" lon="1.03309">
        <ele>1087.7</ele>
        <time>2022-01-29T14:12:04.000Z</time>
      </trkpt>
      <trkpt lat="42.97418" lon="1.03323">
        <ele>1088.2</ele>
        <time>2022-01-29T14:12:09.000Z</time>
      </trkpt>
      <trkpt lat="42.97421" lon="1.03335">
        <ele>1089.1</ele>
        <time>2022-01-29T14:12:24.000Z</time>
      </trkpt>
      <trkpt lat="42.97421" lon="1.03348">
        <ele>1090.1</ele>
        <time>2022-01-29T14:12:36.000Z</time>
      </trkpt>
      <trkpt lat="42.97422" lon="1.03352">
        <ele>1090.4</ele>
        <time>2022-01-29T14:12:41.000Z</time>
      </trkpt>
      <trkpt lat="42.97422" lon="1.03352">
        <ele>1090.2</ele>
        <time>2022-01-29T14:12:50.000Z</time>
      </trkpt>
      <trkpt lat="42.97419" lon="1.03364">
        <ele>1090.5</ele>
        <time>2022-01-29T14:12:55.000Z</time>
      </trkpt>
      <trkpt lat="42.97418" lon="1.03377">
        <ele>1090.8</ele>
        <time>2022-01-29T14:13:06.000Z</time>
      </trkpt>
      <trkpt lat="42.97415" lon="1.0339">
        <ele>1091.4</ele>
        <time>2022-01-29T14:13:13.000Z</time>
      </trkpt>
      <trkpt lat="42.97415" lon="1.03405">
        <ele>1091.8</ele>
        <time>2022-01-29T14:13:19.000Z</time>
      </trkpt>
      <trkpt lat="42.9742" lon="1.03417">
        <ele>1092.1</ele>
        <time>2022-01-29T14:13:25.000Z</time>
      </trkpt>
      <trkpt lat="42.97425" lon="1.03428">
        <ele>1091.8</ele>
        <time>2022-01-29T14:13:30.000Z</time>
      </trkpt>
      <trkpt lat="42.9743" lon="1.03439">
        <ele>1092</ele>
        <time>2022-01-29T14:13:37.000Z</time>
      </trkpt>
      <trkpt lat="42.97436" lon="1.03449">
        <ele>1092.1</ele>
        <time>2022-01-29T14:13:45.000Z</time>
      </trkpt>
      <trkpt lat="42.97442" lon="1.03458">
        <ele>1092.2</ele>
        <time>2022-01-29T14:13:52.000Z</time>
      </trkpt>
      <trkpt lat="42.97448" lon="1.03468">
        <ele>1092.1</ele>
        <time>2022-01-29T14:13:56.000Z</time>
      </trkpt>
      <trkpt lat="42.97452" lon="1.0348">
        <ele>1092.1</ele>
        <time>2022-01-29T14:14:00.000Z</time>
      </trkpt>
      <trkpt lat="42.97453" lon="1.03493">
        <ele>1092.3</ele>
        <time>2022-01-29T14:14:04.000Z</time>
      </trkpt>
      <trkpt lat="42.97456" lon="1.03506">
        <ele>1092.3</ele>
        <time>2022-01-29T14:14:08.000Z</time>
      </trkpt>
      <trkpt lat="42.97461" lon="1.03516">
        <ele>1092.7</ele>
        <time>2022-01-29T14:14:15.000Z</time>
      </trkpt>
      <trkpt lat="42.97461" lon="1.03516">
        <ele>1092.7</ele>
        <time>2022-01-29T14:14:17.000Z</time>
      </trkpt>
      <trkpt lat="42.97462" lon="1.03516">
        <ele>1092.8</ele>
        <time>2022-01-29T14:14:20.000Z</time>
      </trkpt>
      <trkpt lat="42.97462" lon="1.03516">
        <ele>1092.9</ele>
        <time>2022-01-29T14:14:21.000Z</time>
      </trkpt>
      <trkpt lat="42.97465" lon="1.03522">
        <ele>1092</ele>
        <time>2022-01-29T14:14:38.000Z</time>
      </trkpt>
      <trkpt lat="42.97465" lon="1.03523">
        <ele>1092.1</ele>
        <time>2022-01-29T14:14:42.000Z</time>
      </trkpt>
      <trkpt lat="42.97465" lon="1.03522">
        <ele>1091.9</ele>
        <time>2022-01-29T14:14:45.000Z</time>
      </trkpt>
      <trkpt lat="42.97465" lon="1.03522">
        <ele>1092</ele>
        <time>2022-01-29T14:14:46.000Z</time>
      </trkpt>
      <trkpt lat="42.97465" lon="1.03522">
        <ele>1092.1</ele>
        <time>2022-01-29T14:14:53.000Z</time>
      </trkpt>
      <trkpt lat="42.97455" lon="1.03521">
        <ele>1092</ele>
        <time>2022-01-29T14:15:00.000Z</time>
      </trkpt>
      <trkpt lat="42.97446" lon="1.03518">
        <ele>1092.2</ele>
        <time>2022-01-29T14:15:07.000Z</time>
      </trkpt>
      <trkpt lat="42.97435" lon="1.03516">
        <ele>1093.4</ele>
        <time>2022-01-29T14:15:13.000Z</time>
      </trkpt>
      <trkpt lat="42.97427" lon="1.03511">
        <ele>1094.3</ele>
        <time>2022-01-29T14:15:18.000Z</time>
      </trkpt>
      <trkpt lat="42.97416" lon="1.03509">
        <ele>1095.3</ele>
        <time>2022-01-29T14:15:23.000Z</time>
      </trkpt>
      <trkpt lat="42.97407" lon="1.03506">
        <ele>1096.6</ele>
        <time>2022-01-29T14:15:28.000Z</time>
      </trkpt>
      <trkpt lat="42.97398" lon="1.03505">
        <ele>1098.8</ele>
        <time>2022-01-29T14:15:35.000Z</time>
      </trkpt>
      <trkpt lat="42.97393" lon="1.03514">
        <ele>1101.4</ele>
        <time>2022-01-29T14:15:44.000Z</time>
      </trkpt>
      <trkpt lat="42.97393" lon="1.03515">
        <ele>1103</ele>
        <time>2022-01-29T14:15:50.000Z</time>
      </trkpt>
      <trkpt lat="42.97396" lon="1.03526">
        <ele>1104.7</ele>
        <time>2022-01-29T14:15:57.000Z</time>
      </trkpt>
      <trkpt lat="42.97402" lon="1.03538">
        <ele>1106.8</ele>
        <time>2022-01-29T14:16:04.000Z</time>
      </trkpt>
      <trkpt lat="42.97407" lon="1.03549">
        <ele>1108.8</ele>
        <time>2022-01-29T14:16:10.000Z</time>
      </trkpt>
      <trkpt lat="42.97408" lon="1.03563">
        <ele>1111</ele>
        <time>2022-01-29T14:16:16.000Z</time>
      </trkpt>
      <trkpt lat="42.97411" lon="1.03575">
        <ele>1113.1</ele>
        <time>2022-01-29T14:16:21.000Z</time>
      </trkpt>
      <trkpt lat="42.97414" lon="1.03588">
        <ele>1115</ele>
        <time>2022-01-29T14:16:27.000Z</time>
      </trkpt>
      <trkpt lat="42.97406" lon="1.03596">
        <ele>1117.1</ele>
        <time>2022-01-29T14:16:34.000Z</time>
      </trkpt>
      <trkpt lat="42.97397" lon="1.03598">
        <ele>1118.8</ele>
        <time>2022-01-29T14:16:39.000Z</time>
      </trkpt>
      <trkpt lat="42.97388" lon="1.03595">
        <ele>1120.1</ele>
        <time>2022-01-29T14:16:44.000Z</time>
      </trkpt>
      <trkpt lat="42.97381" lon="1.03584">
        <ele>1122.5</ele>
        <time>2022-01-29T14:16:50.000Z</time>
      </trkpt>
      <trkpt lat="42.97374" lon="1.03593">
        <ele>1126</ele>
        <time>2022-01-29T14:17:03.000Z</time>
      </trkpt>
      <trkpt lat="42.97374" lon="1.03594">
        <ele>1126.6</ele>
        <time>2022-01-29T14:17:05.000Z</time>
      </trkpt>
      <trkpt lat="42.97374" lon="1.03595">
        <ele>1127.1</ele>
        <time>2022-01-29T14:17:07.000Z</time>
      </trkpt>
      <trkpt lat="42.97374" lon="1.03595">
        <ele>1128</ele>
        <time>2022-01-29T14:17:10.000Z</time>
      </trkpt>
      <trkpt lat="42.97374" lon="1.03595">
        <ele>1128.5</ele>
        <time>2022-01-29T14:17:12.000Z</time>
      </trkpt>
      <trkpt lat="42.97372" lon="1.03609">
        <ele>1130</ele>
        <time>2022-01-29T14:17:20.000Z</time>
      </trkpt>
      <trkpt lat="42.97368" lon="1.03621">
        <ele>1131.6</ele>
        <time>2022-01-29T14:17:26.000Z</time>
      </trkpt>
      <trkpt lat="42.97364" lon="1.03633">
        <ele>1133</ele>
        <time>2022-01-29T14:17:32.000Z</time>
      </trkpt>
      <trkpt lat="42.97356" lon="1.0364">
        <ele>1134.7</ele>
        <time>2022-01-29T14:17:38.000Z</time>
      </trkpt>
      <trkpt lat="42.97351" lon="1.03652">
        <ele>1136.4</ele>
        <time>2022-01-29T14:17:44.000Z</time>
      </trkpt>
      <trkpt lat="42.97344" lon="1.03663">
        <ele>1138.8</ele>
        <time>2022-01-29T14:17:53.000Z</time>
      </trkpt>
      <trkpt lat="42.97344" lon="1.03676">
        <ele>1140.7</ele>
        <time>2022-01-29T14:17:59.000Z</time>
      </trkpt>
      <trkpt lat="42.97348" lon="1.03689">
        <ele>1141.8</ele>
        <time>2022-01-29T14:18:05.000Z</time>
      </trkpt>
      <trkpt lat="42.97348" lon="1.03703">
        <ele>1143.7</ele>
        <time>2022-01-29T14:18:11.000Z</time>
      </trkpt>
      <trkpt lat="42.97345" lon="1.03717">
        <ele>1145.4</ele>
        <time>2022-01-29T14:18:17.000Z</time>
      </trkpt>
      <trkpt lat="42.97342" lon="1.03731">
        <ele>1146.4</ele>
        <time>2022-01-29T14:18:23.000Z</time>
      </trkpt>
      <trkpt lat="42.97341" lon="1.03744">
        <ele>1148.3</ele>
        <time>2022-01-29T14:18:29.000Z</time>
      </trkpt>
      <trkpt lat="42.97338" lon="1.03756">
        <ele>1149.7</ele>
        <time>2022-01-29T14:18:35.000Z</time>
      </trkpt>
      <trkpt lat="42.97338" lon="1.0377">
        <ele>1151.4</ele>
        <time>2022-01-29T14:18:41.000Z</time>
      </trkpt>
      <trkpt lat="42.97334" lon="1.03782">
        <ele>1152.4</ele>
        <time>2022-01-29T14:18:46.000Z</time>
      </trkpt>
      <trkpt lat="42.97332" lon="1.03795">
        <ele>1153.9</ele>
        <time>2022-01-29T14:18:52.000Z</time>
      </trkpt>
      <trkpt lat="42.9734" lon="1.03804">
        <ele>1155.1</ele>
        <time>2022-01-29T14:18:58.000Z</time>
      </trkpt>
      <trkpt lat="42.97347" lon="1.03812">
        <ele>1156.3</ele>
        <time>2022-01-29T14:19:04.000Z</time>
      </trkpt>
      <trkpt lat="42.97345" lon="1.03826">
        <ele>1158.6</ele>
        <time>2022-01-29T14:19:11.000Z</time>
      </trkpt>
      <trkpt lat="42.97338" lon="1.03836">
        <ele>1159.6</ele>
        <time>2022-01-29T14:19:16.000Z</time>
      </trkpt>
      <trkpt lat="42.97333" lon="1.03847">
        <ele>1160.7</ele>
        <time>2022-01-29T14:19:22.000Z</time>
      </trkpt>
      <trkpt lat="42.97333" lon="1.03847">
        <ele>1161.6</ele>
        <time>2022-01-29T14:19:24.000Z</time>
      </trkpt>
      <trkpt lat="42.97333" lon="1.03847">
        <ele>1160.9</ele>
        <time>2022-01-29T14:19:27.000Z</time>
      </trkpt>
      <trkpt lat="42.97329" lon="1.03849">
        <ele>1163.5</ele>
        <time>2022-01-29T14:19:35.000Z</time>
      </trkpt>
      <trkpt lat="42.97329" lon="1.03849">
        <ele>1164.1</ele>
        <time>2022-01-29T14:19:39.000Z</time>
      </trkpt>
      <trkpt lat="42.97329" lon="1.0385">
        <ele>1164.1</ele>
        <time>2022-01-29T14:19:42.000Z</time>
      </trkpt>
      <trkpt lat="42.97329" lon="1.03849">
        <ele>1164.8</ele>
        <time>2022-01-29T14:19:48.000Z</time>
      </trkpt>
      <trkpt lat="42.9733" lon="1.03845">
        <ele>1164.9</ele>
        <time>2022-01-29T14:19:55.000Z</time>
      </trkpt>
      <trkpt lat="42.97331" lon="1.03845">
        <ele>1164.8</ele>
        <time>2022-01-29T14:19:56.000Z</time>
      </trkpt>
      <trkpt lat="42.97333" lon="1.03843">
        <ele>1165.4</ele>
        <time>2022-01-29T14:20:01.000Z</time>
      </trkpt>
      <trkpt lat="42.97333" lon="1.03843">
        <ele>1167.9</ele>
        <time>2022-01-29T14:21:05.000Z</time>
      </trkpt>
      <trkpt lat="42.97332" lon="1.03843">
        <ele>1168.7</ele>
        <time>2022-01-29T14:21:31.000Z</time>
      </trkpt>
      <trkpt lat="42.97333" lon="1.03843">
        <ele>1169.6</ele>
        <time>2022-01-29T14:22:39.000Z</time>
      </trkpt>
      <trkpt lat="42.97333" lon="1.03843">
        <ele>1169</ele>
        <time>2022-01-29T14:24:28.000Z</time>
      </trkpt>
      <trkpt lat="42.97333" lon="1.03843">
        <ele>1169.6</ele>
        <time>2022-01-29T14:25:30.000Z</time>
      </trkpt>
      <trkpt lat="42.97333" lon="1.03843">
        <ele>1169.6</ele>
        <time>2022-01-29T14:25:31.000Z</time>
      </trkpt>
      <trkpt lat="42.97333" lon="1.03843">
        <ele>1169.3</ele>
        <time>2022-01-29T14:26:38.000Z</time>
      </trkpt>
      <trkpt lat="42.97333" lon="1.03844">
        <ele>1169.3</ele>
        <time>2022-01-29T14:26:53.000Z</time>
      </trkpt>
      <trkpt lat="42.97333" lon="1.03845">
        <ele>1169.2</ele>
        <time>2022-01-29T14:26:56.000Z</time>
      </trkpt>
      <trkpt lat="42.97333" lon="1.03846">
        <ele>1168.8</ele>
        <time>2022-01-29T14:27:00.000Z</time>
      </trkpt>
      <trkpt lat="42.97339" lon="1.03855">
        <ele>1168</ele>
        <time>2022-01-29T14:27:12.000Z</time>
      </trkpt>
      <trkpt lat="42.97342" lon="1.03869">
        <ele>1167.1</ele>
        <time>2022-01-29T14:27:16.000Z</time>
      </trkpt>
      <trkpt lat="42.97345" lon="1.03884">
        <ele>1166.9</ele>
        <time>2022-01-29T14:27:19.000Z</time>
      </trkpt>
      <trkpt lat="42.97347" lon="1.03898">
        <ele>1166.8</ele>
        <time>2022-01-29T14:27:23.000Z</time>
      </trkpt>
      <trkpt lat="42.97347" lon="1.03913">
        <ele>1165.9</ele>
        <time>2022-01-29T14:27:26.000Z</time>
      </trkpt>
      <trkpt lat="42.97352" lon="1.03923">
        <ele>1165.1</ele>
        <time>2022-01-29T14:27:33.000Z</time>
      </trkpt>
      <trkpt lat="42.97356" lon="1.03937">
        <ele>1164.5</ele>
        <time>2022-01-29T14:27:37.000Z</time>
      </trkpt>
      <trkpt lat="42.97352" lon="1.03951">
        <ele>1163.5</ele>
        <time>2022-01-29T14:27:40.000Z</time>
      </trkpt>
      <trkpt lat="42.9735" lon="1.03967">
        <ele>1163</ele>
        <time>2022-01-29T14:27:43.000Z</time>
      </trkpt>
      <trkpt lat="42.97344" lon="1.03981">
        <ele>1163</ele>
        <time>2022-01-29T14:27:46.000Z</time>
      </trkpt>
      <trkpt lat="42.97341" lon="1.03997">
        <ele>1162.8</ele>
        <time>2022-01-29T14:27:49.000Z</time>
      </trkpt>
      <trkpt lat="42.97337" lon="1.0401">
        <ele>1162.1</ele>
        <time>2022-01-29T14:27:52.000Z</time>
      </trkpt>
      <trkpt lat="42.97335" lon="1.04025">
        <ele>1161.9</ele>
        <time>2022-01-29T14:27:55.000Z</time>
      </trkpt>
      <trkpt lat="42.97333" lon="1.04037">
        <ele>1161.6</ele>
        <time>2022-01-29T14:27:57.000Z</time>
      </trkpt>
      <trkpt lat="42.97329" lon="1.04052">
        <ele>1160.9</ele>
        <time>2022-01-29T14:28:00.000Z</time>
      </trkpt>
      <trkpt lat="42.97326" lon="1.04066">
        <ele>1160.4</ele>
        <time>2022-01-29T14:28:03.000Z</time>
      </trkpt>
      <trkpt lat="42.97323" lon="1.0408">
        <ele>1159.3</ele>
        <time>2022-01-29T14:28:07.000Z</time>
      </trkpt>
      <trkpt lat="42.97313" lon="1.04073">
        <ele>1158.3</ele>
        <time>2022-01-29T14:28:12.000Z</time>
      </trkpt>
      <trkpt lat="42.97307" lon="1.0406">
        <ele>1157</ele>
        <time>2022-01-29T14:28:15.000Z</time>
      </trkpt>
      <trkpt lat="42.97299" lon="1.0405">
        <ele>1156.4</ele>
        <time>2022-01-29T14:28:18.000Z</time>
      </trkpt>
      <trkpt lat="42.9729" lon="1.04051">
        <ele>1155</ele>
        <time>2022-01-29T14:28:21.000Z</time>
      </trkpt>
      <trkpt lat="42.97282" lon="1.0406">
        <ele>1154.3</ele>
        <time>2022-01-29T14:28:24.000Z</time>
      </trkpt>
      <trkpt lat="42.97282" lon="1.04072">
        <ele>1152.2</ele>
        <time>2022-01-29T14:28:28.000Z</time>
      </trkpt>
      <trkpt lat="42.97282" lon="1.04084">
        <ele>1147.6</ele>
        <time>2022-01-29T14:28:40.000Z</time>
      </trkpt>
      <trkpt lat="42.97283" lon="1.04084">
        <ele>1147.3</ele>
        <time>2022-01-29T14:28:41.000Z</time>
      </trkpt>
      <trkpt lat="42.97283" lon="1.04084">
        <ele>1146.2</ele>
        <time>2022-01-29T14:28:44.000Z</time>
      </trkpt>
      <trkpt lat="42.97283" lon="1.04084">
        <ele>1145.4</ele>
        <time>2022-01-29T14:28:46.000Z</time>
      </trkpt>
      <trkpt lat="42.97283" lon="1.04087">
        <ele>1144.2</ele>
        <time>2022-01-29T14:28:50.000Z</time>
      </trkpt>
      <trkpt lat="42.97282" lon="1.04088">
        <ele>1144.1</ele>
        <time>2022-01-29T14:28:52.000Z</time>
      </trkpt>
      <trkpt lat="42.97284" lon="1.04091">
        <ele>1140.2</ele>
        <time>2022-01-29T14:29:02.000Z</time>
      </trkpt>
      <trkpt lat="42.97284" lon="1.04091">
        <ele>1115.5</ele>
        <time>2022-01-29T14:29:15.000Z</time>
      </trkpt>
      <trkpt lat="42.97284" lon="1.04091">
        <ele>1114.3</ele>
        <time>2022-01-29T14:29:17.000Z</time>
      </trkpt>
      <trkpt lat="42.97284" lon="1.04091">
        <ele>1128.3</ele>
        <time>2022-01-29T14:29:19.000Z</time>
      </trkpt>
      <trkpt lat="42.97284" lon="1.04092">
        <ele>1133.5</ele>
        <time>2022-01-29T14:29:22.000Z</time>
      </trkpt>
      <trkpt lat="42.97284" lon="1.04092">
        <ele>1133.6</ele>
        <time>2022-01-29T14:29:24.000Z</time>
      </trkpt>
      <trkpt lat="42.97284" lon="1.04093">
        <ele>1129.4</ele>
        <time>2022-01-29T14:29:43.000Z</time>
      </trkpt>
      <trkpt lat="42.97287" lon="1.04105">
        <ele>1128.1</ele>
        <time>2022-01-29T14:29:48.000Z</time>
      </trkpt>
      <trkpt lat="42.9729" lon="1.04113">
        <ele>1126.7</ele>
        <time>2022-01-29T14:29:54.000Z</time>
      </trkpt>
      <trkpt lat="42.97291" lon="1.04113">
        <ele>1126.7</ele>
        <time>2022-01-29T14:29:55.000Z</time>
      </trkpt>
      <trkpt lat="42.97281" lon="1.04116">
        <ele>1124.2</ele>
        <time>2022-01-29T14:30:07.000Z</time>
      </trkpt>
      <trkpt lat="42.97272" lon="1.04107">
        <ele>1123.2</ele>
        <time>2022-01-29T14:30:11.000Z</time>
      </trkpt>
      <trkpt lat="42.97268" lon="1.04119">
        <ele>1122.5</ele>
        <time>2022-01-29T14:30:16.000Z</time>
      </trkpt>
      <trkpt lat="42.97265" lon="1.04131">
        <ele>1121.2</ele>
        <time>2022-01-29T14:30:20.000Z</time>
      </trkpt>
      <trkpt lat="42.97253" lon="1.04136">
        <ele>1120.6</ele>
        <time>2022-01-29T14:30:23.000Z</time>
      </trkpt>
      <trkpt lat="42.97243" lon="1.04146">
        <ele>1120.3</ele>
        <time>2022-01-29T14:30:25.000Z</time>
      </trkpt>
      <trkpt lat="42.97231" lon="1.04153">
        <ele>1119.2</ele>
        <time>2022-01-29T14:30:27.000Z</time>
      </trkpt>
      <trkpt lat="42.97222" lon="1.04159">
        <ele>1119.1</ele>
        <time>2022-01-29T14:30:31.000Z</time>
      </trkpt>
      <trkpt lat="42.97212" lon="1.04163">
        <ele>1119.1</ele>
        <time>2022-01-29T14:30:35.000Z</time>
      </trkpt>
      <trkpt lat="42.97203" lon="1.04168">
        <ele>1119</ele>
        <time>2022-01-29T14:30:40.000Z</time>
      </trkpt>
      <trkpt lat="42.97195" lon="1.0418">
        <ele>1118.4</ele>
        <time>2022-01-29T14:30:44.000Z</time>
      </trkpt>
      <trkpt lat="42.97184" lon="1.04185">
        <ele>1118.5</ele>
        <time>2022-01-29T14:30:47.000Z</time>
      </trkpt>
      <trkpt lat="42.97173" lon="1.04191">
        <ele>1117.8</ele>
        <time>2022-01-29T14:30:49.000Z</time>
      </trkpt>
      <trkpt lat="42.97161" lon="1.04197">
        <ele>1117.8</ele>
        <time>2022-01-29T14:30:51.000Z</time>
      </trkpt>
      <trkpt lat="42.97148" lon="1.04203">
        <ele>1117.8</ele>
        <time>2022-01-29T14:30:53.000Z</time>
      </trkpt>
      <trkpt lat="42.9714" lon="1.04212">
        <ele>1117.2</ele>
        <time>2022-01-29T14:30:55.000Z</time>
      </trkpt>
      <trkpt lat="42.97138" lon="1.04226">
        <ele>1117.7</ele>
        <time>2022-01-29T14:30:58.000Z</time>
      </trkpt>
      <trkpt lat="42.97138" lon="1.0424">
        <ele>1118.2</ele>
        <time>2022-01-29T14:31:02.000Z</time>
      </trkpt>
      <trkpt lat="42.97141" lon="1.04253">
        <ele>1117.9</ele>
        <time>2022-01-29T14:31:06.000Z</time>
      </trkpt>
      <trkpt lat="42.97146" lon="1.04265">
        <ele>1117.5</ele>
        <time>2022-01-29T14:31:11.000Z</time>
      </trkpt>
      <trkpt lat="42.97151" lon="1.04275">
        <ele>1117.1</ele>
        <time>2022-01-29T14:31:16.000Z</time>
      </trkpt>
      <trkpt lat="42.97159" lon="1.04283">
        <ele>1116.3</ele>
        <time>2022-01-29T14:31:20.000Z</time>
      </trkpt>
      <trkpt lat="42.97169" lon="1.04289">
        <ele>1115.9</ele>
        <time>2022-01-29T14:31:23.000Z</time>
      </trkpt>
      <trkpt lat="42.97178" lon="1.04297">
        <ele>1115.3</ele>
        <time>2022-01-29T14:31:27.000Z</time>
      </trkpt>
      <trkpt lat="42.97175" lon="1.04309">
        <ele>1114.9</ele>
        <time>2022-01-29T14:31:33.000Z</time>
      </trkpt>
      <trkpt lat="42.97182" lon="1.04316">
        <ele>1112.9</ele>
        <time>2022-01-29T14:31:43.000Z</time>
      </trkpt>
      <trkpt lat="42.97185" lon="1.04321">
        <ele>1110.5</ele>
        <time>2022-01-29T14:31:55.000Z</time>
      </trkpt>
      <trkpt lat="42.97185" lon="1.04322">
        <ele>1109.8</ele>
        <time>2022-01-29T14:31:57.000Z</time>
      </trkpt>
      <trkpt lat="42.97177" lon="1.04328">
        <ele>1108.4</ele>
        <time>2022-01-29T14:32:03.000Z</time>
      </trkpt>
      <trkpt lat="42.97171" lon="1.04342">
        <ele>1107.7</ele>
        <time>2022-01-29T14:32:07.000Z</time>
      </trkpt>
      <trkpt lat="42.97175" lon="1.04354">
        <ele>1106.2</ele>
        <time>2022-01-29T14:32:10.000Z</time>
      </trkpt>
      <trkpt lat="42.97179" lon="1.04368">
        <ele>1105.6</ele>
        <time>2022-01-29T14:32:13.000Z</time>
      </trkpt>
      <trkpt lat="42.97182" lon="1.04384">
        <ele>1104.9</ele>
        <time>2022-01-29T14:32:16.000Z</time>
      </trkpt>
      <trkpt lat="42.97182" lon="1.044">
        <ele>1104.3</ele>
        <time>2022-01-29T14:32:19.000Z</time>
      </trkpt>
      <trkpt lat="42.97183" lon="1.04412">
        <ele>1104.1</ele>
        <time>2022-01-29T14:32:22.000Z</time>
      </trkpt>
      <trkpt lat="42.97186" lon="1.04424">
        <ele>1103.8</ele>
        <time>2022-01-29T14:32:25.000Z</time>
      </trkpt>
      <trkpt lat="42.97189" lon="1.04439">
        <ele>1103</ele>
        <time>2022-01-29T14:32:29.000Z</time>
      </trkpt>
      <trkpt lat="42.97191" lon="1.04453">
        <ele>1102.3</ele>
        <time>2022-01-29T14:32:32.000Z</time>
      </trkpt>
      <trkpt lat="42.97191" lon="1.04466">
        <ele>1101.8</ele>
        <time>2022-01-29T14:32:35.000Z</time>
      </trkpt>
      <trkpt lat="42.97188" lon="1.0448">
        <ele>1101.7</ele>
        <time>2022-01-29T14:32:38.000Z</time>
      </trkpt>
      <trkpt lat="42.97185" lon="1.04492">
        <ele>1101.4</ele>
        <time>2022-01-29T14:32:41.000Z</time>
      </trkpt>
      <trkpt lat="42.97183" lon="1.04504">
        <ele>1101.4</ele>
        <time>2022-01-29T14:32:44.000Z</time>
      </trkpt>
      <trkpt lat="42.97183" lon="1.04518">
        <ele>1101.2</ele>
        <time>2022-01-29T14:32:48.000Z</time>
      </trkpt>
      <trkpt lat="42.97179" lon="1.04533">
        <ele>1101.1</ele>
        <time>2022-01-29T14:32:52.000Z</time>
      </trkpt>
      <trkpt lat="42.97178" lon="1.04545">
        <ele>1100.5</ele>
        <time>2022-01-29T14:32:56.000Z</time>
      </trkpt>
      <trkpt lat="42.97176" lon="1.04558">
        <ele>1100.1</ele>
        <time>2022-01-29T14:33:01.000Z</time>
      </trkpt>
      <trkpt lat="42.97173" lon="1.04571">
        <ele>1099.8</ele>
        <time>2022-01-29T14:33:07.000Z</time>
      </trkpt>
      <trkpt lat="42.9717" lon="1.04583">
        <ele>1100.4</ele>
        <time>2022-01-29T14:33:13.000Z</time>
      </trkpt>
      <trkpt lat="42.97168" lon="1.04596">
        <ele>1099.9</ele>
        <time>2022-01-29T14:33:19.000Z</time>
      </trkpt>
      <trkpt lat="42.97166" lon="1.04608">
        <ele>1099.9</ele>
        <time>2022-01-29T14:33:24.000Z</time>
      </trkpt>
      <trkpt lat="42.97164" lon="1.04621">
        <ele>1099.4</ele>
        <time>2022-01-29T14:33:29.000Z</time>
      </trkpt>
      <trkpt lat="42.97161" lon="1.04635">
        <ele>1099.2</ele>
        <time>2022-01-29T14:33:34.000Z</time>
      </trkpt>
      <trkpt lat="42.97161" lon="1.04651">
        <ele>1098.8</ele>
        <time>2022-01-29T14:33:39.000Z</time>
      </trkpt>
      <trkpt lat="42.97159" lon="1.04665">
        <ele>1098.6</ele>
        <time>2022-01-29T14:33:43.000Z</time>
      </trkpt>
      <trkpt lat="42.97157" lon="1.04678">
        <ele>1098.7</ele>
        <time>2022-01-29T14:33:47.000Z</time>
      </trkpt>
      <trkpt lat="42.97155" lon="1.04691">
        <ele>1098.6</ele>
        <time>2022-01-29T14:33:51.000Z</time>
      </trkpt>
      <trkpt lat="42.97153" lon="1.04706">
        <ele>1098.6</ele>
        <time>2022-01-29T14:33:55.000Z</time>
      </trkpt>
      <trkpt lat="42.97152" lon="1.0472">
        <ele>1098.5</ele>
        <time>2022-01-29T14:33:59.000Z</time>
      </trkpt>
      <trkpt lat="42.9715" lon="1.04733">
        <ele>1098.5</ele>
        <time>2022-01-29T14:34:03.000Z</time>
      </trkpt>
      <trkpt lat="42.97147" lon="1.04746">
        <ele>1098.2</ele>
        <time>2022-01-29T14:34:07.000Z</time>
      </trkpt>
      <trkpt lat="42.97142" lon="1.04759">
        <ele>1098.3</ele>
        <time>2022-01-29T14:34:11.000Z</time>
      </trkpt>
      <trkpt lat="42.97137" lon="1.04772">
        <ele>1098.2</ele>
        <time>2022-01-29T14:34:16.000Z</time>
      </trkpt>
      <trkpt lat="42.97133" lon="1.04785">
        <ele>1098.5</ele>
        <time>2022-01-29T14:34:20.000Z</time>
      </trkpt>
      <trkpt lat="42.97131" lon="1.04798">
        <ele>1097.8</ele>
        <time>2022-01-29T14:34:24.000Z</time>
      </trkpt>
      <trkpt lat="42.97126" lon="1.04812">
        <ele>1097.8</ele>
        <time>2022-01-29T14:34:28.000Z</time>
      </trkpt>
      <trkpt lat="42.97118" lon="1.04818">
        <ele>1097.8</ele>
        <time>2022-01-29T14:34:33.000Z</time>
      </trkpt>
      <trkpt lat="42.97107" lon="1.04822">
        <ele>1097.3</ele>
        <time>2022-01-29T14:34:37.000Z</time>
      </trkpt>
      <trkpt lat="42.97099" lon="1.04831">
        <ele>1097.1</ele>
        <time>2022-01-29T14:34:39.000Z</time>
      </trkpt>
      <trkpt lat="42.97092" lon="1.04845">
        <ele>1096.7</ele>
        <time>2022-01-29T14:34:42.000Z</time>
      </trkpt>
      <trkpt lat="42.9709" lon="1.04858">
        <ele>1096.5</ele>
        <time>2022-01-29T14:34:45.000Z</time>
      </trkpt>
      <trkpt lat="42.97088" lon="1.04871">
        <ele>1096.6</ele>
        <time>2022-01-29T14:34:48.000Z</time>
      </trkpt>
      <trkpt lat="42.97089" lon="1.04883">
        <ele>1095.6</ele>
        <time>2022-01-29T14:34:51.000Z</time>
      </trkpt>
      <trkpt lat="42.9709" lon="1.04896">
        <ele>1095.6</ele>
        <time>2022-01-29T14:34:54.000Z</time>
      </trkpt>
      <trkpt lat="42.97091" lon="1.04909">
        <ele>1095.1</ele>
        <time>2022-01-29T14:34:58.000Z</time>
      </trkpt>
      <trkpt lat="42.97094" lon="1.04914">
        <ele>1094.6</ele>
        <time>2022-01-29T14:35:02.000Z</time>
      </trkpt>
      <trkpt lat="42.97094" lon="1.04914">
        <ele>1093.8</ele>
        <time>2022-01-29T14:35:09.000Z</time>
      </trkpt>
      <trkpt lat="42.97095" lon="1.04914">
        <ele>1092.9</ele>
        <time>2022-01-29T14:35:17.000Z</time>
      </trkpt>
      <trkpt lat="42.97096" lon="1.04927">
        <ele>1091.2</ele>
        <time>2022-01-29T14:35:26.000Z</time>
      </trkpt>
      <trkpt lat="42.971" lon="1.0494">
        <ele>1090.1</ele>
        <time>2022-01-29T14:35:30.000Z</time>
      </trkpt>
      <trkpt lat="42.97103" lon="1.04953">
        <ele>1090.2</ele>
        <time>2022-01-29T14:35:34.000Z</time>
      </trkpt>
      <trkpt lat="42.97103" lon="1.04966">
        <ele>1088.8</ele>
        <time>2022-01-29T14:35:38.000Z</time>
      </trkpt>
      <trkpt lat="42.971" lon="1.0498">
        <ele>1088.1</ele>
        <time>2022-01-29T14:35:44.000Z</time>
      </trkpt>
      <trkpt lat="42.971" lon="1.04993">
        <ele>1087.5</ele>
        <time>2022-01-29T14:35:50.000Z</time>
      </trkpt>
      <trkpt lat="42.97103" lon="1.05006">
        <ele>1086.4</ele>
        <time>2022-01-29T14:35:56.000Z</time>
      </trkpt>
      <trkpt lat="42.97104" lon="1.05019">
        <ele>1085.3</ele>
        <time>2022-01-29T14:36:03.000Z</time>
      </trkpt>
      <trkpt lat="42.97103" lon="1.05033">
        <ele>1085</ele>
        <time>2022-01-29T14:36:10.000Z</time>
      </trkpt>
      <trkpt lat="42.97101" lon="1.05046">
        <ele>1083.5</ele>
        <time>2022-01-29T14:36:15.000Z</time>
      </trkpt>
      <trkpt lat="42.97101" lon="1.05048">
        <ele>1083.4</ele>
        <time>2022-01-29T14:36:18.000Z</time>
      </trkpt>
      <trkpt lat="42.97101" lon="1.05048">
        <ele>1079.7</ele>
        <time>2022-01-29T14:36:48.000Z</time>
      </trkpt>
      <trkpt lat="42.97102" lon="1.05063">
        <ele>1078.7</ele>
        <time>2022-01-29T14:36:56.000Z</time>
      </trkpt>
      <trkpt lat="42.97105" lon="1.05076">
        <ele>1078.1</ele>
        <time>2022-01-29T14:37:01.000Z</time>
      </trkpt>
      <trkpt lat="42.97104" lon="1.0509">
        <ele>1077.6</ele>
        <time>2022-01-29T14:37:06.000Z</time>
      </trkpt>
      <trkpt lat="42.97098" lon="1.05101">
        <ele>1077.2</ele>
        <time>2022-01-29T14:37:11.000Z</time>
      </trkpt>
      <trkpt lat="42.97097" lon="1.05102">
        <ele>1077</ele>
        <time>2022-01-29T14:37:15.000Z</time>
      </trkpt>
      <trkpt lat="42.97097" lon="1.05103">
        <ele>1076.9</ele>
        <time>2022-01-29T14:37:16.000Z</time>
      </trkpt>
      <trkpt lat="42.97096" lon="1.05103">
        <ele>1076.3</ele>
        <time>2022-01-29T14:37:21.000Z</time>
      </trkpt>
      <trkpt lat="42.97096" lon="1.05103">
        <ele>1076.1</ele>
        <time>2022-01-29T14:37:26.000Z</time>
      </trkpt>
      <trkpt lat="42.97096" lon="1.05103">
        <ele>1076</ele>
        <time>2022-01-29T14:37:28.000Z</time>
      </trkpt>
      <trkpt lat="42.97096" lon="1.05103">
        <ele>1075.9</ele>
        <time>2022-01-29T14:37:29.000Z</time>
      </trkpt>
      <trkpt lat="42.97097" lon="1.05101">
        <ele>1076.2</ele>
        <time>2022-01-29T14:37:33.000Z</time>
      </trkpt>
      <trkpt lat="42.97097" lon="1.05101">
        <ele>1072.2</ele>
        <time>2022-01-29T14:38:27.000Z</time>
      </trkpt>
      <trkpt lat="42.97097" lon="1.05101">
        <ele>1069.8</ele>
        <time>2022-01-29T14:39:22.000Z</time>
      </trkpt>
      <trkpt lat="42.97097" lon="1.05101">
        <ele>1069.6</ele>
        <time>2022-01-29T14:39:29.000Z</time>
      </trkpt>
      <trkpt lat="42.97097" lon="1.05101">
        <ele>1069.4</ele>
        <time>2022-01-29T14:39:50.000Z</time>
      </trkpt>
      <trkpt lat="42.97097" lon="1.05101">
        <ele>1069.3</ele>
        <time>2022-01-29T14:40:14.000Z</time>
      </trkpt>
      <trkpt lat="42.97096" lon="1.05101">
        <ele>1069.1</ele>
        <time>2022-01-29T14:40:39.000Z</time>
      </trkpt>
      <trkpt lat="42.97097" lon="1.05101">
        <ele>1067.6</ele>
        <time>2022-01-29T14:42:45.000Z</time>
      </trkpt>
      <trkpt lat="42.97097" lon="1.05101">
        <ele>1067.8</ele>
        <time>2022-01-29T14:42:46.000Z</time>
      </trkpt>
      <trkpt lat="42.97097" lon="1.05101">
        <ele>1068</ele>
        <time>2022-01-29T14:43:05.000Z</time>
      </trkpt>
      <trkpt lat="42.97098" lon="1.05101">
        <ele>1067.6</ele>
        <time>2022-01-29T14:43:16.000Z</time>
      </trkpt>
      <trkpt lat="42.97098" lon="1.05102">
        <ele>1067.3</ele>
        <time>2022-01-29T14:43:27.000Z</time>
      </trkpt>
      <trkpt lat="42.97098" lon="1.05102">
        <ele>1067.4</ele>
        <time>2022-01-29T14:43:29.000Z</time>
      </trkpt>
      <trkpt lat="42.97098" lon="1.05102">
        <ele>1067.3</ele>
        <time>2022-01-29T14:43:31.000Z</time>
      </trkpt>
      <trkpt lat="42.97098" lon="1.05102">
        <ele>1066.9</ele>
        <time>2022-01-29T14:43:42.000Z</time>
      </trkpt>
      <trkpt lat="42.97098" lon="1.05103">
        <ele>1066.7</ele>
        <time>2022-01-29T14:43:44.000Z</time>
      </trkpt>
      <trkpt lat="42.97097" lon="1.05103">
        <ele>1066.8</ele>
        <time>2022-01-29T14:43:47.000Z</time>
      </trkpt>
      <trkpt lat="42.97097" lon="1.05103">
        <ele>1067</ele>
        <time>2022-01-29T14:43:50.000Z</time>
      </trkpt>
      <trkpt lat="42.97096" lon="1.05103">
        <ele>1067.3</ele>
        <time>2022-01-29T14:43:54.000Z</time>
      </trkpt>
      <trkpt lat="42.97096" lon="1.05103">
        <ele>1067.2</ele>
        <time>2022-01-29T14:43:57.000Z</time>
      </trkpt>
      <trkpt lat="42.97096" lon="1.05103">
        <ele>1066.8</ele>
        <time>2022-01-29T14:44:09.000Z</time>
      </trkpt>
      <trkpt lat="42.97096" lon="1.05103">
        <ele>1067.3</ele>
        <time>2022-01-29T14:44:23.000Z</time>
      </trkpt>
      <trkpt lat="42.97095" lon="1.05102">
        <ele>1067.1</ele>
        <time>2022-01-29T14:44:26.000Z</time>
      </trkpt>
      <trkpt lat="42.97095" lon="1.05102">
        <ele>1067.2</ele>
        <time>2022-01-29T14:44:43.000Z</time>
      </trkpt>
      <trkpt lat="42.97094" lon="1.05103">
        <ele>1067.1</ele>
        <time>2022-01-29T14:44:46.000Z</time>
      </trkpt>
      <trkpt lat="42.97085" lon="1.05109">
        <ele>1066.2</ele>
        <time>2022-01-29T14:44:53.000Z</time>
      </trkpt>
      <trkpt lat="42.97076" lon="1.05111">
        <ele>1064.6</ele>
        <time>2022-01-29T14:45:00.000Z</time>
      </trkpt>
      <trkpt lat="42.97077" lon="1.05125">
        <ele>1064.2</ele>
        <time>2022-01-29T14:45:08.000Z</time>
      </trkpt>
      <trkpt lat="42.97082" lon="1.05136">
        <ele>1063.1</ele>
        <time>2022-01-29T14:45:14.000Z</time>
      </trkpt>
      <trkpt lat="42.97073" lon="1.0514">
        <ele>1060.9</ele>
        <time>2022-01-29T14:45:25.000Z</time>
      </trkpt>
      <trkpt lat="42.97069" lon="1.05152">
        <ele>1058.9</ele>
        <time>2022-01-29T14:45:33.000Z</time>
      </trkpt>
      <trkpt lat="42.97065" lon="1.05162">
        <ele>1056.1</ele>
        <time>2022-01-29T14:45:43.000Z</time>
      </trkpt>
      <trkpt lat="42.97065" lon="1.05162">
        <ele>1055.5</ele>
        <time>2022-01-29T14:45:45.000Z</time>
      </trkpt>
      <trkpt lat="42.97065" lon="1.05163">
        <ele>1055</ele>
        <time>2022-01-29T14:45:48.000Z</time>
      </trkpt>
      <trkpt lat="42.97064" lon="1.05163">
        <ele>1054.1</ele>
        <time>2022-01-29T14:45:52.000Z</time>
      </trkpt>
      <trkpt lat="42.97064" lon="1.05165">
        <ele>1053.7</ele>
        <time>2022-01-29T14:45:56.000Z</time>
      </trkpt>
      <trkpt lat="42.97064" lon="1.05164">
        <ele>1053.6</ele>
        <time>2022-01-29T14:45:57.000Z</time>
      </trkpt>
      <trkpt lat="42.97062" lon="1.05165">
        <ele>1051.5</ele>
        <time>2022-01-29T14:46:04.000Z</time>
      </trkpt>
      <trkpt lat="42.97061" lon="1.05166">
        <ele>1050.5</ele>
        <time>2022-01-29T14:46:09.000Z</time>
      </trkpt>
      <trkpt lat="42.97061" lon="1.05167">
        <ele>1049.9</ele>
        <time>2022-01-29T14:46:11.000Z</time>
      </trkpt>
      <trkpt lat="42.97061" lon="1.05167">
        <ele>1049.6</ele>
        <time>2022-01-29T14:46:14.000Z</time>
      </trkpt>
      <trkpt lat="42.97058" lon="1.05181">
        <ele>1047.9</ele>
        <time>2022-01-29T14:46:20.000Z</time>
      </trkpt>
      <trkpt lat="42.97054" lon="1.05195">
        <ele>1046.7</ele>
        <time>2022-01-29T14:46:24.000Z</time>
      </trkpt>
      <trkpt lat="42.97047" lon="1.05207">
        <ele>1045.3</ele>
        <time>2022-01-29T14:46:28.000Z</time>
      </trkpt>
      <trkpt lat="42.97038" lon="1.05215">
        <ele>1044.7</ele>
        <time>2022-01-29T14:46:31.000Z</time>
      </trkpt>
      <trkpt lat="42.9703" lon="1.05222">
        <ele>1043.9</ele>
        <time>2022-01-29T14:46:33.000Z</time>
      </trkpt>
      <trkpt lat="42.9702" lon="1.05228">
        <ele>1043.1</ele>
        <time>2022-01-29T14:46:36.000Z</time>
      </trkpt>
      <trkpt lat="42.97014" lon="1.05238">
        <ele>1041.8</ele>
        <time>2022-01-29T14:46:39.000Z</time>
      </trkpt>
      <trkpt lat="42.97006" lon="1.05244">
        <ele>1041.5</ele>
        <time>2022-01-29T14:46:42.000Z</time>
      </trkpt>
      <trkpt lat="42.96995" lon="1.05244">
        <ele>1040.1</ele>
        <time>2022-01-29T14:46:46.000Z</time>
      </trkpt>
      <trkpt lat="42.96987" lon="1.05251">
        <ele>1038.7</ele>
        <time>2022-01-29T14:46:51.000Z</time>
      </trkpt>
      <trkpt lat="42.9698" lon="1.05261">
        <ele>1036.6</ele>
        <time>2022-01-29T14:46:57.000Z</time>
      </trkpt>
      <trkpt lat="42.96972" lon="1.05269">
        <ele>1034.4</ele>
        <time>2022-01-29T14:47:02.000Z</time>
      </trkpt>
      <trkpt lat="42.96973" lon="1.05283">
        <ele>1032.8</ele>
        <time>2022-01-29T14:47:07.000Z</time>
      </trkpt>
      <trkpt lat="42.96974" lon="1.05295">
        <ele>1030.9</ele>
        <time>2022-01-29T14:47:13.000Z</time>
      </trkpt>
      <trkpt lat="42.96977" lon="1.05307">
        <ele>1028.7</ele>
        <time>2022-01-29T14:47:20.000Z</time>
      </trkpt>
      <trkpt lat="42.96976" lon="1.05323">
        <ele>1027</ele>
        <time>2022-01-29T14:47:25.000Z</time>
      </trkpt>
      <trkpt lat="42.96973" lon="1.05335">
        <ele>1026.1</ele>
        <time>2022-01-29T14:47:28.000Z</time>
      </trkpt>
      <trkpt lat="42.96967" lon="1.05347">
        <ele>1024.9</ele>
        <time>2022-01-29T14:47:32.000Z</time>
      </trkpt>
      <trkpt lat="42.96962" lon="1.05359">
        <ele>1023.3</ele>
        <time>2022-01-29T14:47:38.000Z</time>
      </trkpt>
      <trkpt lat="42.96957" lon="1.05371">
        <ele>1022.6</ele>
        <time>2022-01-29T14:47:43.000Z</time>
      </trkpt>
      <trkpt lat="42.96952" lon="1.05383">
        <ele>1021.7</ele>
        <time>2022-01-29T14:47:47.000Z</time>
      </trkpt>
      <trkpt lat="42.96954" lon="1.05398">
        <ele>1021.6</ele>
        <time>2022-01-29T14:47:51.000Z</time>
      </trkpt>
      <trkpt lat="42.96961" lon="1.05409">
        <ele>1021</ele>
        <time>2022-01-29T14:47:55.000Z</time>
      </trkpt>
      <trkpt lat="42.96963" lon="1.05421">
        <ele>1021.6</ele>
        <time>2022-01-29T14:47:58.000Z</time>
      </trkpt>
      <trkpt lat="42.96965" lon="1.05435">
        <ele>1021.7</ele>
        <time>2022-01-29T14:48:01.000Z</time>
      </trkpt>
      <trkpt lat="42.96971" lon="1.05443">
        <ele>1021.6</ele>
        <time>2022-01-29T14:48:05.000Z</time>
      </trkpt>
      <trkpt lat="42.96975" lon="1.05447">
        <ele>1022</ele>
        <time>2022-01-29T14:48:10.000Z</time>
      </trkpt>
      <trkpt lat="42.96975" lon="1.05448">
        <ele>1022.5</ele>
        <time>2022-01-29T14:48:12.000Z</time>
      </trkpt>
      <trkpt lat="42.96977" lon="1.05449">
        <ele>1021.8</ele>
        <time>2022-01-29T14:48:22.000Z</time>
      </trkpt>
      <trkpt lat="42.96977" lon="1.05449">
        <ele>1021.5</ele>
        <time>2022-01-29T14:48:24.000Z</time>
      </trkpt>
      <trkpt lat="42.96977" lon="1.05449">
        <ele>1021.4</ele>
        <time>2022-01-29T14:48:26.000Z</time>
      </trkpt>
      <trkpt lat="42.96977" lon="1.05449">
        <ele>1021.4</ele>
        <time>2022-01-29T14:48:29.000Z</time>
      </trkpt>
      <trkpt lat="42.96984" lon="1.05459">
        <ele>1021</ele>
        <time>2022-01-29T14:48:38.000Z</time>
      </trkpt>
      <trkpt lat="42.96988" lon="1.05472">
        <ele>1020.8</ele>
        <time>2022-01-29T14:48:42.000Z</time>
      </trkpt>
      <trkpt lat="42.96992" lon="1.05485">
        <ele>1020.8</ele>
        <time>2022-01-29T14:48:47.000Z</time>
      </trkpt>
      <trkpt lat="42.96999" lon="1.05494">
        <ele>1021.2</ele>
        <time>2022-01-29T14:48:52.000Z</time>
      </trkpt>
      <trkpt lat="42.97004" lon="1.05508">
        <ele>1021.5</ele>
        <time>2022-01-29T14:48:57.000Z</time>
      </trkpt>
      <trkpt lat="42.97003" lon="1.05521">
        <ele>1021</ele>
        <time>2022-01-29T14:49:03.000Z</time>
      </trkpt>
      <trkpt lat="42.96995" lon="1.05527">
        <ele>1019.3</ele>
        <time>2022-01-29T14:49:22.000Z</time>
      </trkpt>
      <trkpt lat="42.96994" lon="1.05527">
        <ele>1019.6</ele>
        <time>2022-01-29T14:49:24.000Z</time>
      </trkpt>
      <trkpt lat="42.96994" lon="1.05528">
        <ele>1019.7</ele>
        <time>2022-01-29T14:49:25.000Z</time>
      </trkpt>
      <trkpt lat="42.96994" lon="1.05528">
        <ele>1019.7</ele>
        <time>2022-01-29T14:49:27.000Z</time>
      </trkpt>
      <trkpt lat="42.96994" lon="1.05528">
        <ele>1019.7</ele>
        <time>2022-01-29T14:49:28.000Z</time>
      </trkpt>
      <trkpt lat="42.96994" lon="1.05529">
        <ele>1019.2</ele>
        <time>2022-01-29T14:49:33.000Z</time>
      </trkpt>
      <trkpt lat="42.96995" lon="1.05542">
        <ele>1018.1</ele>
        <time>2022-01-29T14:49:39.000Z</time>
      </trkpt>
      <trkpt lat="42.96999" lon="1.05558">
        <ele>1017.8</ele>
        <time>2022-01-29T14:49:43.000Z</time>
      </trkpt>
      <trkpt lat="42.97007" lon="1.05571">
        <ele>1017.4</ele>
        <time>2022-01-29T14:49:46.000Z</time>
      </trkpt>
      <trkpt lat="42.97016" lon="1.05579">
        <ele>1016.8</ele>
        <time>2022-01-29T14:49:48.000Z</time>
      </trkpt>
      <trkpt lat="42.97023" lon="1.05588">
        <ele>1016</ele>
        <time>2022-01-29T14:49:50.000Z</time>
      </trkpt>
      <trkpt lat="42.97031" lon="1.05597">
        <ele>1016.1</ele>
        <time>2022-01-29T14:49:52.000Z</time>
      </trkpt>
      <trkpt lat="42.97037" lon="1.05608">
        <ele>1015.4</ele>
        <time>2022-01-29T14:49:54.000Z</time>
      </trkpt>
      <trkpt lat="42.97043" lon="1.0562">
        <ele>1014.8</ele>
        <time>2022-01-29T14:49:56.000Z</time>
      </trkpt>
      <trkpt lat="42.97048" lon="1.05632">
        <ele>1014.4</ele>
        <time>2022-01-29T14:49:58.000Z</time>
      </trkpt>
      <trkpt lat="42.97051" lon="1.05644">
        <ele>1013.5</ele>
        <time>2022-01-29T14:50:00.000Z</time>
      </trkpt>
      <trkpt lat="42.97055" lon="1.05658">
        <ele>1013.1</ele>
        <time>2022-01-29T14:50:02.000Z</time>
      </trkpt>
      <trkpt lat="42.97058" lon="1.05672">
        <ele>1013.4</ele>
        <time>2022-01-29T14:50:04.000Z</time>
      </trkpt>
      <trkpt lat="42.97063" lon="1.05685">
        <ele>1011.3</ele>
        <time>2022-01-29T14:50:06.000Z</time>
      </trkpt>
      <trkpt lat="42.97069" lon="1.05699">
        <ele>1011.5</ele>
        <time>2022-01-29T14:50:08.000Z</time>
      </trkpt>
      <trkpt lat="42.97074" lon="1.05712">
        <ele>1011.4</ele>
        <time>2022-01-29T14:50:10.000Z</time>
      </trkpt>
      <trkpt lat="42.97078" lon="1.05726">
        <ele>1010</ele>
        <time>2022-01-29T14:50:12.000Z</time>
      </trkpt>
      <trkpt lat="42.97086" lon="1.05739">
        <ele>1008.3</ele>
        <time>2022-01-29T14:50:14.000Z</time>
      </trkpt>
      <trkpt lat="42.97095" lon="1.05752">
        <ele>1007.8</ele>
        <time>2022-01-29T14:50:16.000Z</time>
      </trkpt>
      <trkpt lat="42.97103" lon="1.05765">
        <ele>1006.5</ele>
        <time>2022-01-29T14:50:18.000Z</time>
      </trkpt>
      <trkpt lat="42.9711" lon="1.05779">
        <ele>1005.9</ele>
        <time>2022-01-29T14:50:20.000Z</time>
      </trkpt>
      <trkpt lat="42.97118" lon="1.05794">
        <ele>1005.1</ele>
        <time>2022-01-29T14:50:22.000Z</time>
      </trkpt>
      <trkpt lat="42.97123" lon="1.05809">
        <ele>1004.4</ele>
        <time>2022-01-29T14:50:24.000Z</time>
      </trkpt>
      <trkpt lat="42.97127" lon="1.05824">
        <ele>1003</ele>
        <time>2022-01-29T14:50:26.000Z</time>
      </trkpt>
      <trkpt lat="42.97132" lon="1.05839">
        <ele>1002.6</ele>
        <time>2022-01-29T14:50:28.000Z</time>
      </trkpt>
      <trkpt lat="42.97138" lon="1.05855">
        <ele>1000.8</ele>
        <time>2022-01-29T14:50:30.000Z</time>
      </trkpt>
      <trkpt lat="42.97145" lon="1.05871">
        <ele>1000</ele>
        <time>2022-01-29T14:50:32.000Z</time>
      </trkpt>
      <trkpt lat="42.97153" lon="1.05887">
        <ele>998.8</ele>
        <time>2022-01-29T14:50:34.000Z</time>
      </trkpt>
      <trkpt lat="42.97161" lon="1.05902">
        <ele>996.4</ele>
        <time>2022-01-29T14:50:36.000Z</time>
      </trkpt>
      <trkpt lat="42.9717" lon="1.05914">
        <ele>996.4</ele>
        <time>2022-01-29T14:50:38.000Z</time>
      </trkpt>
      <trkpt lat="42.97176" lon="1.05927">
        <ele>995.5</ele>
        <time>2022-01-29T14:50:40.000Z</time>
      </trkpt>
      <trkpt lat="42.97182" lon="1.05941">
        <ele>994.1</ele>
        <time>2022-01-29T14:50:42.000Z</time>
      </trkpt>
      <trkpt lat="42.97188" lon="1.05956">
        <ele>992.5</ele>
        <time>2022-01-29T14:50:44.000Z</time>
      </trkpt>
      <trkpt lat="42.97193" lon="1.05974">
        <ele>991.4</ele>
        <time>2022-01-29T14:50:46.000Z</time>
      </trkpt>
      <trkpt lat="42.97199" lon="1.05992">
        <ele>990.7</ele>
        <time>2022-01-29T14:50:48.000Z</time>
      </trkpt>
      <trkpt lat="42.97207" lon="1.0601">
        <ele>989.3</ele>
        <time>2022-01-29T14:50:50.000Z</time>
      </trkpt>
      <trkpt lat="42.97214" lon="1.06027">
        <ele>988.1</ele>
        <time>2022-01-29T14:50:52.000Z</time>
      </trkpt>
      <trkpt lat="42.97218" lon="1.06043">
        <ele>987.1</ele>
        <time>2022-01-29T14:50:54.000Z</time>
      </trkpt>
      <trkpt lat="42.9722" lon="1.06058">
        <ele>985.9</ele>
        <time>2022-01-29T14:50:56.000Z</time>
      </trkpt>
      <trkpt lat="42.9722" lon="1.06072">
        <ele>985.2</ele>
        <time>2022-01-29T14:50:58.000Z</time>
      </trkpt>
      <trkpt lat="42.97218" lon="1.06086">
        <ele>984</ele>
        <time>2022-01-29T14:51:00.000Z</time>
      </trkpt>
      <trkpt lat="42.97217" lon="1.06101">
        <ele>982.9</ele>
        <time>2022-01-29T14:51:02.000Z</time>
      </trkpt>
      <trkpt lat="42.97219" lon="1.06115">
        <ele>981.6</ele>
        <time>2022-01-29T14:51:04.000Z</time>
      </trkpt>
      <trkpt lat="42.97223" lon="1.06128">
        <ele>980</ele>
        <time>2022-01-29T14:51:06.000Z</time>
      </trkpt>
      <trkpt lat="42.97231" lon="1.06141">
        <ele>979.4</ele>
        <time>2022-01-29T14:51:08.000Z</time>
      </trkpt>
      <trkpt lat="42.97238" lon="1.06151">
        <ele>977.7</ele>
        <time>2022-01-29T14:51:10.000Z</time>
      </trkpt>
      <trkpt lat="42.9724" lon="1.06164">
        <ele>976.7</ele>
        <time>2022-01-29T14:51:13.000Z</time>
      </trkpt>
      <trkpt lat="42.97235" lon="1.06178">
        <ele>975.6</ele>
        <time>2022-01-29T14:51:16.000Z</time>
      </trkpt>
      <trkpt lat="42.9723" lon="1.06193">
        <ele>975</ele>
        <time>2022-01-29T14:51:18.000Z</time>
      </trkpt>
      <trkpt lat="42.97227" lon="1.06207">
        <ele>973.2</ele>
        <time>2022-01-29T14:51:20.000Z</time>
      </trkpt>
      <trkpt lat="42.97226" lon="1.06222">
        <ele>972.2</ele>
        <time>2022-01-29T14:51:22.000Z</time>
      </trkpt>
      <trkpt lat="42.97225" lon="1.06238">
        <ele>971.2</ele>
        <time>2022-01-29T14:51:24.000Z</time>
      </trkpt>
      <trkpt lat="42.97227" lon="1.06256">
        <ele>969.5</ele>
        <time>2022-01-29T14:51:26.000Z</time>
      </trkpt>
      <trkpt lat="42.97231" lon="1.06273">
        <ele>968.6</ele>
        <time>2022-01-29T14:51:28.000Z</time>
      </trkpt>
      <trkpt lat="42.97238" lon="1.06289">
        <ele>967.3</ele>
        <time>2022-01-29T14:51:30.000Z</time>
      </trkpt>
      <trkpt lat="42.97247" lon="1.06305">
        <ele>966.3</ele>
        <time>2022-01-29T14:51:32.000Z</time>
      </trkpt>
      <trkpt lat="42.97256" lon="1.06322">
        <ele>965.6</ele>
        <time>2022-01-29T14:51:34.000Z</time>
      </trkpt>
      <trkpt lat="42.97266" lon="1.06338">
        <ele>964.5</ele>
        <time>2022-01-29T14:51:36.000Z</time>
      </trkpt>
      <trkpt lat="42.97278" lon="1.06353">
        <ele>963.4</ele>
        <time>2022-01-29T14:51:38.000Z</time>
      </trkpt>
      <trkpt lat="42.97293" lon="1.06368">
        <ele>962.3</ele>
        <time>2022-01-29T14:51:40.000Z</time>
      </trkpt>
      <trkpt lat="42.973" lon="1.06374">
        <ele>961</ele>
        <time>2022-01-29T14:51:41.000Z</time>
      </trkpt>
      <trkpt lat="42.97308" lon="1.0638">
        <ele>960.5</ele>
        <time>2022-01-29T14:51:42.000Z</time>
      </trkpt>
      <trkpt lat="42.97323" lon="1.06392">
        <ele>959.3</ele>
        <time>2022-01-29T14:51:44.000Z</time>
      </trkpt>
      <trkpt lat="42.97338" lon="1.06403">
        <ele>958.5</ele>
        <time>2022-01-29T14:51:46.000Z</time>
      </trkpt>
      <trkpt lat="42.97346" lon="1.06409">
        <ele>957.9</ele>
        <time>2022-01-29T14:51:47.000Z</time>
      </trkpt>
      <trkpt lat="42.97354" lon="1.06415">
        <ele>957</ele>
        <time>2022-01-29T14:51:48.000Z</time>
      </trkpt>
      <trkpt lat="42.97365" lon="1.06424">
        <ele>955.2</ele>
        <time>2022-01-29T14:51:50.000Z</time>
      </trkpt>
      <trkpt lat="42.97369" lon="1.06435">
        <ele>954.3</ele>
        <time>2022-01-29T14:51:52.000Z</time>
      </trkpt>
      <trkpt lat="42.97368" lon="1.06451">
        <ele>952.7</ele>
        <time>2022-01-29T14:51:54.000Z</time>
      </trkpt>
      <trkpt lat="42.97363" lon="1.06469">
        <ele>950.9</ele>
        <time>2022-01-29T14:51:56.000Z</time>
      </trkpt>
      <trkpt lat="42.97355" lon="1.06487">
        <ele>949.5</ele>
        <time>2022-01-29T14:51:58.000Z</time>
      </trkpt>
      <trkpt lat="42.97345" lon="1.06505">
        <ele>949</ele>
        <time>2022-01-29T14:52:00.000Z</time>
      </trkpt>
      <trkpt lat="42.97333" lon="1.06522">
        <ele>947.2</ele>
        <time>2022-01-29T14:52:02.000Z</time>
      </trkpt>
      <trkpt lat="42.97321" lon="1.06539">
        <ele>945.5</ele>
        <time>2022-01-29T14:52:04.000Z</time>
      </trkpt>
      <trkpt lat="42.97309" lon="1.06557">
        <ele>943.5</ele>
        <time>2022-01-29T14:52:06.000Z</time>
      </trkpt>
      <trkpt lat="42.97301" lon="1.06576">
        <ele>942.4</ele>
        <time>2022-01-29T14:52:08.000Z</time>
      </trkpt>
      <trkpt lat="42.97297" lon="1.06593">
        <ele>940.9</ele>
        <time>2022-01-29T14:52:10.000Z</time>
      </trkpt>
      <trkpt lat="42.97295" lon="1.06611">
        <ele>939.7</ele>
        <time>2022-01-29T14:52:12.000Z</time>
      </trkpt>
      <trkpt lat="42.97295" lon="1.06628">
        <ele>938.5</ele>
        <time>2022-01-29T14:52:14.000Z</time>
      </trkpt>
      <trkpt lat="42.97295" lon="1.06643">
        <ele>937.2</ele>
        <time>2022-01-29T14:52:16.000Z</time>
      </trkpt>
      <trkpt lat="42.97295" lon="1.0666">
        <ele>935.4</ele>
        <time>2022-01-29T14:52:19.000Z</time>
      </trkpt>
      <trkpt lat="42.97285" lon="1.06663">
        <ele>934</ele>
        <time>2022-01-29T14:52:22.000Z</time>
      </trkpt>
      <trkpt lat="42.97276" lon="1.06662">
        <ele>932.6</ele>
        <time>2022-01-29T14:52:25.000Z</time>
      </trkpt>
      <trkpt lat="42.97267" lon="1.06668">
        <ele>930.5</ele>
        <time>2022-01-29T14:52:29.000Z</time>
      </trkpt>
      <trkpt lat="42.97258" lon="1.06675">
        <ele>928.9</ele>
        <time>2022-01-29T14:52:32.000Z</time>
      </trkpt>
      <trkpt lat="42.9725" lon="1.06687">
        <ele>927.1</ele>
        <time>2022-01-29T14:52:35.000Z</time>
      </trkpt>
      <trkpt lat="42.97241" lon="1.06703">
        <ele>925.3</ele>
        <time>2022-01-29T14:52:38.000Z</time>
      </trkpt>
      <trkpt lat="42.97235" lon="1.06712">
        <ele>924.3</ele>
        <time>2022-01-29T14:52:40.000Z</time>
      </trkpt>
      <trkpt lat="42.97228" lon="1.06722">
        <ele>922.4</ele>
        <time>2022-01-29T14:52:43.000Z</time>
      </trkpt>
      <trkpt lat="42.97225" lon="1.06734">
        <ele>920.4</ele>
        <time>2022-01-29T14:52:46.000Z</time>
      </trkpt>
      <trkpt lat="42.97214" lon="1.06739">
        <ele>919</ele>
        <time>2022-01-29T14:52:50.000Z</time>
      </trkpt>
      <trkpt lat="42.97203" lon="1.06734">
        <ele>916.8</ele>
        <time>2022-01-29T14:52:53.000Z</time>
      </trkpt>
      <trkpt lat="42.97194" lon="1.06731">
        <ele>914.7</ele>
        <time>2022-01-29T14:52:56.000Z</time>
      </trkpt>
      <trkpt lat="42.97183" lon="1.0673">
        <ele>914.2</ele>
        <time>2022-01-29T14:52:59.000Z</time>
      </trkpt>
      <trkpt lat="42.97172" lon="1.06729">
        <ele>912.4</ele>
        <time>2022-01-29T14:53:02.000Z</time>
      </trkpt>
      <trkpt lat="42.97161" lon="1.0673">
        <ele>910.7</ele>
        <time>2022-01-29T14:53:05.000Z</time>
      </trkpt>
      <trkpt lat="42.97153" lon="1.06736">
        <ele>908.7</ele>
        <time>2022-01-29T14:53:08.000Z</time>
      </trkpt>
      <trkpt lat="42.97144" lon="1.06741">
        <ele>906.6</ele>
        <time>2022-01-29T14:53:12.000Z</time>
      </trkpt>
      <trkpt lat="42.97135" lon="1.06746">
        <ele>903.5</ele>
        <time>2022-01-29T14:53:19.000Z</time>
      </trkpt>
      <trkpt lat="42.97127" lon="1.06753">
        <ele>901.9</ele>
        <time>2022-01-29T14:53:21.000Z</time>
      </trkpt>
      <trkpt lat="42.97119" lon="1.06759">
        <ele>901.2</ele>
        <time>2022-01-29T14:53:23.000Z</time>
      </trkpt>
      <trkpt lat="42.97109" lon="1.06766">
        <ele>899.6</ele>
        <time>2022-01-29T14:53:26.000Z</time>
      </trkpt>
      <trkpt lat="42.97099" lon="1.06775">
        <ele>898.2</ele>
        <time>2022-01-29T14:53:29.000Z</time>
      </trkpt>
      <trkpt lat="42.97092" lon="1.06783">
        <ele>897.1</ele>
        <time>2022-01-29T14:53:31.000Z</time>
      </trkpt>
      <trkpt lat="42.97081" lon="1.06792">
        <ele>895.9</ele>
        <time>2022-01-29T14:53:34.000Z</time>
      </trkpt>
      <trkpt lat="42.97073" lon="1.06799">
        <ele>894.7</ele>
        <time>2022-01-29T14:53:36.000Z</time>
      </trkpt>
      <trkpt lat="42.97064" lon="1.06804">
        <ele>893.9</ele>
        <time>2022-01-29T14:53:38.000Z</time>
      </trkpt>
      <trkpt lat="42.97054" lon="1.06809">
        <ele>892.9</ele>
        <time>2022-01-29T14:53:40.000Z</time>
      </trkpt>
      <trkpt lat="42.97045" lon="1.06812">
        <ele>891.9</ele>
        <time>2022-01-29T14:53:42.000Z</time>
      </trkpt>
      <trkpt lat="42.97036" lon="1.0681">
        <ele>890.8</ele>
        <time>2022-01-29T14:53:44.000Z</time>
      </trkpt>
      <trkpt lat="42.97026" lon="1.06803">
        <ele>889.3</ele>
        <time>2022-01-29T14:53:47.000Z</time>
      </trkpt>
      <trkpt lat="42.97012" lon="1.068">
        <ele>887.9</ele>
        <time>2022-01-29T14:53:50.000Z</time>
      </trkpt>
      <trkpt lat="42.96999" lon="1.06799">
        <ele>887.2</ele>
        <time>2022-01-29T14:53:52.000Z</time>
      </trkpt>
      <trkpt lat="42.96988" lon="1.06802">
        <ele>886.3</ele>
        <time>2022-01-29T14:53:54.000Z</time>
      </trkpt>
      <trkpt lat="42.96977" lon="1.06811">
        <ele>884.4</ele>
        <time>2022-01-29T14:53:56.000Z</time>
      </trkpt>
      <trkpt lat="42.96967" lon="1.06823">
        <ele>883.1</ele>
        <time>2022-01-29T14:53:58.000Z</time>
        <extensions>
          <visugpx:TrkExtension xmlns:visugpx="https://www.visugpx.com/editgpx/">
            <visugpx:node>1</visugpx:node>
            </visugpx:TrkExtension>
        </extensions>
      </trkpt>
    </trkseg>
  </trk>
  <trk>
    <name><![CDATA[Boucle Alas - Difficulté moyenne]]></name>
    <extensions>
      <line xmlns="http://www.topografix.com/GPX/gpx_style/0/2">
        <color>002f9e</color>
        <width>4</width>
          <extensions>
            <sens>1</sens>
          </extensions>
      </line>
    </extensions>
    <trkseg>
      <trkpt lat="42.98176" lon="1.1273">
        <ele>424.1</ele>
        <time>2022-08-18T06:14:27.000Z</time>
      </trkpt>
      <trkpt lat="42.98165" lon="1.12727">
        <ele>423.8</ele>
        <time>2022-08-18T06:14:30.000Z</time>
      </trkpt>
      <trkpt lat="42.98154" lon="1.12722">
        <ele>423.8</ele>
        <time>2022-08-18T06:14:33.000Z</time>
      </trkpt>
      <trkpt lat="42.98142" lon="1.12715">
        <ele>423.4</ele>
        <time>2022-08-18T06:14:36.000Z</time>
      </trkpt>
      <trkpt lat="42.98134" lon="1.12709">
        <ele>423.1</ele>
        <time>2022-08-18T06:14:38.000Z</time>
      </trkpt>
      <trkpt lat="42.98126" lon="1.12703">
        <ele>423</ele>
        <time>2022-08-18T06:14:40.000Z</time>
      </trkpt>
      <trkpt lat="42.98118" lon="1.12696">
        <ele>422.9</ele>
        <time>2022-08-18T06:14:42.000Z</time>
      </trkpt>
      <trkpt lat="42.98108" lon="1.12686">
        <ele>422.9</ele>
        <time>2022-08-18T06:14:45.000Z</time>
      </trkpt>
      <trkpt lat="42.981" lon="1.12677">
        <ele>423.1</ele>
        <time>2022-08-18T06:14:47.000Z</time>
      </trkpt>
      <trkpt lat="42.98093" lon="1.12668">
        <ele>422.6</ele>
        <time>2022-08-18T06:14:49.000Z</time>
      </trkpt>
      <trkpt lat="42.98084" lon="1.12661">
        <ele>422.7</ele>
        <time>2022-08-18T06:14:51.000Z</time>
      </trkpt>
      <trkpt lat="42.98076" lon="1.12654">
        <ele>422.6</ele>
        <time>2022-08-18T06:14:53.000Z</time>
      </trkpt>
      <trkpt lat="42.98069" lon="1.12646">
        <ele>422.5</ele>
        <time>2022-08-18T06:14:55.000Z</time>
      </trkpt>
      <trkpt lat="42.98061" lon="1.12638">
        <ele>422.4</ele>
        <time>2022-08-18T06:14:57.000Z</time>
      </trkpt>
      <trkpt lat="42.98052" lon="1.1263">
        <ele>421.6</ele>
        <time>2022-08-18T06:14:59.000Z</time>
      </trkpt>
      <trkpt lat="42.98043" lon="1.1262">
        <ele>421.1</ele>
        <time>2022-08-18T06:15:01.000Z</time>
      </trkpt>
      <trkpt lat="42.98034" lon="1.12611">
        <ele>420.9</ele>
        <time>2022-08-18T06:15:03.000Z</time>
      </trkpt>
      <trkpt lat="42.98025" lon="1.12602">
        <ele>420.9</ele>
        <time>2022-08-18T06:15:05.000Z</time>
      </trkpt>
      <trkpt lat="42.98017" lon="1.12593">
        <ele>420.7</ele>
        <time>2022-08-18T06:15:07.000Z</time>
      </trkpt>
      <trkpt lat="42.9801" lon="1.12584">
        <ele>420.6</ele>
        <time>2022-08-18T06:15:09.000Z</time>
      </trkpt>
      <trkpt lat="42.98004" lon="1.12575">
        <ele>420.8</ele>
        <time>2022-08-18T06:15:11.000Z</time>
      </trkpt>
      <trkpt lat="42.97995" lon="1.12562">
        <ele>421.7</ele>
        <time>2022-08-18T06:15:14.000Z</time>
      </trkpt>
      <trkpt lat="42.97987" lon="1.1255">
        <ele>421.6</ele>
        <time>2022-08-18T06:15:17.000Z</time>
      </trkpt>
      <trkpt lat="42.97979" lon="1.1254">
        <ele>421.8</ele>
        <time>2022-08-18T06:15:20.000Z</time>
      </trkpt>
      <trkpt lat="42.9797" lon="1.12529">
        <ele>422</ele>
        <time>2022-08-18T06:15:23.000Z</time>
      </trkpt>
      <trkpt lat="42.97961" lon="1.12518">
        <ele>422.3</ele>
        <time>2022-08-18T06:15:26.000Z</time>
      </trkpt>
      <trkpt lat="42.97952" lon="1.12507">
        <ele>421.6</ele>
        <time>2022-08-18T06:15:29.000Z</time>
      </trkpt>
      <trkpt lat="42.97943" lon="1.12496">
        <ele>421.7</ele>
        <time>2022-08-18T06:15:32.000Z</time>
      </trkpt>
      <trkpt lat="42.97933" lon="1.12486">
        <ele>421.9</ele>
        <time>2022-08-18T06:15:35.000Z</time>
      </trkpt>
      <trkpt lat="42.97924" lon="1.12476">
        <ele>421.8</ele>
        <time>2022-08-18T06:15:38.000Z</time>
      </trkpt>
      <trkpt lat="42.97916" lon="1.12464">
        <ele>422.7</ele>
        <time>2022-08-18T06:15:41.000Z</time>
      </trkpt>
      <trkpt lat="42.97912" lon="1.12448">
        <ele>422.9</ele>
        <time>2022-08-18T06:15:44.000Z</time>
      </trkpt>
      <trkpt lat="42.97914" lon="1.12432">
        <ele>423</ele>
        <time>2022-08-18T06:15:47.000Z</time>
      </trkpt>
      <trkpt lat="42.97914" lon="1.12419">
        <ele>424.1</ele>
        <time>2022-08-18T06:15:50.000Z</time>
      </trkpt>
      <trkpt lat="42.97909" lon="1.12408">
        <ele>424.4</ele>
        <time>2022-08-18T06:15:53.000Z</time>
      </trkpt>
      <trkpt lat="42.979" lon="1.124">
        <ele>423.5</ele>
        <time>2022-08-18T06:15:56.000Z</time>
      </trkpt>
      <trkpt lat="42.97889" lon="1.12393">
        <ele>422.5</ele>
        <time>2022-08-18T06:15:59.000Z</time>
      </trkpt>
      <trkpt lat="42.97883" lon="1.12382">
        <ele>421.7</ele>
        <time>2022-08-18T06:16:01.000Z</time>
      </trkpt>
      <trkpt lat="42.97878" lon="1.12368">
        <ele>421.8</ele>
        <time>2022-08-18T06:16:03.000Z</time>
      </trkpt>
      <trkpt lat="42.97873" lon="1.12351">
        <ele>420.9</ele>
        <time>2022-08-18T06:16:05.000Z</time>
      </trkpt>
      <trkpt lat="42.9787" lon="1.12332">
        <ele>420.3</ele>
        <time>2022-08-18T06:16:07.000Z</time>
      </trkpt>
      <trkpt lat="42.97866" lon="1.12313">
        <ele>419.7</ele>
        <time>2022-08-18T06:16:09.000Z</time>
      </trkpt>
      <trkpt lat="42.97862" lon="1.12295">
        <ele>419</ele>
        <time>2022-08-18T06:16:11.000Z</time>
      </trkpt>
      <trkpt lat="42.97857" lon="1.12278">
        <ele>418.9</ele>
        <time>2022-08-18T06:16:13.000Z</time>
      </trkpt>
      <trkpt lat="42.9785" lon="1.12262">
        <ele>418.2</ele>
        <time>2022-08-18T06:16:15.000Z</time>
      </trkpt>
      <trkpt lat="42.97843" lon="1.12248">
        <ele>418.2</ele>
        <time>2022-08-18T06:16:17.000Z</time>
      </trkpt>
      <trkpt lat="42.97837" lon="1.12237">
        <ele>417.5</ele>
        <time>2022-08-18T06:16:19.000Z</time>
      </trkpt>
      <trkpt lat="42.97837" lon="1.12224">
        <ele>417.7</ele>
        <time>2022-08-18T06:16:23.000Z</time>
      </trkpt>
      <trkpt lat="42.97846" lon="1.12219">
        <ele>418.3</ele>
        <time>2022-08-18T06:16:26.000Z</time>
      </trkpt>
      <trkpt lat="42.97855" lon="1.12215">
        <ele>419.4</ele>
        <time>2022-08-18T06:16:29.000Z</time>
      </trkpt>
      <trkpt lat="42.97864" lon="1.1221">
        <ele>420.2</ele>
        <time>2022-08-18T06:16:32.000Z</time>
      </trkpt>
      <trkpt lat="42.97872" lon="1.12205">
        <ele>421.3</ele>
        <time>2022-08-18T06:16:35.000Z</time>
      </trkpt>
      <trkpt lat="42.97881" lon="1.12201">
        <ele>422.1</ele>
        <time>2022-08-18T06:16:38.000Z</time>
      </trkpt>
      <trkpt lat="42.97891" lon="1.12194">
        <ele>423.5</ele>
        <time>2022-08-18T06:16:42.000Z</time>
      </trkpt>
      <trkpt lat="42.97901" lon="1.12185">
        <ele>424.4</ele>
        <time>2022-08-18T06:16:46.000Z</time>
      </trkpt>
      <trkpt lat="42.97909" lon="1.12179">
        <ele>425.3</ele>
        <time>2022-08-18T06:16:49.000Z</time>
      </trkpt>
      <trkpt lat="42.97918" lon="1.12174">
        <ele>425.7</ele>
        <time>2022-08-18T06:16:52.000Z</time>
      </trkpt>
      <trkpt lat="42.97927" lon="1.12169">
        <ele>425.7</ele>
        <time>2022-08-18T06:16:55.000Z</time>
      </trkpt>
      <trkpt lat="42.97936" lon="1.12165">
        <ele>426.3</ele>
        <time>2022-08-18T06:16:58.000Z</time>
      </trkpt>
      <trkpt lat="42.97946" lon="1.12161">
        <ele>426.4</ele>
        <time>2022-08-18T06:17:01.000Z</time>
      </trkpt>
      <trkpt lat="42.97956" lon="1.12157">
        <ele>427</ele>
        <time>2022-08-18T06:17:04.000Z</time>
      </trkpt>
      <trkpt lat="42.97966" lon="1.12152">
        <ele>427.4</ele>
        <time>2022-08-18T06:17:07.000Z</time>
      </trkpt>
      <trkpt lat="42.97975" lon="1.12146">
        <ele>428.3</ele>
        <time>2022-08-18T06:17:10.000Z</time>
      </trkpt>
      <trkpt lat="42.97984" lon="1.12138">
        <ele>428.3</ele>
        <time>2022-08-18T06:17:13.000Z</time>
      </trkpt>
      <trkpt lat="42.97993" lon="1.12128">
        <ele>429</ele>
        <time>2022-08-18T06:17:16.000Z</time>
      </trkpt>
      <trkpt lat="42.98001" lon="1.12119">
        <ele>429.6</ele>
        <time>2022-08-18T06:17:19.000Z</time>
      </trkpt>
      <trkpt lat="42.98009" lon="1.1211">
        <ele>429.9</ele>
        <time>2022-08-18T06:17:22.000Z</time>
      </trkpt>
      <trkpt lat="42.98018" lon="1.12101">
        <ele>430.8</ele>
        <time>2022-08-18T06:17:25.000Z</time>
      </trkpt>
      <trkpt lat="42.98027" lon="1.12092">
        <ele>430.7</ele>
        <time>2022-08-18T06:17:28.000Z</time>
      </trkpt>
      <trkpt lat="42.98034" lon="1.1208">
        <ele>431.9</ele>
        <time>2022-08-18T06:17:31.000Z</time>
      </trkpt>
      <trkpt lat="42.98036" lon="1.12066">
        <ele>432.3</ele>
        <time>2022-08-18T06:17:34.000Z</time>
      </trkpt>
      <trkpt lat="42.98034" lon="1.12049">
        <ele>432.1</ele>
        <time>2022-08-18T06:17:37.000Z</time>
      </trkpt>
      <trkpt lat="42.98032" lon="1.12037">
        <ele>431.7</ele>
        <time>2022-08-18T06:17:39.000Z</time>
      </trkpt>
      <trkpt lat="42.98031" lon="1.12024">
        <ele>431.5</ele>
        <time>2022-08-18T06:17:41.000Z</time>
      </trkpt>
      <trkpt lat="42.98032" lon="1.12007">
        <ele>430.4</ele>
        <time>2022-08-18T06:17:43.000Z</time>
      </trkpt>
      <trkpt lat="42.98039" lon="1.11991">
        <ele>429.2</ele>
        <time>2022-08-18T06:17:45.000Z</time>
      </trkpt>
      <trkpt lat="42.98046" lon="1.11977">
        <ele>429.2</ele>
        <time>2022-08-18T06:17:47.000Z</time>
      </trkpt>
      <trkpt lat="42.98051" lon="1.11963">
        <ele>429.9</ele>
        <time>2022-08-18T06:17:49.000Z</time>
      </trkpt>
      <trkpt lat="42.98052" lon="1.1195">
        <ele>430.1</ele>
        <time>2022-08-18T06:17:51.000Z</time>
      </trkpt>
      <trkpt lat="42.98052" lon="1.11933">
        <ele>431.3</ele>
        <time>2022-08-18T06:17:54.000Z</time>
      </trkpt>
      <trkpt lat="42.98051" lon="1.11917">
        <ele>431.7</ele>
        <time>2022-08-18T06:17:57.000Z</time>
      </trkpt>
      <trkpt lat="42.98051" lon="1.11902">
        <ele>432.6</ele>
        <time>2022-08-18T06:18:00.000Z</time>
      </trkpt>
      <trkpt lat="42.98054" lon="1.11887">
        <ele>433.3</ele>
        <time>2022-08-18T06:18:03.000Z</time>
      </trkpt>
      <trkpt lat="42.98057" lon="1.11874">
        <ele>434.5</ele>
        <time>2022-08-18T06:18:06.000Z</time>
      </trkpt>
      <trkpt lat="42.98062" lon="1.11863">
        <ele>435.7</ele>
        <time>2022-08-18T06:18:09.000Z</time>
      </trkpt>
      <trkpt lat="42.98069" lon="1.11855">
        <ele>436.7</ele>
        <time>2022-08-18T06:18:12.000Z</time>
      </trkpt>
      <trkpt lat="42.98076" lon="1.11848">
        <ele>437.4</ele>
        <time>2022-08-18T06:18:15.000Z</time>
      </trkpt>
      <trkpt lat="42.98086" lon="1.11839">
        <ele>439</ele>
        <time>2022-08-18T06:18:19.000Z</time>
      </trkpt>
      <trkpt lat="42.98095" lon="1.1183">
        <ele>439.8</ele>
        <time>2022-08-18T06:18:23.000Z</time>
      </trkpt>
      <trkpt lat="42.98105" lon="1.11821">
        <ele>440.6</ele>
        <time>2022-08-18T06:18:27.000Z</time>
      </trkpt>
      <trkpt lat="42.98112" lon="1.11813">
        <ele>440.9</ele>
        <time>2022-08-18T06:18:30.000Z</time>
      </trkpt>
      <trkpt lat="42.9812" lon="1.11806">
        <ele>441.9</ele>
        <time>2022-08-18T06:18:33.000Z</time>
      </trkpt>
      <trkpt lat="42.98129" lon="1.11796">
        <ele>443</ele>
        <time>2022-08-18T06:18:37.000Z</time>
      </trkpt>
      <trkpt lat="42.98138" lon="1.11788">
        <ele>443.4</ele>
        <time>2022-08-18T06:18:40.000Z</time>
      </trkpt>
      <trkpt lat="42.98147" lon="1.1178">
        <ele>443.8</ele>
        <time>2022-08-18T06:18:43.000Z</time>
      </trkpt>
      <trkpt lat="42.98155" lon="1.1177">
        <ele>443.9</ele>
        <time>2022-08-18T06:18:46.000Z</time>
      </trkpt>
      <trkpt lat="42.98164" lon="1.1176">
        <ele>444.2</ele>
        <time>2022-08-18T06:18:49.000Z</time>
      </trkpt>
      <trkpt lat="42.9817" lon="1.11748">
        <ele>444.9</ele>
        <time>2022-08-18T06:18:52.000Z</time>
      </trkpt>
      <trkpt lat="42.98176" lon="1.11734">
        <ele>445</ele>
        <time>2022-08-18T06:18:55.000Z</time>
      </trkpt>
      <trkpt lat="42.9818" lon="1.11721">
        <ele>445.3</ele>
        <time>2022-08-18T06:18:58.000Z</time>
      </trkpt>
      <trkpt lat="42.98185" lon="1.11708">
        <ele>446</ele>
        <time>2022-08-18T06:19:01.000Z</time>
      </trkpt>
      <trkpt lat="42.98191" lon="1.11695">
        <ele>446.5</ele>
        <time>2022-08-18T06:19:04.000Z</time>
      </trkpt>
      <trkpt lat="42.98197" lon="1.11682">
        <ele>446.6</ele>
        <time>2022-08-18T06:19:07.000Z</time>
      </trkpt>
      <trkpt lat="42.98204" lon="1.11668">
        <ele>446.5</ele>
        <time>2022-08-18T06:19:10.000Z</time>
      </trkpt>
      <trkpt lat="42.98211" lon="1.11654">
        <ele>446.6</ele>
        <time>2022-08-18T06:19:13.000Z</time>
      </trkpt>
      <trkpt lat="42.98216" lon="1.11644">
        <ele>446.8</ele>
        <time>2022-08-18T06:19:15.000Z</time>
      </trkpt>
      <trkpt lat="42.98224" lon="1.11628">
        <ele>446.4</ele>
        <time>2022-08-18T06:19:18.000Z</time>
      </trkpt>
      <trkpt lat="42.98229" lon="1.11617">
        <ele>446.6</ele>
        <time>2022-08-18T06:19:20.000Z</time>
      </trkpt>
      <trkpt lat="42.98234" lon="1.11607">
        <ele>446.6</ele>
        <time>2022-08-18T06:19:22.000Z</time>
      </trkpt>
      <trkpt lat="42.9824" lon="1.11597">
        <ele>446.4</ele>
        <time>2022-08-18T06:19:24.000Z</time>
      </trkpt>
      <trkpt lat="42.98246" lon="1.11588">
        <ele>446.8</ele>
        <time>2022-08-18T06:19:26.000Z</time>
      </trkpt>
      <trkpt lat="42.98253" lon="1.11574">
        <ele>447.2</ele>
        <time>2022-08-18T06:19:29.000Z</time>
      </trkpt>
      <trkpt lat="42.98259" lon="1.1156">
        <ele>447.2</ele>
        <time>2022-08-18T06:19:32.000Z</time>
      </trkpt>
      <trkpt lat="42.98266" lon="1.11547">
        <ele>447.4</ele>
        <time>2022-08-18T06:19:35.000Z</time>
      </trkpt>
      <trkpt lat="42.98272" lon="1.11533">
        <ele>448</ele>
        <time>2022-08-18T06:19:38.000Z</time>
      </trkpt>
      <trkpt lat="42.98278" lon="1.1152">
        <ele>448.4</ele>
        <time>2022-08-18T06:19:41.000Z</time>
      </trkpt>
      <trkpt lat="42.98284" lon="1.11507">
        <ele>448.9</ele>
        <time>2022-08-18T06:19:44.000Z</time>
      </trkpt>
      <trkpt lat="42.98289" lon="1.11494">
        <ele>449.5</ele>
        <time>2022-08-18T06:19:47.000Z</time>
      </trkpt>
      <trkpt lat="42.98292" lon="1.1148">
        <ele>450.6</ele>
        <time>2022-08-18T06:19:50.000Z</time>
      </trkpt>
      <trkpt lat="42.98292" lon="1.11464">
        <ele>450.8</ele>
        <time>2022-08-18T06:19:53.000Z</time>
      </trkpt>
      <trkpt lat="42.98289" lon="1.11449">
        <ele>450.7</ele>
        <time>2022-08-18T06:19:56.000Z</time>
      </trkpt>
      <trkpt lat="42.98286" lon="1.11431">
        <ele>450.7</ele>
        <time>2022-08-18T06:19:59.000Z</time>
      </trkpt>
      <trkpt lat="42.98284" lon="1.11413">
        <ele>450.4</ele>
        <time>2022-08-18T06:20:02.000Z</time>
      </trkpt>
      <trkpt lat="42.98282" lon="1.11396">
        <ele>450.4</ele>
        <time>2022-08-18T06:20:05.000Z</time>
      </trkpt>
      <trkpt lat="42.98281" lon="1.11378">
        <ele>450.4</ele>
        <time>2022-08-18T06:20:08.000Z</time>
      </trkpt>
      <trkpt lat="42.98281" lon="1.11361">
        <ele>450.3</ele>
        <time>2022-08-18T06:20:11.000Z</time>
      </trkpt>
      <trkpt lat="42.98281" lon="1.11344">
        <ele>450.7</ele>
        <time>2022-08-18T06:20:14.000Z</time>
      </trkpt>
      <trkpt lat="42.98282" lon="1.11327">
        <ele>451.3</ele>
        <time>2022-08-18T06:20:17.000Z</time>
      </trkpt>
      <trkpt lat="42.98282" lon="1.1131">
        <ele>451.1</ele>
        <time>2022-08-18T06:20:20.000Z</time>
      </trkpt>
      <trkpt lat="42.98283" lon="1.11292">
        <ele>451</ele>
        <time>2022-08-18T06:20:23.000Z</time>
      </trkpt>
      <trkpt lat="42.98284" lon="1.11276">
        <ele>451.1</ele>
        <time>2022-08-18T06:20:26.000Z</time>
      </trkpt>
      <trkpt lat="42.98286" lon="1.1126">
        <ele>451.6</ele>
        <time>2022-08-18T06:20:29.000Z</time>
      </trkpt>
      <trkpt lat="42.9829" lon="1.11245">
        <ele>452</ele>
        <time>2022-08-18T06:20:32.000Z</time>
      </trkpt>
      <trkpt lat="42.98295" lon="1.11229">
        <ele>452.1</ele>
        <time>2022-08-18T06:20:35.000Z</time>
      </trkpt>
      <trkpt lat="42.983" lon="1.11213">
        <ele>452.1</ele>
        <time>2022-08-18T06:20:38.000Z</time>
      </trkpt>
      <trkpt lat="42.98305" lon="1.11201">
        <ele>451.6</ele>
        <time>2022-08-18T06:20:40.000Z</time>
      </trkpt>
      <trkpt lat="42.9831" lon="1.11187">
        <ele>451.1</ele>
        <time>2022-08-18T06:20:42.000Z</time>
      </trkpt>
      <trkpt lat="42.98316" lon="1.11172">
        <ele>450.4</ele>
        <time>2022-08-18T06:20:44.000Z</time>
      </trkpt>
      <trkpt lat="42.98322" lon="1.11154">
        <ele>449</ele>
        <time>2022-08-18T06:20:46.000Z</time>
      </trkpt>
      <trkpt lat="42.98327" lon="1.11135">
        <ele>447.8</ele>
        <time>2022-08-18T06:20:48.000Z</time>
      </trkpt>
      <trkpt lat="42.98331" lon="1.11113">
        <ele>446.6</ele>
        <time>2022-08-18T06:20:50.000Z</time>
      </trkpt>
      <trkpt lat="42.98334" lon="1.1109">
        <ele>445.1</ele>
        <time>2022-08-18T06:20:52.000Z</time>
      </trkpt>
      <trkpt lat="42.98345" lon="1.11072">
        <ele>442.6</ele>
        <time>2022-08-18T06:20:54.000Z</time>
      </trkpt>
      <trkpt lat="42.98354" lon="1.11067">
        <ele>441.7</ele>
        <time>2022-08-18T06:20:55.000Z</time>
      </trkpt>
      <trkpt lat="42.98365" lon="1.11066">
        <ele>440.1</ele>
        <time>2022-08-18T06:20:56.000Z</time>
      </trkpt>
      <trkpt lat="42.98376" lon="1.11068">
        <ele>438.2</ele>
        <time>2022-08-18T06:20:57.000Z</time>
      </trkpt>
      <trkpt lat="42.98388" lon="1.11073">
        <ele>436.4</ele>
        <time>2022-08-18T06:20:58.000Z</time>
      </trkpt>
      <trkpt lat="42.984" lon="1.11079">
        <ele>434.6</ele>
        <time>2022-08-18T06:20:59.000Z</time>
      </trkpt>
      <trkpt lat="42.98411" lon="1.11086">
        <ele>433.8</ele>
        <time>2022-08-18T06:21:00.000Z</time>
      </trkpt>
      <trkpt lat="42.98423" lon="1.11092">
        <ele>433</ele>
        <time>2022-08-18T06:21:01.000Z</time>
      </trkpt>
      <trkpt lat="42.98434" lon="1.11097">
        <ele>432.6</ele>
        <time>2022-08-18T06:21:02.000Z</time>
      </trkpt>
      <trkpt lat="42.98445" lon="1.11103">
        <ele>432.1</ele>
        <time>2022-08-18T06:21:03.000Z</time>
      </trkpt>
      <trkpt lat="42.98456" lon="1.11108">
        <ele>429.9</ele>
        <time>2022-08-18T06:21:04.000Z</time>
      </trkpt>
      <trkpt lat="42.98468" lon="1.11112">
        <ele>428.8</ele>
        <time>2022-08-18T06:21:05.000Z</time>
      </trkpt>
      <trkpt lat="42.98478" lon="1.11116">
        <ele>427.4</ele>
        <time>2022-08-18T06:21:06.000Z</time>
      </trkpt>
      <trkpt lat="42.98488" lon="1.11119">
        <ele>426.1</ele>
        <time>2022-08-18T06:21:07.000Z</time>
      </trkpt>
      <trkpt lat="42.98498" lon="1.11122">
        <ele>424.8</ele>
        <time>2022-08-18T06:21:08.000Z</time>
      </trkpt>
      <trkpt lat="42.98509" lon="1.11125">
        <ele>422.9</ele>
        <time>2022-08-18T06:21:09.000Z</time>
      </trkpt>
      <trkpt lat="42.98519" lon="1.11128">
        <ele>422</ele>
        <time>2022-08-18T06:21:10.000Z</time>
      </trkpt>
      <trkpt lat="42.98529" lon="1.1113">
        <ele>420.9</ele>
        <time>2022-08-18T06:21:11.000Z</time>
      </trkpt>
      <trkpt lat="42.98544" lon="1.1113">
        <ele>418.8</ele>
        <time>2022-08-18T06:21:13.000Z</time>
      </trkpt>
      <trkpt lat="42.98553" lon="1.11119">
        <ele>417.2</ele>
        <time>2022-08-18T06:21:15.000Z</time>
      </trkpt>
      <trkpt lat="42.98551" lon="1.11102">
        <ele>415.8</ele>
        <time>2022-08-18T06:21:17.000Z</time>
      </trkpt>
      <trkpt lat="42.98542" lon="1.11086">
        <ele>414.9</ele>
        <time>2022-08-18T06:21:19.000Z</time>
      </trkpt>
      <trkpt lat="42.98535" lon="1.11069">
        <ele>414.4</ele>
        <time>2022-08-18T06:21:21.000Z</time>
      </trkpt>
      <trkpt lat="42.98528" lon="1.11052">
        <ele>414.5</ele>
        <time>2022-08-18T06:21:23.000Z</time>
      </trkpt>
      <trkpt lat="42.98523" lon="1.11035">
        <ele>414.9</ele>
        <time>2022-08-18T06:21:25.000Z</time>
      </trkpt>
      <trkpt lat="42.98518" lon="1.1102">
        <ele>414.8</ele>
        <time>2022-08-18T06:21:27.000Z</time>
      </trkpt>
      <trkpt lat="42.98515" lon="1.11008">
        <ele>414.9</ele>
        <time>2022-08-18T06:21:29.000Z</time>
      </trkpt>
      <trkpt lat="42.98518" lon="1.1099">
        <ele>414.3</ele>
        <time>2022-08-18T06:21:32.000Z</time>
      </trkpt>
      <trkpt lat="42.98519" lon="1.10977">
        <ele>414.2</ele>
        <time>2022-08-18T06:21:34.000Z</time>
      </trkpt>
      <trkpt lat="42.98519" lon="1.10962">
        <ele>413.8</ele>
        <time>2022-08-18T06:21:36.000Z</time>
      </trkpt>
      <trkpt lat="42.98521" lon="1.10948">
        <ele>413.4</ele>
        <time>2022-08-18T06:21:38.000Z</time>
      </trkpt>
      <trkpt lat="42.98521" lon="1.10933">
        <ele>413.1</ele>
        <time>2022-08-18T06:21:40.000Z</time>
      </trkpt>
      <trkpt lat="42.98521" lon="1.10917">
        <ele>412.8</ele>
        <time>2022-08-18T06:21:42.000Z</time>
      </trkpt>
      <trkpt lat="42.98526" lon="1.10904">
        <ele>412</ele>
        <time>2022-08-18T06:21:44.000Z</time>
      </trkpt>
      <trkpt lat="42.98534" lon="1.10898">
        <ele>411.9</ele>
        <time>2022-08-18T06:21:46.000Z</time>
      </trkpt>
      <trkpt lat="42.98546" lon="1.10894">
        <ele>413</ele>
        <time>2022-08-18T06:21:49.000Z</time>
      </trkpt>
      <trkpt lat="42.98556" lon="1.10891">
        <ele>414</ele>
        <time>2022-08-18T06:21:52.000Z</time>
      </trkpt>
      <trkpt lat="42.98565" lon="1.10883">
        <ele>415.6</ele>
        <time>2022-08-18T06:21:56.000Z</time>
      </trkpt>
      <trkpt lat="42.98572" lon="1.10874">
        <ele>416.4</ele>
        <time>2022-08-18T06:21:59.000Z</time>
      </trkpt>
      <trkpt lat="42.98578" lon="1.10865">
        <ele>417.1</ele>
        <time>2022-08-18T06:22:02.000Z</time>
      </trkpt>
      <trkpt lat="42.98584" lon="1.10853">
        <ele>418.5</ele>
        <time>2022-08-18T06:22:06.000Z</time>
      </trkpt>
      <trkpt lat="42.98588" lon="1.10841">
        <ele>419.1</ele>
        <time>2022-08-18T06:22:10.000Z</time>
      </trkpt>
      <trkpt lat="42.98595" lon="1.10831">
        <ele>419.8</ele>
        <time>2022-08-18T06:22:14.000Z</time>
      </trkpt>
      <trkpt lat="42.98604" lon="1.10825">
        <ele>419.5</ele>
        <time>2022-08-18T06:22:17.000Z</time>
      </trkpt>
      <trkpt lat="42.98615" lon="1.10826">
        <ele>419.5</ele>
        <time>2022-08-18T06:22:20.000Z</time>
      </trkpt>
      <trkpt lat="42.98623" lon="1.10832">
        <ele>419.3</ele>
        <time>2022-08-18T06:22:23.000Z</time>
      </trkpt>
      <trkpt lat="42.98631" lon="1.10839">
        <ele>419.8</ele>
        <time>2022-08-18T06:22:26.000Z</time>
      </trkpt>
      <trkpt lat="42.98641" lon="1.10838">
        <ele>420.6</ele>
        <time>2022-08-18T06:22:30.000Z</time>
      </trkpt>
      <trkpt lat="42.9865" lon="1.10831">
        <ele>422</ele>
        <time>2022-08-18T06:22:34.000Z</time>
      </trkpt>
      <trkpt lat="42.98657" lon="1.10824">
        <ele>423</ele>
        <time>2022-08-18T06:22:38.000Z</time>
      </trkpt>
      <trkpt lat="42.98666" lon="1.10815">
        <ele>424.5</ele>
        <time>2022-08-18T06:22:43.000Z</time>
      </trkpt>
      <trkpt lat="42.98674" lon="1.10808">
        <ele>425.8</ele>
        <time>2022-08-18T06:22:47.000Z</time>
      </trkpt>
      <trkpt lat="42.98683" lon="1.10799">
        <ele>427.1</ele>
        <time>2022-08-18T06:22:52.000Z</time>
      </trkpt>
      <trkpt lat="42.9869" lon="1.10792">
        <ele>428.2</ele>
        <time>2022-08-18T06:22:56.000Z</time>
      </trkpt>
      <trkpt lat="42.98698" lon="1.10784">
        <ele>429.4</ele>
        <time>2022-08-18T06:23:00.000Z</time>
      </trkpt>
      <trkpt lat="42.98707" lon="1.10775">
        <ele>430.7</ele>
        <time>2022-08-18T06:23:05.000Z</time>
      </trkpt>
      <trkpt lat="42.98716" lon="1.10767">
        <ele>432.2</ele>
        <time>2022-08-18T06:23:10.000Z</time>
      </trkpt>
      <trkpt lat="42.98724" lon="1.10759">
        <ele>433.9</ele>
        <time>2022-08-18T06:23:15.000Z</time>
      </trkpt>
      <trkpt lat="42.98729" lon="1.10748">
        <ele>435</ele>
        <time>2022-08-18T06:23:20.000Z</time>
      </trkpt>
      <trkpt lat="42.98734" lon="1.10736">
        <ele>436.9</ele>
        <time>2022-08-18T06:23:25.000Z</time>
      </trkpt>
      <trkpt lat="42.98739" lon="1.10725">
        <ele>438.2</ele>
        <time>2022-08-18T06:23:30.000Z</time>
      </trkpt>
      <trkpt lat="42.98744" lon="1.10714">
        <ele>439.3</ele>
        <time>2022-08-18T06:23:35.000Z</time>
      </trkpt>
      <trkpt lat="42.98748" lon="1.10701">
        <ele>440.9</ele>
        <time>2022-08-18T06:23:41.000Z</time>
      </trkpt>
      <trkpt lat="42.98751" lon="1.10687">
        <ele>442.2</ele>
        <time>2022-08-18T06:23:47.000Z</time>
      </trkpt>
      <trkpt lat="42.98754" lon="1.10675">
        <ele>443.6</ele>
        <time>2022-08-18T06:23:53.000Z</time>
      </trkpt>
      <trkpt lat="42.98757" lon="1.10662">
        <ele>445.4</ele>
        <time>2022-08-18T06:23:59.000Z</time>
      </trkpt>
      <trkpt lat="42.98759" lon="1.10649">
        <ele>446.1</ele>
        <time>2022-08-18T06:24:05.000Z</time>
      </trkpt>
      <trkpt lat="42.98763" lon="1.10636">
        <ele>447.4</ele>
        <time>2022-08-18T06:24:11.000Z</time>
      </trkpt>
      <trkpt lat="42.98766" lon="1.10624">
        <ele>448</ele>
        <time>2022-08-18T06:24:15.000Z</time>
      </trkpt>
      <trkpt lat="42.98771" lon="1.10612">
        <ele>448.4</ele>
        <time>2022-08-18T06:24:19.000Z</time>
      </trkpt>
      <trkpt lat="42.98775" lon="1.10599">
        <ele>449.3</ele>
        <time>2022-08-18T06:24:23.000Z</time>
      </trkpt>
      <trkpt lat="42.9878" lon="1.10587">
        <ele>449.7</ele>
        <time>2022-08-18T06:24:27.000Z</time>
      </trkpt>
      <trkpt lat="42.98784" lon="1.10575">
        <ele>449.8</ele>
        <time>2022-08-18T06:24:31.000Z</time>
      </trkpt>
      <trkpt lat="42.98789" lon="1.10563">
        <ele>450.3</ele>
        <time>2022-08-18T06:24:35.000Z</time>
      </trkpt>
      <trkpt lat="42.98793" lon="1.10552">
        <ele>450.6</ele>
        <time>2022-08-18T06:24:39.000Z</time>
      </trkpt>
      <trkpt lat="42.98798" lon="1.1054">
        <ele>450.9</ele>
        <time>2022-08-18T06:24:43.000Z</time>
      </trkpt>
      <trkpt lat="42.98802" lon="1.10529">
        <ele>451.3</ele>
        <time>2022-08-18T06:24:47.000Z</time>
      </trkpt>
      <trkpt lat="42.98807" lon="1.10517">
        <ele>451.9</ele>
        <time>2022-08-18T06:24:51.000Z</time>
      </trkpt>
      <trkpt lat="42.98811" lon="1.10505">
        <ele>452.5</ele>
        <time>2022-08-18T06:24:55.000Z</time>
      </trkpt>
      <trkpt lat="42.98816" lon="1.10493">
        <ele>453</ele>
        <time>2022-08-18T06:24:59.000Z</time>
      </trkpt>
      <trkpt lat="42.98819" lon="1.10479">
        <ele>453.9</ele>
        <time>2022-08-18T06:25:03.000Z</time>
      </trkpt>
      <trkpt lat="42.98823" lon="1.10466">
        <ele>453.5</ele>
        <time>2022-08-18T06:25:07.000Z</time>
      </trkpt>
      <trkpt lat="42.98828" lon="1.10455">
        <ele>453.5</ele>
        <time>2022-08-18T06:25:11.000Z</time>
      </trkpt>
      <trkpt lat="42.98834" lon="1.10442">
        <ele>453.8</ele>
        <time>2022-08-18T06:25:15.000Z</time>
      </trkpt>
      <trkpt lat="42.9884" lon="1.10431">
        <ele>453.9</ele>
        <time>2022-08-18T06:25:19.000Z</time>
      </trkpt>
      <trkpt lat="42.98845" lon="1.1042">
        <ele>453.7</ele>
        <time>2022-08-18T06:25:23.000Z</time>
      </trkpt>
      <trkpt lat="42.98848" lon="1.10406">
        <ele>453.9</ele>
        <time>2022-08-18T06:25:27.000Z</time>
      </trkpt>
      <trkpt lat="42.98851" lon="1.10392">
        <ele>454.4</ele>
        <time>2022-08-18T06:25:31.000Z</time>
      </trkpt>
      <trkpt lat="42.98854" lon="1.1038">
        <ele>454.8</ele>
        <time>2022-08-18T06:25:35.000Z</time>
      </trkpt>
      <trkpt lat="42.98858" lon="1.10368">
        <ele>455</ele>
        <time>2022-08-18T06:25:39.000Z</time>
      </trkpt>
      <trkpt lat="42.98864" lon="1.10354">
        <ele>454.5</ele>
        <time>2022-08-18T06:25:43.000Z</time>
      </trkpt>
      <trkpt lat="42.98864" lon="1.10338">
        <ele>454.5</ele>
        <time>2022-08-18T06:25:46.000Z</time>
      </trkpt>
      <trkpt lat="42.9886" lon="1.10327">
        <ele>455</ele>
        <time>2022-08-18T06:25:49.000Z</time>
      </trkpt>
      <trkpt lat="42.98856" lon="1.10315">
        <ele>455.4</ele>
        <time>2022-08-18T06:25:53.000Z</time>
      </trkpt>
      <trkpt lat="42.98855" lon="1.10301">
        <ele>456.5</ele>
        <time>2022-08-18T06:25:58.000Z</time>
      </trkpt>
      <trkpt lat="42.98853" lon="1.10287">
        <ele>457.8</ele>
        <time>2022-08-18T06:26:03.000Z</time>
      </trkpt>
      <trkpt lat="42.98849" lon="1.10273">
        <ele>459.6</ele>
        <time>2022-08-18T06:26:08.000Z</time>
      </trkpt>
      <trkpt lat="42.98847" lon="1.10261">
        <ele>461.4</ele>
        <time>2022-08-18T06:26:13.000Z</time>
      </trkpt>
      <trkpt lat="42.98844" lon="1.10247">
        <ele>462.5</ele>
        <time>2022-08-18T06:26:18.000Z</time>
      </trkpt>
      <trkpt lat="42.98842" lon="1.10234">
        <ele>463.6</ele>
        <time>2022-08-18T06:26:23.000Z</time>
      </trkpt>
      <trkpt lat="42.9884" lon="1.10221">
        <ele>464.7</ele>
        <time>2022-08-18T06:26:28.000Z</time>
      </trkpt>
      <trkpt lat="42.9884" lon="1.10206">
        <ele>466.8</ele>
        <time>2022-08-18T06:26:33.000Z</time>
      </trkpt>
      <trkpt lat="42.98842" lon="1.10193">
        <ele>468.6</ele>
        <time>2022-08-18T06:26:38.000Z</time>
      </trkpt>
      <trkpt lat="42.98844" lon="1.1018">
        <ele>470.8</ele>
        <time>2022-08-18T06:26:43.000Z</time>
      </trkpt>
      <trkpt lat="42.98848" lon="1.10167">
        <ele>473.1</ele>
        <time>2022-08-18T06:26:50.000Z</time>
      </trkpt>
      <trkpt lat="42.98853" lon="1.10154">
        <ele>475.2</ele>
        <time>2022-08-18T06:26:56.000Z</time>
      </trkpt>
      <trkpt lat="42.98857" lon="1.10142">
        <ele>477.2</ele>
        <time>2022-08-18T06:27:02.000Z</time>
      </trkpt>
      <trkpt lat="42.9886" lon="1.1013">
        <ele>478.9</ele>
        <time>2022-08-18T06:27:07.000Z</time>
      </trkpt>
      <trkpt lat="42.98865" lon="1.1012">
        <ele>480.4</ele>
        <time>2022-08-18T06:27:12.000Z</time>
      </trkpt>
      <trkpt lat="42.98871" lon="1.10108">
        <ele>481.7</ele>
        <time>2022-08-18T06:27:18.000Z</time>
      </trkpt>
      <trkpt lat="42.98878" lon="1.10098">
        <ele>482.8</ele>
        <time>2022-08-18T06:27:24.000Z</time>
      </trkpt>
      <trkpt lat="42.98885" lon="1.10088">
        <ele>483.7</ele>
        <time>2022-08-18T06:27:29.000Z</time>
      </trkpt>
      <trkpt lat="42.98891" lon="1.10076">
        <ele>485</ele>
        <time>2022-08-18T06:27:34.000Z</time>
      </trkpt>
      <trkpt lat="42.98895" lon="1.10065">
        <ele>486.2</ele>
        <time>2022-08-18T06:27:40.000Z</time>
      </trkpt>
      <trkpt lat="42.98899" lon="1.10054">
        <ele>487.5</ele>
        <time>2022-08-18T06:27:45.000Z</time>
      </trkpt>
      <trkpt lat="42.98906" lon="1.10043">
        <ele>489</ele>
        <time>2022-08-18T06:27:51.000Z</time>
      </trkpt>
      <trkpt lat="42.98912" lon="1.10034">
        <ele>489.9</ele>
        <time>2022-08-18T06:27:56.000Z</time>
      </trkpt>
      <trkpt lat="42.98919" lon="1.10024">
        <ele>490.7</ele>
        <time>2022-08-18T06:28:02.000Z</time>
      </trkpt>
      <trkpt lat="42.98926" lon="1.10013">
        <ele>491.6</ele>
        <time>2022-08-18T06:28:07.000Z</time>
      </trkpt>
      <trkpt lat="42.98934" lon="1.10005">
        <ele>492</ele>
        <time>2022-08-18T06:28:12.000Z</time>
      </trkpt>
      <trkpt lat="42.98941" lon="1.09995">
        <ele>491.8</ele>
        <time>2022-08-18T06:28:16.000Z</time>
      </trkpt>
      <trkpt lat="42.98948" lon="1.09984">
        <ele>491.7</ele>
        <time>2022-08-18T06:28:20.000Z</time>
      </trkpt>
      <trkpt lat="42.98952" lon="1.09971">
        <ele>492.2</ele>
        <time>2022-08-18T06:28:24.000Z</time>
      </trkpt>
      <trkpt lat="42.98951" lon="1.09958">
        <ele>493.1</ele>
        <time>2022-08-18T06:28:28.000Z</time>
      </trkpt>
      <trkpt lat="42.98958" lon="1.09947">
        <ele>494.6</ele>
        <time>2022-08-18T06:28:33.000Z</time>
      </trkpt>
      <trkpt lat="42.98965" lon="1.09938">
        <ele>495.5</ele>
        <time>2022-08-18T06:28:37.000Z</time>
      </trkpt>
      <trkpt lat="42.98972" lon="1.0993">
        <ele>496.1</ele>
        <time>2022-08-18T06:28:41.000Z</time>
      </trkpt>
      <trkpt lat="42.98978" lon="1.09919">
        <ele>497.7</ele>
        <time>2022-08-18T06:28:46.000Z</time>
      </trkpt>
      <trkpt lat="42.98984" lon="1.09908">
        <ele>499.8</ele>
        <time>2022-08-18T06:28:52.000Z</time>
      </trkpt>
      <trkpt lat="42.9899" lon="1.09896">
        <ele>501.9</ele>
        <time>2022-08-18T06:28:58.000Z</time>
      </trkpt>
      <trkpt lat="42.98995" lon="1.09885">
        <ele>503.2</ele>
        <time>2022-08-18T06:29:03.000Z</time>
      </trkpt>
      <trkpt lat="42.99" lon="1.09873">
        <ele>504.2</ele>
        <time>2022-08-18T06:29:08.000Z</time>
      </trkpt>
      <trkpt lat="42.99004" lon="1.09859">
        <ele>504.3</ele>
        <time>2022-08-18T06:29:13.000Z</time>
      </trkpt>
      <trkpt lat="42.99005" lon="1.09845">
        <ele>504.1</ele>
        <time>2022-08-18T06:29:16.000Z</time>
      </trkpt>
      <trkpt lat="42.99003" lon="1.0983">
        <ele>503.8</ele>
        <time>2022-08-18T06:29:19.000Z</time>
      </trkpt>
      <trkpt lat="42.98996" lon="1.0982">
        <ele>504.6</ele>
        <time>2022-08-18T06:29:23.000Z</time>
      </trkpt>
      <trkpt lat="42.98988" lon="1.09811">
        <ele>505.1</ele>
        <time>2022-08-18T06:29:27.000Z</time>
      </trkpt>
      <trkpt lat="42.9898" lon="1.09803">
        <ele>505.1</ele>
        <time>2022-08-18T06:29:31.000Z</time>
      </trkpt>
      <trkpt lat="42.98973" lon="1.09795">
        <ele>505.3</ele>
        <time>2022-08-18T06:29:35.000Z</time>
      </trkpt>
      <trkpt lat="42.98966" lon="1.09787">
        <ele>505.8</ele>
        <time>2022-08-18T06:29:39.000Z</time>
      </trkpt>
      <trkpt lat="42.9896" lon="1.09776">
        <ele>506.3</ele>
        <time>2022-08-18T06:29:43.000Z</time>
      </trkpt>
      <trkpt lat="42.98957" lon="1.09764">
        <ele>507.2</ele>
        <time>2022-08-18T06:29:48.000Z</time>
      </trkpt>
      <trkpt lat="42.98952" lon="1.0975">
        <ele>508</ele>
        <time>2022-08-18T06:29:52.000Z</time>
      </trkpt>
      <trkpt lat="42.9895" lon="1.09737">
        <ele>508.4</ele>
        <time>2022-08-18T06:29:56.000Z</time>
      </trkpt>
      <trkpt lat="42.98947" lon="1.09722">
        <ele>509.6</ele>
        <time>2022-08-18T06:30:00.000Z</time>
      </trkpt>
      <trkpt lat="42.98946" lon="1.09709">
        <ele>510.7</ele>
        <time>2022-08-18T06:30:04.000Z</time>
      </trkpt>
      <trkpt lat="42.98944" lon="1.09696">
        <ele>512.2</ele>
        <time>2022-08-18T06:30:09.000Z</time>
      </trkpt>
      <trkpt lat="42.98943" lon="1.09684">
        <ele>513.3</ele>
        <time>2022-08-18T06:30:13.000Z</time>
      </trkpt>
      <trkpt lat="42.98942" lon="1.09669">
        <ele>514.8</ele>
        <time>2022-08-18T06:30:18.000Z</time>
      </trkpt>
      <trkpt lat="42.98941" lon="1.09656">
        <ele>516.4</ele>
        <time>2022-08-18T06:30:23.000Z</time>
      </trkpt>
      <trkpt lat="42.98941" lon="1.09644">
        <ele>518</ele>
        <time>2022-08-18T06:30:29.000Z</time>
      </trkpt>
      <trkpt lat="42.98939" lon="1.09631">
        <ele>519</ele>
        <time>2022-08-18T06:30:34.000Z</time>
      </trkpt>
      <trkpt lat="42.98936" lon="1.09619">
        <ele>519.7</ele>
        <time>2022-08-18T06:30:38.000Z</time>
      </trkpt>
      <trkpt lat="42.98931" lon="1.09605">
        <ele>519.9</ele>
        <time>2022-08-18T06:30:42.000Z</time>
      </trkpt>
      <trkpt lat="42.98926" lon="1.09593">
        <ele>520.3</ele>
        <time>2022-08-18T06:30:46.000Z</time>
      </trkpt>
      <trkpt lat="42.9892" lon="1.0958">
        <ele>520.8</ele>
        <time>2022-08-18T06:30:50.000Z</time>
      </trkpt>
      <trkpt lat="42.98913" lon="1.09568">
        <ele>521.1</ele>
        <time>2022-08-18T06:30:54.000Z</time>
      </trkpt>
      <trkpt lat="42.98907" lon="1.09556">
        <ele>521.3</ele>
        <time>2022-08-18T06:30:58.000Z</time>
      </trkpt>
      <trkpt lat="42.989" lon="1.09544">
        <ele>522.7</ele>
        <time>2022-08-18T06:31:02.000Z</time>
      </trkpt>
      <trkpt lat="42.98893" lon="1.09532">
        <ele>523.4</ele>
        <time>2022-08-18T06:31:06.000Z</time>
      </trkpt>
      <trkpt lat="42.98886" lon="1.0952">
        <ele>523.8</ele>
        <time>2022-08-18T06:31:10.000Z</time>
      </trkpt>
      <trkpt lat="42.9888" lon="1.0951">
        <ele>524.1</ele>
        <time>2022-08-18T06:31:13.000Z</time>
      </trkpt>
      <trkpt lat="42.98873" lon="1.095">
        <ele>524.7</ele>
        <time>2022-08-18T06:31:16.000Z</time>
      </trkpt>
      <trkpt lat="42.98866" lon="1.09489">
        <ele>525.9</ele>
        <time>2022-08-18T06:31:19.000Z</time>
      </trkpt>
      <trkpt lat="42.98858" lon="1.09481">
        <ele>526.8</ele>
        <time>2022-08-18T06:31:22.000Z</time>
      </trkpt>
      <trkpt lat="42.98851" lon="1.09472">
        <ele>527.3</ele>
        <time>2022-08-18T06:31:25.000Z</time>
      </trkpt>
      <trkpt lat="42.98843" lon="1.09465">
        <ele>528.3</ele>
        <time>2022-08-18T06:31:28.000Z</time>
      </trkpt>
      <trkpt lat="42.98832" lon="1.09458">
        <ele>529.6</ele>
        <time>2022-08-18T06:31:32.000Z</time>
      </trkpt>
      <trkpt lat="42.98822" lon="1.09454">
        <ele>531.2</ele>
        <time>2022-08-18T06:31:36.000Z</time>
      </trkpt>
      <trkpt lat="42.98811" lon="1.09452">
        <ele>531.4</ele>
        <time>2022-08-18T06:31:41.000Z</time>
      </trkpt>
      <trkpt lat="42.98802" lon="1.0945">
        <ele>531.3</ele>
        <time>2022-08-18T06:31:45.000Z</time>
      </trkpt>
      <trkpt lat="42.98793" lon="1.09448">
        <ele>531.6</ele>
        <time>2022-08-18T06:31:48.000Z</time>
      </trkpt>
      <trkpt lat="42.98783" lon="1.09444">
        <ele>531.7</ele>
        <time>2022-08-18T06:31:52.000Z</time>
      </trkpt>
      <trkpt lat="42.98775" lon="1.09437">
        <ele>532.6</ele>
        <time>2022-08-18T06:31:57.000Z</time>
      </trkpt>
      <trkpt lat="42.98767" lon="1.0943">
        <ele>532.6</ele>
        <time>2022-08-18T06:32:04.000Z</time>
      </trkpt>
      <trkpt lat="42.98762" lon="1.0942">
        <ele>532.4</ele>
        <time>2022-08-18T06:32:10.000Z</time>
      </trkpt>
      <trkpt lat="42.98755" lon="1.09409">
        <ele>532.1</ele>
        <time>2022-08-18T06:32:16.000Z</time>
      </trkpt>
      <trkpt lat="42.98749" lon="1.09398">
        <ele>532.6</ele>
        <time>2022-08-18T06:32:21.000Z</time>
      </trkpt>
      <trkpt lat="42.98746" lon="1.09384">
        <ele>532.6</ele>
        <time>2022-08-18T06:32:27.000Z</time>
      </trkpt>
      <trkpt lat="42.9874" lon="1.09372">
        <ele>532.6</ele>
        <time>2022-08-18T06:32:32.000Z</time>
      </trkpt>
      <trkpt lat="42.98735" lon="1.0936">
        <ele>533.1</ele>
        <time>2022-08-18T06:32:37.000Z</time>
      </trkpt>
      <trkpt lat="42.98733" lon="1.09347">
        <ele>534.4</ele>
        <time>2022-08-18T06:32:43.000Z</time>
      </trkpt>
      <trkpt lat="42.98725" lon="1.09339">
        <ele>534.7</ele>
        <time>2022-08-18T06:32:51.000Z</time>
      </trkpt>
      <trkpt lat="42.98734" lon="1.09332">
        <ele>535.4</ele>
        <time>2022-08-18T06:33:06.000Z</time>
      </trkpt>
      <trkpt lat="42.98744" lon="1.0933">
        <ele>535.9</ele>
        <time>2022-08-18T06:33:12.000Z</time>
      </trkpt>
      <trkpt lat="42.98754" lon="1.09336">
        <ele>535.2</ele>
        <time>2022-08-18T06:33:16.000Z</time>
      </trkpt>
      <trkpt lat="42.98765" lon="1.09339">
        <ele>535.1</ele>
        <time>2022-08-18T06:33:19.000Z</time>
      </trkpt>
      <trkpt lat="42.98774" lon="1.09336">
        <ele>535.2</ele>
        <time>2022-08-18T06:33:23.000Z</time>
      </trkpt>
      <trkpt lat="42.98785" lon="1.09336">
        <ele>535.2</ele>
        <time>2022-08-18T06:33:27.000Z</time>
      </trkpt>
      <trkpt lat="42.98796" lon="1.09334">
        <ele>534.9</ele>
        <time>2022-08-18T06:33:30.000Z</time>
      </trkpt>
      <trkpt lat="42.98806" lon="1.09331">
        <ele>535.3</ele>
        <time>2022-08-18T06:33:34.000Z</time>
      </trkpt>
      <trkpt lat="42.98816" lon="1.09329">
        <ele>536.3</ele>
        <time>2022-08-18T06:33:38.000Z</time>
      </trkpt>
      <trkpt lat="42.98825" lon="1.09325">
        <ele>537.1</ele>
        <time>2022-08-18T06:33:42.000Z</time>
      </trkpt>
      <trkpt lat="42.98834" lon="1.09319">
        <ele>537.5</ele>
        <time>2022-08-18T06:33:46.000Z</time>
      </trkpt>
      <trkpt lat="42.98844" lon="1.09313">
        <ele>538.4</ele>
        <time>2022-08-18T06:33:50.000Z</time>
      </trkpt>
      <trkpt lat="42.98853" lon="1.09305">
        <ele>538.9</ele>
        <time>2022-08-18T06:33:54.000Z</time>
      </trkpt>
      <trkpt lat="42.98862" lon="1.09298">
        <ele>539.4</ele>
        <time>2022-08-18T06:33:58.000Z</time>
      </trkpt>
      <trkpt lat="42.9887" lon="1.09293">
        <ele>539.3</ele>
        <time>2022-08-18T06:34:01.000Z</time>
      </trkpt>
      <trkpt lat="42.98879" lon="1.09289">
        <ele>539.7</ele>
        <time>2022-08-18T06:34:04.000Z</time>
      </trkpt>
      <trkpt lat="42.9889" lon="1.09285">
        <ele>541.5</ele>
        <time>2022-08-18T06:34:08.000Z</time>
      </trkpt>
      <trkpt lat="42.98899" lon="1.09282">
        <ele>542.1</ele>
        <time>2022-08-18T06:34:12.000Z</time>
      </trkpt>
      <trkpt lat="42.98909" lon="1.09279">
        <ele>542.3</ele>
        <time>2022-08-18T06:34:16.000Z</time>
      </trkpt>
      <trkpt lat="42.98919" lon="1.09277">
        <ele>542.6</ele>
        <time>2022-08-18T06:34:20.000Z</time>
      </trkpt>
      <trkpt lat="42.98929" lon="1.09274">
        <ele>544.1</ele>
        <time>2022-08-18T06:34:24.000Z</time>
      </trkpt>
      <trkpt lat="42.9894" lon="1.09273">
        <ele>544.5</ele>
        <time>2022-08-18T06:34:28.000Z</time>
      </trkpt>
      <trkpt lat="42.98951" lon="1.0927">
        <ele>544.5</ele>
        <time>2022-08-18T06:34:32.000Z</time>
      </trkpt>
      <trkpt lat="42.98962" lon="1.09267">
        <ele>544.6</ele>
        <time>2022-08-18T06:34:36.000Z</time>
      </trkpt>
      <trkpt lat="42.98972" lon="1.09265">
        <ele>545.2</ele>
        <time>2022-08-18T06:34:40.000Z</time>
      </trkpt>
      <trkpt lat="42.98984" lon="1.09264">
        <ele>544.9</ele>
        <time>2022-08-18T06:34:44.000Z</time>
      </trkpt>
      <trkpt lat="42.98993" lon="1.09264">
        <ele>545.6</ele>
        <time>2022-08-18T06:34:47.000Z</time>
      </trkpt>
      <trkpt lat="42.99004" lon="1.09263">
        <ele>544.8</ele>
        <time>2022-08-18T06:34:50.000Z</time>
      </trkpt>
      <trkpt lat="42.99014" lon="1.09263">
        <ele>545</ele>
        <time>2022-08-18T06:34:53.000Z</time>
      </trkpt>
      <trkpt lat="42.99024" lon="1.09263">
        <ele>546.6</ele>
        <time>2022-08-18T06:34:57.000Z</time>
      </trkpt>
      <trkpt lat="42.99033" lon="1.09263">
        <ele>548.2</ele>
        <time>2022-08-18T06:35:01.000Z</time>
      </trkpt>
      <trkpt lat="42.99044" lon="1.09267">
        <ele>549.4</ele>
        <time>2022-08-18T06:35:06.000Z</time>
      </trkpt>
      <trkpt lat="42.99052" lon="1.09271">
        <ele>548.9</ele>
        <time>2022-08-18T06:35:10.000Z</time>
      </trkpt>
      <trkpt lat="42.99062" lon="1.09278">
        <ele>550.2</ele>
        <time>2022-08-18T06:35:15.000Z</time>
      </trkpt>
      <trkpt lat="42.99071" lon="1.09286">
        <ele>550.9</ele>
        <time>2022-08-18T06:35:20.000Z</time>
      </trkpt>
      <trkpt lat="42.99081" lon="1.09293">
        <ele>551.8</ele>
        <time>2022-08-18T06:35:25.000Z</time>
      </trkpt>
      <trkpt lat="42.99091" lon="1.09297">
        <ele>553.4</ele>
        <time>2022-08-18T06:35:30.000Z</time>
      </trkpt>
      <trkpt lat="42.991" lon="1.09297">
        <ele>554.5</ele>
        <time>2022-08-18T06:35:35.000Z</time>
      </trkpt>
      <trkpt lat="42.9911" lon="1.09295">
        <ele>554.5</ele>
        <time>2022-08-18T06:35:39.000Z</time>
      </trkpt>
      <trkpt lat="42.9912" lon="1.09291">
        <ele>555</ele>
        <time>2022-08-18T06:35:43.000Z</time>
      </trkpt>
      <trkpt lat="42.99129" lon="1.09284">
        <ele>555.1</ele>
        <time>2022-08-18T06:35:47.000Z</time>
      </trkpt>
      <trkpt lat="42.99139" lon="1.09277">
        <ele>554.9</ele>
        <time>2022-08-18T06:35:51.000Z</time>
      </trkpt>
      <trkpt lat="42.99149" lon="1.09269">
        <ele>555.4</ele>
        <time>2022-08-18T06:35:55.000Z</time>
      </trkpt>
      <trkpt lat="42.99158" lon="1.09258">
        <ele>556.6</ele>
        <time>2022-08-18T06:35:59.000Z</time>
      </trkpt>
      <trkpt lat="42.99164" lon="1.0925">
        <ele>556.4</ele>
        <time>2022-08-18T06:36:02.000Z</time>
      </trkpt>
      <trkpt lat="42.99174" lon="1.09239">
        <ele>556.1</ele>
        <time>2022-08-18T06:36:06.000Z</time>
      </trkpt>
      <trkpt lat="42.99181" lon="1.09228">
        <ele>556.9</ele>
        <time>2022-08-18T06:36:10.000Z</time>
      </trkpt>
      <trkpt lat="42.99188" lon="1.09217">
        <ele>557.2</ele>
        <time>2022-08-18T06:36:14.000Z</time>
      </trkpt>
      <trkpt lat="42.99194" lon="1.09205">
        <ele>557.9</ele>
        <time>2022-08-18T06:36:18.000Z</time>
      </trkpt>
      <trkpt lat="42.99199" lon="1.09193">
        <ele>558.1</ele>
        <time>2022-08-18T06:36:22.000Z</time>
      </trkpt>
      <trkpt lat="42.99204" lon="1.0918">
        <ele>558.6</ele>
        <time>2022-08-18T06:36:26.000Z</time>
      </trkpt>
      <trkpt lat="42.99206" lon="1.09167">
        <ele>559.1</ele>
        <time>2022-08-18T06:36:30.000Z</time>
      </trkpt>
      <trkpt lat="42.99207" lon="1.09154">
        <ele>560.6</ele>
        <time>2022-08-18T06:36:34.000Z</time>
      </trkpt>
      <trkpt lat="42.9921" lon="1.09142">
        <ele>560.9</ele>
        <time>2022-08-18T06:36:38.000Z</time>
      </trkpt>
      <trkpt lat="42.99212" lon="1.0913">
        <ele>561.7</ele>
        <time>2022-08-18T06:36:42.000Z</time>
      </trkpt>
      <trkpt lat="42.99212" lon="1.09117">
        <ele>562.7</ele>
        <time>2022-08-18T06:36:46.000Z</time>
      </trkpt>
      <trkpt lat="42.99211" lon="1.09103">
        <ele>564.1</ele>
        <time>2022-08-18T06:36:51.000Z</time>
      </trkpt>
      <trkpt lat="42.99211" lon="1.09089">
        <ele>564.7</ele>
        <time>2022-08-18T06:36:56.000Z</time>
      </trkpt>
      <trkpt lat="42.99211" lon="1.09075">
        <ele>565.8</ele>
        <time>2022-08-18T06:37:01.000Z</time>
      </trkpt>
      <trkpt lat="42.99202" lon="1.09081">
        <ele>568.3</ele>
        <time>2022-08-18T06:37:10.000Z</time>
      </trkpt>
      <trkpt lat="42.99196" lon="1.09092">
        <ele>569.4</ele>
        <time>2022-08-18T06:37:16.000Z</time>
      </trkpt>
      <trkpt lat="42.99189" lon="1.09103">
        <ele>571.1</ele>
        <time>2022-08-18T06:37:22.000Z</time>
      </trkpt>
      <trkpt lat="42.99181" lon="1.09111">
        <ele>572.6</ele>
        <time>2022-08-18T06:37:28.000Z</time>
      </trkpt>
      <trkpt lat="42.99172" lon="1.09119">
        <ele>573.9</ele>
        <time>2022-08-18T06:37:34.000Z</time>
      </trkpt>
      <trkpt lat="42.99163" lon="1.09126">
        <ele>575.4</ele>
        <time>2022-08-18T06:37:40.000Z</time>
      </trkpt>
      <trkpt lat="42.99153" lon="1.09131">
        <ele>576.9</ele>
        <time>2022-08-18T06:37:46.000Z</time>
      </trkpt>
      <trkpt lat="42.99144" lon="1.09132">
        <ele>578.4</ele>
        <time>2022-08-18T06:37:52.000Z</time>
      </trkpt>
      <trkpt lat="42.99144" lon="1.09118">
        <ele>580.5</ele>
        <time>2022-08-18T06:37:58.000Z</time>
      </trkpt>
      <trkpt lat="42.99146" lon="1.09104">
        <ele>582.6</ele>
        <time>2022-08-18T06:38:04.000Z</time>
      </trkpt>
      <trkpt lat="42.99147" lon="1.09091">
        <ele>584.8</ele>
        <time>2022-08-18T06:38:10.000Z</time>
      </trkpt>
      <trkpt lat="42.9915" lon="1.09077">
        <ele>586.4</ele>
        <time>2022-08-18T06:38:16.000Z</time>
      </trkpt>
      <trkpt lat="42.99153" lon="1.09063">
        <ele>587.4</ele>
        <time>2022-08-18T06:38:22.000Z</time>
      </trkpt>
      <trkpt lat="42.99156" lon="1.0905">
        <ele>587.5</ele>
        <time>2022-08-18T06:38:27.000Z</time>
      </trkpt>
      <trkpt lat="42.99156" lon="1.09036">
        <ele>587.9</ele>
        <time>2022-08-18T06:38:31.000Z</time>
      </trkpt>
      <trkpt lat="42.99155" lon="1.09022">
        <ele>588</ele>
        <time>2022-08-18T06:38:35.000Z</time>
      </trkpt>
      <trkpt lat="42.99154" lon="1.09007">
        <ele>588.7</ele>
        <time>2022-08-18T06:38:39.000Z</time>
      </trkpt>
      <trkpt lat="42.99152" lon="1.08992">
        <ele>588.5</ele>
        <time>2022-08-18T06:38:43.000Z</time>
      </trkpt>
      <trkpt lat="42.9915" lon="1.08979">
        <ele>588.8</ele>
        <time>2022-08-18T06:38:47.000Z</time>
      </trkpt>
      <trkpt lat="42.99147" lon="1.08964">
        <ele>589.2</ele>
        <time>2022-08-18T06:38:51.000Z</time>
      </trkpt>
      <trkpt lat="42.99142" lon="1.0895">
        <ele>589.6</ele>
        <time>2022-08-18T06:38:55.000Z</time>
      </trkpt>
      <trkpt lat="42.99137" lon="1.08935">
        <ele>589.7</ele>
        <time>2022-08-18T06:38:59.000Z</time>
      </trkpt>
      <trkpt lat="42.99133" lon="1.08923">
        <ele>589.5</ele>
        <time>2022-08-18T06:39:02.000Z</time>
      </trkpt>
      <trkpt lat="42.99128" lon="1.08911">
        <ele>589.9</ele>
        <time>2022-08-18T06:39:05.000Z</time>
      </trkpt>
      <trkpt lat="42.99122" lon="1.089">
        <ele>590.3</ele>
        <time>2022-08-18T06:39:08.000Z</time>
      </trkpt>
      <trkpt lat="42.99117" lon="1.08889">
        <ele>590.6</ele>
        <time>2022-08-18T06:39:11.000Z</time>
      </trkpt>
      <trkpt lat="42.99111" lon="1.08877">
        <ele>590.6</ele>
        <time>2022-08-18T06:39:14.000Z</time>
      </trkpt>
      <trkpt lat="42.99105" lon="1.08863">
        <ele>590.3</ele>
        <time>2022-08-18T06:39:17.000Z</time>
      </trkpt>
      <trkpt lat="42.99099" lon="1.08849">
        <ele>590</ele>
        <time>2022-08-18T06:39:20.000Z</time>
      </trkpt>
      <trkpt lat="42.99092" lon="1.08835">
        <ele>589.3</ele>
        <time>2022-08-18T06:39:23.000Z</time>
      </trkpt>
      <trkpt lat="42.99084" lon="1.08824">
        <ele>589.6</ele>
        <time>2022-08-18T06:39:27.000Z</time>
      </trkpt>
      <trkpt lat="42.99078" lon="1.08813">
        <ele>590.3</ele>
        <time>2022-08-18T06:39:30.000Z</time>
      </trkpt>
      <trkpt lat="42.9907" lon="1.08802">
        <ele>590.4</ele>
        <time>2022-08-18T06:39:33.000Z</time>
      </trkpt>
      <trkpt lat="42.99064" lon="1.08792">
        <ele>591.4</ele>
        <time>2022-08-18T06:39:36.000Z</time>
      </trkpt>
      <trkpt lat="42.99057" lon="1.0878">
        <ele>592</ele>
        <time>2022-08-18T06:39:40.000Z</time>
      </trkpt>
      <trkpt lat="42.9905" lon="1.08771">
        <ele>592.3</ele>
        <time>2022-08-18T06:39:43.000Z</time>
      </trkpt>
      <trkpt lat="42.99044" lon="1.08762">
        <ele>592.5</ele>
        <time>2022-08-18T06:39:46.000Z</time>
      </trkpt>
      <trkpt lat="42.99036" lon="1.08756">
        <ele>593.4</ele>
        <time>2022-08-18T06:39:49.000Z</time>
      </trkpt>
      <trkpt lat="42.99026" lon="1.08756">
        <ele>593.3</ele>
        <time>2022-08-18T06:39:52.000Z</time>
      </trkpt>
      <trkpt lat="42.99015" lon="1.08756">
        <ele>593.8</ele>
        <time>2022-08-18T06:39:56.000Z</time>
      </trkpt>
      <trkpt lat="42.99004" lon="1.08758">
        <ele>595.5</ele>
        <time>2022-08-18T06:40:00.000Z</time>
      </trkpt>
      <trkpt lat="42.98994" lon="1.08762">
        <ele>596.3</ele>
        <time>2022-08-18T06:40:04.000Z</time>
      </trkpt>
      <trkpt lat="42.98984" lon="1.08764">
        <ele>597.3</ele>
        <time>2022-08-18T06:40:08.000Z</time>
      </trkpt>
      <trkpt lat="42.98973" lon="1.08764">
        <ele>598.4</ele>
        <time>2022-08-18T06:40:12.000Z</time>
      </trkpt>
      <trkpt lat="42.98963" lon="1.08766">
        <ele>598.9</ele>
        <time>2022-08-18T06:40:16.000Z</time>
      </trkpt>
      <trkpt lat="42.98953" lon="1.08769">
        <ele>599.6</ele>
        <time>2022-08-18T06:40:20.000Z</time>
      </trkpt>
      <trkpt lat="42.98941" lon="1.08771">
        <ele>601</ele>
        <time>2022-08-18T06:40:24.000Z</time>
      </trkpt>
      <trkpt lat="42.9893" lon="1.08772">
        <ele>601.7</ele>
        <time>2022-08-18T06:40:28.000Z</time>
      </trkpt>
      <trkpt lat="42.9892" lon="1.08774">
        <ele>602.7</ele>
        <time>2022-08-18T06:40:32.000Z</time>
      </trkpt>
      <trkpt lat="42.9891" lon="1.08775">
        <ele>604.1</ele>
        <time>2022-08-18T06:40:36.000Z</time>
      </trkpt>
      <trkpt lat="42.989" lon="1.08777">
        <ele>605</ele>
        <time>2022-08-18T06:40:40.000Z</time>
      </trkpt>
      <trkpt lat="42.98891" lon="1.0878">
        <ele>605.3</ele>
        <time>2022-08-18T06:40:44.000Z</time>
      </trkpt>
      <trkpt lat="42.98881" lon="1.08783">
        <ele>606</ele>
        <time>2022-08-18T06:40:48.000Z</time>
      </trkpt>
      <trkpt lat="42.98872" lon="1.08786">
        <ele>606.9</ele>
        <time>2022-08-18T06:40:52.000Z</time>
      </trkpt>
      <trkpt lat="42.98862" lon="1.08791">
        <ele>607.5</ele>
        <time>2022-08-18T06:40:56.000Z</time>
      </trkpt>
      <trkpt lat="42.98853" lon="1.08795">
        <ele>608.5</ele>
        <time>2022-08-18T06:41:00.000Z</time>
      </trkpt>
      <trkpt lat="42.98843" lon="1.08797">
        <ele>610.4</ele>
        <time>2022-08-18T06:41:05.000Z</time>
      </trkpt>
      <trkpt lat="42.98833" lon="1.08799">
        <ele>612.2</ele>
        <time>2022-08-18T06:41:11.000Z</time>
      </trkpt>
      <trkpt lat="42.98823" lon="1.088">
        <ele>614.5</ele>
        <time>2022-08-18T06:41:17.000Z</time>
      </trkpt>
      <trkpt lat="42.98813" lon="1.08797">
        <ele>617.4</ele>
        <time>2022-08-18T06:41:24.000Z</time>
      </trkpt>
      <trkpt lat="42.98803" lon="1.08792">
        <ele>619.4</ele>
        <time>2022-08-18T06:41:30.000Z</time>
      </trkpt>
      <trkpt lat="42.98793" lon="1.08793">
        <ele>621.9</ele>
        <time>2022-08-18T06:41:36.000Z</time>
      </trkpt>
      <trkpt lat="42.98784" lon="1.08794">
        <ele>623.9</ele>
        <time>2022-08-18T06:41:44.000Z</time>
      </trkpt>
      <trkpt lat="42.98775" lon="1.08798">
        <ele>624.6</ele>
        <time>2022-08-18T06:41:49.000Z</time>
      </trkpt>
      <trkpt lat="42.98765" lon="1.088">
        <ele>626.3</ele>
        <time>2022-08-18T06:41:54.000Z</time>
      </trkpt>
      <trkpt lat="42.98756" lon="1.08802">
        <ele>627.6</ele>
        <time>2022-08-18T06:41:59.000Z</time>
      </trkpt>
      <trkpt lat="42.98747" lon="1.08801">
        <ele>627.8</ele>
        <time>2022-08-18T06:42:04.000Z</time>
      </trkpt>
      <trkpt lat="42.98737" lon="1.088">
        <ele>628.4</ele>
        <time>2022-08-18T06:42:09.000Z</time>
      </trkpt>
      <trkpt lat="42.98727" lon="1.088">
        <ele>628.7</ele>
        <time>2022-08-18T06:42:14.000Z</time>
      </trkpt>
      <trkpt lat="42.98716" lon="1.088">
        <ele>629.7</ele>
        <time>2022-08-18T06:42:19.000Z</time>
      </trkpt>
      <trkpt lat="42.98706" lon="1.088">
        <ele>629.8</ele>
        <time>2022-08-18T06:42:23.000Z</time>
      </trkpt>
      <trkpt lat="42.98697" lon="1.08799">
        <ele>630.3</ele>
        <time>2022-08-18T06:42:27.000Z</time>
      </trkpt>
      <trkpt lat="42.98688" lon="1.08798">
        <ele>631.1</ele>
        <time>2022-08-18T06:42:31.000Z</time>
      </trkpt>
      <trkpt lat="42.98679" lon="1.08797">
        <ele>632.6</ele>
        <time>2022-08-18T06:42:35.000Z</time>
      </trkpt>
      <trkpt lat="42.98668" lon="1.08796">
        <ele>633.4</ele>
        <time>2022-08-18T06:42:40.000Z</time>
      </trkpt>
      <trkpt lat="42.98658" lon="1.08796">
        <ele>635.1</ele>
        <time>2022-08-18T06:42:44.000Z</time>
      </trkpt>
      <trkpt lat="42.98648" lon="1.08795">
        <ele>635.9</ele>
        <time>2022-08-18T06:42:49.000Z</time>
      </trkpt>
      <trkpt lat="42.98638" lon="1.08792">
        <ele>637.4</ele>
        <time>2022-08-18T06:42:54.000Z</time>
      </trkpt>
      <trkpt lat="42.98627" lon="1.08788">
        <ele>638.2</ele>
        <time>2022-08-18T06:42:59.000Z</time>
      </trkpt>
      <trkpt lat="42.98617" lon="1.08783">
        <ele>638.9</ele>
        <time>2022-08-18T06:43:04.000Z</time>
      </trkpt>
      <trkpt lat="42.98608" lon="1.08776">
        <ele>639.3</ele>
        <time>2022-08-18T06:43:09.000Z</time>
      </trkpt>
      <trkpt lat="42.98599" lon="1.0877">
        <ele>639.7</ele>
        <time>2022-08-18T06:43:13.000Z</time>
      </trkpt>
      <trkpt lat="42.98589" lon="1.08763">
        <ele>640.4</ele>
        <time>2022-08-18T06:43:17.000Z</time>
      </trkpt>
      <trkpt lat="42.9858" lon="1.08757">
        <ele>640.3</ele>
        <time>2022-08-18T06:43:21.000Z</time>
      </trkpt>
      <trkpt lat="42.9857" lon="1.08752">
        <ele>640.7</ele>
        <time>2022-08-18T06:43:25.000Z</time>
      </trkpt>
      <trkpt lat="42.9856" lon="1.08746">
        <ele>641.2</ele>
        <time>2022-08-18T06:43:29.000Z</time>
      </trkpt>
      <trkpt lat="42.9855" lon="1.08741">
        <ele>641.7</ele>
        <time>2022-08-18T06:43:33.000Z</time>
      </trkpt>
      <trkpt lat="42.98538" lon="1.08735">
        <ele>641.1</ele>
        <time>2022-08-18T06:43:37.000Z</time>
      </trkpt>
      <trkpt lat="42.98528" lon="1.0873">
        <ele>640.9</ele>
        <time>2022-08-18T06:43:41.000Z</time>
      </trkpt>
      <trkpt lat="42.98518" lon="1.08732">
        <ele>641.4</ele>
        <time>2022-08-18T06:43:45.000Z</time>
      </trkpt>
      <trkpt lat="42.98509" lon="1.08737">
        <ele>641.8</ele>
        <time>2022-08-18T06:43:49.000Z</time>
      </trkpt>
      <trkpt lat="42.985" lon="1.08745">
        <ele>641.9</ele>
        <time>2022-08-18T06:43:53.000Z</time>
      </trkpt>
      <trkpt lat="42.98493" lon="1.08756">
        <ele>642.3</ele>
        <time>2022-08-18T06:43:57.000Z</time>
      </trkpt>
      <trkpt lat="42.98488" lon="1.08769">
        <ele>642.4</ele>
        <time>2022-08-18T06:44:01.000Z</time>
      </trkpt>
      <trkpt lat="42.98481" lon="1.0878">
        <ele>642.8</ele>
        <time>2022-08-18T06:44:05.000Z</time>
      </trkpt>
      <trkpt lat="42.98475" lon="1.08793">
        <ele>643.2</ele>
        <time>2022-08-18T06:44:09.000Z</time>
      </trkpt>
      <trkpt lat="42.98468" lon="1.08806">
        <ele>644.3</ele>
        <time>2022-08-18T06:44:13.000Z</time>
      </trkpt>
      <trkpt lat="42.98463" lon="1.08819">
        <ele>643.8</ele>
        <time>2022-08-18T06:44:17.000Z</time>
      </trkpt>
      <trkpt lat="42.98456" lon="1.08831">
        <ele>644.7</ele>
        <time>2022-08-18T06:44:21.000Z</time>
      </trkpt>
      <trkpt lat="42.98448" lon="1.08842">
        <ele>645.1</ele>
        <time>2022-08-18T06:44:25.000Z</time>
      </trkpt>
      <trkpt lat="42.9844" lon="1.08853">
        <ele>645.4</ele>
        <time>2022-08-18T06:44:29.000Z</time>
      </trkpt>
      <trkpt lat="42.98433" lon="1.08862">
        <ele>645.5</ele>
        <time>2022-08-18T06:44:32.000Z</time>
      </trkpt>
      <trkpt lat="42.98427" lon="1.08871">
        <ele>645.8</ele>
        <time>2022-08-18T06:44:35.000Z</time>
      </trkpt>
      <trkpt lat="42.98419" lon="1.08882">
        <ele>645.8</ele>
        <time>2022-08-18T06:44:39.000Z</time>
      </trkpt>
      <trkpt lat="42.98411" lon="1.08889">
        <ele>645.3</ele>
        <time>2022-08-18T06:44:42.000Z</time>
      </trkpt>
      <trkpt lat="42.984" lon="1.08891">
        <ele>645.1</ele>
        <time>2022-08-18T06:44:46.000Z</time>
      </trkpt>
      <trkpt lat="42.98391" lon="1.08886">
        <ele>644.8</ele>
        <time>2022-08-18T06:44:50.000Z</time>
      </trkpt>
      <trkpt lat="42.98383" lon="1.08878">
        <ele>644.8</ele>
        <time>2022-08-18T06:44:55.000Z</time>
      </trkpt>
      <trkpt lat="42.98377" lon="1.08867">
        <ele>645</ele>
        <time>2022-08-18T06:45:00.000Z</time>
      </trkpt>
      <trkpt lat="42.9837" lon="1.08855">
        <ele>645.4</ele>
        <time>2022-08-18T06:45:05.000Z</time>
      </trkpt>
      <trkpt lat="42.98363" lon="1.08847">
        <ele>646.1</ele>
        <time>2022-08-18T06:45:09.000Z</time>
      </trkpt>
      <trkpt lat="42.98355" lon="1.08838">
        <ele>645.9</ele>
        <time>2022-08-18T06:45:13.000Z</time>
      </trkpt>
      <trkpt lat="42.98347" lon="1.0883">
        <ele>645.8</ele>
        <time>2022-08-18T06:45:17.000Z</time>
      </trkpt>
      <trkpt lat="42.98341" lon="1.08821">
        <ele>645.9</ele>
        <time>2022-08-18T06:45:21.000Z</time>
      </trkpt>
      <trkpt lat="42.98334" lon="1.08811">
        <ele>646.2</ele>
        <time>2022-08-18T06:45:25.000Z</time>
      </trkpt>
      <trkpt lat="42.98327" lon="1.088">
        <ele>646.4</ele>
        <time>2022-08-18T06:45:29.000Z</time>
      </trkpt>
      <trkpt lat="42.98322" lon="1.08788">
        <ele>646.6</ele>
        <time>2022-08-18T06:45:33.000Z</time>
      </trkpt>
      <trkpt lat="42.98317" lon="1.08775">
        <ele>647.5</ele>
        <time>2022-08-18T06:45:38.000Z</time>
      </trkpt>
      <trkpt lat="42.98313" lon="1.08761">
        <ele>647.9</ele>
        <time>2022-08-18T06:45:43.000Z</time>
      </trkpt>
      <trkpt lat="42.98308" lon="1.08749">
        <ele>649.1</ele>
        <time>2022-08-18T06:45:48.000Z</time>
      </trkpt>
      <trkpt lat="42.98302" lon="1.08737">
        <ele>650.2</ele>
        <time>2022-08-18T06:45:53.000Z</time>
      </trkpt>
      <trkpt lat="42.98297" lon="1.08726">
        <ele>651.4</ele>
        <time>2022-08-18T06:45:57.000Z</time>
      </trkpt>
      <trkpt lat="42.98291" lon="1.08717">
        <ele>652.2</ele>
        <time>2022-08-18T06:46:01.000Z</time>
      </trkpt>
      <trkpt lat="42.98285" lon="1.08707">
        <ele>652.3</ele>
        <time>2022-08-18T06:46:05.000Z</time>
      </trkpt>
      <trkpt lat="42.98278" lon="1.08697">
        <ele>653.6</ele>
        <time>2022-08-18T06:46:10.000Z</time>
      </trkpt>
      <trkpt lat="42.98271" lon="1.08687">
        <ele>654.6</ele>
        <time>2022-08-18T06:46:15.000Z</time>
      </trkpt>
      <trkpt lat="42.98264" lon="1.08675">
        <ele>655.3</ele>
        <time>2022-08-18T06:46:20.000Z</time>
      </trkpt>
      <trkpt lat="42.98257" lon="1.08664">
        <ele>655.7</ele>
        <time>2022-08-18T06:46:25.000Z</time>
      </trkpt>
      <trkpt lat="42.98251" lon="1.08654">
        <ele>656.1</ele>
        <time>2022-08-18T06:46:29.000Z</time>
      </trkpt>
      <trkpt lat="42.98245" lon="1.08644">
        <ele>655.8</ele>
        <time>2022-08-18T06:46:33.000Z</time>
      </trkpt>
      <trkpt lat="42.98238" lon="1.08634">
        <ele>656.2</ele>
        <time>2022-08-18T06:46:37.000Z</time>
      </trkpt>
      <trkpt lat="42.98232" lon="1.08622">
        <ele>656.3</ele>
        <time>2022-08-18T06:46:41.000Z</time>
      </trkpt>
      <trkpt lat="42.98225" lon="1.08609">
        <ele>655.8</ele>
        <time>2022-08-18T06:46:45.000Z</time>
      </trkpt>
      <trkpt lat="42.98218" lon="1.08599">
        <ele>656.3</ele>
        <time>2022-08-18T06:46:49.000Z</time>
      </trkpt>
      <trkpt lat="42.98211" lon="1.08587">
        <ele>656.2</ele>
        <time>2022-08-18T06:46:53.000Z</time>
      </trkpt>
      <trkpt lat="42.98204" lon="1.08574">
        <ele>656.9</ele>
        <time>2022-08-18T06:46:57.000Z</time>
      </trkpt>
      <trkpt lat="42.98199" lon="1.08562">
        <ele>657.4</ele>
        <time>2022-08-18T06:47:01.000Z</time>
      </trkpt>
      <trkpt lat="42.98194" lon="1.08551">
        <ele>658.1</ele>
        <time>2022-08-18T06:47:05.000Z</time>
      </trkpt>
      <trkpt lat="42.98188" lon="1.08538">
        <ele>658.8</ele>
        <time>2022-08-18T06:47:10.000Z</time>
      </trkpt>
      <trkpt lat="42.98183" lon="1.08527">
        <ele>658.9</ele>
        <time>2022-08-18T06:47:14.000Z</time>
      </trkpt>
      <trkpt lat="42.98179" lon="1.08516">
        <ele>659.5</ele>
        <time>2022-08-18T06:47:18.000Z</time>
      </trkpt>
      <trkpt lat="42.98174" lon="1.08504">
        <ele>659.7</ele>
        <time>2022-08-18T06:47:22.000Z</time>
      </trkpt>
      <trkpt lat="42.98167" lon="1.08493">
        <ele>659.6</ele>
        <time>2022-08-18T06:47:26.000Z</time>
      </trkpt>
      <trkpt lat="42.98159" lon="1.08485">
        <ele>659.9</ele>
        <time>2022-08-18T06:47:31.000Z</time>
      </trkpt>
      <trkpt lat="42.9815" lon="1.08482">
        <ele>659.2</ele>
        <time>2022-08-18T06:47:37.000Z</time>
      </trkpt>
      <trkpt lat="42.98141" lon="1.08479">
        <ele>658</ele>
        <time>2022-08-18T06:47:43.000Z</time>
      </trkpt>
      <trkpt lat="42.9813" lon="1.08475">
        <ele>656.7</ele>
        <time>2022-08-18T06:47:47.000Z</time>
      </trkpt>
      <trkpt lat="42.98121" lon="1.0847">
        <ele>655.3</ele>
        <time>2022-08-18T06:47:49.000Z</time>
      </trkpt>
      <trkpt lat="42.98111" lon="1.08461">
        <ele>654.3</ele>
        <time>2022-08-18T06:47:51.000Z</time>
      </trkpt>
      <trkpt lat="42.98098" lon="1.0845">
        <ele>653</ele>
        <time>2022-08-18T06:47:53.000Z</time>
      </trkpt>
      <trkpt lat="42.98085" lon="1.08435">
        <ele>651.1</ele>
        <time>2022-08-18T06:47:55.000Z</time>
      </trkpt>
      <trkpt lat="42.9807" lon="1.08422">
        <ele>648.9</ele>
        <time>2022-08-18T06:47:57.000Z</time>
      </trkpt>
      <trkpt lat="42.98062" lon="1.08414">
        <ele>648.6</ele>
        <time>2022-08-18T06:47:58.000Z</time>
      </trkpt>
      <trkpt lat="42.98055" lon="1.08406">
        <ele>648.8</ele>
        <time>2022-08-18T06:47:59.000Z</time>
      </trkpt>
      <trkpt lat="42.98047" lon="1.08399">
        <ele>648.2</ele>
        <time>2022-08-18T06:48:00.000Z</time>
      </trkpt>
      <trkpt lat="42.98039" lon="1.08391">
        <ele>646.8</ele>
        <time>2022-08-18T06:48:01.000Z</time>
      </trkpt>
      <trkpt lat="42.98031" lon="1.08383">
        <ele>645.6</ele>
        <time>2022-08-18T06:48:02.000Z</time>
      </trkpt>
      <trkpt lat="42.98023" lon="1.08375">
        <ele>645.4</ele>
        <time>2022-08-18T06:48:03.000Z</time>
      </trkpt>
      <trkpt lat="42.98014" lon="1.08367">
        <ele>644.6</ele>
        <time>2022-08-18T06:48:04.000Z</time>
      </trkpt>
      <trkpt lat="42.98006" lon="1.08359">
        <ele>644.2</ele>
        <time>2022-08-18T06:48:05.000Z</time>
      </trkpt>
      <trkpt lat="42.97997" lon="1.08352">
        <ele>643.2</ele>
        <time>2022-08-18T06:48:06.000Z</time>
      </trkpt>
      <trkpt lat="42.97989" lon="1.08345">
        <ele>641.9</ele>
        <time>2022-08-18T06:48:07.000Z</time>
      </trkpt>
      <trkpt lat="42.97974" lon="1.08333">
        <ele>640.4</ele>
        <time>2022-08-18T06:48:09.000Z</time>
      </trkpt>
      <trkpt lat="42.97961" lon="1.08323">
        <ele>640</ele>
        <time>2022-08-18T06:48:11.000Z</time>
      </trkpt>
      <trkpt lat="42.97946" lon="1.08317">
        <ele>636.3</ele>
        <time>2022-08-18T06:48:13.000Z</time>
      </trkpt>
      <trkpt lat="42.9793" lon="1.0831">
        <ele>634</ele>
        <time>2022-08-18T06:48:15.000Z</time>
      </trkpt>
      <trkpt lat="42.97921" lon="1.08303">
        <ele>632.8</ele>
        <time>2022-08-18T06:48:16.000Z</time>
      </trkpt>
      <trkpt lat="42.97914" lon="1.08295">
        <ele>632.6</ele>
        <time>2022-08-18T06:48:17.000Z</time>
      </trkpt>
      <trkpt lat="42.97905" lon="1.08281">
        <ele>634.3</ele>
        <time>2022-08-18T06:48:19.000Z</time>
      </trkpt>
      <trkpt lat="42.97899" lon="1.08271">
        <ele>635.7</ele>
        <time>2022-08-18T06:48:21.000Z</time>
      </trkpt>
      <trkpt lat="42.97891" lon="1.0826">
        <ele>637.1</ele>
        <time>2022-08-18T06:48:25.000Z</time>
      </trkpt>
      <trkpt lat="42.97883" lon="1.08249">
        <ele>637.3</ele>
        <time>2022-08-18T06:48:29.000Z</time>
      </trkpt>
      <trkpt lat="42.97875" lon="1.08238">
        <ele>638.2</ele>
        <time>2022-08-18T06:48:33.000Z</time>
      </trkpt>
      <trkpt lat="42.97869" lon="1.08228">
        <ele>639.1</ele>
        <time>2022-08-18T06:48:37.000Z</time>
      </trkpt>
      <trkpt lat="42.97863" lon="1.08218">
        <ele>640.7</ele>
        <time>2022-08-18T06:48:41.000Z</time>
      </trkpt>
      <trkpt lat="42.97857" lon="1.08208">
        <ele>642.3</ele>
        <time>2022-08-18T06:48:45.000Z</time>
      </trkpt>
      <trkpt lat="42.97851" lon="1.08196">
        <ele>644.8</ele>
        <time>2022-08-18T06:48:50.000Z</time>
      </trkpt>
      <trkpt lat="42.97847" lon="1.08185">
        <ele>646.7</ele>
        <time>2022-08-18T06:48:54.000Z</time>
      </trkpt>
      <trkpt lat="42.97843" lon="1.08173">
        <ele>648.9</ele>
        <time>2022-08-18T06:48:58.000Z</time>
      </trkpt>
      <trkpt lat="42.9784" lon="1.08161">
        <ele>651</ele>
        <time>2022-08-18T06:49:02.000Z</time>
      </trkpt>
      <trkpt lat="42.97838" lon="1.08146">
        <ele>653.6</ele>
        <time>2022-08-18T06:49:07.000Z</time>
      </trkpt>
      <trkpt lat="42.97838" lon="1.08131">
        <ele>655.1</ele>
        <time>2022-08-18T06:49:12.000Z</time>
      </trkpt>
      <trkpt lat="42.97839" lon="1.08118">
        <ele>656.5</ele>
        <time>2022-08-18T06:49:16.000Z</time>
      </trkpt>
      <trkpt lat="42.97841" lon="1.08106">
        <ele>658</ele>
        <time>2022-08-18T06:49:20.000Z</time>
      </trkpt>
      <trkpt lat="42.97843" lon="1.08091">
        <ele>658.8</ele>
        <time>2022-08-18T06:49:25.000Z</time>
      </trkpt>
      <trkpt lat="42.97844" lon="1.08079">
        <ele>659.3</ele>
        <time>2022-08-18T06:49:29.000Z</time>
      </trkpt>
      <trkpt lat="42.97846" lon="1.08065">
        <ele>658.9</ele>
        <time>2022-08-18T06:49:33.000Z</time>
      </trkpt>
      <trkpt lat="42.97848" lon="1.08053">
        <ele>658.9</ele>
        <time>2022-08-18T06:49:36.000Z</time>
      </trkpt>
      <trkpt lat="42.97851" lon="1.08041">
        <ele>658.1</ele>
        <time>2022-08-18T06:49:39.000Z</time>
      </trkpt>
      <trkpt lat="42.97855" lon="1.08027">
        <ele>658.2</ele>
        <time>2022-08-18T06:49:42.000Z</time>
      </trkpt>
      <trkpt lat="42.97861" lon="1.08012">
        <ele>657.1</ele>
        <time>2022-08-18T06:49:45.000Z</time>
      </trkpt>
      <trkpt lat="42.97865" lon="1.07999">
        <ele>656.5</ele>
        <time>2022-08-18T06:49:47.000Z</time>
      </trkpt>
      <trkpt lat="42.97868" lon="1.07986">
        <ele>656.7</ele>
        <time>2022-08-18T06:49:49.000Z</time>
      </trkpt>
      <trkpt lat="42.9787" lon="1.07974">
        <ele>656.9</ele>
        <time>2022-08-18T06:49:51.000Z</time>
      </trkpt>
      <trkpt lat="42.9787" lon="1.07956">
        <ele>656.8</ele>
        <time>2022-08-18T06:49:54.000Z</time>
      </trkpt>
      <trkpt lat="42.97869" lon="1.0794">
        <ele>656.5</ele>
        <time>2022-08-18T06:49:57.000Z</time>
      </trkpt>
      <trkpt lat="42.97869" lon="1.07924">
        <ele>656.6</ele>
        <time>2022-08-18T06:50:00.000Z</time>
      </trkpt>
      <trkpt lat="42.97869" lon="1.07907">
        <ele>656.7</ele>
        <time>2022-08-18T06:50:03.000Z</time>
      </trkpt>
      <trkpt lat="42.97869" lon="1.07891">
        <ele>656.5</ele>
        <time>2022-08-18T06:50:06.000Z</time>
      </trkpt>
      <trkpt lat="42.97869" lon="1.07875">
        <ele>657</ele>
        <time>2022-08-18T06:50:09.000Z</time>
      </trkpt>
      <trkpt lat="42.97868" lon="1.07862">
        <ele>657.3</ele>
        <time>2022-08-18T06:50:12.000Z</time>
      </trkpt>
      <trkpt lat="42.97867" lon="1.07849">
        <ele>657.5</ele>
        <time>2022-08-18T06:50:15.000Z</time>
      </trkpt>
      <trkpt lat="42.97866" lon="1.07834">
        <ele>658.4</ele>
        <time>2022-08-18T06:50:19.000Z</time>
      </trkpt>
      <trkpt lat="42.97865" lon="1.07819">
        <ele>659.3</ele>
        <time>2022-08-18T06:50:23.000Z</time>
      </trkpt>
      <trkpt lat="42.97864" lon="1.07805">
        <ele>660.1</ele>
        <time>2022-08-18T06:50:27.000Z</time>
      </trkpt>
      <trkpt lat="42.97858" lon="1.07794">
        <ele>661</ele>
        <time>2022-08-18T06:50:32.000Z</time>
      </trkpt>
      <trkpt lat="42.97849" lon="1.07786">
        <ele>661.3</ele>
        <time>2022-08-18T06:50:37.000Z</time>
      </trkpt>
      <trkpt lat="42.97841" lon="1.07782">
        <ele>661.8</ele>
        <time>2022-08-18T06:50:41.000Z</time>
      </trkpt>
      <trkpt lat="42.97832" lon="1.07779">
        <ele>661.7</ele>
        <time>2022-08-18T06:50:45.000Z</time>
      </trkpt>
      <trkpt lat="42.97822" lon="1.07776">
        <ele>661.3</ele>
        <time>2022-08-18T06:50:49.000Z</time>
      </trkpt>
      <trkpt lat="42.97812" lon="1.07772">
        <ele>662.1</ele>
        <time>2022-08-18T06:50:53.000Z</time>
      </trkpt>
      <trkpt lat="42.97803" lon="1.07767">
        <ele>662.8</ele>
        <time>2022-08-18T06:50:58.000Z</time>
      </trkpt>
      <trkpt lat="42.97793" lon="1.07762">
        <ele>663.2</ele>
        <time>2022-08-18T06:51:03.000Z</time>
      </trkpt>
      <trkpt lat="42.97782" lon="1.07757">
        <ele>663.8</ele>
        <time>2022-08-18T06:51:08.000Z</time>
      </trkpt>
      <trkpt lat="42.97774" lon="1.07752">
        <ele>664.7</ele>
        <time>2022-08-18T06:51:12.000Z</time>
      </trkpt>
      <trkpt lat="42.97766" lon="1.07747">
        <ele>664.9</ele>
        <time>2022-08-18T06:51:16.000Z</time>
      </trkpt>
      <trkpt lat="42.97757" lon="1.07742">
        <ele>665.7</ele>
        <time>2022-08-18T06:51:20.000Z</time>
      </trkpt>
      <trkpt lat="42.97748" lon="1.07736">
        <ele>667.4</ele>
        <time>2022-08-18T06:51:24.000Z</time>
      </trkpt>
      <trkpt lat="42.97739" lon="1.07733">
        <ele>669.1</ele>
        <time>2022-08-18T06:51:28.000Z</time>
      </trkpt>
      <trkpt lat="42.9773" lon="1.07729">
        <ele>671.2</ele>
        <time>2022-08-18T06:51:33.000Z</time>
      </trkpt>
      <trkpt lat="42.97721" lon="1.07726">
        <ele>673.2</ele>
        <time>2022-08-18T06:51:38.000Z</time>
      </trkpt>
      <trkpt lat="42.97713" lon="1.07718">
        <ele>674.5</ele>
        <time>2022-08-18T06:51:43.000Z</time>
      </trkpt>
      <trkpt lat="42.97705" lon="1.0771">
        <ele>676.2</ele>
        <time>2022-08-18T06:51:48.000Z</time>
      </trkpt>
      <trkpt lat="42.97698" lon="1.07701">
        <ele>678.5</ele>
        <time>2022-08-18T06:51:53.000Z</time>
      </trkpt>
      <trkpt lat="42.97691" lon="1.07692">
        <ele>680.4</ele>
        <time>2022-08-18T06:51:59.000Z</time>
      </trkpt>
      <trkpt lat="42.97683" lon="1.07682">
        <ele>682.5</ele>
        <time>2022-08-18T06:52:05.000Z</time>
      </trkpt>
      <trkpt lat="42.97677" lon="1.07673">
        <ele>684.3</ele>
        <time>2022-08-18T06:52:10.000Z</time>
      </trkpt>
      <trkpt lat="42.9767" lon="1.07663">
        <ele>686</ele>
        <time>2022-08-18T06:52:15.000Z</time>
      </trkpt>
      <trkpt lat="42.97663" lon="1.07653">
        <ele>687.2</ele>
        <time>2022-08-18T06:52:20.000Z</time>
      </trkpt>
      <trkpt lat="42.97656" lon="1.07643">
        <ele>689.2</ele>
        <time>2022-08-18T06:52:26.000Z</time>
      </trkpt>
      <trkpt lat="42.97649" lon="1.07635">
        <ele>691.1</ele>
        <time>2022-08-18T06:52:31.000Z</time>
      </trkpt>
      <trkpt lat="42.97641" lon="1.07626">
        <ele>693.4</ele>
        <time>2022-08-18T06:52:38.000Z</time>
      </trkpt>
      <trkpt lat="42.97633" lon="1.07617">
        <ele>694.4</ele>
        <time>2022-08-18T06:52:43.000Z</time>
      </trkpt>
      <trkpt lat="42.97626" lon="1.07609">
        <ele>695.8</ele>
        <time>2022-08-18T06:52:47.000Z</time>
      </trkpt>
      <trkpt lat="42.97617" lon="1.07602">
        <ele>697.4</ele>
        <time>2022-08-18T06:52:52.000Z</time>
      </trkpt>
      <trkpt lat="42.97609" lon="1.07595">
        <ele>699.3</ele>
        <time>2022-08-18T06:52:57.000Z</time>
      </trkpt>
      <trkpt lat="42.97602" lon="1.07585">
        <ele>700.8</ele>
        <time>2022-08-18T06:53:02.000Z</time>
      </trkpt>
      <trkpt lat="42.97595" lon="1.07577">
        <ele>702.7</ele>
        <time>2022-08-18T06:53:07.000Z</time>
      </trkpt>
      <trkpt lat="42.97587" lon="1.07568">
        <ele>704.5</ele>
        <time>2022-08-18T06:53:13.000Z</time>
      </trkpt>
      <trkpt lat="42.97578" lon="1.07561">
        <ele>706.7</ele>
        <time>2022-08-18T06:53:19.000Z</time>
      </trkpt>
      <trkpt lat="42.97571" lon="1.07552">
        <ele>709.2</ele>
        <time>2022-08-18T06:53:25.000Z</time>
      </trkpt>
      <trkpt lat="42.97565" lon="1.07542">
        <ele>711.5</ele>
        <time>2022-08-18T06:53:31.000Z</time>
      </trkpt>
      <trkpt lat="42.97559" lon="1.07532">
        <ele>713.8</ele>
        <time>2022-08-18T06:53:37.000Z</time>
      </trkpt>
      <trkpt lat="42.97549" lon="1.07526">
        <ele>716.1</ele>
        <time>2022-08-18T06:53:43.000Z</time>
      </trkpt>
      <trkpt lat="42.97542" lon="1.07518">
        <ele>718.7</ele>
        <time>2022-08-18T06:53:49.000Z</time>
      </trkpt>
      <trkpt lat="42.97535" lon="1.07507">
        <ele>720.8</ele>
        <time>2022-08-18T06:53:55.000Z</time>
      </trkpt>
      <trkpt lat="42.97528" lon="1.07498">
        <ele>722.5</ele>
        <time>2022-08-18T06:53:59.000Z</time>
      </trkpt>
      <trkpt lat="42.97522" lon="1.07487">
        <ele>724.8</ele>
        <time>2022-08-18T06:54:05.000Z</time>
      </trkpt>
      <trkpt lat="42.97513" lon="1.07479">
        <ele>726.7</ele>
        <time>2022-08-18T06:54:10.000Z</time>
      </trkpt>
      <trkpt lat="42.97505" lon="1.07472">
        <ele>728.8</ele>
        <time>2022-08-18T06:54:15.000Z</time>
      </trkpt>
      <trkpt lat="42.97497" lon="1.07463">
        <ele>731.2</ele>
        <time>2022-08-18T06:54:21.000Z</time>
      </trkpt>
      <trkpt lat="42.97492" lon="1.07452">
        <ele>733.5</ele>
        <time>2022-08-18T06:54:27.000Z</time>
      </trkpt>
      <trkpt lat="42.97485" lon="1.07443">
        <ele>734.6</ele>
        <time>2022-08-18T06:54:32.000Z</time>
      </trkpt>
      <trkpt lat="42.9748" lon="1.07432">
        <ele>736.1</ele>
        <time>2022-08-18T06:54:37.000Z</time>
      </trkpt>
      <trkpt lat="42.97475" lon="1.0742">
        <ele>738</ele>
        <time>2022-08-18T06:54:43.000Z</time>
      </trkpt>
      <trkpt lat="42.97468" lon="1.07408">
        <ele>739.8</ele>
        <time>2022-08-18T06:54:49.000Z</time>
      </trkpt>
      <trkpt lat="42.97462" lon="1.07396">
        <ele>740.9</ele>
        <time>2022-08-18T06:54:54.000Z</time>
      </trkpt>
      <trkpt lat="42.97458" lon="1.07384">
        <ele>742.9</ele>
        <time>2022-08-18T06:54:59.000Z</time>
      </trkpt>
      <trkpt lat="42.97451" lon="1.07373">
        <ele>744.5</ele>
        <time>2022-08-18T06:55:04.000Z</time>
      </trkpt>
      <trkpt lat="42.97443" lon="1.07364">
        <ele>746.5</ele>
        <time>2022-08-18T06:55:10.000Z</time>
      </trkpt>
      <trkpt lat="42.97435" lon="1.07355">
        <ele>749</ele>
        <time>2022-08-18T06:55:16.000Z</time>
      </trkpt>
      <trkpt lat="42.97427" lon="1.07347">
        <ele>750.9</ele>
        <time>2022-08-18T06:55:22.000Z</time>
      </trkpt>
      <trkpt lat="42.97419" lon="1.0734">
        <ele>753.4</ele>
        <time>2022-08-18T06:55:28.000Z</time>
      </trkpt>
      <trkpt lat="42.97411" lon="1.07332">
        <ele>755.4</ele>
        <time>2022-08-18T06:55:33.000Z</time>
      </trkpt>
      <trkpt lat="42.97402" lon="1.07324">
        <ele>756.7</ele>
        <time>2022-08-18T06:55:38.000Z</time>
      </trkpt>
      <trkpt lat="42.97395" lon="1.07317">
        <ele>758.3</ele>
        <time>2022-08-18T06:55:43.000Z</time>
      </trkpt>
      <trkpt lat="42.97387" lon="1.07309">
        <ele>759.2</ele>
        <time>2022-08-18T06:55:48.000Z</time>
      </trkpt>
      <trkpt lat="42.97378" lon="1.07303">
        <ele>760.4</ele>
        <time>2022-08-18T06:55:54.000Z</time>
      </trkpt>
      <trkpt lat="42.97369" lon="1.07296">
        <ele>762.4</ele>
        <time>2022-08-18T06:56:00.000Z</time>
      </trkpt>
      <trkpt lat="42.97359" lon="1.07291">
        <ele>763.9</ele>
        <time>2022-08-18T06:56:06.000Z</time>
      </trkpt>
      <trkpt lat="42.9735" lon="1.07287">
        <ele>765.1</ele>
        <time>2022-08-18T06:56:11.000Z</time>
      </trkpt>
      <trkpt lat="42.9734" lon="1.07283">
        <ele>766.9</ele>
        <time>2022-08-18T06:56:16.000Z</time>
      </trkpt>
      <trkpt lat="42.9733" lon="1.0728">
        <ele>768.3</ele>
        <time>2022-08-18T06:56:21.000Z</time>
      </trkpt>
      <trkpt lat="42.9732" lon="1.07278">
        <ele>769.3</ele>
        <time>2022-08-18T06:56:26.000Z</time>
      </trkpt>
      <trkpt lat="42.97311" lon="1.07277">
        <ele>769.4</ele>
        <time>2022-08-18T06:56:32.000Z</time>
      </trkpt>
      <trkpt lat="42.97301" lon="1.07274">
        <ele>769</ele>
        <time>2022-08-18T06:56:40.000Z</time>
      </trkpt>
      <trkpt lat="42.97292" lon="1.07273">
        <ele>768.3</ele>
        <time>2022-08-18T06:56:47.000Z</time>
      </trkpt>
      <trkpt lat="42.97286" lon="1.07265">
        <ele>767.1</ele>
        <time>2022-08-18T06:56:56.000Z</time>
      </trkpt>
      <trkpt lat="42.97286" lon="1.07265">
        <ele>767.2</ele>
        <time>2022-08-18T06:56:57.000Z</time>
      </trkpt>
      <trkpt lat="42.97287" lon="1.07266">
        <ele>767</ele>
        <time>2022-08-18T06:57:01.000Z</time>
      </trkpt>
      <trkpt lat="42.97287" lon="1.07265">
        <ele>766.9</ele>
        <time>2022-08-18T06:57:02.000Z</time>
      </trkpt>
      <trkpt lat="42.97286" lon="1.07262">
        <ele>767.3</ele>
        <time>2022-08-18T06:57:10.000Z</time>
      </trkpt>
      <trkpt lat="42.97286" lon="1.07262">
        <ele>767.5</ele>
        <time>2022-08-18T06:57:29.000Z</time>
      </trkpt>
      <trkpt lat="42.97286" lon="1.07261">
        <ele>767</ele>
        <time>2022-08-18T06:58:31.000Z</time>
      </trkpt>
      <trkpt lat="42.97286" lon="1.07261">
        <ele>767.1</ele>
        <time>2022-08-18T06:58:33.000Z</time>
      </trkpt>
      <trkpt lat="42.97286" lon="1.07261">
        <ele>767</ele>
        <time>2022-08-18T06:58:47.000Z</time>
      </trkpt>
      <trkpt lat="42.97286" lon="1.07261">
        <ele>767.4</ele>
        <time>2022-08-18T06:58:49.000Z</time>
      </trkpt>
      <trkpt lat="42.97285" lon="1.07261">
        <ele>767.5</ele>
        <time>2022-08-18T06:58:54.000Z</time>
      </trkpt>
      <trkpt lat="42.97285" lon="1.07261">
        <ele>766.9</ele>
        <time>2022-08-18T06:59:12.000Z</time>
      </trkpt>
      <trkpt lat="42.97285" lon="1.07261">
        <ele>766.8</ele>
        <time>2022-08-18T06:59:58.000Z</time>
      </trkpt>
      <trkpt lat="42.97285" lon="1.07261">
        <ele>766.8</ele>
        <time>2022-08-18T07:00:47.000Z</time>
      </trkpt>
      <trkpt lat="42.97285" lon="1.07261">
        <ele>766.6</ele>
        <time>2022-08-18T07:00:51.000Z</time>
      </trkpt>
      <trkpt lat="42.97286" lon="1.07261">
        <ele>766.4</ele>
        <time>2022-08-18T07:00:57.000Z</time>
      </trkpt>
      <trkpt lat="42.97286" lon="1.07261">
        <ele>766.3</ele>
        <time>2022-08-18T07:00:58.000Z</time>
      </trkpt>
      <trkpt lat="42.97285" lon="1.07261">
        <ele>766.2</ele>
        <time>2022-08-18T07:01:00.000Z</time>
      </trkpt>
      <trkpt lat="42.97285" lon="1.07261">
        <ele>766.5</ele>
        <time>2022-08-18T07:01:03.000Z</time>
      </trkpt>
      <trkpt lat="42.97285" lon="1.07261">
        <ele>766.6</ele>
        <time>2022-08-18T07:01:04.000Z</time>
      </trkpt>
      <trkpt lat="42.97284" lon="1.07262">
        <ele>766.7</ele>
        <time>2022-08-18T07:01:08.000Z</time>
      </trkpt>
      <trkpt lat="42.97285" lon="1.07262">
        <ele>766.2</ele>
        <time>2022-08-18T07:01:43.000Z</time>
      </trkpt>
      <trkpt lat="42.97284" lon="1.07262">
        <ele>766.2</ele>
        <time>2022-08-18T07:02:09.000Z</time>
      </trkpt>
      <trkpt lat="42.97284" lon="1.07262">
        <ele>766.2</ele>
        <time>2022-08-18T07:02:10.000Z</time>
      </trkpt>
      <trkpt lat="42.97284" lon="1.07262">
        <ele>766.3</ele>
        <time>2022-08-18T07:02:11.000Z</time>
      </trkpt>
      <trkpt lat="42.97284" lon="1.07262">
        <ele>766.2</ele>
        <time>2022-08-18T07:02:14.000Z</time>
      </trkpt>
      <trkpt lat="42.97284" lon="1.07262">
        <ele>766.1</ele>
        <time>2022-08-18T07:02:16.000Z</time>
      </trkpt>
      <trkpt lat="42.97285" lon="1.07262">
        <ele>766.4</ele>
        <time>2022-08-18T07:02:26.000Z</time>
      </trkpt>
      <trkpt lat="42.97285" lon="1.07262">
        <ele>766.3</ele>
        <time>2022-08-18T07:02:29.000Z</time>
      </trkpt>
      <trkpt lat="42.97285" lon="1.07262">
        <ele>766.3</ele>
        <time>2022-08-18T07:02:30.000Z</time>
      </trkpt>
      <trkpt lat="42.97285" lon="1.07261">
        <ele>766.3</ele>
        <time>2022-08-18T07:02:50.000Z</time>
      </trkpt>
      <trkpt lat="42.97285" lon="1.0726">
        <ele>766.4</ele>
        <time>2022-08-18T07:02:53.000Z</time>
      </trkpt>
      <trkpt lat="42.97285" lon="1.0726">
        <ele>766.5</ele>
        <time>2022-08-18T07:02:54.000Z</time>
      </trkpt>
      <trkpt lat="42.97282" lon="1.07248">
        <ele>766.7</ele>
        <time>2022-08-18T07:03:06.000Z</time>
      </trkpt>
      <trkpt lat="42.9728" lon="1.07236">
        <ele>768.7</ele>
        <time>2022-08-18T07:03:11.000Z</time>
      </trkpt>
      <trkpt lat="42.97275" lon="1.07223">
        <ele>770.6</ele>
        <time>2022-08-18T07:03:17.000Z</time>
      </trkpt>
      <trkpt lat="42.9727" lon="1.07211">
        <ele>771</ele>
        <time>2022-08-18T07:03:22.000Z</time>
      </trkpt>
      <trkpt lat="42.97265" lon="1.07199">
        <ele>771.8</ele>
        <time>2022-08-18T07:03:27.000Z</time>
      </trkpt>
      <trkpt lat="42.97257" lon="1.07189">
        <ele>772</ele>
        <time>2022-08-18T07:03:32.000Z</time>
      </trkpt>
      <trkpt lat="42.97248" lon="1.07183">
        <ele>773</ele>
        <time>2022-08-18T07:03:37.000Z</time>
      </trkpt>
      <trkpt lat="42.97238" lon="1.07179">
        <ele>773.2</ele>
        <time>2022-08-18T07:03:41.000Z</time>
      </trkpt>
      <trkpt lat="42.97228" lon="1.07175">
        <ele>773.9</ele>
        <time>2022-08-18T07:03:46.000Z</time>
      </trkpt>
      <trkpt lat="42.97218" lon="1.07171">
        <ele>774.7</ele>
        <time>2022-08-18T07:03:50.000Z</time>
      </trkpt>
      <trkpt lat="42.97209" lon="1.07169">
        <ele>775.7</ele>
        <time>2022-08-18T07:03:54.000Z</time>
      </trkpt>
      <trkpt lat="42.972" lon="1.07165">
        <ele>776</ele>
        <time>2022-08-18T07:03:58.000Z</time>
      </trkpt>
      <trkpt lat="42.9719" lon="1.07159">
        <ele>776.9</ele>
        <time>2022-08-18T07:04:02.000Z</time>
      </trkpt>
      <trkpt lat="42.97181" lon="1.0715">
        <ele>778.3</ele>
        <time>2022-08-18T07:04:06.000Z</time>
      </trkpt>
      <trkpt lat="42.97176" lon="1.07139">
        <ele>778.9</ele>
        <time>2022-08-18T07:04:10.000Z</time>
      </trkpt>
      <trkpt lat="42.97172" lon="1.07125">
        <ele>780.1</ele>
        <time>2022-08-18T07:04:14.000Z</time>
      </trkpt>
      <trkpt lat="42.97171" lon="1.07111">
        <ele>781.8</ele>
        <time>2022-08-18T07:04:18.000Z</time>
      </trkpt>
      <trkpt lat="42.97171" lon="1.07098">
        <ele>784.5</ele>
        <time>2022-08-18T07:04:22.000Z</time>
      </trkpt>
      <trkpt lat="42.97165" lon="1.0709">
        <ele>785.8</ele>
        <time>2022-08-18T07:04:27.000Z</time>
      </trkpt>
      <trkpt lat="42.97159" lon="1.07078">
        <ele>787.6</ele>
        <time>2022-08-18T07:04:32.000Z</time>
      </trkpt>
      <trkpt lat="42.9715" lon="1.07071">
        <ele>788.8</ele>
        <time>2022-08-18T07:04:37.000Z</time>
      </trkpt>
      <trkpt lat="42.9714" lon="1.07067">
        <ele>789.1</ele>
        <time>2022-08-18T07:04:42.000Z</time>
      </trkpt>
      <trkpt lat="42.9713" lon="1.07065">
        <ele>790.4</ele>
        <time>2022-08-18T07:04:47.000Z</time>
      </trkpt>
      <trkpt lat="42.9712" lon="1.07064">
        <ele>791.8</ele>
        <time>2022-08-18T07:04:52.000Z</time>
      </trkpt>
      <trkpt lat="42.97111" lon="1.07064">
        <ele>794.1</ele>
        <time>2022-08-18T07:04:57.000Z</time>
      </trkpt>
      <trkpt lat="42.971" lon="1.07064">
        <ele>796.6</ele>
        <time>2022-08-18T07:05:02.000Z</time>
      </trkpt>
      <trkpt lat="42.97089" lon="1.07065">
        <ele>798.9</ele>
        <time>2022-08-18T07:05:07.000Z</time>
      </trkpt>
      <trkpt lat="42.9708" lon="1.07069">
        <ele>800</ele>
        <time>2022-08-18T07:05:12.000Z</time>
      </trkpt>
      <trkpt lat="42.97071" lon="1.07073">
        <ele>801.8</ele>
        <time>2022-08-18T07:05:16.000Z</time>
      </trkpt>
      <trkpt lat="42.97061" lon="1.07076">
        <ele>803.7</ele>
        <time>2022-08-18T07:05:21.000Z</time>
      </trkpt>
      <trkpt lat="42.97051" lon="1.07077">
        <ele>806</ele>
        <time>2022-08-18T07:05:26.000Z</time>
      </trkpt>
      <trkpt lat="42.97041" lon="1.07079">
        <ele>808.9</ele>
        <time>2022-08-18T07:05:32.000Z</time>
      </trkpt>
      <trkpt lat="42.97032" lon="1.07072">
        <ele>812.6</ele>
        <time>2022-08-18T07:05:38.000Z</time>
      </trkpt>
      <trkpt lat="42.97024" lon="1.07066">
        <ele>815.2</ele>
        <time>2022-08-18T07:05:44.000Z</time>
      </trkpt>
      <trkpt lat="42.97015" lon="1.07065">
        <ele>816.7</ele>
        <time>2022-08-18T07:05:50.000Z</time>
      </trkpt>
      <trkpt lat="42.97004" lon="1.07064">
        <ele>817.5</ele>
        <time>2022-08-18T07:05:56.000Z</time>
      </trkpt>
      <trkpt lat="42.97002" lon="1.0705">
        <ele>819</ele>
        <time>2022-08-18T07:06:04.000Z</time>
      </trkpt>
      <trkpt lat="42.97009" lon="1.0704">
        <ele>820.3</ele>
        <time>2022-08-18T07:06:09.000Z</time>
      </trkpt>
      <trkpt lat="42.97015" lon="1.0703">
        <ele>822.1</ele>
        <time>2022-08-18T07:06:14.000Z</time>
      </trkpt>
      <trkpt lat="42.97021" lon="1.0702">
        <ele>824.1</ele>
        <time>2022-08-18T07:06:18.000Z</time>
      </trkpt>
      <trkpt lat="42.97029" lon="1.07009">
        <ele>827</ele>
        <time>2022-08-18T07:06:23.000Z</time>
      </trkpt>
      <trkpt lat="42.97034" lon="1.06998">
        <ele>829.9</ele>
        <time>2022-08-18T07:06:29.000Z</time>
      </trkpt>
      <trkpt lat="42.97032" lon="1.06985">
        <ele>831.8</ele>
        <time>2022-08-18T07:06:36.000Z</time>
      </trkpt>
      <trkpt lat="42.97025" lon="1.06974">
        <ele>834.8</ele>
        <time>2022-08-18T07:06:43.000Z</time>
      </trkpt>
      <trkpt lat="42.97021" lon="1.06962">
        <ele>838</ele>
        <time>2022-08-18T07:06:50.000Z</time>
      </trkpt>
      <trkpt lat="42.97013" lon="1.06956">
        <ele>839</ele>
        <time>2022-08-18T07:06:57.000Z</time>
      </trkpt>
      <trkpt lat="42.97004" lon="1.06948">
        <ele>840.6</ele>
        <time>2022-08-18T07:07:04.000Z</time>
      </trkpt>
      <trkpt lat="42.96996" lon="1.0694">
        <ele>841</ele>
        <time>2022-08-18T07:07:10.000Z</time>
      </trkpt>
      <trkpt lat="42.96992" lon="1.06928">
        <ele>839.7</ele>
        <time>2022-08-18T07:07:17.000Z</time>
      </trkpt>
      <trkpt lat="42.96986" lon="1.06919">
        <ele>839.5</ele>
        <time>2022-08-18T07:07:21.000Z</time>
      </trkpt>
      <trkpt lat="42.96983" lon="1.06907">
        <ele>837.2</ele>
        <time>2022-08-18T07:07:25.000Z</time>
      </trkpt>
      <trkpt lat="42.96981" lon="1.06893">
        <ele>835.9</ele>
        <time>2022-08-18T07:07:29.000Z</time>
      </trkpt>
      <trkpt lat="42.96977" lon="1.06879">
        <ele>834.7</ele>
        <time>2022-08-18T07:07:33.000Z</time>
      </trkpt>
      <trkpt lat="42.9697" lon="1.06867">
        <ele>832.4</ele>
        <time>2022-08-18T07:07:36.000Z</time>
      </trkpt>
      <trkpt lat="42.96966" lon="1.06851">
        <ele>832.7</ele>
        <time>2022-08-18T07:07:39.000Z</time>
      </trkpt>
      <trkpt lat="42.9697" lon="1.06836">
        <ele>833.5</ele>
        <time>2022-08-18T07:07:43.000Z</time>
      </trkpt>
      <trkpt lat="42.96966" lon="1.06828">
        <ele>834.3</ele>
        <time>2022-08-18T07:07:47.000Z</time>
      </trkpt>
      <trkpt lat="42.96966" lon="1.06828">
        <ele>834.2</ele>
        <time>2022-08-18T07:07:55.000Z</time>
      </trkpt>
      <trkpt lat="42.96966" lon="1.06828">
        <ele>834.4</ele>
        <time>2022-08-18T07:08:11.000Z</time>
      </trkpt>
      <trkpt lat="42.96966" lon="1.06828">
        <ele>834.2</ele>
        <time>2022-08-18T07:08:12.000Z</time>
      </trkpt>
      <trkpt lat="42.96966" lon="1.06828">
        <ele>834.1</ele>
        <time>2022-08-18T07:08:13.000Z</time>
      </trkpt>
      <trkpt lat="42.96965" lon="1.06828">
        <ele>834.4</ele>
        <time>2022-08-18T07:08:15.000Z</time>
      </trkpt>
      <trkpt lat="42.96965" lon="1.06827">
        <ele>834.4</ele>
        <time>2022-08-18T07:08:22.000Z</time>
      </trkpt>
      <trkpt lat="42.9696" lon="1.06828">
        <ele>833.7</ele>
        <time>2022-08-18T07:08:28.000Z</time>
      </trkpt>
      <trkpt lat="42.9696" lon="1.06827">
        <ele>833.8</ele>
        <time>2022-08-18T07:08:32.000Z</time>
      </trkpt>
      <trkpt lat="42.96958" lon="1.06825">
        <ele>833.6</ele>
        <time>2022-08-18T07:08:36.000Z</time>
      </trkpt>
      <trkpt lat="42.96958" lon="1.06825">
        <ele>834</ele>
        <time>2022-08-18T07:09:12.000Z</time>
      </trkpt>
      <trkpt lat="42.96958" lon="1.06825">
        <ele>833.7</ele>
        <time>2022-08-18T07:09:15.000Z</time>
      </trkpt>
      <trkpt lat="42.96958" lon="1.06826">
        <ele>833.9</ele>
        <time>2022-08-18T07:09:40.000Z</time>
      </trkpt>
      <trkpt lat="42.96958" lon="1.06825">
        <ele>834.1</ele>
        <time>2022-08-18T07:10:03.000Z</time>
      </trkpt>
      <trkpt lat="42.96958" lon="1.06825">
        <ele>833.9</ele>
        <time>2022-08-18T07:10:06.000Z</time>
      </trkpt>
      <trkpt lat="42.96958" lon="1.06825">
        <ele>834</ele>
        <time>2022-08-18T07:10:07.000Z</time>
      </trkpt>
      <trkpt lat="42.96958" lon="1.06824">
        <ele>833.5</ele>
        <time>2022-08-18T07:10:11.000Z</time>
      </trkpt>
      <trkpt lat="42.96958" lon="1.06823">
        <ele>833.9</ele>
        <time>2022-08-18T07:10:42.000Z</time>
      </trkpt>
      <trkpt lat="42.96957" lon="1.06823">
        <ele>833.7</ele>
        <time>2022-08-18T07:10:54.000Z</time>
      </trkpt>
      <trkpt lat="42.96948" lon="1.06819">
        <ele>833.3</ele>
        <time>2022-08-18T07:11:00.000Z</time>
      </trkpt>
      <trkpt lat="42.96938" lon="1.06817">
        <ele>832.2</ele>
        <time>2022-08-18T07:11:05.000Z</time>
      </trkpt>
      <trkpt lat="42.96928" lon="1.06813">
        <ele>831.1</ele>
        <time>2022-08-18T07:11:09.000Z</time>
      </trkpt>
      <trkpt lat="42.96917" lon="1.06815">
        <ele>828.2</ele>
        <time>2022-08-18T07:11:14.000Z</time>
      </trkpt>
      <trkpt lat="42.96907" lon="1.06812">
        <ele>828.3</ele>
        <time>2022-08-18T07:11:17.000Z</time>
      </trkpt>
      <trkpt lat="42.96898" lon="1.06806">
        <ele>827.7</ele>
        <time>2022-08-18T07:11:20.000Z</time>
      </trkpt>
      <trkpt lat="42.96888" lon="1.06797">
        <ele>826</ele>
        <time>2022-08-18T07:11:23.000Z</time>
      </trkpt>
      <trkpt lat="42.96878" lon="1.0679">
        <ele>825.6</ele>
        <time>2022-08-18T07:11:26.000Z</time>
      </trkpt>
      <trkpt lat="42.96869" lon="1.06785">
        <ele>824.1</ele>
        <time>2022-08-18T07:11:29.000Z</time>
      </trkpt>
      <trkpt lat="42.9686" lon="1.06779">
        <ele>822.2</ele>
        <time>2022-08-18T07:11:33.000Z</time>
      </trkpt>
      <trkpt lat="42.9685" lon="1.06772">
        <ele>821.1</ele>
        <time>2022-08-18T07:11:36.000Z</time>
      </trkpt>
      <trkpt lat="42.96841" lon="1.06766">
        <ele>820.7</ele>
        <time>2022-08-18T07:11:38.000Z</time>
      </trkpt>
      <trkpt lat="42.96832" lon="1.0676">
        <ele>818.7</ele>
        <time>2022-08-18T07:11:41.000Z</time>
      </trkpt>
      <trkpt lat="42.96823" lon="1.06759">
        <ele>817.5</ele>
        <time>2022-08-18T07:11:44.000Z</time>
      </trkpt>
      <trkpt lat="42.96814" lon="1.06757">
        <ele>816.2</ele>
        <time>2022-08-18T07:11:46.000Z</time>
      </trkpt>
      <trkpt lat="42.96805" lon="1.0675">
        <ele>815</ele>
        <time>2022-08-18T07:11:48.000Z</time>
      </trkpt>
      <trkpt lat="42.96795" lon="1.06749">
        <ele>813.5</ele>
        <time>2022-08-18T07:11:52.000Z</time>
      </trkpt>
      <trkpt lat="42.96786" lon="1.06754">
        <ele>811.3</ele>
        <time>2022-08-18T07:11:56.000Z</time>
      </trkpt>
      <trkpt lat="42.96777" lon="1.06754">
        <ele>808.9</ele>
        <time>2022-08-18T07:11:59.000Z</time>
      </trkpt>
      <trkpt lat="42.96764" lon="1.06751">
        <ele>806.8</ele>
        <time>2022-08-18T07:12:02.000Z</time>
      </trkpt>
      <trkpt lat="42.96755" lon="1.06746">
        <ele>805.9</ele>
        <time>2022-08-18T07:12:04.000Z</time>
      </trkpt>
      <trkpt lat="42.96746" lon="1.06744">
        <ele>804.5</ele>
        <time>2022-08-18T07:12:06.000Z</time>
      </trkpt>
      <trkpt lat="42.96734" lon="1.06739">
        <ele>803.5</ele>
        <time>2022-08-18T07:12:09.000Z</time>
      </trkpt>
      <trkpt lat="42.96725" lon="1.0673">
        <ele>803.1</ele>
        <time>2022-08-18T07:12:12.000Z</time>
      </trkpt>
      <trkpt lat="42.96714" lon="1.06721">
        <ele>800.6</ele>
        <time>2022-08-18T07:12:15.000Z</time>
      </trkpt>
      <trkpt lat="42.96703" lon="1.06714">
        <ele>798.7</ele>
        <time>2022-08-18T07:12:18.000Z</time>
      </trkpt>
      <trkpt lat="42.96691" lon="1.06714">
        <ele>796.8</ele>
        <time>2022-08-18T07:12:21.000Z</time>
      </trkpt>
      <trkpt lat="42.96682" lon="1.06715">
        <ele>795.9</ele>
        <time>2022-08-18T07:12:23.000Z</time>
      </trkpt>
      <trkpt lat="42.96671" lon="1.06711">
        <ele>793</ele>
        <time>2022-08-18T07:12:26.000Z</time>
      </trkpt>
      <trkpt lat="42.96661" lon="1.06714">
        <ele>791.3</ele>
        <time>2022-08-18T07:12:29.000Z</time>
      </trkpt>
      <trkpt lat="42.96648" lon="1.06713">
        <ele>788.4</ele>
        <time>2022-08-18T07:12:32.000Z</time>
      </trkpt>
      <trkpt lat="42.96637" lon="1.06708">
        <ele>786.5</ele>
        <time>2022-08-18T07:12:34.000Z</time>
      </trkpt>
      <trkpt lat="42.96623" lon="1.06702">
        <ele>784.3</ele>
        <time>2022-08-18T07:12:36.000Z</time>
      </trkpt>
      <trkpt lat="42.96608" lon="1.067">
        <ele>783.5</ele>
        <time>2022-08-18T07:12:38.000Z</time>
      </trkpt>
      <trkpt lat="42.96595" lon="1.06701">
        <ele>782.3</ele>
        <time>2022-08-18T07:12:40.000Z</time>
      </trkpt>
      <trkpt lat="42.96581" lon="1.06704">
        <ele>781.5</ele>
        <time>2022-08-18T07:12:42.000Z</time>
      </trkpt>
      <trkpt lat="42.9657" lon="1.06708">
        <ele>780.6</ele>
        <time>2022-08-18T07:12:44.000Z</time>
      </trkpt>
      <trkpt lat="42.96559" lon="1.06709">
        <ele>779.2</ele>
        <time>2022-08-18T07:12:46.000Z</time>
      </trkpt>
      <trkpt lat="42.96548" lon="1.06709">
        <ele>777.1</ele>
        <time>2022-08-18T07:12:49.000Z</time>
      </trkpt>
      <trkpt lat="42.96536" lon="1.0671">
        <ele>775.4</ele>
        <time>2022-08-18T07:12:52.000Z</time>
      </trkpt>
      <trkpt lat="42.96527" lon="1.06708">
        <ele>772.1</ele>
        <time>2022-08-18T07:12:55.000Z</time>
      </trkpt>
      <trkpt lat="42.96516" lon="1.06701">
        <ele>771.8</ele>
        <time>2022-08-18T07:12:58.000Z</time>
      </trkpt>
      <trkpt lat="42.96505" lon="1.06697">
        <ele>770.4</ele>
        <time>2022-08-18T07:13:00.000Z</time>
      </trkpt>
      <trkpt lat="42.96495" lon="1.06693">
        <ele>769.1</ele>
        <time>2022-08-18T07:13:02.000Z</time>
      </trkpt>
      <trkpt lat="42.96482" lon="1.0669">
        <ele>767.7</ele>
        <time>2022-08-18T07:13:05.000Z</time>
      </trkpt>
      <trkpt lat="42.96469" lon="1.06688">
        <ele>767.1</ele>
        <time>2022-08-18T07:13:08.000Z</time>
      </trkpt>
      <trkpt lat="42.96458" lon="1.06689">
        <ele>764.7</ele>
        <time>2022-08-18T07:13:11.000Z</time>
      </trkpt>
      <trkpt lat="42.96446" lon="1.0669">
        <ele>763.4</ele>
        <time>2022-08-18T07:13:14.000Z</time>
      </trkpt>
      <trkpt lat="42.96437" lon="1.06685">
        <ele>761</ele>
        <time>2022-08-18T07:13:17.000Z</time>
      </trkpt>
      <trkpt lat="42.96427" lon="1.06683">
        <ele>758.5</ele>
        <time>2022-08-18T07:13:21.000Z</time>
      </trkpt>
      <trkpt lat="42.96415" lon="1.06682">
        <ele>756.1</ele>
        <time>2022-08-18T07:13:25.000Z</time>
      </trkpt>
      <trkpt lat="42.96406" lon="1.06676">
        <ele>754.1</ele>
        <time>2022-08-18T07:13:28.000Z</time>
      </trkpt>
      <trkpt lat="42.96394" lon="1.06672">
        <ele>752.1</ele>
        <time>2022-08-18T07:13:31.000Z</time>
      </trkpt>
      <trkpt lat="42.9638" lon="1.06668">
        <ele>750.3</ele>
        <time>2022-08-18T07:13:34.000Z</time>
      </trkpt>
      <trkpt lat="42.96371" lon="1.06663">
        <ele>749.7</ele>
        <time>2022-08-18T07:13:36.000Z</time>
      </trkpt>
      <trkpt lat="42.96361" lon="1.06661">
        <ele>747.5</ele>
        <time>2022-08-18T07:13:38.000Z</time>
      </trkpt>
      <trkpt lat="42.96349" lon="1.06657">
        <ele>745.5</ele>
        <time>2022-08-18T07:13:41.000Z</time>
      </trkpt>
      <trkpt lat="42.96338" lon="1.06652">
        <ele>742.1</ele>
        <time>2022-08-18T07:13:44.000Z</time>
      </trkpt>
      <trkpt lat="42.96328" lon="1.06647">
        <ele>741.2</ele>
        <time>2022-08-18T07:13:47.000Z</time>
      </trkpt>
      <trkpt lat="42.9632" lon="1.06641">
        <ele>738.8</ele>
        <time>2022-08-18T07:13:50.000Z</time>
      </trkpt>
      <trkpt lat="42.96311" lon="1.06637">
        <ele>737.5</ele>
        <time>2022-08-18T07:13:53.000Z</time>
      </trkpt>
      <trkpt lat="42.96302" lon="1.0663">
        <ele>736</ele>
        <time>2022-08-18T07:13:56.000Z</time>
      </trkpt>
      <trkpt lat="42.96292" lon="1.06626">
        <ele>733.4</ele>
        <time>2022-08-18T07:13:59.000Z</time>
      </trkpt>
      <trkpt lat="42.96281" lon="1.06621">
        <ele>732.1</ele>
        <time>2022-08-18T07:14:02.000Z</time>
      </trkpt>
      <trkpt lat="42.96272" lon="1.06614">
        <ele>730</ele>
        <time>2022-08-18T07:14:06.000Z</time>
      </trkpt>
      <trkpt lat="42.96263" lon="1.06609">
        <ele>726.7</ele>
        <time>2022-08-18T07:14:10.000Z</time>
      </trkpt>
      <trkpt lat="42.96255" lon="1.06602">
        <ele>725.7</ele>
        <time>2022-08-18T07:14:13.000Z</time>
      </trkpt>
      <trkpt lat="42.96246" lon="1.06591">
        <ele>723</ele>
        <time>2022-08-18T07:14:16.000Z</time>
      </trkpt>
      <trkpt lat="42.96237" lon="1.06584">
        <ele>721.6</ele>
        <time>2022-08-18T07:14:20.000Z</time>
      </trkpt>
      <trkpt lat="42.96227" lon="1.06581">
        <ele>720.3</ele>
        <time>2022-08-18T07:14:23.000Z</time>
      </trkpt>
      <trkpt lat="42.96216" lon="1.06577">
        <ele>718.4</ele>
        <time>2022-08-18T07:14:26.000Z</time>
      </trkpt>
      <trkpt lat="42.96206" lon="1.06572">
        <ele>716.7</ele>
        <time>2022-08-18T07:14:29.000Z</time>
      </trkpt>
      <trkpt lat="42.96193" lon="1.06566">
        <ele>713.4</ele>
        <time>2022-08-18T07:14:32.000Z</time>
      </trkpt>
      <trkpt lat="42.96181" lon="1.06559">
        <ele>711.9</ele>
        <time>2022-08-18T07:14:35.000Z</time>
      </trkpt>
      <trkpt lat="42.96173" lon="1.06553">
        <ele>710.6</ele>
        <time>2022-08-18T07:14:37.000Z</time>
      </trkpt>
      <trkpt lat="42.96164" lon="1.06547">
        <ele>708.5</ele>
        <time>2022-08-18T07:14:39.000Z</time>
      </trkpt>
      <trkpt lat="42.96157" lon="1.06539">
        <ele>707.7</ele>
        <time>2022-08-18T07:14:41.000Z</time>
      </trkpt>
      <trkpt lat="42.96149" lon="1.0653">
        <ele>708.6</ele>
        <time>2022-08-18T07:14:43.000Z</time>
      </trkpt>
      <trkpt lat="42.9614" lon="1.06521">
        <ele>705.7</ele>
        <time>2022-08-18T07:14:46.000Z</time>
      </trkpt>
      <trkpt lat="42.96132" lon="1.06513">
        <ele>703.2</ele>
        <time>2022-08-18T07:14:50.000Z</time>
      </trkpt>
      <trkpt lat="42.96124" lon="1.06507">
        <ele>700.4</ele>
        <time>2022-08-18T07:14:54.000Z</time>
      </trkpt>
      <trkpt lat="42.96114" lon="1.06502">
        <ele>698.3</ele>
        <time>2022-08-18T07:14:57.000Z</time>
      </trkpt>
      <trkpt lat="42.96104" lon="1.06496">
        <ele>695.5</ele>
        <time>2022-08-18T07:15:00.000Z</time>
      </trkpt>
      <trkpt lat="42.96094" lon="1.06487">
        <ele>694.1</ele>
        <time>2022-08-18T07:15:03.000Z</time>
      </trkpt>
      <trkpt lat="42.96084" lon="1.06477">
        <ele>691.5</ele>
        <time>2022-08-18T07:15:06.000Z</time>
      </trkpt>
      <trkpt lat="42.96074" lon="1.06469">
        <ele>689.3</ele>
        <time>2022-08-18T07:15:10.000Z</time>
      </trkpt>
      <trkpt lat="42.96066" lon="1.06462">
        <ele>687.7</ele>
        <time>2022-08-18T07:15:13.000Z</time>
      </trkpt>
      <trkpt lat="42.96057" lon="1.0646">
        <ele>684.4</ele>
        <time>2022-08-18T07:15:16.000Z</time>
      </trkpt>
      <trkpt lat="42.96047" lon="1.06461">
        <ele>682.3</ele>
        <time>2022-08-18T07:15:19.000Z</time>
      </trkpt>
      <trkpt lat="42.96036" lon="1.06462">
        <ele>679.6</ele>
        <time>2022-08-18T07:15:24.000Z</time>
      </trkpt>
      <trkpt lat="42.96024" lon="1.06463">
        <ele>677.4</ele>
        <time>2022-08-18T07:15:28.000Z</time>
      </trkpt>
      <trkpt lat="42.96014" lon="1.06468">
        <ele>673.1</ele>
        <time>2022-08-18T07:15:31.000Z</time>
      </trkpt>
      <trkpt lat="42.96003" lon="1.06473">
        <ele>669.4</ele>
        <time>2022-08-18T07:15:34.000Z</time>
      </trkpt>
      <trkpt lat="42.95991" lon="1.06479">
        <ele>665.7</ele>
        <time>2022-08-18T07:15:38.000Z</time>
      </trkpt>
      <trkpt lat="42.95983" lon="1.06484">
        <ele>664.6</ele>
        <time>2022-08-18T07:15:40.000Z</time>
      </trkpt>
      <trkpt lat="42.9597" lon="1.06486">
        <ele>662</ele>
        <time>2022-08-18T07:15:42.000Z</time>
      </trkpt>
      <trkpt lat="42.9596" lon="1.06483">
        <ele>660.2</ele>
        <time>2022-08-18T07:15:44.000Z</time>
      </trkpt>
      <trkpt lat="42.9595" lon="1.0648">
        <ele>659.2</ele>
        <time>2022-08-18T07:15:46.000Z</time>
      </trkpt>
      <trkpt lat="42.9594" lon="1.06482">
        <ele>659</ele>
        <time>2022-08-18T07:15:48.000Z</time>
      </trkpt>
      <trkpt lat="42.95929" lon="1.06482">
        <ele>657.3</ele>
        <time>2022-08-18T07:15:50.000Z</time>
      </trkpt>
      <trkpt lat="42.95918" lon="1.06484">
        <ele>654.7</ele>
        <time>2022-08-18T07:15:53.000Z</time>
      </trkpt>
      <trkpt lat="42.95916" lon="1.06479">
        <ele>653.8</ele>
        <time>2022-08-18T07:15:59.000Z</time>
      </trkpt>
      <trkpt lat="42.95916" lon="1.06478">
        <ele>654.3</ele>
        <time>2022-08-18T07:16:06.000Z</time>
      </trkpt>
      <trkpt lat="42.95916" lon="1.06478">
        <ele>654.4</ele>
        <time>2022-08-18T07:16:09.000Z</time>
      </trkpt>
      <trkpt lat="42.95916" lon="1.06478">
        <ele>654.3</ele>
        <time>2022-08-18T07:16:10.000Z</time>
      </trkpt>
      <trkpt lat="42.95916" lon="1.06477">
        <ele>654.1</ele>
        <time>2022-08-18T07:16:16.000Z</time>
      </trkpt>
      <trkpt lat="42.95916" lon="1.06477">
        <ele>653.9</ele>
        <time>2022-08-18T07:16:28.000Z</time>
      </trkpt>
      <trkpt lat="42.95916" lon="1.06476">
        <ele>654</ele>
        <time>2022-08-18T07:16:30.000Z</time>
      </trkpt>
      <trkpt lat="42.95916" lon="1.06475">
        <ele>654</ele>
        <time>2022-08-18T07:16:33.000Z</time>
      </trkpt>
      <trkpt lat="42.95916" lon="1.06461">
        <ele>653</ele>
        <time>2022-08-18T07:16:38.000Z</time>
      </trkpt>
      <trkpt lat="42.9592" lon="1.0645">
        <ele>652.2</ele>
        <time>2022-08-18T07:16:42.000Z</time>
      </trkpt>
      <trkpt lat="42.95918" lon="1.06434">
        <ele>651.9</ele>
        <time>2022-08-18T07:16:45.000Z</time>
      </trkpt>
      <trkpt lat="42.9591" lon="1.06423">
        <ele>649.8</ele>
        <time>2022-08-18T07:16:47.000Z</time>
      </trkpt>
      <trkpt lat="42.95901" lon="1.06413">
        <ele>646.1</ele>
        <time>2022-08-18T07:16:49.000Z</time>
      </trkpt>
      <trkpt lat="42.95889" lon="1.06403">
        <ele>644.5</ele>
        <time>2022-08-18T07:16:51.000Z</time>
      </trkpt>
      <trkpt lat="42.95881" lon="1.06394">
        <ele>641.8</ele>
        <time>2022-08-18T07:16:53.000Z</time>
      </trkpt>
      <trkpt lat="42.95869" lon="1.06385">
        <ele>640</ele>
        <time>2022-08-18T07:16:56.000Z</time>
      </trkpt>
      <trkpt lat="42.95858" lon="1.06382">
        <ele>639.4</ele>
        <time>2022-08-18T07:16:58.000Z</time>
      </trkpt>
      <trkpt lat="42.95846" lon="1.0638">
        <ele>638.8</ele>
        <time>2022-08-18T07:17:00.000Z</time>
      </trkpt>
      <trkpt lat="42.95836" lon="1.06378">
        <ele>637.7</ele>
        <time>2022-08-18T07:17:02.000Z</time>
      </trkpt>
      <trkpt lat="42.95826" lon="1.0637">
        <ele>635.5</ele>
        <time>2022-08-18T07:17:06.000Z</time>
      </trkpt>
      <trkpt lat="42.95816" lon="1.06366">
        <ele>632.4</ele>
        <time>2022-08-18T07:17:10.000Z</time>
      </trkpt>
      <trkpt lat="42.95806" lon="1.06364">
        <ele>628.9</ele>
        <time>2022-08-18T07:17:14.000Z</time>
      </trkpt>
      <trkpt lat="42.95795" lon="1.06359">
        <ele>625</ele>
        <time>2022-08-18T07:17:19.000Z</time>
      </trkpt>
      <trkpt lat="42.95785" lon="1.0636">
        <ele>622</ele>
        <time>2022-08-18T07:17:22.000Z</time>
      </trkpt>
      <trkpt lat="42.95778" lon="1.0635">
        <ele>617.3</ele>
        <time>2022-08-18T07:17:30.000Z</time>
      </trkpt>
      <trkpt lat="42.95783" lon="1.06334">
        <ele>613.9</ele>
        <time>2022-08-18T07:17:34.000Z</time>
      </trkpt>
      <trkpt lat="42.95787" lon="1.06323">
        <ele>612.1</ele>
        <time>2022-08-18T07:17:36.000Z</time>
      </trkpt>
      <trkpt lat="42.95793" lon="1.06311">
        <ele>610</ele>
        <time>2022-08-18T07:17:39.000Z</time>
      </trkpt>
      <trkpt lat="42.95784" lon="1.06304">
        <ele>606.5</ele>
        <time>2022-08-18T07:17:45.000Z</time>
      </trkpt>
      <trkpt lat="42.95773" lon="1.0631">
        <ele>603.4</ele>
        <time>2022-08-18T07:17:48.000Z</time>
      </trkpt>
      <trkpt lat="42.95763" lon="1.06316">
        <ele>598.4</ele>
        <time>2022-08-18T07:17:54.000Z</time>
      </trkpt>
      <trkpt lat="42.95753" lon="1.0632">
        <ele>597.5</ele>
        <time>2022-08-18T07:17:56.000Z</time>
      </trkpt>
      <trkpt lat="42.95744" lon="1.06326">
        <ele>595.3</ele>
        <time>2022-08-18T07:17:59.000Z</time>
      </trkpt>
      <trkpt lat="42.95734" lon="1.06331">
        <ele>593.5</ele>
        <time>2022-08-18T07:18:03.000Z</time>
      </trkpt>
      <trkpt lat="42.95724" lon="1.06332">
        <ele>590.6</ele>
        <time>2022-08-18T07:18:07.000Z</time>
      </trkpt>
      <trkpt lat="42.95716" lon="1.06342">
        <ele>588.9</ele>
        <time>2022-08-18T07:18:12.000Z</time>
      </trkpt>
      <trkpt lat="42.95709" lon="1.0635">
        <ele>587.4</ele>
        <time>2022-08-18T07:18:15.000Z</time>
      </trkpt>
      <trkpt lat="42.95697" lon="1.06353">
        <ele>586.5</ele>
        <time>2022-08-18T07:18:18.000Z</time>
      </trkpt>
      <trkpt lat="42.95686" lon="1.06349">
        <ele>584.8</ele>
        <time>2022-08-18T07:18:21.000Z</time>
      </trkpt>
      <trkpt lat="42.95676" lon="1.06347">
        <ele>583</ele>
        <time>2022-08-18T07:18:24.000Z</time>
      </trkpt>
      <trkpt lat="42.95667" lon="1.06344">
        <ele>580.9</ele>
        <time>2022-08-18T07:18:27.000Z</time>
      </trkpt>
      <trkpt lat="42.95658" lon="1.06338">
        <ele>578.6</ele>
        <time>2022-08-18T07:18:31.000Z</time>
      </trkpt>
      <trkpt lat="42.95649" lon="1.06333">
        <ele>577.6</ele>
        <time>2022-08-18T07:18:33.000Z</time>
      </trkpt>
      <trkpt lat="42.95637" lon="1.06331">
        <ele>576.1</ele>
        <time>2022-08-18T07:18:36.000Z</time>
      </trkpt>
      <trkpt lat="42.95628" lon="1.0633">
        <ele>575.1</ele>
        <time>2022-08-18T07:18:38.000Z</time>
      </trkpt>
      <trkpt lat="42.95617" lon="1.06328">
        <ele>574.1</ele>
        <time>2022-08-18T07:18:40.000Z</time>
      </trkpt>
      <trkpt lat="42.95604" lon="1.06323">
        <ele>572.8</ele>
        <time>2022-08-18T07:18:42.000Z</time>
      </trkpt>
      <trkpt lat="42.95593" lon="1.06319">
        <ele>569.7</ele>
        <time>2022-08-18T07:18:44.000Z</time>
      </trkpt>
      <trkpt lat="42.95582" lon="1.06315">
        <ele>568.1</ele>
        <time>2022-08-18T07:18:46.000Z</time>
      </trkpt>
      <trkpt lat="42.95569" lon="1.06311">
        <ele>566.5</ele>
        <time>2022-08-18T07:18:48.000Z</time>
      </trkpt>
      <trkpt lat="42.95555" lon="1.0631">
        <ele>563.8</ele>
        <time>2022-08-18T07:18:50.000Z</time>
      </trkpt>
      <trkpt lat="42.95541" lon="1.06309">
        <ele>561.8</ele>
        <time>2022-08-18T07:18:52.000Z</time>
      </trkpt>
      <trkpt lat="42.95529" lon="1.06303">
        <ele>557.3</ele>
        <time>2022-08-18T07:18:55.000Z</time>
      </trkpt>
      <trkpt lat="42.95516" lon="1.06302">
        <ele>554.9</ele>
        <time>2022-08-18T07:18:58.000Z</time>
      </trkpt>
      <trkpt lat="42.95505" lon="1.06304">
        <ele>552.2</ele>
        <time>2022-08-18T07:19:01.000Z</time>
      </trkpt>
      <trkpt lat="42.95496" lon="1.06303">
        <ele>550.2</ele>
        <time>2022-08-18T07:19:04.000Z</time>
      </trkpt>
      <trkpt lat="42.95487" lon="1.06301">
        <ele>548.5</ele>
        <time>2022-08-18T07:19:06.000Z</time>
      </trkpt>
      <trkpt lat="42.95475" lon="1.06298">
        <ele>545.9</ele>
        <time>2022-08-18T07:19:09.000Z</time>
      </trkpt>
      <trkpt lat="42.95467" lon="1.06294">
        <ele>543.2</ele>
        <time>2022-08-18T07:19:12.000Z</time>
      </trkpt>
      <trkpt lat="42.95457" lon="1.06291">
        <ele>540.5</ele>
        <time>2022-08-18T07:19:15.000Z</time>
      </trkpt>
      <trkpt lat="42.95449" lon="1.06285">
        <ele>537.6</ele>
        <time>2022-08-18T07:19:18.000Z</time>
      </trkpt>
      <trkpt lat="42.9544" lon="1.06288">
        <ele>535.1</ele>
        <time>2022-08-18T07:19:22.000Z</time>
      </trkpt>
      <trkpt lat="42.95427" lon="1.06293">
        <ele>532.8</ele>
        <time>2022-08-18T07:19:25.000Z</time>
      </trkpt>
      <trkpt lat="42.95417" lon="1.0629">
        <ele>529.4</ele>
        <time>2022-08-18T07:19:29.000Z</time>
      </trkpt>
      <trkpt lat="42.95411" lon="1.0628">
        <ele>527.1</ele>
        <time>2022-08-18T07:19:34.000Z</time>
      </trkpt>
      <trkpt lat="42.95402" lon="1.06279">
        <ele>525</ele>
        <time>2022-08-18T07:19:38.000Z</time>
      </trkpt>
      <trkpt lat="42.95408" lon="1.0627">
        <ele>521.6</ele>
        <time>2022-08-18T07:19:45.000Z</time>
      </trkpt>
      <trkpt lat="42.95403" lon="1.06258">
        <ele>518.7</ele>
        <time>2022-08-18T07:19:52.000Z</time>
      </trkpt>
      <trkpt lat="42.9539" lon="1.06252">
        <ele>517.1</ele>
        <time>2022-08-18T07:19:55.000Z</time>
      </trkpt>
      <trkpt lat="42.9538" lon="1.06244">
        <ele>516.9</ele>
        <time>2022-08-18T07:19:57.000Z</time>
      </trkpt>
      <trkpt lat="42.95369" lon="1.06241">
        <ele>517</ele>
        <time>2022-08-18T07:20:00.000Z</time>
      </trkpt>
      <trkpt lat="42.95357" lon="1.06242">
        <ele>516.5</ele>
        <time>2022-08-18T07:20:03.000Z</time>
      </trkpt>
      <trkpt lat="42.95345" lon="1.06243">
        <ele>515.6</ele>
        <time>2022-08-18T07:20:05.000Z</time>
      </trkpt>
      <trkpt lat="42.95334" lon="1.06244">
        <ele>515.1</ele>
        <time>2022-08-18T07:20:07.000Z</time>
      </trkpt>
      <trkpt lat="42.95321" lon="1.06243">
        <ele>514.8</ele>
        <time>2022-08-18T07:20:10.000Z</time>
      </trkpt>
      <trkpt lat="42.95309" lon="1.06242">
        <ele>513.5</ele>
        <time>2022-08-18T07:20:13.000Z</time>
      </trkpt>
      <trkpt lat="42.95298" lon="1.06243">
        <ele>512.9</ele>
        <time>2022-08-18T07:20:15.000Z</time>
      </trkpt>
      <trkpt lat="42.95286" lon="1.06247">
        <ele>511.9</ele>
        <time>2022-08-18T07:20:17.000Z</time>
      </trkpt>
      <trkpt lat="42.95274" lon="1.0625">
        <ele>511.4</ele>
        <time>2022-08-18T07:20:19.000Z</time>
      </trkpt>
      <trkpt lat="42.95264" lon="1.06252">
        <ele>510.1</ele>
        <time>2022-08-18T07:20:22.000Z</time>
      </trkpt>
      <trkpt lat="42.95255" lon="1.06258">
        <ele>510.1</ele>
        <time>2022-08-18T07:20:27.000Z</time>
      </trkpt>
      <trkpt lat="42.95243" lon="1.06261">
        <ele>509</ele>
        <time>2022-08-18T07:20:31.000Z</time>
      </trkpt>
      <trkpt lat="42.95234" lon="1.06265">
        <ele>508.7</ele>
        <time>2022-08-18T07:20:33.000Z</time>
      </trkpt>
      <trkpt lat="42.95224" lon="1.06269">
        <ele>508.7</ele>
        <time>2022-08-18T07:20:36.000Z</time>
      </trkpt>
      <trkpt lat="42.95213" lon="1.06273">
        <ele>508.6</ele>
        <time>2022-08-18T07:20:39.000Z</time>
      </trkpt>
      <trkpt lat="42.95202" lon="1.0628">
        <ele>508.6</ele>
        <time>2022-08-18T07:20:43.000Z</time>
      </trkpt>
      <trkpt lat="42.95191" lon="1.06285">
        <ele>508.1</ele>
        <time>2022-08-18T07:20:47.000Z</time>
      </trkpt>
      <trkpt lat="42.95182" lon="1.06287">
        <ele>507.8</ele>
        <time>2022-08-18T07:20:50.000Z</time>
      </trkpt>
      <trkpt lat="42.95182" lon="1.06287">
        <ele>507.6</ele>
        <time>2022-08-18T07:20:53.000Z</time>
      </trkpt>
      <trkpt lat="42.95181" lon="1.06288">
        <ele>507.5</ele>
        <time>2022-08-18T07:21:08.000Z</time>
      </trkpt>
      <trkpt lat="42.95173" lon="1.06295">
        <ele>506.9</ele>
        <time>2022-08-18T07:21:14.000Z</time>
      </trkpt>
      <trkpt lat="42.95163" lon="1.06299">
        <ele>507.2</ele>
        <time>2022-08-18T07:21:18.000Z</time>
      </trkpt>
      <trkpt lat="42.9515" lon="1.06301">
        <ele>507.1</ele>
        <time>2022-08-18T07:21:22.000Z</time>
      </trkpt>
      <trkpt lat="42.95139" lon="1.06301">
        <ele>507.4</ele>
        <time>2022-08-18T07:21:25.000Z</time>
      </trkpt>
      <trkpt lat="42.95128" lon="1.063">
        <ele>508.2</ele>
        <time>2022-08-18T07:21:29.000Z</time>
      </trkpt>
      <trkpt lat="42.95118" lon="1.06301">
        <ele>508.2</ele>
        <time>2022-08-18T07:21:33.000Z</time>
      </trkpt>
      <trkpt lat="42.95111" lon="1.06294">
        <ele>508.4</ele>
        <time>2022-08-18T07:21:36.000Z</time>
      </trkpt>
      <trkpt lat="42.95106" lon="1.06283">
        <ele>509.8</ele>
        <time>2022-08-18T07:21:40.000Z</time>
      </trkpt>
      <trkpt lat="42.951" lon="1.06273">
        <ele>510</ele>
        <time>2022-08-18T07:21:44.000Z</time>
      </trkpt>
      <trkpt lat="42.95094" lon="1.0626">
        <ele>510</ele>
        <time>2022-08-18T07:21:48.000Z</time>
      </trkpt>
      <trkpt lat="42.95093" lon="1.06258">
        <ele>509.2</ele>
        <time>2022-08-18T07:21:51.000Z</time>
      </trkpt>
      <trkpt lat="42.95093" lon="1.06258">
        <ele>509.3</ele>
        <time>2022-08-18T07:22:02.000Z</time>
      </trkpt>
      <trkpt lat="42.95093" lon="1.06258">
        <ele>509.1</ele>
        <time>2022-08-18T07:22:07.000Z</time>
      </trkpt>
      <trkpt lat="42.95093" lon="1.06258">
        <ele>509.1</ele>
        <time>2022-08-18T07:22:15.000Z</time>
      </trkpt>
      <trkpt lat="42.95087" lon="1.06245">
        <ele>508.2</ele>
        <time>2022-08-18T07:22:22.000Z</time>
      </trkpt>
      <trkpt lat="42.95079" lon="1.06235">
        <ele>506.4</ele>
        <time>2022-08-18T07:22:28.000Z</time>
      </trkpt>
      <trkpt lat="42.95073" lon="1.06224">
        <ele>505.4</ele>
        <time>2022-08-18T07:22:31.000Z</time>
      </trkpt>
      <trkpt lat="42.95068" lon="1.0621">
        <ele>503.9</ele>
        <time>2022-08-18T07:22:33.000Z</time>
      </trkpt>
      <trkpt lat="42.95063" lon="1.06198">
        <ele>502.9</ele>
        <time>2022-08-18T07:22:35.000Z</time>
      </trkpt>
      <trkpt lat="42.95059" lon="1.06184">
        <ele>501.8</ele>
        <time>2022-08-18T07:22:37.000Z</time>
      </trkpt>
      <trkpt lat="42.95056" lon="1.06172">
        <ele>502.4</ele>
        <time>2022-08-18T07:22:39.000Z</time>
      </trkpt>
      <trkpt lat="42.95051" lon="1.06156">
        <ele>501.2</ele>
        <time>2022-08-18T07:22:42.000Z</time>
      </trkpt>
      <trkpt lat="42.95046" lon="1.06139">
        <ele>500.7</ele>
        <time>2022-08-18T07:22:45.000Z</time>
      </trkpt>
      <trkpt lat="42.95041" lon="1.06127">
        <ele>500.2</ele>
        <time>2022-08-18T07:22:47.000Z</time>
      </trkpt>
      <trkpt lat="42.95036" lon="1.06117">
        <ele>499.9</ele>
        <time>2022-08-18T07:22:49.000Z</time>
      </trkpt>
      <trkpt lat="42.95028" lon="1.06105">
        <ele>497.7</ele>
        <time>2022-08-18T07:22:52.000Z</time>
      </trkpt>
      <trkpt lat="42.95023" lon="1.06091">
        <ele>496.9</ele>
        <time>2022-08-18T07:22:54.000Z</time>
      </trkpt>
      <trkpt lat="42.95019" lon="1.06077">
        <ele>496</ele>
        <time>2022-08-18T07:22:56.000Z</time>
      </trkpt>
      <trkpt lat="42.95015" lon="1.06065">
        <ele>495.1</ele>
        <time>2022-08-18T07:22:58.000Z</time>
      </trkpt>
      <trkpt lat="42.95009" lon="1.06052">
        <ele>493.9</ele>
        <time>2022-08-18T07:23:00.000Z</time>
      </trkpt>
      <trkpt lat="42.95002" lon="1.0604">
        <ele>492.5</ele>
        <time>2022-08-18T07:23:02.000Z</time>
      </trkpt>
      <trkpt lat="42.94997" lon="1.06026">
        <ele>489.1</ele>
        <time>2022-08-18T07:23:05.000Z</time>
      </trkpt>
      <trkpt lat="42.94992" lon="1.06015">
        <ele>487</ele>
        <time>2022-08-18T07:23:07.000Z</time>
      </trkpt>
      <trkpt lat="42.94985" lon="1.06002">
        <ele>484.3</ele>
        <time>2022-08-18T07:23:09.000Z</time>
      </trkpt>
      <trkpt lat="42.94979" lon="1.05989">
        <ele>483.9</ele>
        <time>2022-08-18T07:23:11.000Z</time>
      </trkpt>
      <trkpt lat="42.94975" lon="1.05975">
        <ele>480.2</ele>
        <time>2022-08-18T07:23:14.000Z</time>
      </trkpt>
      <trkpt lat="42.94971" lon="1.05961">
        <ele>478.3</ele>
        <time>2022-08-18T07:23:16.000Z</time>
      </trkpt>
      <trkpt lat="42.94967" lon="1.05949">
        <ele>476</ele>
        <time>2022-08-18T07:23:18.000Z</time>
      </trkpt>
      <trkpt lat="42.94962" lon="1.05934">
        <ele>475.2</ele>
        <time>2022-08-18T07:23:20.000Z</time>
      </trkpt>
      <trkpt lat="42.9496" lon="1.05919">
        <ele>473.9</ele>
        <time>2022-08-18T07:23:22.000Z</time>
      </trkpt>
      <trkpt lat="42.94955" lon="1.05904">
        <ele>471.8</ele>
        <time>2022-08-18T07:23:25.000Z</time>
      </trkpt>
      <trkpt lat="42.94952" lon="1.05892">
        <ele>470.2</ele>
        <time>2022-08-18T07:23:28.000Z</time>
      </trkpt>
      <trkpt lat="42.94942" lon="1.05899">
        <ele>467.8</ele>
        <time>2022-08-18T07:23:34.000Z</time>
      </trkpt>
      <trkpt lat="42.94934" lon="1.05906">
        <ele>466.4</ele>
        <time>2022-08-18T07:23:38.000Z</time>
      </trkpt>
      <trkpt lat="42.94932" lon="1.05903">
        <ele>465.8</ele>
        <time>2022-08-18T07:23:42.000Z</time>
      </trkpt>
      <trkpt lat="42.94932" lon="1.05903">
        <ele>465.9</ele>
        <time>2022-08-18T07:23:43.000Z</time>
      </trkpt>
      <trkpt lat="42.94932" lon="1.05902">
        <ele>465.9</ele>
        <time>2022-08-18T07:23:45.000Z</time>
      </trkpt>
      <trkpt lat="42.94932" lon="1.05902">
        <ele>465.8</ele>
        <time>2022-08-18T07:24:10.000Z</time>
      </trkpt>
      <trkpt lat="42.94932" lon="1.05902">
        <ele>465.9</ele>
        <time>2022-08-18T07:24:14.000Z</time>
      </trkpt>
      <trkpt lat="42.94936" lon="1.0589">
        <ele>464.7</ele>
        <time>2022-08-18T07:24:19.000Z</time>
      </trkpt>
      <trkpt lat="42.94942" lon="1.0588">
        <ele>464.1</ele>
        <time>2022-08-18T07:24:21.000Z</time>
      </trkpt>
      <trkpt lat="42.94948" lon="1.05869">
        <ele>463.9</ele>
        <time>2022-08-18T07:24:23.000Z</time>
      </trkpt>
      <trkpt lat="42.94954" lon="1.05858">
        <ele>462.9</ele>
        <time>2022-08-18T07:24:25.000Z</time>
      </trkpt>
      <trkpt lat="42.94961" lon="1.05844">
        <ele>462.6</ele>
        <time>2022-08-18T07:24:27.000Z</time>
      </trkpt>
      <trkpt lat="42.94967" lon="1.05833">
        <ele>462.2</ele>
        <time>2022-08-18T07:24:29.000Z</time>
      </trkpt>
      <trkpt lat="42.94974" lon="1.05822">
        <ele>462.2</ele>
        <time>2022-08-18T07:24:31.000Z</time>
      </trkpt>
      <trkpt lat="42.94981" lon="1.0581">
        <ele>463.1</ele>
        <time>2022-08-18T07:24:34.000Z</time>
      </trkpt>
      <trkpt lat="42.94988" lon="1.058">
        <ele>463.3</ele>
        <time>2022-08-18T07:24:38.000Z</time>
      </trkpt>
      <trkpt lat="42.94995" lon="1.05788">
        <ele>464</ele>
        <time>2022-08-18T07:24:42.000Z</time>
      </trkpt>
      <trkpt lat="42.95001" lon="1.05778">
        <ele>463.2</ele>
        <time>2022-08-18T07:24:45.000Z</time>
      </trkpt>
      <trkpt lat="42.9501" lon="1.05765">
        <ele>462.5</ele>
        <time>2022-08-18T07:24:48.000Z</time>
      </trkpt>
      <trkpt lat="42.95009" lon="1.0575">
        <ele>462.1</ele>
        <time>2022-08-18T07:24:52.000Z</time>
      </trkpt>
      <trkpt lat="42.94999" lon="1.05743">
        <ele>460.9</ele>
        <time>2022-08-18T07:24:55.000Z</time>
      </trkpt>
      <trkpt lat="42.9499" lon="1.05734">
        <ele>461.4</ele>
        <time>2022-08-18T07:24:58.000Z</time>
      </trkpt>
      <trkpt lat="42.9498" lon="1.05727">
        <ele>461.1</ele>
        <time>2022-08-18T07:25:01.000Z</time>
      </trkpt>
      <trkpt lat="42.9497" lon="1.05722">
        <ele>461.6</ele>
        <time>2022-08-18T07:25:04.000Z</time>
      </trkpt>
      <trkpt lat="42.94961" lon="1.05715">
        <ele>461.2</ele>
        <time>2022-08-18T07:25:07.000Z</time>
      </trkpt>
      <trkpt lat="42.94952" lon="1.05708">
        <ele>460.9</ele>
        <time>2022-08-18T07:25:10.000Z</time>
      </trkpt>
      <trkpt lat="42.94941" lon="1.05704">
        <ele>461.2</ele>
        <time>2022-08-18T07:25:13.000Z</time>
      </trkpt>
      <trkpt lat="42.9493" lon="1.05699">
        <ele>460.8</ele>
        <time>2022-08-18T07:25:16.000Z</time>
      </trkpt>
      <trkpt lat="42.94919" lon="1.05695">
        <ele>460.5</ele>
        <time>2022-08-18T07:25:19.000Z</time>
      </trkpt>
      <trkpt lat="42.9491" lon="1.05689">
        <ele>460.3</ele>
        <time>2022-08-18T07:25:22.000Z</time>
      </trkpt>
      <trkpt lat="42.94899" lon="1.05687">
        <ele>458.8</ele>
        <time>2022-08-18T07:25:26.000Z</time>
      </trkpt>
      <trkpt lat="42.94897" lon="1.05674">
        <ele>459.2</ele>
        <time>2022-08-18T07:25:32.000Z</time>
      </trkpt>
      <trkpt lat="42.949" lon="1.0566">
        <ele>459.2</ele>
        <time>2022-08-18T07:25:36.000Z</time>
      </trkpt>
      <trkpt lat="42.94905" lon="1.05646">
        <ele>459.1</ele>
        <time>2022-08-18T07:25:40.000Z</time>
      </trkpt>
      <trkpt lat="42.94909" lon="1.05632">
        <ele>459.7</ele>
        <time>2022-08-18T07:25:44.000Z</time>
      </trkpt>
      <trkpt lat="42.94913" lon="1.05618">
        <ele>459.5</ele>
        <time>2022-08-18T07:25:48.000Z</time>
      </trkpt>
      <trkpt lat="42.94917" lon="1.05603">
        <ele>460</ele>
        <time>2022-08-18T07:25:52.000Z</time>
      </trkpt>
      <trkpt lat="42.94921" lon="1.05589">
        <ele>460.1</ele>
        <time>2022-08-18T07:25:56.000Z</time>
      </trkpt>
      <trkpt lat="42.94926" lon="1.05574">
        <ele>460.6</ele>
        <time>2022-08-18T07:26:00.000Z</time>
      </trkpt>
      <trkpt lat="42.94929" lon="1.05562">
        <ele>460.6</ele>
        <time>2022-08-18T07:26:03.000Z</time>
      </trkpt>
      <trkpt lat="42.94933" lon="1.05551">
        <ele>460.6</ele>
        <time>2022-08-18T07:26:06.000Z</time>
      </trkpt>
      <trkpt lat="42.94939" lon="1.05537">
        <ele>460.8</ele>
        <time>2022-08-18T07:26:10.000Z</time>
      </trkpt>
      <trkpt lat="42.94944" lon="1.05522">
        <ele>460.8</ele>
        <time>2022-08-18T07:26:14.000Z</time>
      </trkpt>
      <trkpt lat="42.94949" lon="1.05509">
        <ele>461.2</ele>
        <time>2022-08-18T07:26:18.000Z</time>
      </trkpt>
      <trkpt lat="42.94956" lon="1.05495">
        <ele>461.5</ele>
        <time>2022-08-18T07:26:22.000Z</time>
      </trkpt>
      <trkpt lat="42.94962" lon="1.05481">
        <ele>461.4</ele>
        <time>2022-08-18T07:26:26.000Z</time>
      </trkpt>
      <trkpt lat="42.94967" lon="1.05469">
        <ele>461.4</ele>
        <time>2022-08-18T07:26:29.000Z</time>
      </trkpt>
      <trkpt lat="42.94971" lon="1.05457">
        <ele>461.5</ele>
        <time>2022-08-18T07:26:32.000Z</time>
      </trkpt>
      <trkpt lat="42.94975" lon="1.05445">
        <ele>461.8</ele>
        <time>2022-08-18T07:26:35.000Z</time>
      </trkpt>
      <trkpt lat="42.94979" lon="1.05433">
        <ele>462</ele>
        <time>2022-08-18T07:26:38.000Z</time>
      </trkpt>
      <trkpt lat="42.94984" lon="1.05421">
        <ele>462.3</ele>
        <time>2022-08-18T07:26:41.000Z</time>
      </trkpt>
      <trkpt lat="42.9499" lon="1.05409">
        <ele>462</ele>
        <time>2022-08-18T07:26:44.000Z</time>
      </trkpt>
      <trkpt lat="42.94995" lon="1.05397">
        <ele>462.4</ele>
        <time>2022-08-18T07:26:47.000Z</time>
      </trkpt>
      <trkpt lat="42.94999" lon="1.05382">
        <ele>462.4</ele>
        <time>2022-08-18T07:26:50.000Z</time>
      </trkpt>
      <trkpt lat="42.95003" lon="1.05368">
        <ele>462.5</ele>
        <time>2022-08-18T07:26:53.000Z</time>
      </trkpt>
      <trkpt lat="42.95004" lon="1.05352">
        <ele>462.4</ele>
        <time>2022-08-18T07:26:56.000Z</time>
      </trkpt>
      <trkpt lat="42.95003" lon="1.0534">
        <ele>462.3</ele>
        <time>2022-08-18T07:26:58.000Z</time>
      </trkpt>
      <trkpt lat="42.95002" lon="1.05327">
        <ele>461.7</ele>
        <time>2022-08-18T07:27:00.000Z</time>
      </trkpt>
      <trkpt lat="42.95003" lon="1.05314">
        <ele>462.1</ele>
        <time>2022-08-18T07:27:02.000Z</time>
      </trkpt>
      <trkpt lat="42.95005" lon="1.05302">
        <ele>461.9</ele>
        <time>2022-08-18T07:27:04.000Z</time>
      </trkpt>
      <trkpt lat="42.95009" lon="1.05287">
        <ele>462.3</ele>
        <time>2022-08-18T07:27:07.000Z</time>
      </trkpt>
      <trkpt lat="42.95012" lon="1.05272">
        <ele>462</ele>
        <time>2022-08-18T07:27:10.000Z</time>
      </trkpt>
      <trkpt lat="42.95016" lon="1.05258">
        <ele>462</ele>
        <time>2022-08-18T07:27:13.000Z</time>
      </trkpt>
      <trkpt lat="42.9502" lon="1.05246">
        <ele>462.8</ele>
        <time>2022-08-18T07:27:16.000Z</time>
      </trkpt>
      <trkpt lat="42.95024" lon="1.05233">
        <ele>462.6</ele>
        <time>2022-08-18T07:27:19.000Z</time>
      </trkpt>
      <trkpt lat="42.95028" lon="1.05221">
        <ele>462.4</ele>
        <time>2022-08-18T07:27:22.000Z</time>
      </trkpt>
      <trkpt lat="42.95032" lon="1.05205">
        <ele>462.2</ele>
        <time>2022-08-18T07:27:25.000Z</time>
      </trkpt>
      <trkpt lat="42.95035" lon="1.05192">
        <ele>462</ele>
        <time>2022-08-18T07:27:27.000Z</time>
      </trkpt>
      <trkpt lat="42.95038" lon="1.05178">
        <ele>461.3</ele>
        <time>2022-08-18T07:27:29.000Z</time>
      </trkpt>
      <trkpt lat="42.9504" lon="1.05162">
        <ele>461.3</ele>
        <time>2022-08-18T07:27:31.000Z</time>
      </trkpt>
      <trkpt lat="42.95042" lon="1.05146">
        <ele>462</ele>
        <time>2022-08-18T07:27:33.000Z</time>
      </trkpt>
      <trkpt lat="42.95044" lon="1.05132">
        <ele>461.7</ele>
        <time>2022-08-18T07:27:35.000Z</time>
      </trkpt>
      <trkpt lat="42.95047" lon="1.0512">
        <ele>461.5</ele>
        <time>2022-08-18T07:27:37.000Z</time>
      </trkpt>
      <trkpt lat="42.9505" lon="1.05108">
        <ele>461.9</ele>
        <time>2022-08-18T07:27:39.000Z</time>
      </trkpt>
      <trkpt lat="42.95054" lon="1.05092">
        <ele>461.8</ele>
        <time>2022-08-18T07:27:42.000Z</time>
      </trkpt>
      <trkpt lat="42.95059" lon="1.05076">
        <ele>462.9</ele>
        <time>2022-08-18T07:27:45.000Z</time>
      </trkpt>
      <trkpt lat="42.95062" lon="1.05062">
        <ele>463.2</ele>
        <time>2022-08-18T07:27:48.000Z</time>
      </trkpt>
      <trkpt lat="42.95065" lon="1.0505">
        <ele>463.7</ele>
        <time>2022-08-18T07:27:51.000Z</time>
      </trkpt>
      <trkpt lat="42.95068" lon="1.05038">
        <ele>464.4</ele>
        <time>2022-08-18T07:27:54.000Z</time>
      </trkpt>
      <trkpt lat="42.95072" lon="1.05027">
        <ele>465.1</ele>
        <time>2022-08-18T07:27:57.000Z</time>
      </trkpt>
      <trkpt lat="42.95077" lon="1.05014">
        <ele>465.7</ele>
        <time>2022-08-18T07:28:01.000Z</time>
      </trkpt>
      <trkpt lat="42.95084" lon="1.05001">
        <ele>466.9</ele>
        <time>2022-08-18T07:28:06.000Z</time>
      </trkpt>
      <trkpt lat="42.9509" lon="1.04992">
        <ele>467.4</ele>
        <time>2022-08-18T07:28:09.000Z</time>
      </trkpt>
      <trkpt lat="42.95096" lon="1.0498">
        <ele>467.4</ele>
        <time>2022-08-18T07:28:13.000Z</time>
      </trkpt>
      <trkpt lat="42.95097" lon="1.04967">
        <ele>467.3</ele>
        <time>2022-08-18T07:28:17.000Z</time>
      </trkpt>
      <trkpt lat="42.95096" lon="1.04954">
        <ele>466.7</ele>
        <time>2022-08-18T07:28:20.000Z</time>
      </trkpt>
      <trkpt lat="42.95095" lon="1.04937">
        <ele>465.7</ele>
        <time>2022-08-18T07:28:23.000Z</time>
      </trkpt>
      <trkpt lat="42.95093" lon="1.04925">
        <ele>465.3</ele>
        <time>2022-08-18T07:28:25.000Z</time>
      </trkpt>
      <trkpt lat="42.95091" lon="1.04911">
        <ele>464.3</ele>
        <time>2022-08-18T07:28:27.000Z</time>
      </trkpt>
      <trkpt lat="42.95091" lon="1.04896">
        <ele>464.3</ele>
        <time>2022-08-18T07:28:29.000Z</time>
      </trkpt>
      <trkpt lat="42.95092" lon="1.04879">
        <ele>464</ele>
        <time>2022-08-18T07:28:32.000Z</time>
      </trkpt>
      <trkpt lat="42.95095" lon="1.04866">
        <ele>464.8</ele>
        <time>2022-08-18T07:28:35.000Z</time>
      </trkpt>
      <trkpt lat="42.95095" lon="1.04853">
        <ele>465.3</ele>
        <time>2022-08-18T07:28:39.000Z</time>
      </trkpt>
      <trkpt lat="42.95098" lon="1.04839">
        <ele>464.9</ele>
        <time>2022-08-18T07:28:43.000Z</time>
      </trkpt>
      <trkpt lat="42.951" lon="1.04826">
        <ele>464.7</ele>
        <time>2022-08-18T07:28:46.000Z</time>
      </trkpt>
      <trkpt lat="42.95103" lon="1.04812">
        <ele>464.9</ele>
        <time>2022-08-18T07:28:50.000Z</time>
      </trkpt>
      <trkpt lat="42.95106" lon="1.04798">
        <ele>464.8</ele>
        <time>2022-08-18T07:28:54.000Z</time>
      </trkpt>
      <trkpt lat="42.95105" lon="1.04783">
        <ele>464.1</ele>
        <time>2022-08-18T07:28:59.000Z</time>
      </trkpt>
      <trkpt lat="42.95103" lon="1.0477">
        <ele>464.2</ele>
        <time>2022-08-18T07:29:03.000Z</time>
      </trkpt>
      <trkpt lat="42.95104" lon="1.04754">
        <ele>464.8</ele>
        <time>2022-08-18T07:29:07.000Z</time>
      </trkpt>
      <trkpt lat="42.95102" lon="1.04738">
        <ele>463.7</ele>
        <time>2022-08-18T07:29:11.000Z</time>
      </trkpt>
      <trkpt lat="42.95098" lon="1.04725">
        <ele>464.2</ele>
        <time>2022-08-18T07:29:14.000Z</time>
      </trkpt>
      <trkpt lat="42.95093" lon="1.04713">
        <ele>464.2</ele>
        <time>2022-08-18T07:29:18.000Z</time>
      </trkpt>
      <trkpt lat="42.95083" lon="1.04701">
        <ele>464.3</ele>
        <time>2022-08-18T07:29:22.000Z</time>
      </trkpt>
      <trkpt lat="42.95074" lon="1.04692">
        <ele>464</ele>
        <time>2022-08-18T07:29:25.000Z</time>
      </trkpt>
      <trkpt lat="42.95066" lon="1.04683">
        <ele>464.9</ele>
        <time>2022-08-18T07:29:28.000Z</time>
      </trkpt>
      <trkpt lat="42.95059" lon="1.04669">
        <ele>464.7</ele>
        <time>2022-08-18T07:29:31.000Z</time>
      </trkpt>
      <trkpt lat="42.95054" lon="1.04654">
        <ele>464.5</ele>
        <time>2022-08-18T07:29:34.000Z</time>
      </trkpt>
      <trkpt lat="42.95047" lon="1.04638">
        <ele>464.1</ele>
        <time>2022-08-18T07:29:37.000Z</time>
      </trkpt>
      <trkpt lat="42.95041" lon="1.04622">
        <ele>464.5</ele>
        <time>2022-08-18T07:29:40.000Z</time>
      </trkpt>
      <trkpt lat="42.95037" lon="1.04611">
        <ele>464.6</ele>
        <time>2022-08-18T07:29:42.000Z</time>
      </trkpt>
      <trkpt lat="42.95031" lon="1.04595">
        <ele>464.6</ele>
        <time>2022-08-18T07:29:45.000Z</time>
      </trkpt>
      <trkpt lat="42.95028" lon="1.04578">
        <ele>464.6</ele>
        <time>2022-08-18T07:29:48.000Z</time>
      </trkpt>
      <trkpt lat="42.95024" lon="1.04562">
        <ele>465.1</ele>
        <time>2022-08-18T07:29:51.000Z</time>
      </trkpt>
      <trkpt lat="42.9502" lon="1.04547">
        <ele>465.4</ele>
        <time>2022-08-18T07:29:54.000Z</time>
      </trkpt>
      <trkpt lat="42.95017" lon="1.04532">
        <ele>465.6</ele>
        <time>2022-08-18T07:29:57.000Z</time>
      </trkpt>
      <trkpt lat="42.95012" lon="1.04517">
        <ele>465.6</ele>
        <time>2022-08-18T07:30:00.000Z</time>
      </trkpt>
      <trkpt lat="42.95008" lon="1.04501">
        <ele>465.4</ele>
        <time>2022-08-18T07:30:03.000Z</time>
      </trkpt>
      <trkpt lat="42.95006" lon="1.04486">
        <ele>466</ele>
        <time>2022-08-18T07:30:06.000Z</time>
      </trkpt>
      <trkpt lat="42.95003" lon="1.04471">
        <ele>466.1</ele>
        <time>2022-08-18T07:30:10.000Z</time>
      </trkpt>
      <trkpt lat="42.94999" lon="1.04456">
        <ele>466.7</ele>
        <time>2022-08-18T07:30:14.000Z</time>
      </trkpt>
      <trkpt lat="42.94996" lon="1.04443">
        <ele>466.9</ele>
        <time>2022-08-18T07:30:18.000Z</time>
      </trkpt>
      <trkpt lat="42.94994" lon="1.0443">
        <ele>467</ele>
        <time>2022-08-18T07:30:22.000Z</time>
      </trkpt>
      <trkpt lat="42.9499" lon="1.04417">
        <ele>467.2</ele>
        <time>2022-08-18T07:30:26.000Z</time>
      </trkpt>
      <trkpt lat="42.94987" lon="1.04404">
        <ele>467.5</ele>
        <time>2022-08-18T07:30:30.000Z</time>
      </trkpt>
      <trkpt lat="42.94982" lon="1.04389">
        <ele>466.9</ele>
        <time>2022-08-18T07:30:34.000Z</time>
      </trkpt>
      <trkpt lat="42.94977" lon="1.04376">
        <ele>467.1</ele>
        <time>2022-08-18T07:30:38.000Z</time>
      </trkpt>
      <trkpt lat="42.94974" lon="1.04363">
        <ele>466.8</ele>
        <time>2022-08-18T07:30:43.000Z</time>
      </trkpt>
      <trkpt lat="42.94977" lon="1.0435">
        <ele>467.2</ele>
        <time>2022-08-18T07:30:48.000Z</time>
      </trkpt>
      <trkpt lat="42.94982" lon="1.0434">
        <ele>467.3</ele>
        <time>2022-08-18T07:30:52.000Z</time>
      </trkpt>
      <trkpt lat="42.94988" lon="1.0433">
        <ele>467.1</ele>
        <time>2022-08-18T07:30:55.000Z</time>
      </trkpt>
      <trkpt lat="42.94994" lon="1.04318">
        <ele>467.3</ele>
        <time>2022-08-18T07:30:59.000Z</time>
      </trkpt>
      <trkpt lat="42.95001" lon="1.04304">
        <ele>467.2</ele>
        <time>2022-08-18T07:31:03.000Z</time>
      </trkpt>
      <trkpt lat="42.95007" lon="1.04294">
        <ele>467.3</ele>
        <time>2022-08-18T07:31:06.000Z</time>
      </trkpt>
      <trkpt lat="42.95013" lon="1.04284">
        <ele>467.5</ele>
        <time>2022-08-18T07:31:09.000Z</time>
      </trkpt>
      <trkpt lat="42.95019" lon="1.04272">
        <ele>467.9</ele>
        <time>2022-08-18T07:31:13.000Z</time>
      </trkpt>
      <trkpt lat="42.95023" lon="1.0426">
        <ele>468.8</ele>
        <time>2022-08-18T07:31:17.000Z</time>
      </trkpt>
      <trkpt lat="42.95027" lon="1.04248">
        <ele>469.5</ele>
        <time>2022-08-18T07:31:21.000Z</time>
      </trkpt>
      <trkpt lat="42.95027" lon="1.04234">
        <ele>470.6</ele>
        <time>2022-08-18T07:31:25.000Z</time>
      </trkpt>
      <trkpt lat="42.95028" lon="1.0422">
        <ele>470.8</ele>
        <time>2022-08-18T07:31:29.000Z</time>
      </trkpt>
      <trkpt lat="42.95037" lon="1.04211">
        <ele>471.9</ele>
        <time>2022-08-18T07:31:34.000Z</time>
      </trkpt>
      <trkpt lat="42.95046" lon="1.04206">
        <ele>472.6</ele>
        <time>2022-08-18T07:31:38.000Z</time>
      </trkpt>
      <trkpt lat="42.95054" lon="1.042">
        <ele>473.3</ele>
        <time>2022-08-18T07:31:42.000Z</time>
      </trkpt>
      <trkpt lat="42.95062" lon="1.04208">
        <ele>475.7</ele>
        <time>2022-08-18T07:31:49.000Z</time>
      </trkpt>
      <trkpt lat="42.9506" lon="1.04223">
        <ele>478</ele>
        <time>2022-08-18T07:31:54.000Z</time>
      </trkpt>
      <trkpt lat="42.95071" lon="1.0423">
        <ele>480.7</ele>
        <time>2022-08-18T07:31:59.000Z</time>
      </trkpt>
      <trkpt lat="42.95077" lon="1.0424">
        <ele>483.2</ele>
        <time>2022-08-18T07:32:04.000Z</time>
      </trkpt>
      <trkpt lat="42.95087" lon="1.04243">
        <ele>485.4</ele>
        <time>2022-08-18T07:32:09.000Z</time>
      </trkpt>
      <trkpt lat="42.95096" lon="1.04249">
        <ele>486.8</ele>
        <time>2022-08-18T07:32:14.000Z</time>
      </trkpt>
      <trkpt lat="42.95105" lon="1.04255">
        <ele>487.7</ele>
        <time>2022-08-18T07:32:18.000Z</time>
      </trkpt>
      <trkpt lat="42.95113" lon="1.04263">
        <ele>488.2</ele>
        <time>2022-08-18T07:32:23.000Z</time>
      </trkpt>
      <trkpt lat="42.95121" lon="1.04269">
        <ele>489.3</ele>
        <time>2022-08-18T07:32:27.000Z</time>
      </trkpt>
      <trkpt lat="42.95131" lon="1.04274">
        <ele>490.8</ele>
        <time>2022-08-18T07:32:33.000Z</time>
      </trkpt>
      <trkpt lat="42.9514" lon="1.04281">
        <ele>492.6</ele>
        <time>2022-08-18T07:32:38.000Z</time>
      </trkpt>
      <trkpt lat="42.9515" lon="1.04288">
        <ele>493.8</ele>
        <time>2022-08-18T07:32:43.000Z</time>
      </trkpt>
      <trkpt lat="42.95157" lon="1.04299">
        <ele>496.1</ele>
        <time>2022-08-18T07:32:48.000Z</time>
      </trkpt>
      <trkpt lat="42.9516" lon="1.04312">
        <ele>497.3</ele>
        <time>2022-08-18T07:32:53.000Z</time>
      </trkpt>
      <trkpt lat="42.95166" lon="1.04324">
        <ele>498.3</ele>
        <time>2022-08-18T07:32:57.000Z</time>
      </trkpt>
      <trkpt lat="42.95171" lon="1.04337">
        <ele>499</ele>
        <time>2022-08-18T07:33:01.000Z</time>
      </trkpt>
      <trkpt lat="42.95177" lon="1.04348">
        <ele>499.7</ele>
        <time>2022-08-18T07:33:05.000Z</time>
      </trkpt>
      <trkpt lat="42.95178" lon="1.04363">
        <ele>501</ele>
        <time>2022-08-18T07:33:11.000Z</time>
      </trkpt>
      <trkpt lat="42.95177" lon="1.04381">
        <ele>500.4</ele>
        <time>2022-08-18T07:33:14.000Z</time>
      </trkpt>
      <trkpt lat="42.95177" lon="1.04393">
        <ele>500.2</ele>
        <time>2022-08-18T07:33:16.000Z</time>
      </trkpt>
      <trkpt lat="42.95176" lon="1.04409">
        <ele>500.2</ele>
        <time>2022-08-18T07:33:19.000Z</time>
      </trkpt>
      <trkpt lat="42.95176" lon="1.04423">
        <ele>500.6</ele>
        <time>2022-08-18T07:33:22.000Z</time>
      </trkpt>
      <trkpt lat="42.95178" lon="1.04436">
        <ele>501</ele>
        <time>2022-08-18T07:33:25.000Z</time>
      </trkpt>
      <trkpt lat="42.95179" lon="1.04449">
        <ele>501.8</ele>
        <time>2022-08-18T07:33:28.000Z</time>
      </trkpt>
      <trkpt lat="42.9518" lon="1.04463">
        <ele>502.2</ele>
        <time>2022-08-18T07:33:31.000Z</time>
      </trkpt>
      <trkpt lat="42.95183" lon="1.04475">
        <ele>503.6</ele>
        <time>2022-08-18T07:33:34.000Z</time>
      </trkpt>
      <trkpt lat="42.95184" lon="1.04488">
        <ele>504.2</ele>
        <time>2022-08-18T07:33:37.000Z</time>
      </trkpt>
      <trkpt lat="42.95186" lon="1.04504">
        <ele>505.5</ele>
        <time>2022-08-18T07:33:42.000Z</time>
      </trkpt>
      <trkpt lat="42.95186" lon="1.04519">
        <ele>506.9</ele>
        <time>2022-08-18T07:33:46.000Z</time>
      </trkpt>
      <trkpt lat="42.95185" lon="1.04531">
        <ele>507.7</ele>
        <time>2022-08-18T07:33:50.000Z</time>
      </trkpt>
      <trkpt lat="42.95186" lon="1.04547">
        <ele>508.7</ele>
        <time>2022-08-18T07:33:54.000Z</time>
      </trkpt>
      <trkpt lat="42.95188" lon="1.04561">
        <ele>509.9</ele>
        <time>2022-08-18T07:33:58.000Z</time>
      </trkpt>
      <trkpt lat="42.9519" lon="1.04575">
        <ele>511.4</ele>
        <time>2022-08-18T07:34:02.000Z</time>
      </trkpt>
      <trkpt lat="42.95192" lon="1.04587">
        <ele>512.4</ele>
        <time>2022-08-18T07:34:06.000Z</time>
      </trkpt>
      <trkpt lat="42.95195" lon="1.04599">
        <ele>514.7</ele>
        <time>2022-08-18T07:34:10.000Z</time>
      </trkpt>
      <trkpt lat="42.95197" lon="1.04612">
        <ele>515.8</ele>
        <time>2022-08-18T07:34:14.000Z</time>
      </trkpt>
      <trkpt lat="42.95199" lon="1.04627">
        <ele>518.3</ele>
        <time>2022-08-18T07:34:19.000Z</time>
      </trkpt>
      <trkpt lat="42.95202" lon="1.04641">
        <ele>519.8</ele>
        <time>2022-08-18T07:34:24.000Z</time>
      </trkpt>
      <trkpt lat="42.95206" lon="1.04656">
        <ele>521.1</ele>
        <time>2022-08-18T07:34:29.000Z</time>
      </trkpt>
      <trkpt lat="42.9521" lon="1.04667">
        <ele>521.6</ele>
        <time>2022-08-18T07:34:32.000Z</time>
      </trkpt>
      <trkpt lat="42.9521" lon="1.04682">
        <ele>522.3</ele>
        <time>2022-08-18T07:34:36.000Z</time>
      </trkpt>
      <trkpt lat="42.95209" lon="1.04696">
        <ele>524.3</ele>
        <time>2022-08-18T07:34:40.000Z</time>
      </trkpt>
      <trkpt lat="42.95208" lon="1.04708">
        <ele>525.4</ele>
        <time>2022-08-18T07:34:44.000Z</time>
      </trkpt>
      <trkpt lat="42.95207" lon="1.04721">
        <ele>527.1</ele>
        <time>2022-08-18T07:34:49.000Z</time>
      </trkpt>
      <trkpt lat="42.95207" lon="1.04735">
        <ele>528.6</ele>
        <time>2022-08-18T07:34:53.000Z</time>
      </trkpt>
      <trkpt lat="42.95206" lon="1.04749">
        <ele>529.3</ele>
        <time>2022-08-18T07:34:57.000Z</time>
      </trkpt>
      <trkpt lat="42.95206" lon="1.04763">
        <ele>530.2</ele>
        <time>2022-08-18T07:35:01.000Z</time>
      </trkpt>
      <trkpt lat="42.95206" lon="1.04778">
        <ele>531.1</ele>
        <time>2022-08-18T07:35:06.000Z</time>
      </trkpt>
      <trkpt lat="42.95206" lon="1.04791">
        <ele>532.2</ele>
        <time>2022-08-18T07:35:10.000Z</time>
      </trkpt>
      <trkpt lat="42.95206" lon="1.04805">
        <ele>533.2</ele>
        <time>2022-08-18T07:35:15.000Z</time>
      </trkpt>
      <trkpt lat="42.95207" lon="1.04818">
        <ele>533.5</ele>
        <time>2022-08-18T07:35:19.000Z</time>
      </trkpt>
      <trkpt lat="42.95208" lon="1.04832">
        <ele>534.5</ele>
        <time>2022-08-18T07:35:24.000Z</time>
      </trkpt>
      <trkpt lat="42.95208" lon="1.04845">
        <ele>535.5</ele>
        <time>2022-08-18T07:35:28.000Z</time>
      </trkpt>
      <trkpt lat="42.95207" lon="1.04858">
        <ele>536.9</ele>
        <time>2022-08-18T07:35:33.000Z</time>
      </trkpt>
      <trkpt lat="42.95207" lon="1.0487">
        <ele>537.6</ele>
        <time>2022-08-18T07:35:37.000Z</time>
      </trkpt>
      <trkpt lat="42.95207" lon="1.04883">
        <ele>538.8</ele>
        <time>2022-08-18T07:35:41.000Z</time>
      </trkpt>
      <trkpt lat="42.95206" lon="1.049">
        <ele>537.6</ele>
        <time>2022-08-18T07:35:47.000Z</time>
      </trkpt>
      <trkpt lat="42.95203" lon="1.04915">
        <ele>538.7</ele>
        <time>2022-08-18T07:35:50.000Z</time>
      </trkpt>
      <trkpt lat="42.95199" lon="1.04932">
        <ele>539.1</ele>
        <time>2022-08-18T07:35:53.000Z</time>
      </trkpt>
      <trkpt lat="42.95198" lon="1.0495">
        <ele>540</ele>
        <time>2022-08-18T07:35:56.000Z</time>
      </trkpt>
      <trkpt lat="42.95199" lon="1.04967">
        <ele>542.4</ele>
        <time>2022-08-18T07:36:00.000Z</time>
      </trkpt>
      <trkpt lat="42.95198" lon="1.0498">
        <ele>544.5</ele>
        <time>2022-08-18T07:36:04.000Z</time>
      </trkpt>
      <trkpt lat="42.95195" lon="1.04993">
        <ele>545.7</ele>
        <time>2022-08-18T07:36:08.000Z</time>
      </trkpt>
      <trkpt lat="42.95195" lon="1.05005">
        <ele>546.8</ele>
        <time>2022-08-18T07:36:11.000Z</time>
      </trkpt>
      <trkpt lat="42.95196" lon="1.05021">
        <ele>548.6</ele>
        <time>2022-08-18T07:36:15.000Z</time>
      </trkpt>
      <trkpt lat="42.95197" lon="1.05033">
        <ele>550.2</ele>
        <time>2022-08-18T07:36:19.000Z</time>
      </trkpt>
      <trkpt lat="42.95196" lon="1.05046">
        <ele>552.1</ele>
        <time>2022-08-18T07:36:24.000Z</time>
      </trkpt>
      <trkpt lat="42.95195" lon="1.0506">
        <ele>553.5</ele>
        <time>2022-08-18T07:36:29.000Z</time>
      </trkpt>
      <trkpt lat="42.95194" lon="1.05074">
        <ele>554.9</ele>
        <time>2022-08-18T07:36:34.000Z</time>
      </trkpt>
      <trkpt lat="42.95203" lon="1.05078">
        <ele>556.1</ele>
        <time>2022-08-18T07:36:41.000Z</time>
      </trkpt>
      <trkpt lat="42.95206" lon="1.05077">
        <ele>556.8</ele>
        <time>2022-08-18T07:36:45.000Z</time>
      </trkpt>
      <trkpt lat="42.95206" lon="1.05077">
        <ele>556.5</ele>
        <time>2022-08-18T07:36:47.000Z</time>
      </trkpt>
      <trkpt lat="42.95207" lon="1.05077">
        <ele>556.6</ele>
        <time>2022-08-18T07:36:49.000Z</time>
      </trkpt>
      <trkpt lat="42.95207" lon="1.05077">
        <ele>556.6</ele>
        <time>2022-08-18T07:36:54.000Z</time>
      </trkpt>
      <trkpt lat="42.95208" lon="1.05077">
        <ele>556.7</ele>
        <time>2022-08-18T07:36:56.000Z</time>
      </trkpt>
      <trkpt lat="42.95208" lon="1.05076">
        <ele>556.7</ele>
        <time>2022-08-18T07:37:48.000Z</time>
      </trkpt>
      <trkpt lat="42.95215" lon="1.05066">
        <ele>560</ele>
        <time>2022-08-18T07:37:56.000Z</time>
      </trkpt>
      <trkpt lat="42.95222" lon="1.05056">
        <ele>562.7</ele>
        <time>2022-08-18T07:38:01.000Z</time>
      </trkpt>
      <trkpt lat="42.95225" lon="1.05048">
        <ele>564</ele>
        <time>2022-08-18T07:38:07.000Z</time>
      </trkpt>
      <trkpt lat="42.95225" lon="1.05048">
        <ele>564.4</ele>
        <time>2022-08-18T07:38:09.000Z</time>
      </trkpt>
      <trkpt lat="42.95226" lon="1.0504">
        <ele>565.1</ele>
        <time>2022-08-18T07:38:16.000Z</time>
      </trkpt>
      <trkpt lat="42.95225" lon="1.05039">
        <ele>565.4</ele>
        <time>2022-08-18T07:38:22.000Z</time>
      </trkpt>
      <trkpt lat="42.95228" lon="1.05027">
        <ele>566.3</ele>
        <time>2022-08-18T07:38:27.000Z</time>
      </trkpt>
      <trkpt lat="42.95234" lon="1.05014">
        <ele>568.4</ele>
        <time>2022-08-18T07:38:32.000Z</time>
      </trkpt>
      <trkpt lat="42.9524" lon="1.05002">
        <ele>570.6</ele>
        <time>2022-08-18T07:38:37.000Z</time>
      </trkpt>
      <trkpt lat="42.95244" lon="1.0499">
        <ele>571.6</ele>
        <time>2022-08-18T07:38:41.000Z</time>
      </trkpt>
      <trkpt lat="42.95251" lon="1.04981">
        <ele>573.8</ele>
        <time>2022-08-18T07:38:45.000Z</time>
      </trkpt>
      <trkpt lat="42.9526" lon="1.04974">
        <ele>577.2</ele>
        <time>2022-08-18T07:38:49.000Z</time>
      </trkpt>
      <trkpt lat="42.95265" lon="1.04962">
        <ele>579.1</ele>
        <time>2022-08-18T07:38:54.000Z</time>
      </trkpt>
      <trkpt lat="42.95269" lon="1.04947">
        <ele>579.8</ele>
        <time>2022-08-18T07:38:59.000Z</time>
      </trkpt>
      <trkpt lat="42.95271" lon="1.04932">
        <ele>579.9</ele>
        <time>2022-08-18T07:39:03.000Z</time>
      </trkpt>
      <trkpt lat="42.95272" lon="1.04917">
        <ele>580.4</ele>
        <time>2022-08-18T07:39:08.000Z</time>
      </trkpt>
      <trkpt lat="42.95274" lon="1.04905">
        <ele>580.2</ele>
        <time>2022-08-18T07:39:13.000Z</time>
      </trkpt>
      <trkpt lat="42.95274" lon="1.04897">
        <ele>579.7</ele>
        <time>2022-08-18T07:39:20.000Z</time>
      </trkpt>
      <trkpt lat="42.95274" lon="1.04897">
        <ele>579.4</ele>
        <time>2022-08-18T07:39:23.000Z</time>
      </trkpt>
      <trkpt lat="42.95275" lon="1.04897">
        <ele>579.8</ele>
        <time>2022-08-18T07:39:40.000Z</time>
      </trkpt>
      <trkpt lat="42.95275" lon="1.04896">
        <ele>579.4</ele>
        <time>2022-08-18T07:39:45.000Z</time>
      </trkpt>
      <trkpt lat="42.95275" lon="1.04896">
        <ele>579.4</ele>
        <time>2022-08-18T07:41:22.000Z</time>
      </trkpt>
      <trkpt lat="42.95275" lon="1.04896">
        <ele>579.2</ele>
        <time>2022-08-18T07:42:21.000Z</time>
      </trkpt>
      <trkpt lat="42.95274" lon="1.04896">
        <ele>579.1</ele>
        <time>2022-08-18T07:42:48.000Z</time>
      </trkpt>
      <trkpt lat="42.95274" lon="1.04896">
        <ele>579.4</ele>
        <time>2022-08-18T07:43:33.000Z</time>
      </trkpt>
      <trkpt lat="42.95274" lon="1.04896">
        <ele>579.7</ele>
        <time>2022-08-18T07:44:18.000Z</time>
      </trkpt>
      <trkpt lat="42.95274" lon="1.04896">
        <ele>579.3</ele>
        <time>2022-08-18T07:44:47.000Z</time>
      </trkpt>
      <trkpt lat="42.95274" lon="1.04896">
        <ele>578.8</ele>
        <time>2022-08-18T07:46:02.000Z</time>
      </trkpt>
      <trkpt lat="42.95274" lon="1.04896">
        <ele>579.2</ele>
        <time>2022-08-18T07:46:06.000Z</time>
      </trkpt>
      <trkpt lat="42.95274" lon="1.04895">
        <ele>579.1</ele>
        <time>2022-08-18T07:46:12.000Z</time>
      </trkpt>
      <trkpt lat="42.95274" lon="1.04895">
        <ele>579</ele>
        <time>2022-08-18T07:46:15.000Z</time>
      </trkpt>
      <trkpt lat="42.95274" lon="1.04894">
        <ele>578.9</ele>
        <time>2022-08-18T07:46:17.000Z</time>
      </trkpt>
      <trkpt lat="42.95274" lon="1.04892">
        <ele>578.5</ele>
        <time>2022-08-18T07:46:24.000Z</time>
      </trkpt>
      <trkpt lat="42.95274" lon="1.04892">
        <ele>578.3</ele>
        <time>2022-08-18T07:46:28.000Z</time>
      </trkpt>
      <trkpt lat="42.95272" lon="1.04887">
        <ele>577.8</ele>
        <time>2022-08-18T07:46:36.000Z</time>
      </trkpt>
      <trkpt lat="42.95272" lon="1.04887">
        <ele>577.9</ele>
        <time>2022-08-18T07:46:37.000Z</time>
      </trkpt>
      <trkpt lat="42.95272" lon="1.04885">
        <ele>577.7</ele>
        <time>2022-08-18T07:46:40.000Z</time>
      </trkpt>
      <trkpt lat="42.95272" lon="1.04885">
        <ele>577.9</ele>
        <time>2022-08-18T07:46:42.000Z</time>
      </trkpt>
      <trkpt lat="42.9527" lon="1.04871">
        <ele>577</ele>
        <time>2022-08-18T07:46:48.000Z</time>
      </trkpt>
      <trkpt lat="42.95273" lon="1.04859">
        <ele>576.3</ele>
        <time>2022-08-18T07:46:52.000Z</time>
      </trkpt>
      <trkpt lat="42.95274" lon="1.04845">
        <ele>576.4</ele>
        <time>2022-08-18T07:46:56.000Z</time>
      </trkpt>
      <trkpt lat="42.95277" lon="1.04832">
        <ele>576.4</ele>
        <time>2022-08-18T07:46:59.000Z</time>
      </trkpt>
      <trkpt lat="42.9528" lon="1.0482">
        <ele>576.8</ele>
        <time>2022-08-18T07:47:03.000Z</time>
      </trkpt>
      <trkpt lat="42.95288" lon="1.04813">
        <ele>579.5</ele>
        <time>2022-08-18T07:47:14.000Z</time>
      </trkpt>
      <trkpt lat="42.95294" lon="1.04808">
        <ele>580.3</ele>
        <time>2022-08-18T07:47:26.000Z</time>
      </trkpt>
      <trkpt lat="42.95294" lon="1.04808">
        <ele>580.3</ele>
        <time>2022-08-18T07:47:47.000Z</time>
      </trkpt>
      <trkpt lat="42.95294" lon="1.04809">
        <ele>580.6</ele>
        <time>2022-08-18T07:47:57.000Z</time>
      </trkpt>
      <trkpt lat="42.95302" lon="1.04801">
        <ele>582.1</ele>
        <time>2022-08-18T07:48:05.000Z</time>
      </trkpt>
      <trkpt lat="42.9531" lon="1.04791">
        <ele>583.1</ele>
        <time>2022-08-18T07:48:11.000Z</time>
      </trkpt>
      <trkpt lat="42.95318" lon="1.04781">
        <ele>583.7</ele>
        <time>2022-08-18T07:48:17.000Z</time>
      </trkpt>
      <trkpt lat="42.95325" lon="1.04771">
        <ele>585.7</ele>
        <time>2022-08-18T07:48:22.000Z</time>
      </trkpt>
      <trkpt lat="42.95326" lon="1.04769">
        <ele>585.1</ele>
        <time>2022-08-18T07:48:25.000Z</time>
      </trkpt>
      <trkpt lat="42.95326" lon="1.04768">
        <ele>585.6</ele>
        <time>2022-08-18T07:48:54.000Z</time>
      </trkpt>
      <trkpt lat="42.95324" lon="1.04756">
        <ele>583.8</ele>
        <time>2022-08-18T07:49:00.000Z</time>
      </trkpt>
      <trkpt lat="42.95324" lon="1.04743">
        <ele>581.8</ele>
        <time>2022-08-18T07:49:04.000Z</time>
      </trkpt>
      <trkpt lat="42.95323" lon="1.04725">
        <ele>581.6</ele>
        <time>2022-08-18T07:49:07.000Z</time>
      </trkpt>
      <trkpt lat="42.95323" lon="1.0471">
        <ele>580.6</ele>
        <time>2022-08-18T07:49:09.000Z</time>
      </trkpt>
      <trkpt lat="42.95322" lon="1.04696">
        <ele>580.9</ele>
        <time>2022-08-18T07:49:11.000Z</time>
      </trkpt>
      <trkpt lat="42.95321" lon="1.04683">
        <ele>581.6</ele>
        <time>2022-08-18T07:49:14.000Z</time>
      </trkpt>
      <trkpt lat="42.95322" lon="1.04667">
        <ele>581.2</ele>
        <time>2022-08-18T07:49:19.000Z</time>
      </trkpt>
      <trkpt lat="42.9532" lon="1.0465">
        <ele>581</ele>
        <time>2022-08-18T07:49:22.000Z</time>
      </trkpt>
      <trkpt lat="42.95317" lon="1.04638">
        <ele>580.1</ele>
        <time>2022-08-18T07:49:24.000Z</time>
      </trkpt>
      <trkpt lat="42.95314" lon="1.04623">
        <ele>579.2</ele>
        <time>2022-08-18T07:49:26.000Z</time>
      </trkpt>
      <trkpt lat="42.95312" lon="1.04606">
        <ele>578.6</ele>
        <time>2022-08-18T07:49:28.000Z</time>
      </trkpt>
      <trkpt lat="42.95312" lon="1.0459">
        <ele>577.9</ele>
        <time>2022-08-18T07:49:30.000Z</time>
      </trkpt>
      <trkpt lat="42.95314" lon="1.04575">
        <ele>578.1</ele>
        <time>2022-08-18T07:49:32.000Z</time>
      </trkpt>
      <trkpt lat="42.95318" lon="1.04562">
        <ele>577.8</ele>
        <time>2022-08-18T07:49:34.000Z</time>
      </trkpt>
      <trkpt lat="42.95322" lon="1.04549">
        <ele>577.8</ele>
        <time>2022-08-18T07:49:36.000Z</time>
      </trkpt>
      <trkpt lat="42.95325" lon="1.04536">
        <ele>578</ele>
        <time>2022-08-18T07:49:38.000Z</time>
      </trkpt>
      <trkpt lat="42.9533" lon="1.04521">
        <ele>577.7</ele>
        <time>2022-08-18T07:49:41.000Z</time>
      </trkpt>
      <trkpt lat="42.95339" lon="1.0451">
        <ele>578.3</ele>
        <time>2022-08-18T07:49:45.000Z</time>
      </trkpt>
      <trkpt lat="42.95346" lon="1.04503">
        <ele>579.2</ele>
        <time>2022-08-18T07:49:49.000Z</time>
      </trkpt>
      <trkpt lat="42.95355" lon="1.04496">
        <ele>580.4</ele>
        <time>2022-08-18T07:49:54.000Z</time>
      </trkpt>
      <trkpt lat="42.95358" lon="1.04508">
        <ele>581.7</ele>
        <time>2022-08-18T07:49:59.000Z</time>
      </trkpt>
      <trkpt lat="42.95359" lon="1.04523">
        <ele>583.8</ele>
        <time>2022-08-18T07:50:05.000Z</time>
      </trkpt>
      <trkpt lat="42.95362" lon="1.04535">
        <ele>585.3</ele>
        <time>2022-08-18T07:50:10.000Z</time>
      </trkpt>
      <trkpt lat="42.95368" lon="1.04543">
        <ele>587.3</ele>
        <time>2022-08-18T07:50:16.000Z</time>
      </trkpt>
      <trkpt lat="42.95368" lon="1.04543">
        <ele>587.6</ele>
        <time>2022-08-18T07:50:29.000Z</time>
      </trkpt>
      <trkpt lat="42.95368" lon="1.04543">
        <ele>587.6</ele>
        <time>2022-08-18T07:50:31.000Z</time>
      </trkpt>
      <trkpt lat="42.95368" lon="1.04543">
        <ele>587.5</ele>
        <time>2022-08-18T07:50:32.000Z</time>
      </trkpt>
      <trkpt lat="42.95369" lon="1.04544">
        <ele>587</ele>
        <time>2022-08-18T07:50:35.000Z</time>
      </trkpt>
      <trkpt lat="42.95369" lon="1.04544">
        <ele>587.5</ele>
        <time>2022-08-18T07:50:56.000Z</time>
      </trkpt>
      <trkpt lat="42.95371" lon="1.04547">
        <ele>588.1</ele>
        <time>2022-08-18T07:51:04.000Z</time>
      </trkpt>
      <trkpt lat="42.95372" lon="1.04547">
        <ele>588</ele>
        <time>2022-08-18T07:51:15.000Z</time>
      </trkpt>
      <trkpt lat="42.95372" lon="1.04547">
        <ele>588</ele>
        <time>2022-08-18T07:51:26.000Z</time>
      </trkpt>
      <trkpt lat="42.95372" lon="1.04548">
        <ele>587.8</ele>
        <time>2022-08-18T07:51:55.000Z</time>
      </trkpt>
      <trkpt lat="42.95377" lon="1.0456">
        <ele>589.4</ele>
        <time>2022-08-18T07:52:01.000Z</time>
      </trkpt>
      <trkpt lat="42.95382" lon="1.04571">
        <ele>590.9</ele>
        <time>2022-08-18T07:52:06.000Z</time>
      </trkpt>
      <trkpt lat="42.95385" lon="1.04584">
        <ele>593.2</ele>
        <time>2022-08-18T07:52:11.000Z</time>
      </trkpt>
      <trkpt lat="42.95393" lon="1.0459">
        <ele>594.6</ele>
        <time>2022-08-18T07:52:16.000Z</time>
      </trkpt>
      <trkpt lat="42.95401" lon="1.04596">
        <ele>596.2</ele>
        <time>2022-08-18T07:52:22.000Z</time>
      </trkpt>
      <trkpt lat="42.95405" lon="1.04609">
        <ele>597.9</ele>
        <time>2022-08-18T07:52:28.000Z</time>
      </trkpt>
      <trkpt lat="42.9541" lon="1.04622">
        <ele>599.5</ele>
        <time>2022-08-18T07:52:33.000Z</time>
      </trkpt>
      <trkpt lat="42.95415" lon="1.04634">
        <ele>601.5</ele>
        <time>2022-08-18T07:52:39.000Z</time>
      </trkpt>
      <trkpt lat="42.95416" lon="1.04639">
        <ele>602.9</ele>
        <time>2022-08-18T07:52:46.000Z</time>
      </trkpt>
      <trkpt lat="42.95416" lon="1.0464">
        <ele>603</ele>
        <time>2022-08-18T07:52:52.000Z</time>
      </trkpt>
      <trkpt lat="42.95417" lon="1.0464">
        <ele>603</ele>
        <time>2022-08-18T07:52:55.000Z</time>
      </trkpt>
      <trkpt lat="42.95418" lon="1.0464">
        <ele>602.9</ele>
        <time>2022-08-18T07:52:57.000Z</time>
      </trkpt>
      <trkpt lat="42.95418" lon="1.04641">
        <ele>602.7</ele>
        <time>2022-08-18T07:53:01.000Z</time>
      </trkpt>
      <trkpt lat="42.95418" lon="1.04641">
        <ele>602.9</ele>
        <time>2022-08-18T07:53:02.000Z</time>
      </trkpt>
      <trkpt lat="42.95418" lon="1.04641">
        <ele>603</ele>
        <time>2022-08-18T07:53:04.000Z</time>
      </trkpt>
      <trkpt lat="42.95418" lon="1.04642">
        <ele>602.9</ele>
        <time>2022-08-18T07:53:06.000Z</time>
      </trkpt>
      <trkpt lat="42.95419" lon="1.04642">
        <ele>602.9</ele>
        <time>2022-08-18T07:53:29.000Z</time>
      </trkpt>
      <trkpt lat="42.95421" lon="1.04646">
        <ele>603.8</ele>
        <time>2022-08-18T07:53:40.000Z</time>
      </trkpt>
      <trkpt lat="42.95421" lon="1.04646">
        <ele>603.6</ele>
        <time>2022-08-18T07:53:43.000Z</time>
      </trkpt>
      <trkpt lat="42.95421" lon="1.04646">
        <ele>603.6</ele>
        <time>2022-08-18T07:54:23.000Z</time>
      </trkpt>
      <trkpt lat="42.95421" lon="1.04646">
        <ele>603.5</ele>
        <time>2022-08-18T07:54:47.000Z</time>
      </trkpt>
      <trkpt lat="42.95421" lon="1.04646">
        <ele>603.9</ele>
        <time>2022-08-18T07:54:50.000Z</time>
      </trkpt>
      <trkpt lat="42.95421" lon="1.04646">
        <ele>603.7</ele>
        <time>2022-08-18T07:54:52.000Z</time>
      </trkpt>
      <trkpt lat="42.9542" lon="1.04646">
        <ele>603.7</ele>
        <time>2022-08-18T07:54:58.000Z</time>
      </trkpt>
      <trkpt lat="42.9542" lon="1.04646">
        <ele>603.8</ele>
        <time>2022-08-18T07:55:00.000Z</time>
      </trkpt>
      <trkpt lat="42.9542" lon="1.04646">
        <ele>603.5</ele>
        <time>2022-08-18T07:55:18.000Z</time>
      </trkpt>
      <trkpt lat="42.9542" lon="1.04646">
        <ele>603.9</ele>
        <time>2022-08-18T07:55:36.000Z</time>
      </trkpt>
      <trkpt lat="42.95424" lon="1.04656">
        <ele>605.9</ele>
        <time>2022-08-18T07:55:43.000Z</time>
      </trkpt>
      <trkpt lat="42.95424" lon="1.04656">
        <ele>606.5</ele>
        <time>2022-08-18T07:55:47.000Z</time>
      </trkpt>
      <trkpt lat="42.9543" lon="1.04667">
        <ele>608.3</ele>
        <time>2022-08-18T07:55:52.000Z</time>
      </trkpt>
      <trkpt lat="42.95435" lon="1.04679">
        <ele>609.5</ele>
        <time>2022-08-18T07:55:56.000Z</time>
      </trkpt>
      <trkpt lat="42.95439" lon="1.0469">
        <ele>610.2</ele>
        <time>2022-08-18T07:56:04.000Z</time>
      </trkpt>
      <trkpt lat="42.95439" lon="1.0469">
        <ele>607.9</ele>
        <time>2022-08-18T07:56:08.000Z</time>
      </trkpt>
      <trkpt lat="42.9544" lon="1.04691">
        <ele>620</ele>
        <time>2022-08-18T07:56:10.000Z</time>
      </trkpt>
      <trkpt lat="42.9544" lon="1.04692">
        <ele>613.7</ele>
        <time>2022-08-18T07:56:12.000Z</time>
      </trkpt>
      <trkpt lat="42.95439" lon="1.04694">
        <ele>612.5</ele>
        <time>2022-08-18T07:56:20.000Z</time>
      </trkpt>
      <trkpt lat="42.95439" lon="1.04694">
        <ele>612.5</ele>
        <time>2022-08-18T07:56:22.000Z</time>
      </trkpt>
      <trkpt lat="42.95439" lon="1.04696">
        <ele>612.5</ele>
        <time>2022-08-18T07:56:27.000Z</time>
      </trkpt>
      <trkpt lat="42.95439" lon="1.04697">
        <ele>612.3</ele>
        <time>2022-08-18T07:56:29.000Z</time>
      </trkpt>
      <trkpt lat="42.95439" lon="1.04697">
        <ele>612.6</ele>
        <time>2022-08-18T07:56:38.000Z</time>
      </trkpt>
      <trkpt lat="42.95437" lon="1.04709">
        <ele>614.7</ele>
        <time>2022-08-18T07:56:45.000Z</time>
      </trkpt>
      <trkpt lat="42.95437" lon="1.04711">
        <ele>615</ele>
        <time>2022-08-18T07:56:50.000Z</time>
      </trkpt>
      <trkpt lat="42.95437" lon="1.04712">
        <ele>614.8</ele>
        <time>2022-08-18T07:56:56.000Z</time>
      </trkpt>
      <trkpt lat="42.95436" lon="1.04722">
        <ele>616.3</ele>
        <time>2022-08-18T07:57:06.000Z</time>
      </trkpt>
      <trkpt lat="42.95436" lon="1.04723">
        <ele>616.8</ele>
        <time>2022-08-18T07:57:16.000Z</time>
      </trkpt>
      <trkpt lat="42.95436" lon="1.04722">
        <ele>616.6</ele>
        <time>2022-08-18T07:57:27.000Z</time>
      </trkpt>
      <trkpt lat="42.95436" lon="1.04722">
        <ele>616.8</ele>
        <time>2022-08-18T07:57:30.000Z</time>
      </trkpt>
      <trkpt lat="42.95443" lon="1.04731">
        <ele>620</ele>
        <time>2022-08-18T07:57:48.000Z</time>
      </trkpt>
      <trkpt lat="42.95448" lon="1.04742">
        <ele>623</ele>
        <time>2022-08-18T07:58:07.000Z</time>
      </trkpt>
      <trkpt lat="42.95448" lon="1.04752">
        <ele>624.6</ele>
        <time>2022-08-18T07:58:18.000Z</time>
      </trkpt>
      <trkpt lat="42.95448" lon="1.04752">
        <ele>624.5</ele>
        <time>2022-08-18T07:58:19.000Z</time>
      </trkpt>
      <trkpt lat="42.95449" lon="1.04752">
        <ele>624.9</ele>
        <time>2022-08-18T07:58:42.000Z</time>
      </trkpt>
      <trkpt lat="42.95452" lon="1.04765">
        <ele>626.7</ele>
        <time>2022-08-18T07:58:47.000Z</time>
      </trkpt>
      <trkpt lat="42.95453" lon="1.0478">
        <ele>627.3</ele>
        <time>2022-08-18T07:58:54.000Z</time>
      </trkpt>
      <trkpt lat="42.95453" lon="1.04794">
        <ele>627.4</ele>
        <time>2022-08-18T07:58:59.000Z</time>
      </trkpt>
      <trkpt lat="42.95457" lon="1.04805">
        <ele>627.9</ele>
        <time>2022-08-18T07:59:03.000Z</time>
      </trkpt>
      <trkpt lat="42.95459" lon="1.04818">
        <ele>628.2</ele>
        <time>2022-08-18T07:59:08.000Z</time>
      </trkpt>
      <trkpt lat="42.95464" lon="1.0483">
        <ele>629.7</ele>
        <time>2022-08-18T07:59:13.000Z</time>
      </trkpt>
      <trkpt lat="42.95469" lon="1.04841">
        <ele>631.2</ele>
        <time>2022-08-18T07:59:18.000Z</time>
      </trkpt>
      <trkpt lat="42.95474" lon="1.04853">
        <ele>634.1</ele>
        <time>2022-08-18T07:59:24.000Z</time>
      </trkpt>
      <trkpt lat="42.95478" lon="1.04867">
        <ele>635.9</ele>
        <time>2022-08-18T07:59:29.000Z</time>
      </trkpt>
      <trkpt lat="42.95484" lon="1.04878">
        <ele>639.1</ele>
        <time>2022-08-18T07:59:34.000Z</time>
      </trkpt>
      <trkpt lat="42.95491" lon="1.04889">
        <ele>641.4</ele>
        <time>2022-08-18T07:59:39.000Z</time>
      </trkpt>
      <trkpt lat="42.95498" lon="1.049">
        <ele>644.4</ele>
        <time>2022-08-18T07:59:44.000Z</time>
      </trkpt>
      <trkpt lat="42.95501" lon="1.04915">
        <ele>646.6</ele>
        <time>2022-08-18T07:59:50.000Z</time>
      </trkpt>
      <trkpt lat="42.95504" lon="1.04927">
        <ele>649</ele>
        <time>2022-08-18T07:59:55.000Z</time>
      </trkpt>
      <trkpt lat="42.95512" lon="1.04937">
        <ele>651</ele>
        <time>2022-08-18T08:00:00.000Z</time>
      </trkpt>
      <trkpt lat="42.95518" lon="1.0495">
        <ele>653.3</ele>
        <time>2022-08-18T08:00:05.000Z</time>
      </trkpt>
      <trkpt lat="42.9552" lon="1.04962">
        <ele>656.2</ele>
        <time>2022-08-18T08:00:09.000Z</time>
      </trkpt>
      <trkpt lat="42.95522" lon="1.04976">
        <ele>659</ele>
        <time>2022-08-18T08:00:15.000Z</time>
      </trkpt>
      <trkpt lat="42.95522" lon="1.04982">
        <ele>659.8</ele>
        <time>2022-08-18T08:00:19.000Z</time>
      </trkpt>
      <trkpt lat="42.95522" lon="1.04982">
        <ele>660</ele>
        <time>2022-08-18T08:00:25.000Z</time>
      </trkpt>
      <trkpt lat="42.95522" lon="1.04982">
        <ele>660</ele>
        <time>2022-08-18T08:01:11.000Z</time>
      </trkpt>
      <trkpt lat="42.95522" lon="1.04982">
        <ele>660</ele>
        <time>2022-08-18T08:01:13.000Z</time>
      </trkpt>
      <trkpt lat="42.95522" lon="1.04982">
        <ele>660.2</ele>
        <time>2022-08-18T08:01:28.000Z</time>
      </trkpt>
      <trkpt lat="42.95522" lon="1.04982">
        <ele>660.2</ele>
        <time>2022-08-18T08:01:29.000Z</time>
      </trkpt>
      <trkpt lat="42.95522" lon="1.04982">
        <ele>660.1</ele>
        <time>2022-08-18T08:01:37.000Z</time>
      </trkpt>
      <trkpt lat="42.95524" lon="1.04996">
        <ele>662</ele>
        <time>2022-08-18T08:01:44.000Z</time>
      </trkpt>
      <trkpt lat="42.95525" lon="1.05009">
        <ele>662.8</ele>
        <time>2022-08-18T08:01:49.000Z</time>
      </trkpt>
      <trkpt lat="42.95526" lon="1.05022">
        <ele>664.8</ele>
        <time>2022-08-18T08:01:54.000Z</time>
      </trkpt>
      <trkpt lat="42.95528" lon="1.05036">
        <ele>666.2</ele>
        <time>2022-08-18T08:01:59.000Z</time>
      </trkpt>
      <trkpt lat="42.95529" lon="1.05049">
        <ele>668.4</ele>
        <time>2022-08-18T08:02:04.000Z</time>
      </trkpt>
      <trkpt lat="42.9553" lon="1.05062">
        <ele>670</ele>
        <time>2022-08-18T08:02:09.000Z</time>
      </trkpt>
      <trkpt lat="42.95532" lon="1.05075">
        <ele>671.6</ele>
        <time>2022-08-18T08:02:14.000Z</time>
      </trkpt>
      <trkpt lat="42.95533" lon="1.05088">
        <ele>673</ele>
        <time>2022-08-18T08:02:19.000Z</time>
      </trkpt>
      <trkpt lat="42.95534" lon="1.05101">
        <ele>675.2</ele>
        <time>2022-08-18T08:02:24.000Z</time>
      </trkpt>
      <trkpt lat="42.95535" lon="1.05114">
        <ele>677.6</ele>
        <time>2022-08-18T08:02:31.000Z</time>
      </trkpt>
      <trkpt lat="42.95539" lon="1.05127">
        <ele>679.5</ele>
        <time>2022-08-18T08:02:37.000Z</time>
      </trkpt>
      <trkpt lat="42.95541" lon="1.05141">
        <ele>680.7</ele>
        <time>2022-08-18T08:02:43.000Z</time>
      </trkpt>
      <trkpt lat="42.95545" lon="1.05153">
        <ele>682.2</ele>
        <time>2022-08-18T08:02:48.000Z</time>
      </trkpt>
      <trkpt lat="42.95548" lon="1.05165">
        <ele>684.4</ele>
        <time>2022-08-18T08:02:53.000Z</time>
      </trkpt>
      <trkpt lat="42.95548" lon="1.0518">
        <ele>685.2</ele>
        <time>2022-08-18T08:02:59.000Z</time>
      </trkpt>
      <trkpt lat="42.95548" lon="1.05193">
        <ele>686.3</ele>
        <time>2022-08-18T08:03:05.000Z</time>
      </trkpt>
      <trkpt lat="42.9555" lon="1.05205">
        <ele>687.7</ele>
        <time>2022-08-18T08:03:10.000Z</time>
      </trkpt>
      <trkpt lat="42.95553" lon="1.05217">
        <ele>689.5</ele>
        <time>2022-08-18T08:03:15.000Z</time>
      </trkpt>
      <trkpt lat="42.95556" lon="1.05229">
        <ele>690.4</ele>
        <time>2022-08-18T08:03:20.000Z</time>
      </trkpt>
      <trkpt lat="42.95561" lon="1.0524">
        <ele>692.3</ele>
        <time>2022-08-18T08:03:25.000Z</time>
      </trkpt>
      <trkpt lat="42.95566" lon="1.05252">
        <ele>694.8</ele>
        <time>2022-08-18T08:03:30.000Z</time>
      </trkpt>
      <trkpt lat="42.95571" lon="1.05257">
        <ele>697.5</ele>
        <time>2022-08-18T08:03:50.000Z</time>
      </trkpt>
      <trkpt lat="42.95571" lon="1.05257">
        <ele>697.9</ele>
        <time>2022-08-18T08:03:56.000Z</time>
      </trkpt>
      <trkpt lat="42.95572" lon="1.05257">
        <ele>698.1</ele>
        <time>2022-08-18T08:03:58.000Z</time>
      </trkpt>
      <trkpt lat="42.95572" lon="1.05258">
        <ele>697.8</ele>
        <time>2022-08-18T08:04:04.000Z</time>
      </trkpt>
      <trkpt lat="42.95572" lon="1.05258">
        <ele>697.8</ele>
        <time>2022-08-18T08:04:06.000Z</time>
      </trkpt>
      <trkpt lat="42.95572" lon="1.05258">
        <ele>698.1</ele>
        <time>2022-08-18T08:04:09.000Z</time>
      </trkpt>
      <trkpt lat="42.95573" lon="1.05258">
        <ele>697.7</ele>
        <time>2022-08-18T08:04:12.000Z</time>
      </trkpt>
      <trkpt lat="42.95573" lon="1.05258">
        <ele>698.3</ele>
        <time>2022-08-18T08:04:26.000Z</time>
      </trkpt>
      <trkpt lat="42.95581" lon="1.05266">
        <ele>700.9</ele>
        <time>2022-08-18T08:04:32.000Z</time>
      </trkpt>
      <trkpt lat="42.95586" lon="1.05273">
        <ele>703.2</ele>
        <time>2022-08-18T08:04:42.000Z</time>
      </trkpt>
      <trkpt lat="42.95587" lon="1.05274">
        <ele>703.2</ele>
        <time>2022-08-18T08:04:46.000Z</time>
      </trkpt>
      <trkpt lat="42.95592" lon="1.05287">
        <ele>704.9</ele>
        <time>2022-08-18T08:04:52.000Z</time>
      </trkpt>
      <trkpt lat="42.95595" lon="1.053">
        <ele>706.9</ele>
        <time>2022-08-18T08:04:58.000Z</time>
      </trkpt>
      <trkpt lat="42.95595" lon="1.053">
        <ele>707.3</ele>
        <time>2022-08-18T08:05:00.000Z</time>
      </trkpt>
      <trkpt lat="42.95595" lon="1.05301">
        <ele>707.5</ele>
        <time>2022-08-18T08:05:18.000Z</time>
      </trkpt>
      <trkpt lat="42.95595" lon="1.05301">
        <ele>707.6</ele>
        <time>2022-08-18T08:05:24.000Z</time>
      </trkpt>
      <trkpt lat="42.95599" lon="1.05313">
        <ele>708.3</ele>
        <time>2022-08-18T08:05:30.000Z</time>
      </trkpt>
      <trkpt lat="42.95604" lon="1.05325">
        <ele>710.6</ele>
        <time>2022-08-18T08:05:35.000Z</time>
      </trkpt>
      <trkpt lat="42.95609" lon="1.05336">
        <ele>711.4</ele>
        <time>2022-08-18T08:05:40.000Z</time>
      </trkpt>
      <trkpt lat="42.95615" lon="1.05347">
        <ele>713.5</ele>
        <time>2022-08-18T08:05:45.000Z</time>
      </trkpt>
      <trkpt lat="42.95622" lon="1.05357">
        <ele>715.3</ele>
        <time>2022-08-18T08:05:50.000Z</time>
      </trkpt>
      <trkpt lat="42.95628" lon="1.05367">
        <ele>717.6</ele>
        <time>2022-08-18T08:05:55.000Z</time>
      </trkpt>
      <trkpt lat="42.95635" lon="1.05378">
        <ele>719.5</ele>
        <time>2022-08-18T08:06:00.000Z</time>
      </trkpt>
      <trkpt lat="42.9564" lon="1.0539">
        <ele>720.3</ele>
        <time>2022-08-18T08:06:06.000Z</time>
      </trkpt>
      <trkpt lat="42.9564" lon="1.0539">
        <ele>719.9</ele>
        <time>2022-08-18T08:06:22.000Z</time>
      </trkpt>
      <trkpt lat="42.95647" lon="1.054">
        <ele>721.3</ele>
        <time>2022-08-18T08:06:27.000Z</time>
      </trkpt>
      <trkpt lat="42.95655" lon="1.0541">
        <ele>722.5</ele>
        <time>2022-08-18T08:06:31.000Z</time>
      </trkpt>
      <trkpt lat="42.9566" lon="1.05425">
        <ele>722.3</ele>
        <time>2022-08-18T08:06:34.000Z</time>
      </trkpt>
      <trkpt lat="42.95662" lon="1.0544">
        <ele>721.6</ele>
        <time>2022-08-18T08:06:37.000Z</time>
      </trkpt>
      <trkpt lat="42.95661" lon="1.05453">
        <ele>721.8</ele>
        <time>2022-08-18T08:06:41.000Z</time>
      </trkpt>
      <trkpt lat="42.95662" lon="1.05466">
        <ele>723.6</ele>
        <time>2022-08-18T08:06:45.000Z</time>
      </trkpt>
      <trkpt lat="42.9566" lon="1.05479">
        <ele>724.1</ele>
        <time>2022-08-18T08:06:49.000Z</time>
      </trkpt>
      <trkpt lat="42.95659" lon="1.05491">
        <ele>724.2</ele>
        <time>2022-08-18T08:06:53.000Z</time>
      </trkpt>
      <trkpt lat="42.95658" lon="1.05506">
        <ele>724.4</ele>
        <time>2022-08-18T08:06:58.000Z</time>
      </trkpt>
      <trkpt lat="42.95659" lon="1.0552">
        <ele>726</ele>
        <time>2022-08-18T08:07:02.000Z</time>
      </trkpt>
      <trkpt lat="42.95661" lon="1.05532">
        <ele>727.5</ele>
        <time>2022-08-18T08:07:06.000Z</time>
      </trkpt>
      <trkpt lat="42.95663" lon="1.05547">
        <ele>728.8</ele>
        <time>2022-08-18T08:07:11.000Z</time>
      </trkpt>
      <trkpt lat="42.95661" lon="1.0556">
        <ele>728.3</ele>
        <time>2022-08-18T08:07:15.000Z</time>
      </trkpt>
      <trkpt lat="42.95658" lon="1.05576">
        <ele>727.9</ele>
        <time>2022-08-18T08:07:19.000Z</time>
      </trkpt>
      <trkpt lat="42.95655" lon="1.05589">
        <ele>727.8</ele>
        <time>2022-08-18T08:07:24.000Z</time>
      </trkpt>
      <trkpt lat="42.95652" lon="1.05601">
        <ele>727.1</ele>
        <time>2022-08-18T08:07:28.000Z</time>
      </trkpt>
      <trkpt lat="42.9565" lon="1.05614">
        <ele>727.2</ele>
        <time>2022-08-18T08:07:32.000Z</time>
      </trkpt>
      <trkpt lat="42.95653" lon="1.05627">
        <ele>728</ele>
        <time>2022-08-18T08:07:38.000Z</time>
      </trkpt>
      <trkpt lat="42.95655" lon="1.05641">
        <ele>727.4</ele>
        <time>2022-08-18T08:07:46.000Z</time>
      </trkpt>
      <trkpt lat="42.95651" lon="1.05649">
        <ele>727</ele>
        <time>2022-08-18T08:07:52.000Z</time>
      </trkpt>
      <trkpt lat="42.9565" lon="1.05649">
        <ele>727.3</ele>
        <time>2022-08-18T08:07:54.000Z</time>
      </trkpt>
      <trkpt lat="42.95649" lon="1.05649">
        <ele>727.3</ele>
        <time>2022-08-18T08:07:56.000Z</time>
      </trkpt>
      <trkpt lat="42.95649" lon="1.0565">
        <ele>727.2</ele>
        <time>2022-08-18T08:08:13.000Z</time>
      </trkpt>
      <trkpt lat="42.95648" lon="1.0566">
        <ele>726.7</ele>
        <time>2022-08-18T08:08:22.000Z</time>
      </trkpt>
      <trkpt lat="42.95648" lon="1.05661">
        <ele>726.6</ele>
        <time>2022-08-18T08:09:29.000Z</time>
      </trkpt>
      <trkpt lat="42.95648" lon="1.05661">
        <ele>726.6</ele>
        <time>2022-08-18T08:09:31.000Z</time>
      </trkpt>
      <trkpt lat="42.95648" lon="1.05661">
        <ele>726.2</ele>
        <time>2022-08-18T08:09:34.000Z</time>
      </trkpt>
      <trkpt lat="42.95645" lon="1.05675">
        <ele>724.6</ele>
        <time>2022-08-18T08:09:43.000Z</time>
      </trkpt>
      <trkpt lat="42.95643" lon="1.05688">
        <ele>723.7</ele>
        <time>2022-08-18T08:09:48.000Z</time>
      </trkpt>
      <trkpt lat="42.95639" lon="1.057">
        <ele>722.4</ele>
        <time>2022-08-18T08:09:51.000Z</time>
      </trkpt>
      <trkpt lat="42.95634" lon="1.05714">
        <ele>719.5</ele>
        <time>2022-08-18T08:09:54.000Z</time>
      </trkpt>
      <trkpt lat="42.95626" lon="1.05727">
        <ele>718.7</ele>
        <time>2022-08-18T08:09:58.000Z</time>
      </trkpt>
      <trkpt lat="42.95619" lon="1.05738">
        <ele>715.9</ele>
        <time>2022-08-18T08:10:04.000Z</time>
      </trkpt>
      <trkpt lat="42.95612" lon="1.05745">
        <ele>714.7</ele>
        <time>2022-08-18T08:10:08.000Z</time>
      </trkpt>
      <trkpt lat="42.95604" lon="1.05752">
        <ele>713.1</ele>
        <time>2022-08-18T08:10:12.000Z</time>
      </trkpt>
      <trkpt lat="42.95595" lon="1.05757">
        <ele>708.9</ele>
        <time>2022-08-18T08:10:17.000Z</time>
      </trkpt>
      <trkpt lat="42.95592" lon="1.0577">
        <ele>705.9</ele>
        <time>2022-08-18T08:10:22.000Z</time>
      </trkpt>
      <trkpt lat="42.95583" lon="1.05769">
        <ele>701.3</ele>
        <time>2022-08-18T08:10:32.000Z</time>
      </trkpt>
      <trkpt lat="42.95579" lon="1.0578">
        <ele>698.9</ele>
        <time>2022-08-18T08:10:38.000Z</time>
      </trkpt>
      <trkpt lat="42.95575" lon="1.05792">
        <ele>695.5</ele>
        <time>2022-08-18T08:10:45.000Z</time>
      </trkpt>
      <trkpt lat="42.95574" lon="1.05799">
        <ele>694.2</ele>
        <time>2022-08-18T08:10:51.000Z</time>
      </trkpt>
      <trkpt lat="42.95574" lon="1.05799">
        <ele>694.2</ele>
        <time>2022-08-18T08:10:52.000Z</time>
      </trkpt>
      <trkpt lat="42.95574" lon="1.05803">
        <ele>693.6</ele>
        <time>2022-08-18T08:11:02.000Z</time>
      </trkpt>
      <trkpt lat="42.95574" lon="1.05803">
        <ele>692.9</ele>
        <time>2022-08-18T08:11:05.000Z</time>
      </trkpt>
      <trkpt lat="42.95574" lon="1.05803">
        <ele>693</ele>
        <time>2022-08-18T08:11:07.000Z</time>
      </trkpt>
      <trkpt lat="42.95575" lon="1.05804">
        <ele>693.4</ele>
        <time>2022-08-18T08:11:11.000Z</time>
      </trkpt>
      <trkpt lat="42.95575" lon="1.05804">
        <ele>692.6</ele>
        <time>2022-08-18T08:11:14.000Z</time>
      </trkpt>
      <trkpt lat="42.95575" lon="1.05805">
        <ele>692.1</ele>
        <time>2022-08-18T08:11:17.000Z</time>
      </trkpt>
      <trkpt lat="42.95573" lon="1.05806">
        <ele>691.4</ele>
        <time>2022-08-18T08:11:23.000Z</time>
      </trkpt>
      <trkpt lat="42.95573" lon="1.05806">
        <ele>691.5</ele>
        <time>2022-08-18T08:11:26.000Z</time>
      </trkpt>
      <trkpt lat="42.95566" lon="1.05816">
        <ele>688.1</ele>
        <time>2022-08-18T08:11:35.000Z</time>
      </trkpt>
      <trkpt lat="42.95557" lon="1.05821">
        <ele>685</ele>
        <time>2022-08-18T08:11:41.000Z</time>
      </trkpt>
      <trkpt lat="42.95546" lon="1.05824">
        <ele>681.4</ele>
        <time>2022-08-18T08:11:46.000Z</time>
      </trkpt>
      <trkpt lat="42.95538" lon="1.05831">
        <ele>677.5</ele>
        <time>2022-08-18T08:11:51.000Z</time>
      </trkpt>
      <trkpt lat="42.95529" lon="1.05827">
        <ele>674.2</ele>
        <time>2022-08-18T08:11:56.000Z</time>
      </trkpt>
      <trkpt lat="42.95518" lon="1.05831">
        <ele>670.1</ele>
        <time>2022-08-18T08:12:00.000Z</time>
      </trkpt>
      <trkpt lat="42.9551" lon="1.05839">
        <ele>665.7</ele>
        <time>2022-08-18T08:12:04.000Z</time>
      </trkpt>
      <trkpt lat="42.95503" lon="1.05829">
        <ele>662.2</ele>
        <time>2022-08-18T08:12:11.000Z</time>
      </trkpt>
      <trkpt lat="42.95497" lon="1.05818">
        <ele>660</ele>
        <time>2022-08-18T08:12:15.000Z</time>
      </trkpt>
      <trkpt lat="42.95491" lon="1.05828">
        <ele>657.1</ele>
        <time>2022-08-18T08:12:22.000Z</time>
      </trkpt>
      <trkpt lat="42.95485" lon="1.0584">
        <ele>654.1</ele>
        <time>2022-08-18T08:12:27.000Z</time>
      </trkpt>
      <trkpt lat="42.95481" lon="1.05852">
        <ele>651.3</ele>
        <time>2022-08-18T08:12:33.000Z</time>
      </trkpt>
      <trkpt lat="42.95474" lon="1.0586">
        <ele>647</ele>
        <time>2022-08-18T08:12:47.000Z</time>
      </trkpt>
      <trkpt lat="42.95473" lon="1.0586">
        <ele>646.5</ele>
        <time>2022-08-18T08:12:50.000Z</time>
      </trkpt>
      <trkpt lat="42.95473" lon="1.0586">
        <ele>646.3</ele>
        <time>2022-08-18T08:12:51.000Z</time>
      </trkpt>
      <trkpt lat="42.95473" lon="1.0586">
        <ele>646.3</ele>
        <time>2022-08-18T08:12:53.000Z</time>
      </trkpt>
      <trkpt lat="42.95473" lon="1.05861">
        <ele>646.1</ele>
        <time>2022-08-18T08:12:58.000Z</time>
      </trkpt>
      <trkpt lat="42.95473" lon="1.05864">
        <ele>645.7</ele>
        <time>2022-08-18T08:13:03.000Z</time>
      </trkpt>
      <trkpt lat="42.95473" lon="1.05864">
        <ele>645.7</ele>
        <time>2022-08-18T08:13:05.000Z</time>
      </trkpt>
      <trkpt lat="42.95473" lon="1.05865">
        <ele>645.6</ele>
        <time>2022-08-18T08:13:08.000Z</time>
      </trkpt>
      <trkpt lat="42.9547" lon="1.05868">
        <ele>644.5</ele>
        <time>2022-08-18T08:13:21.000Z</time>
      </trkpt>
      <trkpt lat="42.9547" lon="1.05867">
        <ele>644.4</ele>
        <time>2022-08-18T08:13:24.000Z</time>
      </trkpt>
      <trkpt lat="42.95465" lon="1.05855">
        <ele>642.8</ele>
        <time>2022-08-18T08:13:30.000Z</time>
      </trkpt>
      <trkpt lat="42.95461" lon="1.05844">
        <ele>641.5</ele>
        <time>2022-08-18T08:13:34.000Z</time>
      </trkpt>
      <trkpt lat="42.95455" lon="1.05831">
        <ele>639.7</ele>
        <time>2022-08-18T08:13:39.000Z</time>
      </trkpt>
      <trkpt lat="42.9545" lon="1.05815">
        <ele>638.6</ele>
        <time>2022-08-18T08:13:43.000Z</time>
      </trkpt>
      <trkpt lat="42.95442" lon="1.05821">
        <ele>634.5</ele>
        <time>2022-08-18T08:13:48.000Z</time>
      </trkpt>
      <trkpt lat="42.95437" lon="1.05838">
        <ele>631.7</ele>
        <time>2022-08-18T08:13:51.000Z</time>
      </trkpt>
      <trkpt lat="42.95432" lon="1.05854">
        <ele>629.5</ele>
        <time>2022-08-18T08:13:54.000Z</time>
      </trkpt>
      <trkpt lat="42.95429" lon="1.05867">
        <ele>628.1</ele>
        <time>2022-08-18T08:13:56.000Z</time>
      </trkpt>
      <trkpt lat="42.95427" lon="1.05885">
        <ele>625.9</ele>
        <time>2022-08-18T08:13:59.000Z</time>
      </trkpt>
      <trkpt lat="42.95427" lon="1.05898">
        <ele>625</ele>
        <time>2022-08-18T08:14:01.000Z</time>
      </trkpt>
      <trkpt lat="42.95426" lon="1.0591">
        <ele>623.4</ele>
        <time>2022-08-18T08:14:03.000Z</time>
      </trkpt>
      <trkpt lat="42.95424" lon="1.05924">
        <ele>620.3</ele>
        <time>2022-08-18T08:14:07.000Z</time>
      </trkpt>
      <trkpt lat="42.95415" lon="1.05917">
        <ele>617.5</ele>
        <time>2022-08-18T08:14:12.000Z</time>
      </trkpt>
      <trkpt lat="42.95407" lon="1.05909">
        <ele>615</ele>
        <time>2022-08-18T08:14:16.000Z</time>
      </trkpt>
      <trkpt lat="42.95398" lon="1.05905">
        <ele>612.2</ele>
        <time>2022-08-18T08:14:20.000Z</time>
      </trkpt>
      <trkpt lat="42.95389" lon="1.05894">
        <ele>610.9</ele>
        <time>2022-08-18T08:14:23.000Z</time>
      </trkpt>
      <trkpt lat="42.95381" lon="1.05883">
        <ele>608.8</ele>
        <time>2022-08-18T08:14:26.000Z</time>
      </trkpt>
      <trkpt lat="42.95374" lon="1.05874">
        <ele>607.5</ele>
        <time>2022-08-18T08:14:28.000Z</time>
      </trkpt>
      <trkpt lat="42.95368" lon="1.05863">
        <ele>604.5</ele>
        <time>2022-08-18T08:14:31.000Z</time>
      </trkpt>
      <trkpt lat="42.95362" lon="1.05873">
        <ele>601.8</ele>
        <time>2022-08-18T08:14:38.000Z</time>
      </trkpt>
      <trkpt lat="42.95358" lon="1.05885">
        <ele>599.6</ele>
        <time>2022-08-18T08:14:44.000Z</time>
      </trkpt>
      <trkpt lat="42.95349" lon="1.05878">
        <ele>597.3</ele>
        <time>2022-08-18T08:14:48.000Z</time>
      </trkpt>
      <trkpt lat="42.95341" lon="1.05887">
        <ele>594.2</ele>
        <time>2022-08-18T08:14:55.000Z</time>
      </trkpt>
      <trkpt lat="42.95331" lon="1.05886">
        <ele>591.2</ele>
        <time>2022-08-18T08:15:01.000Z</time>
      </trkpt>
      <trkpt lat="42.95326" lon="1.05874">
        <ele>589.3</ele>
        <time>2022-08-18T08:15:06.000Z</time>
      </trkpt>
      <trkpt lat="42.95322" lon="1.05862">
        <ele>587</ele>
        <time>2022-08-18T08:15:09.000Z</time>
      </trkpt>
      <trkpt lat="42.95319" lon="1.05849">
        <ele>585.6</ele>
        <time>2022-08-18T08:15:12.000Z</time>
      </trkpt>
      <trkpt lat="42.95309" lon="1.05848">
        <ele>582.7</ele>
        <time>2022-08-18T08:15:18.000Z</time>
      </trkpt>
      <trkpt lat="42.95303" lon="1.05837">
        <ele>578.2</ele>
        <time>2022-08-18T08:15:26.000Z</time>
      </trkpt>
      <trkpt lat="42.95301" lon="1.05824">
        <ele>575.6</ele>
        <time>2022-08-18T08:15:28.000Z</time>
      </trkpt>
      <trkpt lat="42.953" lon="1.05811">
        <ele>573.5</ele>
        <time>2022-08-18T08:15:30.000Z</time>
      </trkpt>
      <trkpt lat="42.95289" lon="1.0581">
        <ele>571.1</ele>
        <time>2022-08-18T08:15:34.000Z</time>
      </trkpt>
      <trkpt lat="42.95281" lon="1.05816">
        <ele>568.8</ele>
        <time>2022-08-18T08:15:37.000Z</time>
      </trkpt>
      <trkpt lat="42.95271" lon="1.05816">
        <ele>566.8</ele>
        <time>2022-08-18T08:15:41.000Z</time>
      </trkpt>
      <trkpt lat="42.95262" lon="1.05807">
        <ele>563.7</ele>
        <time>2022-08-18T08:15:45.000Z</time>
      </trkpt>
      <trkpt lat="42.95252" lon="1.05803">
        <ele>560.6</ele>
        <time>2022-08-18T08:15:50.000Z</time>
      </trkpt>
      <trkpt lat="42.95242" lon="1.05813">
        <ele>558.3</ele>
        <time>2022-08-18T08:15:53.000Z</time>
      </trkpt>
      <trkpt lat="42.95234" lon="1.05821">
        <ele>557</ele>
        <time>2022-08-18T08:15:55.000Z</time>
      </trkpt>
      <trkpt lat="42.95227" lon="1.0583">
        <ele>555.4</ele>
        <time>2022-08-18T08:15:57.000Z</time>
      </trkpt>
      <trkpt lat="42.9522" lon="1.05842">
        <ele>553.3</ele>
        <time>2022-08-18T08:16:01.000Z</time>
      </trkpt>
      <trkpt lat="42.9522" lon="1.05828">
        <ele>551.3</ele>
        <time>2022-08-18T08:16:08.000Z</time>
      </trkpt>
      <trkpt lat="42.95212" lon="1.05817">
        <ele>547.7</ele>
        <time>2022-08-18T08:16:12.000Z</time>
      </trkpt>
      <trkpt lat="42.95202" lon="1.05824">
        <ele>544.6</ele>
        <time>2022-08-18T08:16:16.000Z</time>
      </trkpt>
      <trkpt lat="42.95201" lon="1.05807">
        <ele>541.8</ele>
        <time>2022-08-18T08:16:21.000Z</time>
      </trkpt>
      <trkpt lat="42.95191" lon="1.05806">
        <ele>538.2</ele>
        <time>2022-08-18T08:16:26.000Z</time>
      </trkpt>
      <trkpt lat="42.95191" lon="1.05792">
        <ele>535.4</ele>
        <time>2022-08-18T08:16:31.000Z</time>
      </trkpt>
      <trkpt lat="42.95192" lon="1.05772">
        <ele>533.3</ele>
        <time>2022-08-18T08:16:34.000Z</time>
      </trkpt>
      <trkpt lat="42.95193" lon="1.05755">
        <ele>531.1</ele>
        <time>2022-08-18T08:16:36.000Z</time>
      </trkpt>
      <trkpt lat="42.95194" lon="1.0574">
        <ele>526.8</ele>
        <time>2022-08-18T08:16:39.000Z</time>
      </trkpt>
      <trkpt lat="42.95185" lon="1.05741">
        <ele>525.3</ele>
        <time>2022-08-18T08:16:43.000Z</time>
      </trkpt>
      <trkpt lat="42.95177" lon="1.05748">
        <ele>523.4</ele>
        <time>2022-08-18T08:16:46.000Z</time>
      </trkpt>
      <trkpt lat="42.9517" lon="1.05736">
        <ele>519</ele>
        <time>2022-08-18T08:16:52.000Z</time>
      </trkpt>
      <trkpt lat="42.95159" lon="1.05737">
        <ele>515.1</ele>
        <time>2022-08-18T08:16:57.000Z</time>
      </trkpt>
      <trkpt lat="42.95151" lon="1.05745">
        <ele>513.4</ele>
        <time>2022-08-18T08:17:00.000Z</time>
      </trkpt>
      <trkpt lat="42.95144" lon="1.05754">
        <ele>512.9</ele>
        <time>2022-08-18T08:17:02.000Z</time>
      </trkpt>
      <trkpt lat="42.95138" lon="1.05764">
        <ele>510.2</ele>
        <time>2022-08-18T08:17:05.000Z</time>
      </trkpt>
      <trkpt lat="42.9513" lon="1.05773">
        <ele>509.2</ele>
        <time>2022-08-18T08:17:08.000Z</time>
      </trkpt>
      <trkpt lat="42.95121" lon="1.05782">
        <ele>508.1</ele>
        <time>2022-08-18T08:17:11.000Z</time>
      </trkpt>
      <trkpt lat="42.95111" lon="1.05787">
        <ele>506</ele>
        <time>2022-08-18T08:17:14.000Z</time>
      </trkpt>
      <trkpt lat="42.95101" lon="1.05794">
        <ele>505.2</ele>
        <time>2022-08-18T08:17:16.000Z</time>
      </trkpt>
      <trkpt lat="42.95088" lon="1.05801">
        <ele>503.8</ele>
        <time>2022-08-18T08:17:18.000Z</time>
      </trkpt>
      <trkpt lat="42.95078" lon="1.05806">
        <ele>501.5</ele>
        <time>2022-08-18T08:17:20.000Z</time>
      </trkpt>
      <trkpt lat="42.95067" lon="1.05808">
        <ele>499.7</ele>
        <time>2022-08-18T08:17:22.000Z</time>
      </trkpt>
      <trkpt lat="42.95055" lon="1.05812">
        <ele>497.6</ele>
        <time>2022-08-18T08:17:25.000Z</time>
      </trkpt>
      <trkpt lat="42.95047" lon="1.05818">
        <ele>495.9</ele>
        <time>2022-08-18T08:17:29.000Z</time>
      </trkpt>
      <trkpt lat="42.95038" lon="1.05825">
        <ele>493.5</ele>
        <time>2022-08-18T08:17:34.000Z</time>
      </trkpt>
      <trkpt lat="42.95028" lon="1.05827">
        <ele>490.9</ele>
        <time>2022-08-18T08:17:39.000Z</time>
      </trkpt>
      <trkpt lat="42.95019" lon="1.05832">
        <ele>489</ele>
        <time>2022-08-18T08:17:43.000Z</time>
      </trkpt>
      <trkpt lat="42.95009" lon="1.0584">
        <ele>486.5</ele>
        <time>2022-08-18T08:17:47.000Z</time>
      </trkpt>
      <trkpt lat="42.94999" lon="1.05853">
        <ele>485.1</ele>
        <time>2022-08-18T08:17:50.000Z</time>
      </trkpt>
      <trkpt lat="42.94993" lon="1.05866">
        <ele>484.3</ele>
        <time>2022-08-18T08:17:53.000Z</time>
      </trkpt>
      <trkpt lat="42.94988" lon="1.05882">
        <ele>482.8</ele>
        <time>2022-08-18T08:17:56.000Z</time>
      </trkpt>
      <trkpt lat="42.94985" lon="1.05893">
        <ele>482.1</ele>
        <time>2022-08-18T08:17:59.000Z</time>
      </trkpt>
      <trkpt lat="42.94981" lon="1.05907">
        <ele>481.2</ele>
        <time>2022-08-18T08:18:03.000Z</time>
      </trkpt>
      <trkpt lat="42.9498" lon="1.05911">
        <ele>480.5</ele>
        <time>2022-08-18T08:18:10.000Z</time>
      </trkpt>
      <trkpt lat="42.9498" lon="1.05911">
        <ele>481.5</ele>
        <time>2022-08-18T08:18:15.000Z</time>
      </trkpt>
      <trkpt lat="42.9498" lon="1.0591">
        <ele>480.6</ele>
        <time>2022-08-18T08:18:18.000Z</time>
      </trkpt>
      <trkpt lat="42.9498" lon="1.0591">
        <ele>480.5</ele>
        <time>2022-08-18T08:18:27.000Z</time>
      </trkpt>
      <trkpt lat="42.9498" lon="1.0591">
        <ele>480.6</ele>
        <time>2022-08-18T08:18:28.000Z</time>
      </trkpt>
      <trkpt lat="42.9498" lon="1.0591">
        <ele>480.9</ele>
        <time>2022-08-18T08:18:32.000Z</time>
      </trkpt>
      <trkpt lat="42.9498" lon="1.05911">
        <ele>480.7</ele>
        <time>2022-08-18T08:18:34.000Z</time>
      </trkpt>
      <trkpt lat="42.9498" lon="1.05911">
        <ele>480.6</ele>
        <time>2022-08-18T08:18:35.000Z</time>
      </trkpt>
      <trkpt lat="42.9498" lon="1.05911">
        <ele>480.3</ele>
        <time>2022-08-18T08:18:37.000Z</time>
      </trkpt>
      <trkpt lat="42.94978" lon="1.05918">
        <ele>478.1</ele>
        <time>2022-08-18T08:18:49.000Z</time>
      </trkpt>
      <trkpt lat="42.94979" lon="1.05918">
        <ele>478</ele>
        <time>2022-08-18T08:18:50.000Z</time>
      </trkpt>
      <trkpt lat="42.94979" lon="1.05921">
        <ele>477.8</ele>
        <time>2022-08-18T08:18:55.000Z</time>
      </trkpt>
      <trkpt lat="42.94979" lon="1.05921">
        <ele>477.6</ele>
        <time>2022-08-18T08:18:58.000Z</time>
      </trkpt>
      <trkpt lat="42.94979" lon="1.05924">
        <ele>477.2</ele>
        <time>2022-08-18T08:19:04.000Z</time>
      </trkpt>
      <trkpt lat="42.94979" lon="1.05925">
        <ele>477.1</ele>
        <time>2022-08-18T08:19:10.000Z</time>
      </trkpt>
      <trkpt lat="42.9497" lon="1.05933">
        <ele>473.6</ele>
        <time>2022-08-18T08:19:17.000Z</time>
      </trkpt>
      <trkpt lat="42.94963" lon="1.05933">
        <ele>471.1</ele>
        <time>2022-08-18T08:19:25.000Z</time>
      </trkpt>
      <trkpt lat="42.94963" lon="1.05932">
        <ele>470.8</ele>
        <time>2022-08-18T08:20:13.000Z</time>
      </trkpt>
      <trkpt lat="42.9496" lon="1.05925">
        <ele>470</ele>
        <time>2022-08-18T08:20:20.000Z</time>
      </trkpt>
      <trkpt lat="42.9496" lon="1.05923">
        <ele>470</ele>
        <time>2022-08-18T08:20:30.000Z</time>
      </trkpt>
      <trkpt lat="42.94957" lon="1.0591">
        <ele>469.6</ele>
        <time>2022-08-18T08:20:36.000Z</time>
      </trkpt>
      <trkpt lat="42.94952" lon="1.05899">
        <ele>468.2</ele>
        <time>2022-08-18T08:20:41.000Z</time>
      </trkpt>
      <trkpt lat="42.94943" lon="1.05899">
        <ele>466.6</ele>
        <time>2022-08-18T08:20:48.000Z</time>
      </trkpt>
      <trkpt lat="42.94935" lon="1.05907">
        <ele>464.5</ele>
        <time>2022-08-18T08:20:51.000Z</time>
      </trkpt>
      <trkpt lat="42.94932" lon="1.05909">
        <ele>464.1</ele>
        <time>2022-08-18T08:20:56.000Z</time>
      </trkpt>
      <trkpt lat="42.94932" lon="1.0591">
        <ele>463.9</ele>
        <time>2022-08-18T08:21:15.000Z</time>
      </trkpt>
      <trkpt lat="42.94932" lon="1.0591">
        <ele>464</ele>
        <time>2022-08-18T08:21:17.000Z</time>
      </trkpt>
      <trkpt lat="42.94932" lon="1.0591">
        <ele>464.2</ele>
        <time>2022-08-18T08:22:28.000Z</time>
      </trkpt>
      <trkpt lat="42.94928" lon="1.05911">
        <ele>464.3</ele>
        <time>2022-08-18T08:22:34.000Z</time>
      </trkpt>
      <trkpt lat="42.94929" lon="1.05911">
        <ele>464.5</ele>
        <time>2022-08-18T08:22:37.000Z</time>
      </trkpt>
      <trkpt lat="42.9493" lon="1.05911">
        <ele>464.3</ele>
        <time>2022-08-18T08:22:44.000Z</time>
      </trkpt>
      <trkpt lat="42.94931" lon="1.0591">
        <ele>464</ele>
        <time>2022-08-18T08:22:54.000Z</time>
      </trkpt>
      <trkpt lat="42.94933" lon="1.05898">
        <ele>463.1</ele>
        <time>2022-08-18T08:23:00.000Z</time>
      </trkpt>
      <trkpt lat="42.94925" lon="1.05903">
        <ele>460.6</ele>
        <time>2022-08-18T08:23:10.000Z</time>
      </trkpt>
      <trkpt lat="42.94918" lon="1.05917">
        <ele>460.4</ele>
        <time>2022-08-18T08:23:13.000Z</time>
      </trkpt>
      <trkpt lat="42.94908" lon="1.05922">
        <ele>459.5</ele>
        <time>2022-08-18T08:23:15.000Z</time>
      </trkpt>
      <trkpt lat="42.94897" lon="1.05923">
        <ele>458.9</ele>
        <time>2022-08-18T08:23:17.000Z</time>
      </trkpt>
      <trkpt lat="42.94885" lon="1.05924">
        <ele>458.3</ele>
        <time>2022-08-18T08:23:19.000Z</time>
      </trkpt>
      <trkpt lat="42.94873" lon="1.05923">
        <ele>457.7</ele>
        <time>2022-08-18T08:23:21.000Z</time>
      </trkpt>
      <trkpt lat="42.94864" lon="1.05919">
        <ele>457.2</ele>
        <time>2022-08-18T08:23:23.000Z</time>
      </trkpt>
      <trkpt lat="42.94855" lon="1.05913">
        <ele>457.4</ele>
        <time>2022-08-18T08:23:25.000Z</time>
      </trkpt>
      <trkpt lat="42.94846" lon="1.05908">
        <ele>456.6</ele>
        <time>2022-08-18T08:23:27.000Z</time>
      </trkpt>
      <trkpt lat="42.94837" lon="1.05902">
        <ele>456.2</ele>
        <time>2022-08-18T08:23:32.000Z</time>
      </trkpt>
      <trkpt lat="42.94832" lon="1.0589">
        <ele>456.4</ele>
        <time>2022-08-18T08:23:39.000Z</time>
      </trkpt>
      <trkpt lat="42.94829" lon="1.05878">
        <ele>456.3</ele>
        <time>2022-08-18T08:23:44.000Z</time>
      </trkpt>
      <trkpt lat="42.94823" lon="1.05868">
        <ele>456.1</ele>
        <time>2022-08-18T08:23:48.000Z</time>
      </trkpt>
      <trkpt lat="42.94815" lon="1.05879">
        <ele>456</ele>
        <time>2022-08-18T08:23:52.000Z</time>
      </trkpt>
      <trkpt lat="42.9481" lon="1.05891">
        <ele>456</ele>
        <time>2022-08-18T08:23:55.000Z</time>
      </trkpt>
      <trkpt lat="42.94803" lon="1.059">
        <ele>455.4</ele>
        <time>2022-08-18T08:23:58.000Z</time>
      </trkpt>
      <trkpt lat="42.94794" lon="1.05908">
        <ele>455.4</ele>
        <time>2022-08-18T08:24:01.000Z</time>
      </trkpt>
      <trkpt lat="42.94788" lon="1.05917">
        <ele>455.2</ele>
        <time>2022-08-18T08:24:04.000Z</time>
      </trkpt>
      <trkpt lat="42.9478" lon="1.05929">
        <ele>455.3</ele>
        <time>2022-08-18T08:24:08.000Z</time>
      </trkpt>
      <trkpt lat="42.94772" lon="1.05936">
        <ele>455.2</ele>
        <time>2022-08-18T08:24:12.000Z</time>
      </trkpt>
      <trkpt lat="42.94764" lon="1.05944">
        <ele>455.1</ele>
        <time>2022-08-18T08:24:17.000Z</time>
      </trkpt>
      <trkpt lat="42.94756" lon="1.05951">
        <ele>455.1</ele>
        <time>2022-08-18T08:24:21.000Z</time>
      </trkpt>
      <trkpt lat="42.94746" lon="1.05957">
        <ele>455.5</ele>
        <time>2022-08-18T08:24:25.000Z</time>
      </trkpt>
      <trkpt lat="42.94736" lon="1.05961">
        <ele>455.5</ele>
        <time>2022-08-18T08:24:29.000Z</time>
      </trkpt>
      <trkpt lat="42.94724" lon="1.05962">
        <ele>455.2</ele>
        <time>2022-08-18T08:24:33.000Z</time>
      </trkpt>
      <trkpt lat="42.94713" lon="1.05963">
        <ele>455.6</ele>
        <time>2022-08-18T08:24:37.000Z</time>
      </trkpt>
      <trkpt lat="42.94702" lon="1.05966">
        <ele>455.5</ele>
        <time>2022-08-18T08:24:41.000Z</time>
      </trkpt>
      <trkpt lat="42.94692" lon="1.05971">
        <ele>455.6</ele>
        <time>2022-08-18T08:24:46.000Z</time>
      </trkpt>
      <trkpt lat="42.94694" lon="1.05983">
        <ele>455.7</ele>
        <time>2022-08-18T08:25:05.000Z</time>
      </trkpt>
      <trkpt lat="42.94697" lon="1.05995">
        <ele>455.9</ele>
        <time>2022-08-18T08:25:08.000Z</time>
      </trkpt>
      <trkpt lat="42.947" lon="1.06007">
        <ele>455.7</ele>
        <time>2022-08-18T08:25:11.000Z</time>
      </trkpt>
      <trkpt lat="42.94705" lon="1.0602">
        <ele>455.4</ele>
        <time>2022-08-18T08:25:14.000Z</time>
      </trkpt>
      <trkpt lat="42.94709" lon="1.06032">
        <ele>455.3</ele>
        <time>2022-08-18T08:25:17.000Z</time>
      </trkpt>
      <trkpt lat="42.94713" lon="1.06044">
        <ele>455.4</ele>
        <time>2022-08-18T08:25:20.000Z</time>
      </trkpt>
      <trkpt lat="42.94715" lon="1.06056">
        <ele>454.8</ele>
        <time>2022-08-18T08:25:23.000Z</time>
      </trkpt>
      <trkpt lat="42.94718" lon="1.0607">
        <ele>454.8</ele>
        <time>2022-08-18T08:25:26.000Z</time>
      </trkpt>
      <trkpt lat="42.94727" lon="1.06082">
        <ele>454.4</ele>
        <time>2022-08-18T08:25:29.000Z</time>
      </trkpt>
      <trkpt lat="42.94734" lon="1.06088">
        <ele>453.8</ele>
        <time>2022-08-18T08:25:31.000Z</time>
      </trkpt>
      <trkpt lat="42.9474" lon="1.06099">
        <ele>453.1</ele>
        <time>2022-08-18T08:25:33.000Z</time>
      </trkpt>
      <trkpt lat="42.94741" lon="1.06112">
        <ele>453.2</ele>
        <time>2022-08-18T08:25:35.000Z</time>
      </trkpt>
      <trkpt lat="42.94739" lon="1.06125">
        <ele>453.4</ele>
        <time>2022-08-18T08:25:37.000Z</time>
      </trkpt>
      <trkpt lat="42.94736" lon="1.06138">
        <ele>453.1</ele>
        <time>2022-08-18T08:25:39.000Z</time>
      </trkpt>
      <trkpt lat="42.94734" lon="1.06151">
        <ele>452.5</ele>
        <time>2022-08-18T08:25:41.000Z</time>
      </trkpt>
      <trkpt lat="42.94732" lon="1.06165">
        <ele>452.7</ele>
        <time>2022-08-18T08:25:43.000Z</time>
      </trkpt>
      <trkpt lat="42.9473" lon="1.06179">
        <ele>452.3</ele>
        <time>2022-08-18T08:25:45.000Z</time>
      </trkpt>
      <trkpt lat="42.94727" lon="1.06192">
        <ele>451.4</ele>
        <time>2022-08-18T08:25:47.000Z</time>
      </trkpt>
      <trkpt lat="42.94725" lon="1.06205">
        <ele>451.3</ele>
        <time>2022-08-18T08:25:49.000Z</time>
      </trkpt>
      <trkpt lat="42.94722" lon="1.06218">
        <ele>451.7</ele>
        <time>2022-08-18T08:25:51.000Z</time>
      </trkpt>
      <trkpt lat="42.94723" lon="1.06233">
        <ele>451.9</ele>
        <time>2022-08-18T08:25:54.000Z</time>
      </trkpt>
      <trkpt lat="42.94723" lon="1.06248">
        <ele>451.9</ele>
        <time>2022-08-18T08:25:57.000Z</time>
      </trkpt>
      <trkpt lat="42.94722" lon="1.06261">
        <ele>451.1</ele>
        <time>2022-08-18T08:26:00.000Z</time>
      </trkpt>
      <trkpt lat="42.94716" lon="1.06274">
        <ele>450.9</ele>
        <time>2022-08-18T08:26:05.000Z</time>
      </trkpt>
      <trkpt lat="42.94711" lon="1.06287">
        <ele>451.3</ele>
        <time>2022-08-18T08:26:09.000Z</time>
      </trkpt>
      <trkpt lat="42.94706" lon="1.063">
        <ele>451.2</ele>
        <time>2022-08-18T08:26:12.000Z</time>
      </trkpt>
      <trkpt lat="42.947" lon="1.06315">
        <ele>451.3</ele>
        <time>2022-08-18T08:26:15.000Z</time>
      </trkpt>
      <trkpt lat="42.94696" lon="1.06327">
        <ele>450.6</ele>
        <time>2022-08-18T08:26:17.000Z</time>
      </trkpt>
      <trkpt lat="42.94691" lon="1.06339">
        <ele>450</ele>
        <time>2022-08-18T08:26:19.000Z</time>
      </trkpt>
      <trkpt lat="42.94688" lon="1.06351">
        <ele>449.7</ele>
        <time>2022-08-18T08:26:21.000Z</time>
      </trkpt>
      <trkpt lat="42.94685" lon="1.06368">
        <ele>449.7</ele>
        <time>2022-08-18T08:26:24.000Z</time>
      </trkpt>
      <trkpt lat="42.94685" lon="1.06383">
        <ele>449.1</ele>
        <time>2022-08-18T08:26:27.000Z</time>
      </trkpt>
      <trkpt lat="42.94686" lon="1.06398">
        <ele>449.3</ele>
        <time>2022-08-18T08:26:30.000Z</time>
      </trkpt>
      <trkpt lat="42.94686" lon="1.06411">
        <ele>449.2</ele>
        <time>2022-08-18T08:26:33.000Z</time>
      </trkpt>
      <trkpt lat="42.94688" lon="1.06424">
        <ele>449.4</ele>
        <time>2022-08-18T08:26:36.000Z</time>
      </trkpt>
      <trkpt lat="42.94692" lon="1.06438">
        <ele>449.6</ele>
        <time>2022-08-18T08:26:39.000Z</time>
      </trkpt>
      <trkpt lat="42.94694" lon="1.06454">
        <ele>449.7</ele>
        <time>2022-08-18T08:26:42.000Z</time>
      </trkpt>
      <trkpt lat="42.94694" lon="1.06469">
        <ele>449.5</ele>
        <time>2022-08-18T08:26:45.000Z</time>
      </trkpt>
      <trkpt lat="42.94693" lon="1.06485">
        <ele>449.4</ele>
        <time>2022-08-18T08:26:48.000Z</time>
      </trkpt>
      <trkpt lat="42.94695" lon="1.065">
        <ele>449.7</ele>
        <time>2022-08-18T08:26:51.000Z</time>
      </trkpt>
      <trkpt lat="42.94696" lon="1.06515">
        <ele>449.8</ele>
        <time>2022-08-18T08:26:54.000Z</time>
      </trkpt>
      <trkpt lat="42.94696" lon="1.06529">
        <ele>449.8</ele>
        <time>2022-08-18T08:26:57.000Z</time>
      </trkpt>
      <trkpt lat="42.94695" lon="1.06542">
        <ele>450.3</ele>
        <time>2022-08-18T08:27:00.000Z</time>
      </trkpt>
      <trkpt lat="42.94693" lon="1.06556">
        <ele>450.7</ele>
        <time>2022-08-18T08:27:04.000Z</time>
      </trkpt>
      <trkpt lat="42.94692" lon="1.06572">
        <ele>450.9</ele>
        <time>2022-08-18T08:27:08.000Z</time>
      </trkpt>
      <trkpt lat="42.94691" lon="1.06588">
        <ele>451</ele>
        <time>2022-08-18T08:27:12.000Z</time>
      </trkpt>
      <trkpt lat="42.94685" lon="1.06597">
        <ele>451.2</ele>
        <time>2022-08-18T08:27:15.000Z</time>
      </trkpt>
      <trkpt lat="42.94675" lon="1.06601">
        <ele>451</ele>
        <time>2022-08-18T08:27:19.000Z</time>
      </trkpt>
      <trkpt lat="42.94663" lon="1.06607">
        <ele>451</ele>
        <time>2022-08-18T08:27:23.000Z</time>
      </trkpt>
      <trkpt lat="42.94652" lon="1.06613">
        <ele>451.6</ele>
        <time>2022-08-18T08:27:27.000Z</time>
      </trkpt>
      <trkpt lat="42.94644" lon="1.06618">
        <ele>451.7</ele>
        <time>2022-08-18T08:27:30.000Z</time>
      </trkpt>
      <trkpt lat="42.94632" lon="1.06623">
        <ele>451.8</ele>
        <time>2022-08-18T08:27:34.000Z</time>
      </trkpt>
      <trkpt lat="42.94624" lon="1.06635">
        <ele>451.7</ele>
        <time>2022-08-18T08:27:38.000Z</time>
      </trkpt>
      <trkpt lat="42.94623" lon="1.06651">
        <ele>451.8</ele>
        <time>2022-08-18T08:27:42.000Z</time>
      </trkpt>
      <trkpt lat="42.94623" lon="1.06663">
        <ele>451.3</ele>
        <time>2022-08-18T08:27:45.000Z</time>
      </trkpt>
      <trkpt lat="42.94624" lon="1.06676">
        <ele>451.2</ele>
        <time>2022-08-18T08:27:48.000Z</time>
      </trkpt>
      <trkpt lat="42.94624" lon="1.06692">
        <ele>451</ele>
        <time>2022-08-18T08:27:52.000Z</time>
      </trkpt>
      <trkpt lat="42.94625" lon="1.06705">
        <ele>451</ele>
        <time>2022-08-18T08:27:55.000Z</time>
      </trkpt>
      <trkpt lat="42.94627" lon="1.0672">
        <ele>450.4</ele>
        <time>2022-08-18T08:27:58.000Z</time>
      </trkpt>
      <trkpt lat="42.94629" lon="1.06736">
        <ele>450.5</ele>
        <time>2022-08-18T08:28:01.000Z</time>
      </trkpt>
      <trkpt lat="42.94631" lon="1.0675">
        <ele>450.1</ele>
        <time>2022-08-18T08:28:04.000Z</time>
      </trkpt>
      <trkpt lat="42.94633" lon="1.06765">
        <ele>450.1</ele>
        <time>2022-08-18T08:28:08.000Z</time>
      </trkpt>
      <trkpt lat="42.94635" lon="1.06778">
        <ele>449.9</ele>
        <time>2022-08-18T08:28:11.000Z</time>
      </trkpt>
      <trkpt lat="42.94639" lon="1.06794">
        <ele>449.7</ele>
        <time>2022-08-18T08:28:14.000Z</time>
      </trkpt>
      <trkpt lat="42.94645" lon="1.06809">
        <ele>449.2</ele>
        <time>2022-08-18T08:28:17.000Z</time>
      </trkpt>
      <trkpt lat="42.94651" lon="1.06821">
        <ele>449.2</ele>
        <time>2022-08-18T08:28:20.000Z</time>
      </trkpt>
      <trkpt lat="42.94657" lon="1.06833">
        <ele>449.2</ele>
        <time>2022-08-18T08:28:23.000Z</time>
      </trkpt>
      <trkpt lat="42.94663" lon="1.06846">
        <ele>449.4</ele>
        <time>2022-08-18T08:28:26.000Z</time>
      </trkpt>
      <trkpt lat="42.94666" lon="1.06857">
        <ele>448.8</ele>
        <time>2022-08-18T08:28:29.000Z</time>
      </trkpt>
      <trkpt lat="42.94669" lon="1.0687">
        <ele>448.6</ele>
        <time>2022-08-18T08:28:32.000Z</time>
      </trkpt>
      <trkpt lat="42.94672" lon="1.06885">
        <ele>449.1</ele>
        <time>2022-08-18T08:28:35.000Z</time>
      </trkpt>
      <trkpt lat="42.94674" lon="1.06899">
        <ele>448.9</ele>
        <time>2022-08-18T08:28:38.000Z</time>
      </trkpt>
      <trkpt lat="42.94675" lon="1.06914">
        <ele>448.8</ele>
        <time>2022-08-18T08:28:41.000Z</time>
      </trkpt>
      <trkpt lat="42.94677" lon="1.0693">
        <ele>448.5</ele>
        <time>2022-08-18T08:28:44.000Z</time>
      </trkpt>
      <trkpt lat="42.94678" lon="1.06946">
        <ele>448.4</ele>
        <time>2022-08-18T08:28:47.000Z</time>
      </trkpt>
      <trkpt lat="42.94679" lon="1.06962">
        <ele>448.4</ele>
        <time>2022-08-18T08:28:50.000Z</time>
      </trkpt>
      <trkpt lat="42.9468" lon="1.06978">
        <ele>448.5</ele>
        <time>2022-08-18T08:28:53.000Z</time>
      </trkpt>
      <trkpt lat="42.94681" lon="1.06993">
        <ele>448.3</ele>
        <time>2022-08-18T08:28:56.000Z</time>
      </trkpt>
      <trkpt lat="42.94682" lon="1.07007">
        <ele>448.3</ele>
        <time>2022-08-18T08:28:59.000Z</time>
      </trkpt>
      <trkpt lat="42.94682" lon="1.0702">
        <ele>448.1</ele>
        <time>2022-08-18T08:29:02.000Z</time>
      </trkpt>
      <trkpt lat="42.94684" lon="1.07032">
        <ele>448.4</ele>
        <time>2022-08-18T08:29:05.000Z</time>
      </trkpt>
      <trkpt lat="42.94686" lon="1.07045">
        <ele>448.1</ele>
        <time>2022-08-18T08:29:08.000Z</time>
      </trkpt>
      <trkpt lat="42.94688" lon="1.07059">
        <ele>448.1</ele>
        <time>2022-08-18T08:29:11.000Z</time>
      </trkpt>
      <trkpt lat="42.9469" lon="1.07072">
        <ele>448.1</ele>
        <time>2022-08-18T08:29:14.000Z</time>
      </trkpt>
      <trkpt lat="42.94693" lon="1.07084">
        <ele>448.3</ele>
        <time>2022-08-18T08:29:17.000Z</time>
      </trkpt>
      <trkpt lat="42.94694" lon="1.07097">
        <ele>448.6</ele>
        <time>2022-08-18T08:29:20.000Z</time>
      </trkpt>
      <trkpt lat="42.94696" lon="1.07109">
        <ele>448.2</ele>
        <time>2022-08-18T08:29:23.000Z</time>
      </trkpt>
      <trkpt lat="42.94698" lon="1.07124">
        <ele>449.1</ele>
        <time>2022-08-18T08:29:27.000Z</time>
      </trkpt>
      <trkpt lat="42.947" lon="1.0714">
        <ele>449</ele>
        <time>2022-08-18T08:29:31.000Z</time>
      </trkpt>
      <trkpt lat="42.94703" lon="1.07153">
        <ele>449</ele>
        <time>2022-08-18T08:29:34.000Z</time>
      </trkpt>
      <trkpt lat="42.94705" lon="1.07169">
        <ele>448.3</ele>
        <time>2022-08-18T08:29:37.000Z</time>
      </trkpt>
      <trkpt lat="42.94706" lon="1.07182">
        <ele>447.6</ele>
        <time>2022-08-18T08:29:39.000Z</time>
      </trkpt>
      <trkpt lat="42.94709" lon="1.07195">
        <ele>447.6</ele>
        <time>2022-08-18T08:29:41.000Z</time>
      </trkpt>
      <trkpt lat="42.94713" lon="1.07213">
        <ele>447.6</ele>
        <time>2022-08-18T08:29:44.000Z</time>
      </trkpt>
      <trkpt lat="42.94716" lon="1.07225">
        <ele>447.3</ele>
        <time>2022-08-18T08:29:46.000Z</time>
      </trkpt>
      <trkpt lat="42.94718" lon="1.07237">
        <ele>447</ele>
        <time>2022-08-18T08:29:48.000Z</time>
      </trkpt>
      <trkpt lat="42.94721" lon="1.07254">
        <ele>446.8</ele>
        <time>2022-08-18T08:29:51.000Z</time>
      </trkpt>
      <trkpt lat="42.94724" lon="1.07268">
        <ele>446.5</ele>
        <time>2022-08-18T08:29:54.000Z</time>
      </trkpt>
      <trkpt lat="42.94726" lon="1.07284">
        <ele>447</ele>
        <time>2022-08-18T08:29:57.000Z</time>
      </trkpt>
      <trkpt lat="42.94728" lon="1.073">
        <ele>447.3</ele>
        <time>2022-08-18T08:30:00.000Z</time>
      </trkpt>
      <trkpt lat="42.94731" lon="1.07313">
        <ele>448.1</ele>
        <time>2022-08-18T08:30:03.000Z</time>
      </trkpt>
      <trkpt lat="42.94737" lon="1.0733">
        <ele>447.4</ele>
        <time>2022-08-18T08:30:06.000Z</time>
      </trkpt>
      <trkpt lat="42.94743" lon="1.07343">
        <ele>446.7</ele>
        <time>2022-08-18T08:30:08.000Z</time>
      </trkpt>
      <trkpt lat="42.94748" lon="1.07355">
        <ele>446.4</ele>
        <time>2022-08-18T08:30:10.000Z</time>
      </trkpt>
      <trkpt lat="42.94752" lon="1.07367">
        <ele>446.3</ele>
        <time>2022-08-18T08:30:12.000Z</time>
      </trkpt>
      <trkpt lat="42.94758" lon="1.07382">
        <ele>446.7</ele>
        <time>2022-08-18T08:30:15.000Z</time>
      </trkpt>
      <trkpt lat="42.94765" lon="1.07394">
        <ele>446.5</ele>
        <time>2022-08-18T08:30:18.000Z</time>
      </trkpt>
      <trkpt lat="42.94771" lon="1.07405">
        <ele>446.3</ele>
        <time>2022-08-18T08:30:21.000Z</time>
      </trkpt>
      <trkpt lat="42.94778" lon="1.07416">
        <ele>446</ele>
        <time>2022-08-18T08:30:24.000Z</time>
      </trkpt>
      <trkpt lat="42.94786" lon="1.07427">
        <ele>445.9</ele>
        <time>2022-08-18T08:30:27.000Z</time>
      </trkpt>
      <trkpt lat="42.94795" lon="1.07438">
        <ele>445.4</ele>
        <time>2022-08-18T08:30:30.000Z</time>
      </trkpt>
      <trkpt lat="42.94803" lon="1.07448">
        <ele>444.9</ele>
        <time>2022-08-18T08:30:33.000Z</time>
      </trkpt>
      <trkpt lat="42.94812" lon="1.07454">
        <ele>444.7</ele>
        <time>2022-08-18T08:30:36.000Z</time>
      </trkpt>
      <trkpt lat="42.94821" lon="1.07457">
        <ele>443.2</ele>
        <time>2022-08-18T08:30:39.000Z</time>
      </trkpt>
      <trkpt lat="42.94829" lon="1.07462">
        <ele>443</ele>
        <time>2022-08-18T08:30:41.000Z</time>
      </trkpt>
      <trkpt lat="42.94837" lon="1.07471">
        <ele>442.8</ele>
        <time>2022-08-18T08:30:43.000Z</time>
      </trkpt>
      <trkpt lat="42.94843" lon="1.07482">
        <ele>441.5</ele>
        <time>2022-08-18T08:30:45.000Z</time>
      </trkpt>
      <trkpt lat="42.9485" lon="1.07492">
        <ele>441.1</ele>
        <time>2022-08-18T08:30:47.000Z</time>
      </trkpt>
      <trkpt lat="42.94858" lon="1.07506">
        <ele>441.5</ele>
        <time>2022-08-18T08:30:50.000Z</time>
      </trkpt>
      <trkpt lat="42.94866" lon="1.0752">
        <ele>441.7</ele>
        <time>2022-08-18T08:30:53.000Z</time>
      </trkpt>
      <trkpt lat="42.94872" lon="1.07534">
        <ele>441.5</ele>
        <time>2022-08-18T08:30:56.000Z</time>
      </trkpt>
      <trkpt lat="42.94878" lon="1.07547">
        <ele>441.3</ele>
        <time>2022-08-18T08:30:59.000Z</time>
      </trkpt>
      <trkpt lat="42.94885" lon="1.07562">
        <ele>440.6</ele>
        <time>2022-08-18T08:31:02.000Z</time>
      </trkpt>
      <trkpt lat="42.9489" lon="1.07574">
        <ele>440.6</ele>
        <time>2022-08-18T08:31:04.000Z</time>
      </trkpt>
      <trkpt lat="42.94897" lon="1.07589">
        <ele>440.4</ele>
        <time>2022-08-18T08:31:07.000Z</time>
      </trkpt>
      <trkpt lat="42.94906" lon="1.07603">
        <ele>439.8</ele>
        <time>2022-08-18T08:31:10.000Z</time>
      </trkpt>
      <trkpt lat="42.94914" lon="1.07615">
        <ele>439.5</ele>
        <time>2022-08-18T08:31:13.000Z</time>
      </trkpt>
      <trkpt lat="42.94922" lon="1.07623">
        <ele>440.1</ele>
        <time>2022-08-18T08:31:15.000Z</time>
      </trkpt>
      <trkpt lat="42.94929" lon="1.07632">
        <ele>439.5</ele>
        <time>2022-08-18T08:31:17.000Z</time>
      </trkpt>
      <trkpt lat="42.94937" lon="1.07644">
        <ele>439.5</ele>
        <time>2022-08-18T08:31:20.000Z</time>
      </trkpt>
      <trkpt lat="42.94943" lon="1.07654">
        <ele>439.5</ele>
        <time>2022-08-18T08:31:23.000Z</time>
      </trkpt>
      <trkpt lat="42.94951" lon="1.07666">
        <ele>438.9</ele>
        <time>2022-08-18T08:31:27.000Z</time>
      </trkpt>
      <trkpt lat="42.94957" lon="1.07677">
        <ele>438.9</ele>
        <time>2022-08-18T08:31:30.000Z</time>
      </trkpt>
      <trkpt lat="42.94962" lon="1.07692">
        <ele>438.4</ele>
        <time>2022-08-18T08:31:33.000Z</time>
      </trkpt>
      <trkpt lat="42.94964" lon="1.07708">
        <ele>437.8</ele>
        <time>2022-08-18T08:31:36.000Z</time>
      </trkpt>
      <trkpt lat="42.94964" lon="1.07724">
        <ele>437.9</ele>
        <time>2022-08-18T08:31:39.000Z</time>
      </trkpt>
      <trkpt lat="42.94964" lon="1.0774">
        <ele>437.8</ele>
        <time>2022-08-18T08:31:42.000Z</time>
      </trkpt>
      <trkpt lat="42.94965" lon="1.07756">
        <ele>437.6</ele>
        <time>2022-08-18T08:31:45.000Z</time>
      </trkpt>
      <trkpt lat="42.94967" lon="1.0777">
        <ele>437.9</ele>
        <time>2022-08-18T08:31:48.000Z</time>
      </trkpt>
      <trkpt lat="42.94969" lon="1.07785">
        <ele>438.2</ele>
        <time>2022-08-18T08:31:51.000Z</time>
      </trkpt>
      <trkpt lat="42.9497" lon="1.07798">
        <ele>438.6</ele>
        <time>2022-08-18T08:31:54.000Z</time>
      </trkpt>
      <trkpt lat="42.94973" lon="1.07813">
        <ele>438.7</ele>
        <time>2022-08-18T08:31:58.000Z</time>
      </trkpt>
      <trkpt lat="42.94976" lon="1.07826">
        <ele>438.3</ele>
        <time>2022-08-18T08:32:01.000Z</time>
      </trkpt>
      <trkpt lat="42.94979" lon="1.0784">
        <ele>438.9</ele>
        <time>2022-08-18T08:32:04.000Z</time>
      </trkpt>
      <trkpt lat="42.94984" lon="1.07853">
        <ele>438.8</ele>
        <time>2022-08-18T08:32:07.000Z</time>
      </trkpt>
      <trkpt lat="42.9499" lon="1.07866">
        <ele>439.1</ele>
        <time>2022-08-18T08:32:10.000Z</time>
      </trkpt>
      <trkpt lat="42.94997" lon="1.07877">
        <ele>439.1</ele>
        <time>2022-08-18T08:32:13.000Z</time>
      </trkpt>
      <trkpt lat="42.95006" lon="1.07888">
        <ele>439.2</ele>
        <time>2022-08-18T08:32:16.000Z</time>
      </trkpt>
      <trkpt lat="42.95013" lon="1.07898">
        <ele>438.6</ele>
        <time>2022-08-18T08:32:19.000Z</time>
      </trkpt>
      <trkpt lat="42.9502" lon="1.07908">
        <ele>438.3</ele>
        <time>2022-08-18T08:32:22.000Z</time>
      </trkpt>
      <trkpt lat="42.95028" lon="1.07919">
        <ele>438.7</ele>
        <time>2022-08-18T08:32:25.000Z</time>
      </trkpt>
      <trkpt lat="42.95037" lon="1.07927">
        <ele>438.4</ele>
        <time>2022-08-18T08:32:28.000Z</time>
      </trkpt>
      <trkpt lat="42.95047" lon="1.07937">
        <ele>437.6</ele>
        <time>2022-08-18T08:32:31.000Z</time>
      </trkpt>
      <trkpt lat="42.95055" lon="1.07945">
        <ele>436.9</ele>
        <time>2022-08-18T08:32:33.000Z</time>
      </trkpt>
      <trkpt lat="42.95063" lon="1.07953">
        <ele>436.5</ele>
        <time>2022-08-18T08:32:35.000Z</time>
      </trkpt>
      <trkpt lat="42.9507" lon="1.07961">
        <ele>436.8</ele>
        <time>2022-08-18T08:32:37.000Z</time>
      </trkpt>
      <trkpt lat="42.9508" lon="1.07972">
        <ele>437.4</ele>
        <time>2022-08-18T08:32:40.000Z</time>
      </trkpt>
      <trkpt lat="42.95088" lon="1.07981">
        <ele>437.1</ele>
        <time>2022-08-18T08:32:43.000Z</time>
      </trkpt>
      <trkpt lat="42.95095" lon="1.07991">
        <ele>436.6</ele>
        <time>2022-08-18T08:32:46.000Z</time>
      </trkpt>
      <trkpt lat="42.95101" lon="1.08003">
        <ele>436.7</ele>
        <time>2022-08-18T08:32:49.000Z</time>
      </trkpt>
      <trkpt lat="42.95107" lon="1.08015">
        <ele>436.7</ele>
        <time>2022-08-18T08:32:52.000Z</time>
      </trkpt>
      <trkpt lat="42.95112" lon="1.08027">
        <ele>437</ele>
        <time>2022-08-18T08:32:55.000Z</time>
      </trkpt>
      <trkpt lat="42.95118" lon="1.08038">
        <ele>437.4</ele>
        <time>2022-08-18T08:32:58.000Z</time>
      </trkpt>
      <trkpt lat="42.95123" lon="1.08049">
        <ele>437.9</ele>
        <time>2022-08-18T08:33:01.000Z</time>
      </trkpt>
      <trkpt lat="42.95127" lon="1.08058">
        <ele>438.5</ele>
        <time>2022-08-18T08:33:08.000Z</time>
      </trkpt>
      <trkpt lat="42.95127" lon="1.08059">
        <ele>438.6</ele>
        <time>2022-08-18T08:33:21.000Z</time>
      </trkpt>
      <trkpt lat="42.95128" lon="1.08059">
        <ele>438.3</ele>
        <time>2022-08-18T08:33:25.000Z</time>
      </trkpt>
      <trkpt lat="42.95128" lon="1.08059">
        <ele>438.7</ele>
        <time>2022-08-18T08:33:32.000Z</time>
      </trkpt>
      <trkpt lat="42.95128" lon="1.08059">
        <ele>438.6</ele>
        <time>2022-08-18T08:34:03.000Z</time>
      </trkpt>
      <trkpt lat="42.95127" lon="1.08059">
        <ele>438.6</ele>
        <time>2022-08-18T08:34:05.000Z</time>
      </trkpt>
      <trkpt lat="42.95127" lon="1.08059">
        <ele>438.6</ele>
        <time>2022-08-18T08:34:06.000Z</time>
      </trkpt>
      <trkpt lat="42.95128" lon="1.08059">
        <ele>438.5</ele>
        <time>2022-08-18T08:34:08.000Z</time>
      </trkpt>
      <trkpt lat="42.95128" lon="1.08059">
        <ele>438.8</ele>
        <time>2022-08-18T08:34:13.000Z</time>
      </trkpt>
      <trkpt lat="42.95128" lon="1.08059">
        <ele>438.7</ele>
        <time>2022-08-18T08:34:24.000Z</time>
      </trkpt>
      <trkpt lat="42.95128" lon="1.08059">
        <ele>438.9</ele>
        <time>2022-08-18T08:34:30.000Z</time>
      </trkpt>
      <trkpt lat="42.95128" lon="1.08059">
        <ele>438.9</ele>
        <time>2022-08-18T08:34:44.000Z</time>
      </trkpt>
      <trkpt lat="42.95128" lon="1.08059">
        <ele>439.1</ele>
        <time>2022-08-18T08:34:59.000Z</time>
      </trkpt>
      <trkpt lat="42.95129" lon="1.08059">
        <ele>438.9</ele>
        <time>2022-08-18T08:35:01.000Z</time>
      </trkpt>
      <trkpt lat="42.95129" lon="1.08059">
        <ele>438.8</ele>
        <time>2022-08-18T08:35:02.000Z</time>
      </trkpt>
      <trkpt lat="42.95136" lon="1.08069">
        <ele>439.2</ele>
        <time>2022-08-18T08:35:10.000Z</time>
      </trkpt>
      <trkpt lat="42.95142" lon="1.08079">
        <ele>439.2</ele>
        <time>2022-08-18T08:35:15.000Z</time>
      </trkpt>
      <trkpt lat="42.95149" lon="1.08089">
        <ele>439.3</ele>
        <time>2022-08-18T08:35:19.000Z</time>
      </trkpt>
      <trkpt lat="42.95157" lon="1.08096">
        <ele>439.2</ele>
        <time>2022-08-18T08:35:22.000Z</time>
      </trkpt>
      <trkpt lat="42.95167" lon="1.08104">
        <ele>439.9</ele>
        <time>2022-08-18T08:35:25.000Z</time>
      </trkpt>
      <trkpt lat="42.95174" lon="1.08113">
        <ele>440</ele>
        <time>2022-08-18T08:35:28.000Z</time>
      </trkpt>
      <trkpt lat="42.95177" lon="1.08126">
        <ele>439.6</ele>
        <time>2022-08-18T08:35:31.000Z</time>
      </trkpt>
      <trkpt lat="42.95179" lon="1.08139">
        <ele>441</ele>
        <time>2022-08-18T08:35:34.000Z</time>
      </trkpt>
      <trkpt lat="42.95179" lon="1.08153">
        <ele>441.5</ele>
        <time>2022-08-18T08:35:38.000Z</time>
      </trkpt>
      <trkpt lat="42.95177" lon="1.08166">
        <ele>441.8</ele>
        <time>2022-08-18T08:35:42.000Z</time>
      </trkpt>
      <trkpt lat="42.95176" lon="1.08179">
        <ele>442.9</ele>
        <time>2022-08-18T08:35:46.000Z</time>
      </trkpt>
      <trkpt lat="42.95175" lon="1.08196">
        <ele>444</ele>
        <time>2022-08-18T08:35:50.000Z</time>
      </trkpt>
      <trkpt lat="42.95177" lon="1.0821">
        <ele>444.4</ele>
        <time>2022-08-18T08:35:53.000Z</time>
      </trkpt>
      <trkpt lat="42.95178" lon="1.08223">
        <ele>445.6</ele>
        <time>2022-08-18T08:35:56.000Z</time>
      </trkpt>
      <trkpt lat="42.9518" lon="1.08237">
        <ele>445.9</ele>
        <time>2022-08-18T08:35:59.000Z</time>
      </trkpt>
      <trkpt lat="42.95182" lon="1.0825">
        <ele>446.5</ele>
        <time>2022-08-18T08:36:02.000Z</time>
      </trkpt>
      <trkpt lat="42.95186" lon="1.08263">
        <ele>447.1</ele>
        <time>2022-08-18T08:36:05.000Z</time>
      </trkpt>
      <trkpt lat="42.9519" lon="1.08274">
        <ele>447.3</ele>
        <time>2022-08-18T08:36:08.000Z</time>
      </trkpt>
      <trkpt lat="42.95194" lon="1.08289">
        <ele>447.5</ele>
        <time>2022-08-18T08:36:12.000Z</time>
      </trkpt>
      <trkpt lat="42.95199" lon="1.08303">
        <ele>448</ele>
        <time>2022-08-18T08:36:16.000Z</time>
      </trkpt>
      <trkpt lat="42.95203" lon="1.08314">
        <ele>448</ele>
        <time>2022-08-18T08:36:19.000Z</time>
      </trkpt>
      <trkpt lat="42.9521" lon="1.08326">
        <ele>447.9</ele>
        <time>2022-08-18T08:36:22.000Z</time>
      </trkpt>
      <trkpt lat="42.95217" lon="1.08338">
        <ele>447.7</ele>
        <time>2022-08-18T08:36:25.000Z</time>
      </trkpt>
      <trkpt lat="42.95225" lon="1.08352">
        <ele>447.1</ele>
        <time>2022-08-18T08:36:28.000Z</time>
      </trkpt>
      <trkpt lat="42.95232" lon="1.08362">
        <ele>446.5</ele>
        <time>2022-08-18T08:36:30.000Z</time>
      </trkpt>
      <trkpt lat="42.95239" lon="1.08374">
        <ele>446.2</ele>
        <time>2022-08-18T08:36:32.000Z</time>
      </trkpt>
      <trkpt lat="42.95246" lon="1.08388">
        <ele>445.6</ele>
        <time>2022-08-18T08:36:34.000Z</time>
      </trkpt>
      <trkpt lat="42.95253" lon="1.08404">
        <ele>445.5</ele>
        <time>2022-08-18T08:36:36.000Z</time>
      </trkpt>
      <trkpt lat="42.95254" lon="1.08423">
        <ele>444.1</ele>
        <time>2022-08-18T08:36:38.000Z</time>
      </trkpt>
      <trkpt lat="42.95256" lon="1.08443">
        <ele>443.1</ele>
        <time>2022-08-18T08:36:40.000Z</time>
      </trkpt>
      <trkpt lat="42.95262" lon="1.08462">
        <ele>441.8</ele>
        <time>2022-08-18T08:36:42.000Z</time>
      </trkpt>
      <trkpt lat="42.95266" lon="1.0848">
        <ele>440.4</ele>
        <time>2022-08-18T08:36:44.000Z</time>
      </trkpt>
      <trkpt lat="42.95271" lon="1.08496">
        <ele>440.1</ele>
        <time>2022-08-18T08:36:46.000Z</time>
      </trkpt>
      <trkpt lat="42.95283" lon="1.085">
        <ele>439.7</ele>
        <time>2022-08-18T08:36:48.000Z</time>
      </trkpt>
      <trkpt lat="42.95295" lon="1.08499">
        <ele>439.3</ele>
        <time>2022-08-18T08:36:50.000Z</time>
      </trkpt>
      <trkpt lat="42.95307" lon="1.08496">
        <ele>438.9</ele>
        <time>2022-08-18T08:36:52.000Z</time>
      </trkpt>
      <trkpt lat="42.95318" lon="1.08492">
        <ele>439.6</ele>
        <time>2022-08-18T08:36:54.000Z</time>
      </trkpt>
      <trkpt lat="42.95328" lon="1.08485">
        <ele>439.6</ele>
        <time>2022-08-18T08:36:56.000Z</time>
      </trkpt>
      <trkpt lat="42.95338" lon="1.08477">
        <ele>439.3</ele>
        <time>2022-08-18T08:36:58.000Z</time>
      </trkpt>
      <trkpt lat="42.95349" lon="1.08473">
        <ele>439.5</ele>
        <time>2022-08-18T08:37:00.000Z</time>
      </trkpt>
      <trkpt lat="42.95359" lon="1.08476">
        <ele>440.5</ele>
        <time>2022-08-18T08:37:02.000Z</time>
      </trkpt>
      <trkpt lat="42.9537" lon="1.08482">
        <ele>442</ele>
        <time>2022-08-18T08:37:05.000Z</time>
      </trkpt>
      <trkpt lat="42.95379" lon="1.08486">
        <ele>442.9</ele>
        <time>2022-08-18T08:37:08.000Z</time>
      </trkpt>
      <trkpt lat="42.95388" lon="1.08493">
        <ele>443.3</ele>
        <time>2022-08-18T08:37:11.000Z</time>
      </trkpt>
      <trkpt lat="42.95397" lon="1.08499">
        <ele>443.5</ele>
        <time>2022-08-18T08:37:14.000Z</time>
      </trkpt>
      <trkpt lat="42.95408" lon="1.08506">
        <ele>443.3</ele>
        <time>2022-08-18T08:37:17.000Z</time>
      </trkpt>
      <trkpt lat="42.95417" lon="1.08512">
        <ele>444.4</ele>
        <time>2022-08-18T08:37:20.000Z</time>
      </trkpt>
      <trkpt lat="42.95425" lon="1.08519">
        <ele>444.4</ele>
        <time>2022-08-18T08:37:23.000Z</time>
      </trkpt>
      <trkpt lat="42.95436" lon="1.08528">
        <ele>444.2</ele>
        <time>2022-08-18T08:37:26.000Z</time>
      </trkpt>
      <trkpt lat="42.95445" lon="1.08537">
        <ele>443.8</ele>
        <time>2022-08-18T08:37:30.000Z</time>
      </trkpt>
      <trkpt lat="42.95455" lon="1.08548">
        <ele>442.9</ele>
        <time>2022-08-18T08:37:33.000Z</time>
      </trkpt>
      <trkpt lat="42.95462" lon="1.08557">
        <ele>442.3</ele>
        <time>2022-08-18T08:37:35.000Z</time>
      </trkpt>
      <trkpt lat="42.9547" lon="1.08568">
        <ele>441</ele>
        <time>2022-08-18T08:37:37.000Z</time>
      </trkpt>
      <trkpt lat="42.9548" lon="1.08581">
        <ele>439.7</ele>
        <time>2022-08-18T08:37:39.000Z</time>
      </trkpt>
      <trkpt lat="42.95493" lon="1.08588">
        <ele>438.8</ele>
        <time>2022-08-18T08:37:41.000Z</time>
      </trkpt>
      <trkpt lat="42.95507" lon="1.08584">
        <ele>437.2</ele>
        <time>2022-08-18T08:37:43.000Z</time>
      </trkpt>
      <trkpt lat="42.95518" lon="1.08586">
        <ele>436</ele>
        <time>2022-08-18T08:37:45.000Z</time>
      </trkpt>
      <trkpt lat="42.95529" lon="1.08596">
        <ele>435.6</ele>
        <time>2022-08-18T08:37:47.000Z</time>
      </trkpt>
      <trkpt lat="42.95539" lon="1.08608">
        <ele>434.7</ele>
        <time>2022-08-18T08:37:49.000Z</time>
      </trkpt>
      <trkpt lat="42.95549" lon="1.08621">
        <ele>434.3</ele>
        <time>2022-08-18T08:37:51.000Z</time>
      </trkpt>
      <trkpt lat="42.95558" lon="1.08634">
        <ele>433.9</ele>
        <time>2022-08-18T08:37:53.000Z</time>
      </trkpt>
      <trkpt lat="42.95569" lon="1.08645">
        <ele>433.9</ele>
        <time>2022-08-18T08:37:55.000Z</time>
      </trkpt>
      <trkpt lat="42.9558" lon="1.08654">
        <ele>433.4</ele>
        <time>2022-08-18T08:37:57.000Z</time>
      </trkpt>
      <trkpt lat="42.9559" lon="1.08664">
        <ele>433.3</ele>
        <time>2022-08-18T08:37:59.000Z</time>
      </trkpt>
      <trkpt lat="42.95598" lon="1.08675">
        <ele>433</ele>
        <time>2022-08-18T08:38:01.000Z</time>
      </trkpt>
      <trkpt lat="42.95607" lon="1.08687">
        <ele>432.9</ele>
        <time>2022-08-18T08:38:03.000Z</time>
      </trkpt>
      <trkpt lat="42.95617" lon="1.08696">
        <ele>431.6</ele>
        <time>2022-08-18T08:38:05.000Z</time>
      </trkpt>
      <trkpt lat="42.95631" lon="1.08696">
        <ele>431.3</ele>
        <time>2022-08-18T08:38:07.000Z</time>
      </trkpt>
      <trkpt lat="42.95644" lon="1.08686">
        <ele>431.3</ele>
        <time>2022-08-18T08:38:09.000Z</time>
      </trkpt>
      <trkpt lat="42.95654" lon="1.08673">
        <ele>430.7</ele>
        <time>2022-08-18T08:38:11.000Z</time>
      </trkpt>
      <trkpt lat="42.95664" lon="1.0866">
        <ele>430.6</ele>
        <time>2022-08-18T08:38:13.000Z</time>
      </trkpt>
      <trkpt lat="42.95673" lon="1.08648">
        <ele>430.5</ele>
        <time>2022-08-18T08:38:15.000Z</time>
      </trkpt>
      <trkpt lat="42.95681" lon="1.08637">
        <ele>430.3</ele>
        <time>2022-08-18T08:38:17.000Z</time>
      </trkpt>
      <trkpt lat="42.95689" lon="1.08627">
        <ele>429.9</ele>
        <time>2022-08-18T08:38:19.000Z</time>
      </trkpt>
      <trkpt lat="42.95696" lon="1.08617">
        <ele>429.6</ele>
        <time>2022-08-18T08:38:21.000Z</time>
      </trkpt>
      <trkpt lat="42.95703" lon="1.08608">
        <ele>429.5</ele>
        <time>2022-08-18T08:38:23.000Z</time>
      </trkpt>
      <trkpt lat="42.95711" lon="1.086">
        <ele>429.3</ele>
        <time>2022-08-18T08:38:25.000Z</time>
      </trkpt>
      <trkpt lat="42.95719" lon="1.08597">
        <ele>429.7</ele>
        <time>2022-08-18T08:38:27.000Z</time>
      </trkpt>
      <trkpt lat="42.95728" lon="1.08599">
        <ele>429.1</ele>
        <time>2022-08-18T08:38:29.000Z</time>
      </trkpt>
      <trkpt lat="42.9574" lon="1.08608">
        <ele>429.2</ele>
        <time>2022-08-18T08:38:32.000Z</time>
      </trkpt>
      <trkpt lat="42.9575" lon="1.08617">
        <ele>428.4</ele>
        <time>2022-08-18T08:38:35.000Z</time>
      </trkpt>
      <trkpt lat="42.95759" lon="1.08626">
        <ele>428.3</ele>
        <time>2022-08-18T08:38:38.000Z</time>
      </trkpt>
      <trkpt lat="42.95768" lon="1.08633">
        <ele>428.5</ele>
        <time>2022-08-18T08:38:41.000Z</time>
      </trkpt>
      <trkpt lat="42.95776" lon="1.0864">
        <ele>428.5</ele>
        <time>2022-08-18T08:38:44.000Z</time>
      </trkpt>
      <trkpt lat="42.95785" lon="1.08648">
        <ele>428.9</ele>
        <time>2022-08-18T08:38:47.000Z</time>
      </trkpt>
      <trkpt lat="42.95795" lon="1.08658">
        <ele>428.6</ele>
        <time>2022-08-18T08:38:50.000Z</time>
      </trkpt>
      <trkpt lat="42.95803" lon="1.08665">
        <ele>428.7</ele>
        <time>2022-08-18T08:38:52.000Z</time>
      </trkpt>
      <trkpt lat="42.9581" lon="1.08673">
        <ele>428.8</ele>
        <time>2022-08-18T08:38:54.000Z</time>
      </trkpt>
      <trkpt lat="42.95818" lon="1.0868">
        <ele>428.8</ele>
        <time>2022-08-18T08:38:56.000Z</time>
      </trkpt>
      <trkpt lat="42.95827" lon="1.08691">
        <ele>428.3</ele>
        <time>2022-08-18T08:38:59.000Z</time>
      </trkpt>
      <trkpt lat="42.95835" lon="1.087">
        <ele>428.4</ele>
        <time>2022-08-18T08:39:02.000Z</time>
      </trkpt>
      <trkpt lat="42.9584" lon="1.0871">
        <ele>428</ele>
        <time>2022-08-18T08:39:05.000Z</time>
      </trkpt>
      <trkpt lat="42.95846" lon="1.08722">
        <ele>428.6</ele>
        <time>2022-08-18T08:39:08.000Z</time>
      </trkpt>
      <trkpt lat="42.95852" lon="1.08734">
        <ele>428.2</ele>
        <time>2022-08-18T08:39:11.000Z</time>
      </trkpt>
      <trkpt lat="42.95857" lon="1.08745">
        <ele>428.3</ele>
        <time>2022-08-18T08:39:14.000Z</time>
      </trkpt>
      <trkpt lat="42.95864" lon="1.08756">
        <ele>428.5</ele>
        <time>2022-08-18T08:39:18.000Z</time>
      </trkpt>
      <trkpt lat="42.95863" lon="1.0877">
        <ele>428</ele>
        <time>2022-08-18T08:39:22.000Z</time>
      </trkpt>
      <trkpt lat="42.9586" lon="1.08785">
        <ele>428.1</ele>
        <time>2022-08-18T08:39:26.000Z</time>
      </trkpt>
      <trkpt lat="42.95859" lon="1.08799">
        <ele>428</ele>
        <time>2022-08-18T08:39:29.000Z</time>
      </trkpt>
      <trkpt lat="42.95858" lon="1.08815">
        <ele>428.1</ele>
        <time>2022-08-18T08:39:32.000Z</time>
      </trkpt>
      <trkpt lat="42.95857" lon="1.08832">
        <ele>427.7</ele>
        <time>2022-08-18T08:39:35.000Z</time>
      </trkpt>
      <trkpt lat="42.95856" lon="1.08845">
        <ele>427.3</ele>
        <time>2022-08-18T08:39:37.000Z</time>
      </trkpt>
      <trkpt lat="42.95854" lon="1.08863">
        <ele>427.4</ele>
        <time>2022-08-18T08:39:40.000Z</time>
      </trkpt>
      <trkpt lat="42.95853" lon="1.08876">
        <ele>427.1</ele>
        <time>2022-08-18T08:39:42.000Z</time>
      </trkpt>
      <trkpt lat="42.95852" lon="1.08889">
        <ele>427.5</ele>
        <time>2022-08-18T08:39:44.000Z</time>
      </trkpt>
      <trkpt lat="42.95851" lon="1.08901">
        <ele>427.6</ele>
        <time>2022-08-18T08:39:46.000Z</time>
      </trkpt>
      <trkpt lat="42.9585" lon="1.08918">
        <ele>427.4</ele>
        <time>2022-08-18T08:39:49.000Z</time>
      </trkpt>
      <trkpt lat="42.9585" lon="1.08935">
        <ele>427.2</ele>
        <time>2022-08-18T08:39:52.000Z</time>
      </trkpt>
      <trkpt lat="42.95853" lon="1.08951">
        <ele>427.5</ele>
        <time>2022-08-18T08:39:55.000Z</time>
      </trkpt>
      <trkpt lat="42.95858" lon="1.08966">
        <ele>427.5</ele>
        <time>2022-08-18T08:39:58.000Z</time>
      </trkpt>
      <trkpt lat="42.95863" lon="1.0898">
        <ele>427.5</ele>
        <time>2022-08-18T08:40:01.000Z</time>
      </trkpt>
      <trkpt lat="42.95867" lon="1.08994">
        <ele>428</ele>
        <time>2022-08-18T08:40:04.000Z</time>
      </trkpt>
      <trkpt lat="42.95872" lon="1.09009">
        <ele>428.2</ele>
        <time>2022-08-18T08:40:07.000Z</time>
      </trkpt>
      <trkpt lat="42.95877" lon="1.09023">
        <ele>427.8</ele>
        <time>2022-08-18T08:40:10.000Z</time>
      </trkpt>
      <trkpt lat="42.95883" lon="1.09038">
        <ele>428.2</ele>
        <time>2022-08-18T08:40:13.000Z</time>
      </trkpt>
      <trkpt lat="42.95887" lon="1.09053">
        <ele>428.6</ele>
        <time>2022-08-18T08:40:16.000Z</time>
      </trkpt>
      <trkpt lat="42.95891" lon="1.09067">
        <ele>429.5</ele>
        <time>2022-08-18T08:40:19.000Z</time>
      </trkpt>
      <trkpt lat="42.95894" lon="1.09082">
        <ele>430.5</ele>
        <time>2022-08-18T08:40:22.000Z</time>
      </trkpt>
      <trkpt lat="42.95898" lon="1.09096">
        <ele>431.7</ele>
        <time>2022-08-18T08:40:25.000Z</time>
      </trkpt>
      <trkpt lat="42.95901" lon="1.09108">
        <ele>432.6</ele>
        <time>2022-08-18T08:40:28.000Z</time>
      </trkpt>
      <trkpt lat="42.95906" lon="1.09119">
        <ele>432.4</ele>
        <time>2022-08-18T08:40:31.000Z</time>
      </trkpt>
      <trkpt lat="42.95911" lon="1.09131">
        <ele>431.9</ele>
        <time>2022-08-18T08:40:34.000Z</time>
      </trkpt>
      <trkpt lat="42.95916" lon="1.09145">
        <ele>431.7</ele>
        <time>2022-08-18T08:40:37.000Z</time>
      </trkpt>
      <trkpt lat="42.95921" lon="1.09156">
        <ele>431.2</ele>
        <time>2022-08-18T08:40:39.000Z</time>
      </trkpt>
      <trkpt lat="42.95926" lon="1.09168">
        <ele>430.7</ele>
        <time>2022-08-18T08:40:41.000Z</time>
      </trkpt>
      <trkpt lat="42.95931" lon="1.0918">
        <ele>429.6</ele>
        <time>2022-08-18T08:40:43.000Z</time>
      </trkpt>
      <trkpt lat="42.95936" lon="1.09191">
        <ele>429.4</ele>
        <time>2022-08-18T08:40:45.000Z</time>
      </trkpt>
      <trkpt lat="42.95946" lon="1.092">
        <ele>428</ele>
        <time>2022-08-18T08:40:48.000Z</time>
      </trkpt>
      <trkpt lat="42.95956" lon="1.0919">
        <ele>427.1</ele>
        <time>2022-08-18T08:40:51.000Z</time>
      </trkpt>
      <trkpt lat="42.95961" lon="1.0918">
        <ele>426.1</ele>
        <time>2022-08-18T08:40:53.000Z</time>
      </trkpt>
      <trkpt lat="42.95971" lon="1.0917">
        <ele>426</ele>
        <time>2022-08-18T08:40:55.000Z</time>
      </trkpt>
      <trkpt lat="42.95984" lon="1.09161">
        <ele>424.7</ele>
        <time>2022-08-18T08:40:57.000Z</time>
      </trkpt>
      <trkpt lat="42.95995" lon="1.09153">
        <ele>424.4</ele>
        <time>2022-08-18T08:40:59.000Z</time>
      </trkpt>
      <trkpt lat="42.96006" lon="1.09145">
        <ele>424</ele>
        <time>2022-08-18T08:41:01.000Z</time>
      </trkpt>
      <trkpt lat="42.96017" lon="1.09137">
        <ele>424.1</ele>
        <time>2022-08-18T08:41:03.000Z</time>
      </trkpt>
      <trkpt lat="42.96028" lon="1.09129">
        <ele>423.8</ele>
        <time>2022-08-18T08:41:05.000Z</time>
      </trkpt>
      <trkpt lat="42.96038" lon="1.09123">
        <ele>423.4</ele>
        <time>2022-08-18T08:41:07.000Z</time>
      </trkpt>
      <trkpt lat="42.9605" lon="1.09119">
        <ele>422.8</ele>
        <time>2022-08-18T08:41:09.000Z</time>
      </trkpt>
      <trkpt lat="42.96063" lon="1.09116">
        <ele>422.5</ele>
        <time>2022-08-18T08:41:11.000Z</time>
      </trkpt>
      <trkpt lat="42.9607" lon="1.09106">
        <ele>422.7</ele>
        <time>2022-08-18T08:41:13.000Z</time>
      </trkpt>
      <trkpt lat="42.9607" lon="1.09093">
        <ele>422.8</ele>
        <time>2022-08-18T08:41:15.000Z</time>
      </trkpt>
      <trkpt lat="42.96069" lon="1.09077">
        <ele>423.3</ele>
        <time>2022-08-18T08:41:18.000Z</time>
      </trkpt>
      <trkpt lat="42.96068" lon="1.09064">
        <ele>423.8</ele>
        <time>2022-08-18T08:41:23.000Z</time>
      </trkpt>
      <trkpt lat="42.96063" lon="1.09077">
        <ele>423.6</ele>
        <time>2022-08-18T08:41:29.000Z</time>
      </trkpt>
      <trkpt lat="42.96066" lon="1.09092">
        <ele>423.1</ele>
        <time>2022-08-18T08:41:32.000Z</time>
      </trkpt>
      <trkpt lat="42.96068" lon="1.09106">
        <ele>422.9</ele>
        <time>2022-08-18T08:41:34.000Z</time>
      </trkpt>
      <trkpt lat="42.9607" lon="1.09121">
        <ele>422.5</ele>
        <time>2022-08-18T08:41:36.000Z</time>
      </trkpt>
      <trkpt lat="42.9607" lon="1.09134">
        <ele>422.3</ele>
        <time>2022-08-18T08:41:38.000Z</time>
      </trkpt>
      <trkpt lat="42.96066" lon="1.09147">
        <ele>422.2</ele>
        <time>2022-08-18T08:41:40.000Z</time>
      </trkpt>
      <trkpt lat="42.96062" lon="1.09158">
        <ele>421.9</ele>
        <time>2022-08-18T08:41:42.000Z</time>
      </trkpt>
      <trkpt lat="42.96063" lon="1.09171">
        <ele>421.3</ele>
        <time>2022-08-18T08:41:44.000Z</time>
      </trkpt>
      <trkpt lat="42.96065" lon="1.09185">
        <ele>421.2</ele>
        <time>2022-08-18T08:41:46.000Z</time>
      </trkpt>
      <trkpt lat="42.96066" lon="1.092">
        <ele>420.9</ele>
        <time>2022-08-18T08:41:48.000Z</time>
      </trkpt>
      <trkpt lat="42.96067" lon="1.09213">
        <ele>420.9</ele>
        <time>2022-08-18T08:41:50.000Z</time>
      </trkpt>
      <trkpt lat="42.96068" lon="1.09225">
        <ele>420.5</ele>
        <time>2022-08-18T08:41:52.000Z</time>
      </trkpt>
      <trkpt lat="42.96068" lon="1.09238">
        <ele>419.7</ele>
        <time>2022-08-18T08:41:54.000Z</time>
      </trkpt>
      <trkpt lat="42.96069" lon="1.0925">
        <ele>419.6</ele>
        <time>2022-08-18T08:41:56.000Z</time>
      </trkpt>
      <trkpt lat="42.9607" lon="1.09263">
        <ele>418.9</ele>
        <time>2022-08-18T08:41:58.000Z</time>
      </trkpt>
      <trkpt lat="42.96071" lon="1.09281">
        <ele>418.7</ele>
        <time>2022-08-18T08:42:01.000Z</time>
      </trkpt>
      <trkpt lat="42.96072" lon="1.09294">
        <ele>418.5</ele>
        <time>2022-08-18T08:42:03.000Z</time>
      </trkpt>
      <trkpt lat="42.96073" lon="1.09308">
        <ele>418.8</ele>
        <time>2022-08-18T08:42:05.000Z</time>
      </trkpt>
      <trkpt lat="42.96074" lon="1.09322">
        <ele>418.4</ele>
        <time>2022-08-18T08:42:07.000Z</time>
      </trkpt>
      <trkpt lat="42.96076" lon="1.09339">
        <ele>418.6</ele>
        <time>2022-08-18T08:42:10.000Z</time>
      </trkpt>
      <trkpt lat="42.96077" lon="1.09356">
        <ele>418.4</ele>
        <time>2022-08-18T08:42:13.000Z</time>
      </trkpt>
      <trkpt lat="42.96078" lon="1.09373">
        <ele>418.5</ele>
        <time>2022-08-18T08:42:16.000Z</time>
      </trkpt>
      <trkpt lat="42.96079" lon="1.09391">
        <ele>418.1</ele>
        <time>2022-08-18T08:42:19.000Z</time>
      </trkpt>
      <trkpt lat="42.96078" lon="1.09408">
        <ele>418.6</ele>
        <time>2022-08-18T08:42:22.000Z</time>
      </trkpt>
      <trkpt lat="42.96076" lon="1.09426">
        <ele>418.5</ele>
        <time>2022-08-18T08:42:25.000Z</time>
      </trkpt>
      <trkpt lat="42.96073" lon="1.09442">
        <ele>419.1</ele>
        <time>2022-08-18T08:42:28.000Z</time>
      </trkpt>
      <trkpt lat="42.96072" lon="1.09456">
        <ele>419.9</ele>
        <time>2022-08-18T08:42:31.000Z</time>
      </trkpt>
      <trkpt lat="42.96071" lon="1.09471">
        <ele>420</ele>
        <time>2022-08-18T08:42:34.000Z</time>
      </trkpt>
      <trkpt lat="42.96071" lon="1.09487">
        <ele>419.8</ele>
        <time>2022-08-18T08:42:37.000Z</time>
      </trkpt>
      <trkpt lat="42.96072" lon="1.09504">
        <ele>419.6</ele>
        <time>2022-08-18T08:42:40.000Z</time>
      </trkpt>
      <trkpt lat="42.96073" lon="1.0952">
        <ele>420.1</ele>
        <time>2022-08-18T08:42:43.000Z</time>
      </trkpt>
      <trkpt lat="42.96075" lon="1.09537">
        <ele>420.1</ele>
        <time>2022-08-18T08:42:46.000Z</time>
      </trkpt>
      <trkpt lat="42.96076" lon="1.09552">
        <ele>420.6</ele>
        <time>2022-08-18T08:42:49.000Z</time>
      </trkpt>
      <trkpt lat="42.96079" lon="1.09565">
        <ele>420</ele>
        <time>2022-08-18T08:42:52.000Z</time>
      </trkpt>
      <trkpt lat="42.96083" lon="1.09582">
        <ele>419.9</ele>
        <time>2022-08-18T08:42:55.000Z</time>
      </trkpt>
      <trkpt lat="42.96086" lon="1.09593">
        <ele>419.9</ele>
        <time>2022-08-18T08:42:57.000Z</time>
      </trkpt>
      <trkpt lat="42.9609" lon="1.09604">
        <ele>419.4</ele>
        <time>2022-08-18T08:42:59.000Z</time>
      </trkpt>
      <trkpt lat="42.96095" lon="1.09621">
        <ele>419.6</ele>
        <time>2022-08-18T08:43:02.000Z</time>
      </trkpt>
      <trkpt lat="42.96101" lon="1.09637">
        <ele>419.1</ele>
        <time>2022-08-18T08:43:05.000Z</time>
      </trkpt>
      <trkpt lat="42.96106" lon="1.09651">
        <ele>418.2</ele>
        <time>2022-08-18T08:43:08.000Z</time>
      </trkpt>
      <trkpt lat="42.96112" lon="1.09665">
        <ele>418.8</ele>
        <time>2022-08-18T08:43:11.000Z</time>
      </trkpt>
      <trkpt lat="42.96118" lon="1.09679">
        <ele>418.5</ele>
        <time>2022-08-18T08:43:14.000Z</time>
      </trkpt>
      <trkpt lat="42.96124" lon="1.09693">
        <ele>418.1</ele>
        <time>2022-08-18T08:43:17.000Z</time>
      </trkpt>
      <trkpt lat="42.9613" lon="1.09709">
        <ele>417.2</ele>
        <time>2022-08-18T08:43:20.000Z</time>
      </trkpt>
      <trkpt lat="42.96135" lon="1.09723">
        <ele>417.9</ele>
        <time>2022-08-18T08:43:23.000Z</time>
      </trkpt>
      <trkpt lat="42.96141" lon="1.09737">
        <ele>418.2</ele>
        <time>2022-08-18T08:43:26.000Z</time>
      </trkpt>
      <trkpt lat="42.96147" lon="1.0975">
        <ele>418.1</ele>
        <time>2022-08-18T08:43:29.000Z</time>
      </trkpt>
      <trkpt lat="42.96153" lon="1.09761">
        <ele>418.3</ele>
        <time>2022-08-18T08:43:32.000Z</time>
      </trkpt>
      <trkpt lat="42.96163" lon="1.09773">
        <ele>416.6</ele>
        <time>2022-08-18T08:43:35.000Z</time>
      </trkpt>
      <trkpt lat="42.96171" lon="1.09783">
        <ele>417.6</ele>
        <time>2022-08-18T08:43:37.000Z</time>
      </trkpt>
      <trkpt lat="42.96178" lon="1.09793">
        <ele>416.6</ele>
        <time>2022-08-18T08:43:39.000Z</time>
      </trkpt>
      <trkpt lat="42.96186" lon="1.09805">
        <ele>416.6</ele>
        <time>2022-08-18T08:43:42.000Z</time>
      </trkpt>
      <trkpt lat="42.96193" lon="1.09817">
        <ele>416.8</ele>
        <time>2022-08-18T08:43:45.000Z</time>
      </trkpt>
      <trkpt lat="42.962" lon="1.09829">
        <ele>416.9</ele>
        <time>2022-08-18T08:43:48.000Z</time>
      </trkpt>
      <trkpt lat="42.96208" lon="1.0984">
        <ele>416.8</ele>
        <time>2022-08-18T08:43:51.000Z</time>
      </trkpt>
      <trkpt lat="42.96214" lon="1.09849">
        <ele>416.5</ele>
        <time>2022-08-18T08:43:54.000Z</time>
      </trkpt>
      <trkpt lat="42.96221" lon="1.09858">
        <ele>417</ele>
        <time>2022-08-18T08:43:57.000Z</time>
      </trkpt>
      <trkpt lat="42.96229" lon="1.0987">
        <ele>416.8</ele>
        <time>2022-08-18T08:44:00.000Z</time>
      </trkpt>
      <trkpt lat="42.96238" lon="1.09881">
        <ele>416.4</ele>
        <time>2022-08-18T08:44:03.000Z</time>
      </trkpt>
      <trkpt lat="42.96244" lon="1.0989">
        <ele>415.9</ele>
        <time>2022-08-18T08:44:05.000Z</time>
      </trkpt>
      <trkpt lat="42.96251" lon="1.09904">
        <ele>415.7</ele>
        <time>2022-08-18T08:44:08.000Z</time>
      </trkpt>
      <trkpt lat="42.96259" lon="1.09918">
        <ele>415.9</ele>
        <time>2022-08-18T08:44:11.000Z</time>
      </trkpt>
      <trkpt lat="42.96266" lon="1.0993">
        <ele>415.3</ele>
        <time>2022-08-18T08:44:14.000Z</time>
      </trkpt>
      <trkpt lat="42.96275" lon="1.09941">
        <ele>415.8</ele>
        <time>2022-08-18T08:44:17.000Z</time>
      </trkpt>
      <trkpt lat="42.96283" lon="1.09952">
        <ele>415.7</ele>
        <time>2022-08-18T08:44:20.000Z</time>
      </trkpt>
      <trkpt lat="42.96291" lon="1.09964">
        <ele>415.6</ele>
        <time>2022-08-18T08:44:23.000Z</time>
      </trkpt>
      <trkpt lat="42.96293" lon="1.09979">
        <ele>415.1</ele>
        <time>2022-08-18T08:44:26.000Z</time>
      </trkpt>
      <trkpt lat="42.96295" lon="1.09995">
        <ele>415.3</ele>
        <time>2022-08-18T08:44:29.000Z</time>
      </trkpt>
      <trkpt lat="42.96295" lon="1.10007">
        <ele>415.1</ele>
        <time>2022-08-18T08:44:31.000Z</time>
      </trkpt>
      <trkpt lat="42.96295" lon="1.10024">
        <ele>414.6</ele>
        <time>2022-08-18T08:44:34.000Z</time>
      </trkpt>
      <trkpt lat="42.96295" lon="1.1004">
        <ele>414.9</ele>
        <time>2022-08-18T08:44:37.000Z</time>
      </trkpt>
      <trkpt lat="42.96296" lon="1.10057">
        <ele>414.5</ele>
        <time>2022-08-18T08:44:40.000Z</time>
      </trkpt>
      <trkpt lat="42.96295" lon="1.10071">
        <ele>414</ele>
        <time>2022-08-18T08:44:44.000Z</time>
      </trkpt>
      <trkpt lat="42.96295" lon="1.10085">
        <ele>413.7</ele>
        <time>2022-08-18T08:44:48.000Z</time>
      </trkpt>
      <trkpt lat="42.96287" lon="1.10095">
        <ele>414.3</ele>
        <time>2022-08-18T08:44:52.000Z</time>
      </trkpt>
      <trkpt lat="42.96286" lon="1.10097">
        <ele>414.9</ele>
        <time>2022-08-18T08:44:55.000Z</time>
      </trkpt>
      <trkpt lat="42.96286" lon="1.10098">
        <ele>414.8</ele>
        <time>2022-08-18T08:44:56.000Z</time>
      </trkpt>
      <trkpt lat="42.96289" lon="1.1011">
        <ele>414.6</ele>
        <time>2022-08-18T08:45:01.000Z</time>
      </trkpt>
      <trkpt lat="42.96291" lon="1.10124">
        <ele>413.7</ele>
        <time>2022-08-18T08:45:07.000Z</time>
      </trkpt>
      <trkpt lat="42.9629" lon="1.10124">
        <ele>413.1</ele>
        <time>2022-08-18T08:45:13.000Z</time>
      </trkpt>
      <trkpt lat="42.9629" lon="1.10125">
        <ele>413.3</ele>
        <time>2022-08-18T08:45:16.000Z</time>
      </trkpt>
      <trkpt lat="42.96293" lon="1.10128">
        <ele>413.3</ele>
        <time>2022-08-18T08:45:22.000Z</time>
      </trkpt>
      <trkpt lat="42.96293" lon="1.10128">
        <ele>413.1</ele>
        <time>2022-08-18T08:45:25.000Z</time>
      </trkpt>
      <trkpt lat="42.96294" lon="1.10129">
        <ele>413</ele>
        <time>2022-08-18T08:45:28.000Z</time>
      </trkpt>
      <trkpt lat="42.96294" lon="1.10129">
        <ele>413.1</ele>
        <time>2022-08-18T08:45:30.000Z</time>
      </trkpt>
      <trkpt lat="42.96302" lon="1.10138">
        <ele>413.4</ele>
        <time>2022-08-18T08:45:38.000Z</time>
      </trkpt>
      <trkpt lat="42.96309" lon="1.10146">
        <ele>413.5</ele>
        <time>2022-08-18T08:45:45.000Z</time>
      </trkpt>
      <trkpt lat="42.96312" lon="1.10151">
        <ele>413.2</ele>
        <time>2022-08-18T08:45:53.000Z</time>
      </trkpt>
      <trkpt lat="42.96312" lon="1.10152">
        <ele>413.5</ele>
        <time>2022-08-18T08:45:55.000Z</time>
      </trkpt>
      <trkpt lat="42.96321" lon="1.10157">
        <ele>413.7</ele>
        <time>2022-08-18T08:46:06.000Z</time>
      </trkpt>
      <trkpt lat="42.96328" lon="1.10166">
        <ele>413.8</ele>
        <time>2022-08-18T08:46:10.000Z</time>
      </trkpt>
      <trkpt lat="42.96335" lon="1.10175">
        <ele>414</ele>
        <time>2022-08-18T08:46:13.000Z</time>
      </trkpt>
      <trkpt lat="42.96341" lon="1.10187">
        <ele>414.9</ele>
        <time>2022-08-18T08:46:17.000Z</time>
      </trkpt>
      <trkpt lat="42.96349" lon="1.10199">
        <ele>415</ele>
        <time>2022-08-18T08:46:21.000Z</time>
      </trkpt>
      <trkpt lat="42.96355" lon="1.10209">
        <ele>415.9</ele>
        <time>2022-08-18T08:46:25.000Z</time>
      </trkpt>
      <trkpt lat="42.96356" lon="1.10221">
        <ele>418.6</ele>
        <time>2022-08-18T08:46:29.000Z</time>
      </trkpt>
      <trkpt lat="42.96356" lon="1.10234">
        <ele>421.2</ele>
        <time>2022-08-18T08:46:38.000Z</time>
      </trkpt>
      <trkpt lat="42.96365" lon="1.10229">
        <ele>418.4</ele>
        <time>2022-08-18T08:46:44.000Z</time>
      </trkpt>
      <trkpt lat="42.96372" lon="1.10237">
        <ele>417.7</ele>
        <time>2022-08-18T08:46:50.000Z</time>
      </trkpt>
      <trkpt lat="42.9638" lon="1.10245">
        <ele>418</ele>
        <time>2022-08-18T08:46:55.000Z</time>
      </trkpt>
      <trkpt lat="42.96388" lon="1.10253">
        <ele>415.9</ele>
        <time>2022-08-18T08:46:59.000Z</time>
      </trkpt>
      <trkpt lat="42.96396" lon="1.10259">
        <ele>415</ele>
        <time>2022-08-18T08:47:02.000Z</time>
      </trkpt>
      <trkpt lat="42.96406" lon="1.10268">
        <ele>413.3</ele>
        <time>2022-08-18T08:47:04.000Z</time>
      </trkpt>
      <trkpt lat="42.96412" lon="1.10278">
        <ele>412.9</ele>
        <time>2022-08-18T08:47:06.000Z</time>
      </trkpt>
      <trkpt lat="42.96417" lon="1.1029">
        <ele>412.9</ele>
        <time>2022-08-18T08:47:09.000Z</time>
      </trkpt>
      <trkpt lat="42.96422" lon="1.10301">
        <ele>412.7</ele>
        <time>2022-08-18T08:47:14.000Z</time>
      </trkpt>
      <trkpt lat="42.96426" lon="1.10313">
        <ele>413.2</ele>
        <time>2022-08-18T08:47:18.000Z</time>
      </trkpt>
      <trkpt lat="42.96429" lon="1.10326">
        <ele>413.8</ele>
        <time>2022-08-18T08:47:23.000Z</time>
      </trkpt>
      <trkpt lat="42.96431" lon="1.10338">
        <ele>413.7</ele>
        <time>2022-08-18T08:47:32.000Z</time>
      </trkpt>
      <trkpt lat="42.96431" lon="1.10338">
        <ele>413.9</ele>
        <time>2022-08-18T08:47:34.000Z</time>
      </trkpt>
      <trkpt lat="42.96431" lon="1.10339">
        <ele>413.7</ele>
        <time>2022-08-18T08:47:47.000Z</time>
      </trkpt>
      <trkpt lat="42.96433" lon="1.10353">
        <ele>414.8</ele>
        <time>2022-08-18T08:47:54.000Z</time>
      </trkpt>
      <trkpt lat="42.96437" lon="1.10365">
        <ele>415</ele>
        <time>2022-08-18T08:47:59.000Z</time>
      </trkpt>
      <trkpt lat="42.9644" lon="1.10379">
        <ele>415.5</ele>
        <time>2022-08-18T08:48:04.000Z</time>
      </trkpt>
      <trkpt lat="42.96444" lon="1.10392">
        <ele>415.4</ele>
        <time>2022-08-18T08:48:08.000Z</time>
      </trkpt>
      <trkpt lat="42.96448" lon="1.10404">
        <ele>415.6</ele>
        <time>2022-08-18T08:48:12.000Z</time>
      </trkpt>
      <trkpt lat="42.96454" lon="1.10418">
        <ele>415.7</ele>
        <time>2022-08-18T08:48:16.000Z</time>
      </trkpt>
      <trkpt lat="42.96459" lon="1.10429">
        <ele>415.7</ele>
        <time>2022-08-18T08:48:20.000Z</time>
      </trkpt>
      <trkpt lat="42.96463" lon="1.10443">
        <ele>416.1</ele>
        <time>2022-08-18T08:48:25.000Z</time>
      </trkpt>
      <trkpt lat="42.96466" lon="1.10456">
        <ele>416.7</ele>
        <time>2022-08-18T08:48:31.000Z</time>
      </trkpt>
      <trkpt lat="42.96471" lon="1.10469">
        <ele>417.3</ele>
        <time>2022-08-18T08:48:37.000Z</time>
      </trkpt>
      <trkpt lat="42.96474" lon="1.10482">
        <ele>417.5</ele>
        <time>2022-08-18T08:48:44.000Z</time>
      </trkpt>
      <trkpt lat="42.96478" lon="1.10494">
        <ele>417</ele>
        <time>2022-08-18T08:48:50.000Z</time>
      </trkpt>
      <trkpt lat="42.96483" lon="1.10506">
        <ele>416.8</ele>
        <time>2022-08-18T08:48:55.000Z</time>
      </trkpt>
      <trkpt lat="42.96488" lon="1.10518">
        <ele>416.3</ele>
        <time>2022-08-18T08:48:58.000Z</time>
      </trkpt>
      <trkpt lat="42.96492" lon="1.10529">
        <ele>416.1</ele>
        <time>2022-08-18T08:49:00.000Z</time>
      </trkpt>
      <trkpt lat="42.96496" lon="1.10543">
        <ele>415.2</ele>
        <time>2022-08-18T08:49:02.000Z</time>
      </trkpt>
      <trkpt lat="42.965" lon="1.10558">
        <ele>414</ele>
        <time>2022-08-18T08:49:04.000Z</time>
      </trkpt>
      <trkpt lat="42.96504" lon="1.10574">
        <ele>413.8</ele>
        <time>2022-08-18T08:49:06.000Z</time>
      </trkpt>
      <trkpt lat="42.96509" lon="1.10588">
        <ele>413.5</ele>
        <time>2022-08-18T08:49:08.000Z</time>
      </trkpt>
      <trkpt lat="42.96513" lon="1.10602">
        <ele>413.7</ele>
        <time>2022-08-18T08:49:10.000Z</time>
      </trkpt>
      <trkpt lat="42.96517" lon="1.10616">
        <ele>413.1</ele>
        <time>2022-08-18T08:49:12.000Z</time>
      </trkpt>
      <trkpt lat="42.96521" lon="1.10628">
        <ele>413</ele>
        <time>2022-08-18T08:49:14.000Z</time>
      </trkpt>
      <trkpt lat="42.96525" lon="1.1064">
        <ele>412.9</ele>
        <time>2022-08-18T08:49:16.000Z</time>
      </trkpt>
      <trkpt lat="42.9653" lon="1.10651">
        <ele>412.7</ele>
        <time>2022-08-18T08:49:18.000Z</time>
      </trkpt>
      <trkpt lat="42.96534" lon="1.10662">
        <ele>412.6</ele>
        <time>2022-08-18T08:49:20.000Z</time>
      </trkpt>
      <trkpt lat="42.96539" lon="1.10677">
        <ele>412.7</ele>
        <time>2022-08-18T08:49:23.000Z</time>
      </trkpt>
      <trkpt lat="42.96542" lon="1.10689">
        <ele>412.8</ele>
        <time>2022-08-18T08:49:26.000Z</time>
      </trkpt>
      <trkpt lat="42.96543" lon="1.10702">
        <ele>413.1</ele>
        <time>2022-08-18T08:49:29.000Z</time>
      </trkpt>
      <trkpt lat="42.96545" lon="1.10715">
        <ele>413.6</ele>
        <time>2022-08-18T08:49:32.000Z</time>
      </trkpt>
      <trkpt lat="42.96549" lon="1.10726">
        <ele>413.8</ele>
        <time>2022-08-18T08:49:35.000Z</time>
      </trkpt>
      <trkpt lat="42.96553" lon="1.10738">
        <ele>413.9</ele>
        <time>2022-08-18T08:49:38.000Z</time>
      </trkpt>
      <trkpt lat="42.96557" lon="1.10748">
        <ele>414.2</ele>
        <time>2022-08-18T08:49:41.000Z</time>
      </trkpt>
      <trkpt lat="42.9656" lon="1.10762">
        <ele>414.9</ele>
        <time>2022-08-18T08:49:45.000Z</time>
      </trkpt>
      <trkpt lat="42.96557" lon="1.10776">
        <ele>415.8</ele>
        <time>2022-08-18T08:49:49.000Z</time>
      </trkpt>
      <trkpt lat="42.96552" lon="1.10788">
        <ele>416.9</ele>
        <time>2022-08-18T08:49:53.000Z</time>
      </trkpt>
      <trkpt lat="42.96547" lon="1.10802">
        <ele>417.9</ele>
        <time>2022-08-18T08:49:57.000Z</time>
      </trkpt>
      <trkpt lat="42.96545" lon="1.10816">
        <ele>419.2</ele>
        <time>2022-08-18T08:50:01.000Z</time>
      </trkpt>
      <trkpt lat="42.9655" lon="1.10829">
        <ele>419.8</ele>
        <time>2022-08-18T08:50:05.000Z</time>
      </trkpt>
      <trkpt lat="42.96558" lon="1.10839">
        <ele>419.7</ele>
        <time>2022-08-18T08:50:09.000Z</time>
      </trkpt>
      <trkpt lat="42.96565" lon="1.10849">
        <ele>420.5</ele>
        <time>2022-08-18T08:50:13.000Z</time>
      </trkpt>
      <trkpt lat="42.96573" lon="1.10859">
        <ele>420.3</ele>
        <time>2022-08-18T08:50:17.000Z</time>
      </trkpt>
      <trkpt lat="42.96581" lon="1.1087">
        <ele>420.5</ele>
        <time>2022-08-18T08:50:21.000Z</time>
      </trkpt>
      <trkpt lat="42.9659" lon="1.10879">
        <ele>421</ele>
        <time>2022-08-18T08:50:25.000Z</time>
      </trkpt>
      <trkpt lat="42.96599" lon="1.10888">
        <ele>421.3</ele>
        <time>2022-08-18T08:50:29.000Z</time>
      </trkpt>
      <trkpt lat="42.96607" lon="1.10895">
        <ele>421</ele>
        <time>2022-08-18T08:50:33.000Z</time>
      </trkpt>
      <trkpt lat="42.96617" lon="1.10903">
        <ele>421.3</ele>
        <time>2022-08-18T08:50:38.000Z</time>
      </trkpt>
      <trkpt lat="42.96626" lon="1.10913">
        <ele>421.8</ele>
        <time>2022-08-18T08:50:42.000Z</time>
      </trkpt>
      <trkpt lat="42.96633" lon="1.10921">
        <ele>422.2</ele>
        <time>2022-08-18T08:50:45.000Z</time>
      </trkpt>
      <trkpt lat="42.96641" lon="1.10931">
        <ele>422.1</ele>
        <time>2022-08-18T08:50:48.000Z</time>
      </trkpt>
      <trkpt lat="42.96648" lon="1.10941">
        <ele>421.7</ele>
        <time>2022-08-18T08:50:51.000Z</time>
      </trkpt>
      <trkpt lat="42.96656" lon="1.10951">
        <ele>421.6</ele>
        <time>2022-08-18T08:50:54.000Z</time>
      </trkpt>
      <trkpt lat="42.96663" lon="1.10964">
        <ele>422.2</ele>
        <time>2022-08-18T08:50:57.000Z</time>
      </trkpt>
      <trkpt lat="42.9667" lon="1.10976">
        <ele>422.1</ele>
        <time>2022-08-18T08:51:00.000Z</time>
      </trkpt>
      <trkpt lat="42.96678" lon="1.10987">
        <ele>421.8</ele>
        <time>2022-08-18T08:51:03.000Z</time>
      </trkpt>
      <trkpt lat="42.96687" lon="1.10998">
        <ele>422.1</ele>
        <time>2022-08-18T08:51:06.000Z</time>
      </trkpt>
      <trkpt lat="42.96694" lon="1.11008">
        <ele>422.2</ele>
        <time>2022-08-18T08:51:09.000Z</time>
      </trkpt>
      <trkpt lat="42.96701" lon="1.11019">
        <ele>422.2</ele>
        <time>2022-08-18T08:51:12.000Z</time>
      </trkpt>
      <trkpt lat="42.96707" lon="1.11032">
        <ele>422.5</ele>
        <time>2022-08-18T08:51:15.000Z</time>
      </trkpt>
      <trkpt lat="42.96712" lon="1.11044">
        <ele>423</ele>
        <time>2022-08-18T08:51:18.000Z</time>
      </trkpt>
      <trkpt lat="42.96717" lon="1.11055">
        <ele>423</ele>
        <time>2022-08-18T08:51:21.000Z</time>
      </trkpt>
      <trkpt lat="42.96724" lon="1.11065">
        <ele>423.9</ele>
        <time>2022-08-18T08:51:24.000Z</time>
      </trkpt>
      <trkpt lat="42.96732" lon="1.11076">
        <ele>423.8</ele>
        <time>2022-08-18T08:51:28.000Z</time>
      </trkpt>
      <trkpt lat="42.9674" lon="1.11087">
        <ele>424.4</ele>
        <time>2022-08-18T08:51:32.000Z</time>
      </trkpt>
      <trkpt lat="42.96747" lon="1.11096">
        <ele>424.6</ele>
        <time>2022-08-18T08:51:35.000Z</time>
      </trkpt>
      <trkpt lat="42.96754" lon="1.11106">
        <ele>424.4</ele>
        <time>2022-08-18T08:51:38.000Z</time>
      </trkpt>
      <trkpt lat="42.96762" lon="1.11117">
        <ele>423.6</ele>
        <time>2022-08-18T08:51:41.000Z</time>
      </trkpt>
      <trkpt lat="42.96771" lon="1.1113">
        <ele>423.4</ele>
        <time>2022-08-18T08:51:44.000Z</time>
      </trkpt>
      <trkpt lat="42.96778" lon="1.11139">
        <ele>423.1</ele>
        <time>2022-08-18T08:51:46.000Z</time>
      </trkpt>
      <trkpt lat="42.96782" lon="1.1115">
        <ele>422.2</ele>
        <time>2022-08-18T08:51:48.000Z</time>
      </trkpt>
      <trkpt lat="42.96787" lon="1.11161">
        <ele>422.1</ele>
        <time>2022-08-18T08:51:50.000Z</time>
      </trkpt>
      <trkpt lat="42.96794" lon="1.11176">
        <ele>421.7</ele>
        <time>2022-08-18T08:51:53.000Z</time>
      </trkpt>
      <trkpt lat="42.968" lon="1.11189">
        <ele>422.1</ele>
        <time>2022-08-18T08:51:56.000Z</time>
      </trkpt>
      <trkpt lat="42.96806" lon="1.112">
        <ele>421.3</ele>
        <time>2022-08-18T08:51:59.000Z</time>
      </trkpt>
      <trkpt lat="42.96811" lon="1.11211">
        <ele>421.7</ele>
        <time>2022-08-18T08:52:02.000Z</time>
      </trkpt>
      <trkpt lat="42.96817" lon="1.11223">
        <ele>422.2</ele>
        <time>2022-08-18T08:52:05.000Z</time>
      </trkpt>
      <trkpt lat="42.96821" lon="1.11235">
        <ele>421.6</ele>
        <time>2022-08-18T08:52:08.000Z</time>
      </trkpt>
      <trkpt lat="42.96828" lon="1.11246">
        <ele>421.9</ele>
        <time>2022-08-18T08:52:11.000Z</time>
      </trkpt>
      <trkpt lat="42.96834" lon="1.11258">
        <ele>422.3</ele>
        <time>2022-08-18T08:52:14.000Z</time>
      </trkpt>
      <trkpt lat="42.9684" lon="1.1127">
        <ele>422.2</ele>
        <time>2022-08-18T08:52:17.000Z</time>
      </trkpt>
      <trkpt lat="42.96846" lon="1.11283">
        <ele>422</ele>
        <time>2022-08-18T08:52:20.000Z</time>
      </trkpt>
      <trkpt lat="42.96852" lon="1.11296">
        <ele>422.4</ele>
        <time>2022-08-18T08:52:23.000Z</time>
      </trkpt>
      <trkpt lat="42.96858" lon="1.11307">
        <ele>422.3</ele>
        <time>2022-08-18T08:52:26.000Z</time>
      </trkpt>
      <trkpt lat="42.96864" lon="1.1132">
        <ele>421.8</ele>
        <time>2022-08-18T08:52:29.000Z</time>
      </trkpt>
      <trkpt lat="42.96871" lon="1.11333">
        <ele>422</ele>
        <time>2022-08-18T08:52:32.000Z</time>
      </trkpt>
      <trkpt lat="42.96877" lon="1.11349">
        <ele>421.8</ele>
        <time>2022-08-18T08:52:35.000Z</time>
      </trkpt>
      <trkpt lat="42.96882" lon="1.1136">
        <ele>421.1</ele>
        <time>2022-08-18T08:52:37.000Z</time>
      </trkpt>
      <trkpt lat="42.96885" lon="1.11372">
        <ele>421.6</ele>
        <time>2022-08-18T08:52:39.000Z</time>
      </trkpt>
      <trkpt lat="42.96888" lon="1.11388">
        <ele>422.1</ele>
        <time>2022-08-18T08:52:42.000Z</time>
      </trkpt>
      <trkpt lat="42.9689" lon="1.11404">
        <ele>422.3</ele>
        <time>2022-08-18T08:52:45.000Z</time>
      </trkpt>
      <trkpt lat="42.96894" lon="1.11419">
        <ele>422.3</ele>
        <time>2022-08-18T08:52:48.000Z</time>
      </trkpt>
      <trkpt lat="42.96897" lon="1.11436">
        <ele>421.9</ele>
        <time>2022-08-18T08:52:51.000Z</time>
      </trkpt>
      <trkpt lat="42.96903" lon="1.11452">
        <ele>421.9</ele>
        <time>2022-08-18T08:52:54.000Z</time>
      </trkpt>
      <trkpt lat="42.9691" lon="1.11468">
        <ele>421.7</ele>
        <time>2022-08-18T08:52:57.000Z</time>
      </trkpt>
      <trkpt lat="42.96914" lon="1.11483">
        <ele>421.6</ele>
        <time>2022-08-18T08:53:00.000Z</time>
      </trkpt>
      <trkpt lat="42.96917" lon="1.11498">
        <ele>422.2</ele>
        <time>2022-08-18T08:53:03.000Z</time>
      </trkpt>
      <trkpt lat="42.96922" lon="1.11512">
        <ele>422</ele>
        <time>2022-08-18T08:53:06.000Z</time>
      </trkpt>
      <trkpt lat="42.96925" lon="1.11526">
        <ele>421.6</ele>
        <time>2022-08-18T08:53:09.000Z</time>
      </trkpt>
      <trkpt lat="42.96929" lon="1.11541">
        <ele>421.5</ele>
        <time>2022-08-18T08:53:12.000Z</time>
      </trkpt>
      <trkpt lat="42.96932" lon="1.11557">
        <ele>421.9</ele>
        <time>2022-08-18T08:53:15.000Z</time>
      </trkpt>
      <trkpt lat="42.96933" lon="1.11573">
        <ele>422.1</ele>
        <time>2022-08-18T08:53:18.000Z</time>
      </trkpt>
      <trkpt lat="42.96936" lon="1.11588">
        <ele>422.1</ele>
        <time>2022-08-18T08:53:21.000Z</time>
      </trkpt>
      <trkpt lat="42.96937" lon="1.11604">
        <ele>422.1</ele>
        <time>2022-08-18T08:53:24.000Z</time>
      </trkpt>
      <trkpt lat="42.96939" lon="1.1162">
        <ele>422.2</ele>
        <time>2022-08-18T08:53:27.000Z</time>
      </trkpt>
      <trkpt lat="42.96942" lon="1.11634">
        <ele>422</ele>
        <time>2022-08-18T08:53:30.000Z</time>
      </trkpt>
      <trkpt lat="42.96944" lon="1.11646">
        <ele>421.6</ele>
        <time>2022-08-18T08:53:32.000Z</time>
      </trkpt>
      <trkpt lat="42.96948" lon="1.11663">
        <ele>422.1</ele>
        <time>2022-08-18T08:53:35.000Z</time>
      </trkpt>
      <trkpt lat="42.96951" lon="1.11678">
        <ele>422.5</ele>
        <time>2022-08-18T08:53:38.000Z</time>
      </trkpt>
      <trkpt lat="42.96955" lon="1.11696">
        <ele>422.1</ele>
        <time>2022-08-18T08:53:41.000Z</time>
      </trkpt>
      <trkpt lat="42.96958" lon="1.11707">
        <ele>421.7</ele>
        <time>2022-08-18T08:53:43.000Z</time>
      </trkpt>
      <trkpt lat="42.96962" lon="1.11723">
        <ele>421.6</ele>
        <time>2022-08-18T08:53:46.000Z</time>
      </trkpt>
      <trkpt lat="42.96967" lon="1.11737">
        <ele>422</ele>
        <time>2022-08-18T08:53:49.000Z</time>
      </trkpt>
      <trkpt lat="42.96972" lon="1.1175">
        <ele>422.1</ele>
        <time>2022-08-18T08:53:52.000Z</time>
      </trkpt>
      <trkpt lat="42.96976" lon="1.11766">
        <ele>421.8</ele>
        <time>2022-08-18T08:53:55.000Z</time>
      </trkpt>
      <trkpt lat="42.96978" lon="1.11781">
        <ele>422</ele>
        <time>2022-08-18T08:53:58.000Z</time>
      </trkpt>
      <trkpt lat="42.96979" lon="1.11797">
        <ele>422</ele>
        <time>2022-08-18T08:54:01.000Z</time>
      </trkpt>
      <trkpt lat="42.9698" lon="1.11812">
        <ele>422.3</ele>
        <time>2022-08-18T08:54:04.000Z</time>
      </trkpt>
      <trkpt lat="42.96984" lon="1.11826">
        <ele>422.4</ele>
        <time>2022-08-18T08:54:07.000Z</time>
      </trkpt>
      <trkpt lat="42.96988" lon="1.1184">
        <ele>422.4</ele>
        <time>2022-08-18T08:54:10.000Z</time>
      </trkpt>
      <trkpt lat="42.96992" lon="1.11855">
        <ele>422.3</ele>
        <time>2022-08-18T08:54:13.000Z</time>
      </trkpt>
      <trkpt lat="42.96996" lon="1.11872">
        <ele>422.2</ele>
        <time>2022-08-18T08:54:16.000Z</time>
      </trkpt>
      <trkpt lat="42.96999" lon="1.11889">
        <ele>422.4</ele>
        <time>2022-08-18T08:54:19.000Z</time>
      </trkpt>
      <trkpt lat="42.97004" lon="1.11905">
        <ele>421.8</ele>
        <time>2022-08-18T08:54:22.000Z</time>
      </trkpt>
      <trkpt lat="42.97009" lon="1.11918">
        <ele>421.7</ele>
        <time>2022-08-18T08:54:25.000Z</time>
      </trkpt>
      <trkpt lat="42.97014" lon="1.1193">
        <ele>422</ele>
        <time>2022-08-18T08:54:28.000Z</time>
      </trkpt>
      <trkpt lat="42.97015" lon="1.11943">
        <ele>421.8</ele>
        <time>2022-08-18T08:54:31.000Z</time>
      </trkpt>
      <trkpt lat="42.97019" lon="1.11958">
        <ele>421.8</ele>
        <time>2022-08-18T08:54:34.000Z</time>
      </trkpt>
      <trkpt lat="42.97024" lon="1.11974">
        <ele>421.3</ele>
        <time>2022-08-18T08:54:37.000Z</time>
      </trkpt>
      <trkpt lat="42.97027" lon="1.11989">
        <ele>421.5</ele>
        <time>2022-08-18T08:54:40.000Z</time>
      </trkpt>
      <trkpt lat="42.97032" lon="1.12004">
        <ele>421.4</ele>
        <time>2022-08-18T08:54:43.000Z</time>
      </trkpt>
      <trkpt lat="42.97035" lon="1.12018">
        <ele>422</ele>
        <time>2022-08-18T08:54:46.000Z</time>
      </trkpt>
      <trkpt lat="42.97037" lon="1.12035">
        <ele>422.1</ele>
        <time>2022-08-18T08:54:49.000Z</time>
      </trkpt>
      <trkpt lat="42.97039" lon="1.1205">
        <ele>422</ele>
        <time>2022-08-18T08:54:52.000Z</time>
      </trkpt>
      <trkpt lat="42.97045" lon="1.12063">
        <ele>422.3</ele>
        <time>2022-08-18T08:54:55.000Z</time>
      </trkpt>
      <trkpt lat="42.97053" lon="1.12074">
        <ele>422.7</ele>
        <time>2022-08-18T08:54:58.000Z</time>
      </trkpt>
      <trkpt lat="42.97063" lon="1.12084">
        <ele>422.7</ele>
        <time>2022-08-18T08:55:01.000Z</time>
      </trkpt>
      <trkpt lat="42.97071" lon="1.12096">
        <ele>422.6</ele>
        <time>2022-08-18T08:55:04.000Z</time>
      </trkpt>
      <trkpt lat="42.97079" lon="1.12108">
        <ele>422.7</ele>
        <time>2022-08-18T08:55:07.000Z</time>
      </trkpt>
      <trkpt lat="42.97083" lon="1.1212">
        <ele>422.9</ele>
        <time>2022-08-18T08:55:10.000Z</time>
      </trkpt>
      <trkpt lat="42.97091" lon="1.1213">
        <ele>422.4</ele>
        <time>2022-08-18T08:55:13.000Z</time>
      </trkpt>
      <trkpt lat="42.97097" lon="1.12143">
        <ele>422.4</ele>
        <time>2022-08-18T08:55:16.000Z</time>
      </trkpt>
      <trkpt lat="42.97106" lon="1.12154">
        <ele>421.7</ele>
        <time>2022-08-18T08:55:19.000Z</time>
      </trkpt>
      <trkpt lat="42.97112" lon="1.12165">
        <ele>422.5</ele>
        <time>2022-08-18T08:55:22.000Z</time>
      </trkpt>
      <trkpt lat="42.97119" lon="1.12175">
        <ele>422.8</ele>
        <time>2022-08-18T08:55:25.000Z</time>
      </trkpt>
      <trkpt lat="42.97127" lon="1.12187">
        <ele>422.2</ele>
        <time>2022-08-18T08:55:29.000Z</time>
      </trkpt>
      <trkpt lat="42.97133" lon="1.12198">
        <ele>422.4</ele>
        <time>2022-08-18T08:55:32.000Z</time>
      </trkpt>
      <trkpt lat="42.97141" lon="1.12211">
        <ele>421.9</ele>
        <time>2022-08-18T08:55:35.000Z</time>
      </trkpt>
      <trkpt lat="42.9715" lon="1.1222">
        <ele>422.8</ele>
        <time>2022-08-18T08:55:38.000Z</time>
      </trkpt>
      <trkpt lat="42.9716" lon="1.12229">
        <ele>422.6</ele>
        <time>2022-08-18T08:55:41.000Z</time>
      </trkpt>
      <trkpt lat="42.97169" lon="1.12236">
        <ele>422.1</ele>
        <time>2022-08-18T08:55:44.000Z</time>
      </trkpt>
      <trkpt lat="42.97176" lon="1.12243">
        <ele>422</ele>
        <time>2022-08-18T08:55:47.000Z</time>
      </trkpt>
      <trkpt lat="42.97186" lon="1.1225">
        <ele>422</ele>
        <time>2022-08-18T08:55:50.000Z</time>
      </trkpt>
      <trkpt lat="42.97196" lon="1.12257">
        <ele>421.8</ele>
        <time>2022-08-18T08:55:53.000Z</time>
      </trkpt>
      <trkpt lat="42.97206" lon="1.12264">
        <ele>422</ele>
        <time>2022-08-18T08:55:56.000Z</time>
      </trkpt>
      <trkpt lat="42.97215" lon="1.12271">
        <ele>421.8</ele>
        <time>2022-08-18T08:55:59.000Z</time>
      </trkpt>
      <trkpt lat="42.97225" lon="1.12279">
        <ele>421.9</ele>
        <time>2022-08-18T08:56:02.000Z</time>
      </trkpt>
      <trkpt lat="42.97235" lon="1.12285">
        <ele>421.8</ele>
        <time>2022-08-18T08:56:05.000Z</time>
      </trkpt>
      <trkpt lat="42.97246" lon="1.12291">
        <ele>421.9</ele>
        <time>2022-08-18T08:56:08.000Z</time>
      </trkpt>
      <trkpt lat="42.97256" lon="1.12297">
        <ele>422</ele>
        <time>2022-08-18T08:56:11.000Z</time>
      </trkpt>
      <trkpt lat="42.97266" lon="1.12304">
        <ele>422</ele>
        <time>2022-08-18T08:56:14.000Z</time>
      </trkpt>
      <trkpt lat="42.97276" lon="1.12312">
        <ele>421.9</ele>
        <time>2022-08-18T08:56:17.000Z</time>
      </trkpt>
      <trkpt lat="42.97285" lon="1.12319">
        <ele>422.2</ele>
        <time>2022-08-18T08:56:20.000Z</time>
      </trkpt>
      <trkpt lat="42.97294" lon="1.12327">
        <ele>422</ele>
        <time>2022-08-18T08:56:23.000Z</time>
      </trkpt>
      <trkpt lat="42.97304" lon="1.12335">
        <ele>421.9</ele>
        <time>2022-08-18T08:56:26.000Z</time>
      </trkpt>
      <trkpt lat="42.97313" lon="1.12343">
        <ele>421.8</ele>
        <time>2022-08-18T08:56:29.000Z</time>
      </trkpt>
      <trkpt lat="42.97322" lon="1.12351">
        <ele>422</ele>
        <time>2022-08-18T08:56:32.000Z</time>
      </trkpt>
      <trkpt lat="42.97331" lon="1.12359">
        <ele>421.7</ele>
        <time>2022-08-18T08:56:35.000Z</time>
      </trkpt>
      <trkpt lat="42.9734" lon="1.12367">
        <ele>421.8</ele>
        <time>2022-08-18T08:56:38.000Z</time>
      </trkpt>
      <trkpt lat="42.97349" lon="1.12378">
        <ele>421.5</ele>
        <time>2022-08-18T08:56:42.000Z</time>
      </trkpt>
      <trkpt lat="42.97358" lon="1.12386">
        <ele>421.6</ele>
        <time>2022-08-18T08:56:45.000Z</time>
      </trkpt>
      <trkpt lat="42.97369" lon="1.12395">
        <ele>422.1</ele>
        <time>2022-08-18T08:56:48.000Z</time>
      </trkpt>
      <trkpt lat="42.97377" lon="1.12406">
        <ele>422</ele>
        <time>2022-08-18T08:56:51.000Z</time>
      </trkpt>
      <trkpt lat="42.97384" lon="1.12417">
        <ele>421.5</ele>
        <time>2022-08-18T08:56:54.000Z</time>
      </trkpt>
      <trkpt lat="42.97392" lon="1.12427">
        <ele>422.6</ele>
        <time>2022-08-18T08:56:57.000Z</time>
      </trkpt>
      <trkpt lat="42.974" lon="1.12439">
        <ele>422</ele>
        <time>2022-08-18T08:57:00.000Z</time>
      </trkpt>
      <trkpt lat="42.97408" lon="1.12449">
        <ele>421.8</ele>
        <time>2022-08-18T08:57:03.000Z</time>
      </trkpt>
      <trkpt lat="42.97416" lon="1.12459">
        <ele>422.1</ele>
        <time>2022-08-18T08:57:06.000Z</time>
      </trkpt>
      <trkpt lat="42.97423" lon="1.12468">
        <ele>421.8</ele>
        <time>2022-08-18T08:57:09.000Z</time>
      </trkpt>
      <trkpt lat="42.97429" lon="1.12478">
        <ele>421.8</ele>
        <time>2022-08-18T08:57:12.000Z</time>
      </trkpt>
      <trkpt lat="42.97436" lon="1.12488">
        <ele>422.4</ele>
        <time>2022-08-18T08:57:15.000Z</time>
      </trkpt>
      <trkpt lat="42.97444" lon="1.12497">
        <ele>421.8</ele>
        <time>2022-08-18T08:57:18.000Z</time>
      </trkpt>
      <trkpt lat="42.97454" lon="1.12507">
        <ele>421.7</ele>
        <time>2022-08-18T08:57:21.000Z</time>
      </trkpt>
      <trkpt lat="42.97461" lon="1.12519">
        <ele>421.8</ele>
        <time>2022-08-18T08:57:24.000Z</time>
      </trkpt>
      <trkpt lat="42.97467" lon="1.12529">
        <ele>422.1</ele>
        <time>2022-08-18T08:57:27.000Z</time>
      </trkpt>
      <trkpt lat="42.97472" lon="1.12541">
        <ele>421.8</ele>
        <time>2022-08-18T08:57:30.000Z</time>
      </trkpt>
      <trkpt lat="42.97477" lon="1.12552">
        <ele>421.8</ele>
        <time>2022-08-18T08:57:33.000Z</time>
      </trkpt>
      <trkpt lat="42.97482" lon="1.12564">
        <ele>422.4</ele>
        <time>2022-08-18T08:57:36.000Z</time>
      </trkpt>
      <trkpt lat="42.97487" lon="1.12577">
        <ele>422.2</ele>
        <time>2022-08-18T08:57:39.000Z</time>
      </trkpt>
      <trkpt lat="42.97496" lon="1.12589">
        <ele>422.1</ele>
        <time>2022-08-18T08:57:42.000Z</time>
      </trkpt>
      <trkpt lat="42.97505" lon="1.126">
        <ele>422.2</ele>
        <time>2022-08-18T08:57:45.000Z</time>
      </trkpt>
      <trkpt lat="42.97512" lon="1.12611">
        <ele>422</ele>
        <time>2022-08-18T08:57:48.000Z</time>
      </trkpt>
      <trkpt lat="42.9752" lon="1.12622">
        <ele>421.6</ele>
        <time>2022-08-18T08:57:51.000Z</time>
      </trkpt>
      <trkpt lat="42.97529" lon="1.12634">
        <ele>421.7</ele>
        <time>2022-08-18T08:57:54.000Z</time>
      </trkpt>
      <trkpt lat="42.97538" lon="1.12646">
        <ele>422</ele>
        <time>2022-08-18T08:57:57.000Z</time>
      </trkpt>
      <trkpt lat="42.97544" lon="1.12656">
        <ele>422.2</ele>
        <time>2022-08-18T08:57:59.000Z</time>
      </trkpt>
      <trkpt lat="42.97551" lon="1.12667">
        <ele>423.6</ele>
        <time>2022-08-18T08:58:03.000Z</time>
      </trkpt>
      <trkpt lat="42.9756" lon="1.12677">
        <ele>422.5</ele>
        <time>2022-08-18T08:58:07.000Z</time>
      </trkpt>
      <trkpt lat="42.97569" lon="1.12684">
        <ele>421.3</ele>
        <time>2022-08-18T08:58:09.000Z</time>
      </trkpt>
      <trkpt lat="42.9758" lon="1.12691">
        <ele>420.2</ele>
        <time>2022-08-18T08:58:11.000Z</time>
      </trkpt>
      <trkpt lat="42.97593" lon="1.12698">
        <ele>419.4</ele>
        <time>2022-08-18T08:58:13.000Z</time>
      </trkpt>
      <trkpt lat="42.97609" lon="1.12704">
        <ele>415.6</ele>
        <time>2022-08-18T08:58:15.000Z</time>
      </trkpt>
      <trkpt lat="42.97624" lon="1.12709">
        <ele>413.1</ele>
        <time>2022-08-18T08:58:17.000Z</time>
      </trkpt>
      <trkpt lat="42.97636" lon="1.12712">
        <ele>410.5</ele>
        <time>2022-08-18T08:58:18.000Z</time>
      </trkpt>
      <trkpt lat="42.97646" lon="1.12716">
        <ele>407.7</ele>
        <time>2022-08-18T08:58:19.000Z</time>
      </trkpt>
      <trkpt lat="42.97657" lon="1.12721">
        <ele>407</ele>
        <time>2022-08-18T08:58:20.000Z</time>
      </trkpt>
      <trkpt lat="42.97669" lon="1.12729">
        <ele>406.3</ele>
        <time>2022-08-18T08:58:21.000Z</time>
      </trkpt>
      <trkpt lat="42.97678" lon="1.12739">
        <ele>406.3</ele>
        <time>2022-08-18T08:58:22.000Z</time>
      </trkpt>
      <trkpt lat="42.97687" lon="1.12751">
        <ele>406.2</ele>
        <time>2022-08-18T08:58:23.000Z</time>
      </trkpt>
      <trkpt lat="42.97694" lon="1.12761">
        <ele>405.2</ele>
        <time>2022-08-18T08:58:24.000Z</time>
      </trkpt>
      <trkpt lat="42.97701" lon="1.1277">
        <ele>404.9</ele>
        <time>2022-08-18T08:58:25.000Z</time>
      </trkpt>
      <trkpt lat="42.97714" lon="1.12786">
        <ele>404.6</ele>
        <time>2022-08-18T08:58:27.000Z</time>
      </trkpt>
      <trkpt lat="42.97727" lon="1.12799">
        <ele>404.1</ele>
        <time>2022-08-18T08:58:29.000Z</time>
      </trkpt>
      <trkpt lat="42.97742" lon="1.12809">
        <ele>402</ele>
        <time>2022-08-18T08:58:31.000Z</time>
      </trkpt>
      <trkpt lat="42.97751" lon="1.12814">
        <ele>400.6</ele>
        <time>2022-08-18T08:58:32.000Z</time>
      </trkpt>
      <trkpt lat="42.97762" lon="1.12823">
        <ele>398.3</ele>
        <time>2022-08-18T08:58:33.000Z</time>
      </trkpt>
      <trkpt lat="42.97772" lon="1.12834">
        <ele>396.1</ele>
        <time>2022-08-18T08:58:34.000Z</time>
      </trkpt>
      <trkpt lat="42.97781" lon="1.12847">
        <ele>395.4</ele>
        <time>2022-08-18T08:58:35.000Z</time>
      </trkpt>
      <trkpt lat="42.97788" lon="1.1286">
        <ele>394.5</ele>
        <time>2022-08-18T08:58:36.000Z</time>
      </trkpt>
      <trkpt lat="42.97793" lon="1.12872">
        <ele>394</ele>
        <time>2022-08-18T08:58:37.000Z</time>
      </trkpt>
      <trkpt lat="42.97799" lon="1.12884">
        <ele>394.5</ele>
        <time>2022-08-18T08:58:38.000Z</time>
      </trkpt>
      <trkpt lat="42.97804" lon="1.12895">
        <ele>394.2</ele>
        <time>2022-08-18T08:58:39.000Z</time>
      </trkpt>
      <trkpt lat="42.97813" lon="1.12915">
        <ele>393.2</ele>
        <time>2022-08-18T08:58:41.000Z</time>
      </trkpt>
      <trkpt lat="42.97819" lon="1.12934">
        <ele>393.1</ele>
        <time>2022-08-18T08:58:43.000Z</time>
      </trkpt>
      <trkpt lat="42.97827" lon="1.1295">
        <ele>392.5</ele>
        <time>2022-08-18T08:58:45.000Z</time>
      </trkpt>
      <trkpt lat="42.97835" lon="1.12963">
        <ele>392.3</ele>
        <time>2022-08-18T08:58:47.000Z</time>
      </trkpt>
      <trkpt lat="42.97843" lon="1.12975">
        <ele>393.5</ele>
        <time>2022-08-18T08:58:49.000Z</time>
      </trkpt>
      <trkpt lat="42.97849" lon="1.12983">
        <ele>393.4</ele>
        <time>2022-08-18T08:58:51.000Z</time>
      </trkpt>
      <trkpt lat="42.97855" lon="1.12995">
        <ele>393.5</ele>
        <time>2022-08-18T08:58:55.000Z</time>
      </trkpt>
      <trkpt lat="42.97863" lon="1.13006">
        <ele>393.9</ele>
        <time>2022-08-18T08:58:59.000Z</time>
      </trkpt>
      <trkpt lat="42.97871" lon="1.13018">
        <ele>393.9</ele>
        <time>2022-08-18T08:59:03.000Z</time>
      </trkpt>
      <trkpt lat="42.97877" lon="1.13032">
        <ele>393.5</ele>
        <time>2022-08-18T08:59:07.000Z</time>
      </trkpt>
      <trkpt lat="42.97884" lon="1.13045">
        <ele>393.5</ele>
        <time>2022-08-18T08:59:11.000Z</time>
      </trkpt>
      <trkpt lat="42.97892" lon="1.13057">
        <ele>393.9</ele>
        <time>2022-08-18T08:59:15.000Z</time>
      </trkpt>
      <trkpt lat="42.97898" lon="1.13068">
        <ele>394.4</ele>
        <time>2022-08-18T08:59:18.000Z</time>
      </trkpt>
      <trkpt lat="42.97904" lon="1.13079">
        <ele>394.4</ele>
        <time>2022-08-18T08:59:21.000Z</time>
      </trkpt>
      <trkpt lat="42.97912" lon="1.1309">
        <ele>394.1</ele>
        <time>2022-08-18T08:59:24.000Z</time>
      </trkpt>
      <trkpt lat="42.97919" lon="1.131">
        <ele>394</ele>
        <time>2022-08-18T08:59:27.000Z</time>
      </trkpt>
      <trkpt lat="42.97927" lon="1.13109">
        <ele>393.7</ele>
        <time>2022-08-18T08:59:30.000Z</time>
      </trkpt>
      <trkpt lat="42.97935" lon="1.13119">
        <ele>393.2</ele>
        <time>2022-08-18T08:59:33.000Z</time>
      </trkpt>
      <trkpt lat="42.97943" lon="1.13128">
        <ele>393.4</ele>
        <time>2022-08-18T08:59:36.000Z</time>
      </trkpt>
      <trkpt lat="42.97949" lon="1.13139">
        <ele>393</ele>
        <time>2022-08-18T08:59:39.000Z</time>
      </trkpt>
      <trkpt lat="42.97955" lon="1.1315">
        <ele>393.3</ele>
        <time>2022-08-18T08:59:42.000Z</time>
      </trkpt>
      <trkpt lat="42.97962" lon="1.1316">
        <ele>393</ele>
        <time>2022-08-18T08:59:45.000Z</time>
      </trkpt>
      <trkpt lat="42.97969" lon="1.1317">
        <ele>393.1</ele>
        <time>2022-08-18T08:59:48.000Z</time>
      </trkpt>
      <trkpt lat="42.97976" lon="1.13181">
        <ele>393.8</ele>
        <time>2022-08-18T08:59:51.000Z</time>
      </trkpt>
      <trkpt lat="42.97983" lon="1.13192">
        <ele>393.9</ele>
        <time>2022-08-18T08:59:54.000Z</time>
      </trkpt>
      <trkpt lat="42.9799" lon="1.13203">
        <ele>394.1</ele>
        <time>2022-08-18T08:59:57.000Z</time>
      </trkpt>
      <trkpt lat="42.97998" lon="1.13213">
        <ele>394</ele>
        <time>2022-08-18T09:00:00.000Z</time>
      </trkpt>
      <trkpt lat="42.98006" lon="1.13224">
        <ele>393.5</ele>
        <time>2022-08-18T09:00:03.000Z</time>
      </trkpt>
      <trkpt lat="42.98014" lon="1.13236">
        <ele>393.3</ele>
        <time>2022-08-18T09:00:06.000Z</time>
      </trkpt>
      <trkpt lat="42.98022" lon="1.13247">
        <ele>393.5</ele>
        <time>2022-08-18T09:00:09.000Z</time>
      </trkpt>
      <trkpt lat="42.9803" lon="1.13259">
        <ele>393.5</ele>
        <time>2022-08-18T09:00:12.000Z</time>
      </trkpt>
      <trkpt lat="42.98039" lon="1.1327">
        <ele>393.7</ele>
        <time>2022-08-18T09:00:15.000Z</time>
      </trkpt>
      <trkpt lat="42.98047" lon="1.1328">
        <ele>393.3</ele>
        <time>2022-08-18T09:00:18.000Z</time>
      </trkpt>
      <trkpt lat="42.98056" lon="1.13289">
        <ele>393.1</ele>
        <time>2022-08-18T09:00:21.000Z</time>
      </trkpt>
      <trkpt lat="42.98067" lon="1.13299">
        <ele>392.6</ele>
        <time>2022-08-18T09:00:24.000Z</time>
      </trkpt>
      <trkpt lat="42.98079" lon="1.13307">
        <ele>392.1</ele>
        <time>2022-08-18T09:00:27.000Z</time>
      </trkpt>
      <trkpt lat="42.98087" lon="1.13313">
        <ele>391.9</ele>
        <time>2022-08-18T09:00:29.000Z</time>
      </trkpt>
      <trkpt lat="42.98097" lon="1.13318">
        <ele>391.5</ele>
        <time>2022-08-18T09:00:31.000Z</time>
      </trkpt>
      <trkpt lat="42.98106" lon="1.13324">
        <ele>390.9</ele>
        <time>2022-08-18T09:00:33.000Z</time>
      </trkpt>
      <trkpt lat="42.98116" lon="1.13331">
        <ele>390.9</ele>
        <time>2022-08-18T09:00:35.000Z</time>
      </trkpt>
      <trkpt lat="42.98127" lon="1.13337">
        <ele>390.9</ele>
        <time>2022-08-18T09:00:37.000Z</time>
      </trkpt>
      <trkpt lat="42.98137" lon="1.13344">
        <ele>390.3</ele>
        <time>2022-08-18T09:00:39.000Z</time>
      </trkpt>
      <trkpt lat="42.98147" lon="1.13349">
        <ele>390.2</ele>
        <time>2022-08-18T09:00:41.000Z</time>
      </trkpt>
      <trkpt lat="42.98157" lon="1.13356">
        <ele>389.7</ele>
        <time>2022-08-18T09:00:43.000Z</time>
      </trkpt>
      <trkpt lat="42.98166" lon="1.13364">
        <ele>389.5</ele>
        <time>2022-08-18T09:00:45.000Z</time>
      </trkpt>
      <trkpt lat="42.98175" lon="1.1337">
        <ele>390</ele>
        <time>2022-08-18T09:00:47.000Z</time>
      </trkpt>
      <trkpt lat="42.98184" lon="1.13377">
        <ele>389.6</ele>
        <time>2022-08-18T09:00:49.000Z</time>
      </trkpt>
      <trkpt lat="42.98193" lon="1.13383">
        <ele>389.4</ele>
        <time>2022-08-18T09:00:51.000Z</time>
      </trkpt>
      <trkpt lat="42.98201" lon="1.13389">
        <ele>389</ele>
        <time>2022-08-18T09:00:53.000Z</time>
      </trkpt>
      <trkpt lat="42.9821" lon="1.13395">
        <ele>388.8</ele>
        <time>2022-08-18T09:00:55.000Z</time>
      </trkpt>
      <trkpt lat="42.98217" lon="1.13403">
        <ele>388.8</ele>
        <time>2022-08-18T09:00:57.000Z</time>
      </trkpt>
      <trkpt lat="42.98223" lon="1.13413">
        <ele>389</ele>
        <time>2022-08-18T09:00:59.000Z</time>
      </trkpt>
      <trkpt lat="42.98229" lon="1.13423">
        <ele>388.7</ele>
        <time>2022-08-18T09:01:01.000Z</time>
      </trkpt>
      <trkpt lat="42.98237" lon="1.13437">
        <ele>388.4</ele>
        <time>2022-08-18T09:01:04.000Z</time>
      </trkpt>
      <trkpt lat="42.98246" lon="1.1345">
        <ele>387.8</ele>
        <time>2022-08-18T09:01:07.000Z</time>
      </trkpt>
      <trkpt lat="42.98255" lon="1.13462">
        <ele>388</ele>
        <time>2022-08-18T09:01:10.000Z</time>
      </trkpt>
      <trkpt lat="42.98264" lon="1.13474">
        <ele>387.7</ele>
        <time>2022-08-18T09:01:13.000Z</time>
      </trkpt>
      <trkpt lat="42.98272" lon="1.13485">
        <ele>387.7</ele>
        <time>2022-08-18T09:01:16.000Z</time>
      </trkpt>
      <trkpt lat="42.98281" lon="1.13495">
        <ele>387.4</ele>
        <time>2022-08-18T09:01:19.000Z</time>
      </trkpt>
      <trkpt lat="42.98288" lon="1.13505">
        <ele>387.5</ele>
        <time>2022-08-18T09:01:22.000Z</time>
      </trkpt>
      <trkpt lat="42.98296" lon="1.13515">
        <ele>387.4</ele>
        <time>2022-08-18T09:01:25.000Z</time>
      </trkpt>
      <trkpt lat="42.98302" lon="1.13526">
        <ele>387.2</ele>
        <time>2022-08-18T09:01:28.000Z</time>
      </trkpt>
      <trkpt lat="42.98307" lon="1.13536">
        <ele>387.2</ele>
        <time>2022-08-18T09:01:31.000Z</time>
      </trkpt>
      <trkpt lat="42.98314" lon="1.13549">
        <ele>386.9</ele>
        <time>2022-08-18T09:01:35.000Z</time>
      </trkpt>
      <trkpt lat="42.98319" lon="1.13563">
        <ele>387.4</ele>
        <time>2022-08-18T09:01:39.000Z</time>
      </trkpt>
      <trkpt lat="42.98324" lon="1.13575">
        <ele>387</ele>
        <time>2022-08-18T09:01:42.000Z</time>
      </trkpt>
      <trkpt lat="42.98328" lon="1.13586">
        <ele>386.4</ele>
        <time>2022-08-18T09:01:45.000Z</time>
      </trkpt>
      <trkpt lat="42.98332" lon="1.13598">
        <ele>386.6</ele>
        <time>2022-08-18T09:01:48.000Z</time>
      </trkpt>
      <trkpt lat="42.98336" lon="1.1361">
        <ele>386.5</ele>
        <time>2022-08-18T09:01:51.000Z</time>
      </trkpt>
      <trkpt lat="42.9834" lon="1.13624">
        <ele>386.6</ele>
        <time>2022-08-18T09:01:55.000Z</time>
      </trkpt>
      <trkpt lat="42.98346" lon="1.13638">
        <ele>386.3</ele>
        <time>2022-08-18T09:01:59.000Z</time>
      </trkpt>
      <trkpt lat="42.98351" lon="1.13652">
        <ele>385.8</ele>
        <time>2022-08-18T09:02:03.000Z</time>
      </trkpt>
      <trkpt lat="42.98356" lon="1.13665">
        <ele>385.6</ele>
        <time>2022-08-18T09:02:07.000Z</time>
      </trkpt>
      <trkpt lat="42.98361" lon="1.13677">
        <ele>385.5</ele>
        <time>2022-08-18T09:02:11.000Z</time>
      </trkpt>
      <trkpt lat="42.98365" lon="1.1369">
        <ele>385.5</ele>
        <time>2022-08-18T09:02:15.000Z</time>
      </trkpt>
      <trkpt lat="42.9837" lon="1.13701">
        <ele>385.1</ele>
        <time>2022-08-18T09:02:19.000Z</time>
      </trkpt>
      <trkpt lat="42.98375" lon="1.13714">
        <ele>385.1</ele>
        <time>2022-08-18T09:02:24.000Z</time>
      </trkpt>
      <trkpt lat="42.98379" lon="1.13725">
        <ele>385</ele>
        <time>2022-08-18T09:02:29.000Z</time>
      </trkpt>
      <trkpt lat="42.98383" lon="1.13736">
        <ele>385.2</ele>
        <time>2022-08-18T09:02:35.000Z</time>
      </trkpt>
      <trkpt lat="42.98385" lon="1.13737">
        <ele>393.4</ele>
        <time>2023-11-19T10:59:09Z</time>
      </trkpt>
      <trkpt lat="42.98394" lon="1.13775">
        <ele>393.4</ele>
        <time>2023-11-19T10:59:16Z</time>
      </trkpt>
      <trkpt lat="42.98397" lon="1.13798">
        <ele>393.4</ele>
        <time>2023-11-19T10:59:21Z</time>
      </trkpt>
      <trkpt lat="42.984" lon="1.13824">
        <ele>393.4</ele>
        <time>2023-11-19T10:59:27Z</time>
      </trkpt>
      <trkpt lat="42.98412" lon="1.1386">
        <ele>393.4</ele>
        <time>2023-11-19T10:59:34Z</time>
      </trkpt>
      <trkpt lat="42.9842" lon="1.13879">
        <ele>393.4</ele>
        <time>2023-11-19T10:59:38Z</time>
      </trkpt>
      <trkpt lat="42.9843" lon="1.13901">
        <ele>393.4</ele>
        <time>2023-11-19T10:59:42Z</time>
      </trkpt>
      <trkpt lat="42.98444" lon="1.13937">
        <ele>393.4</ele>
        <time>2023-11-19T10:59:48Z</time>
      </trkpt>
      <trkpt lat="42.98458" lon="1.13973">
        <ele>393.4</ele>
        <time>2023-11-19T10:59:54Z</time>
      </trkpt>
      <trkpt lat="42.9847" lon="1.14006">
        <ele>393.4</ele>
        <time>2023-11-19T11:00:00Z</time>
      </trkpt>
      <trkpt lat="42.98472" lon="1.14011">
        <ele>393.4</ele>
        <time>2023-11-19T11:00:01Z</time>
      </trkpt>
      <trkpt lat="42.98485" lon="1.14044">
        <ele>393.4</ele>
        <time>2023-11-19T11:00:08Z</time>
      </trkpt>
      <trkpt lat="42.98489" lon="1.14052">
        <ele>393.4</ele>
        <time>2023-11-19T11:00:13Z</time>
      </trkpt>
      <trkpt lat="42.98489" lon="1.14052">
        <ele>393.4</ele>
        <time>2023-11-19T11:00:14Z</time>
      </trkpt>
      <trkpt lat="42.9849" lon="1.14054">
        <ele>393.4</ele>
        <time>2023-11-19T11:00:32Z</time>
      </trkpt>
      <trkpt lat="42.98491" lon="1.1406">
        <ele>393.4</ele>
        <time>2023-11-19T11:00:34Z</time>
      </trkpt>
      <trkpt lat="42.98503" lon="1.1407">
        <ele>393.4</ele>
        <time>2023-11-19T11:00:38Z</time>
      </trkpt>
      <trkpt lat="42.98517" lon="1.1406">
        <ele>393.4</ele>
        <time>2023-11-19T11:00:41Z</time>
      </trkpt>
      <trkpt lat="42.98546" lon="1.1404">
        <ele>393.4</ele>
        <time>2023-11-19T11:00:47Z</time>
      </trkpt>
      <trkpt lat="42.98578" lon="1.14019">
        <ele>393.4</ele>
        <time>2023-11-19T11:00:54Z</time>
      </trkpt>
      <trkpt lat="42.9859" lon="1.14013">
        <ele>393.4</ele>
        <time>2023-11-19T11:00:58Z</time>
      </trkpt>
      <trkpt lat="42.98591" lon="1.14008">
        <ele>393.4</ele>
        <time>2023-11-19T11:00:59Z</time>
      </trkpt>
      <trkpt lat="42.98591" lon="1.13999">
        <ele>393.4</ele>
        <time>2023-11-19T11:01:01Z</time>
      </trkpt>
      <trkpt lat="42.98597" lon="1.13997">
        <ele>393.4</ele>
        <time>2023-11-19T11:01:03Z</time>
      </trkpt>
      <trkpt lat="42.98612" lon="1.13999">
        <ele>393.4</ele>
        <time>2023-11-19T11:01:06Z</time>
      </trkpt>
      <trkpt lat="42.98622" lon="1.1401">
        <ele>393.4</ele>
        <time>2023-11-19T11:01:09Z</time>
      </trkpt>
      <trkpt lat="42.98638" lon="1.14005">
        <ele>393.4</ele>
        <time>2023-11-19T11:01:12Z</time>
      </trkpt>
      <trkpt lat="42.98644" lon="1.14004">
        <ele>393.4</ele>
        <time>2023-11-19T11:01:13Z</time>
      </trkpt>
      <trkpt lat="42.98656" lon="1.14004">
        <ele>393</ele>
        <time>2023-11-19T11:01:15Z</time>
      </trkpt>
      <trkpt lat="42.98661" lon="1.14003">
        <ele>392.6</ele>
        <time>2023-11-19T11:01:16Z</time>
      </trkpt>
      <trkpt lat="42.98667" lon="1.14003">
        <ele>392.2</ele>
        <time>2023-11-19T11:01:17Z</time>
      </trkpt>
      <trkpt lat="42.98673" lon="1.14003">
        <ele>391.8</ele>
        <time>2023-11-19T11:01:18Z</time>
      </trkpt>
      <trkpt lat="42.98678" lon="1.14002">
        <ele>391.4</ele>
        <time>2023-11-19T11:01:19Z</time>
      </trkpt>
      <trkpt lat="42.9869" lon="1.13998">
        <ele>391.4</ele>
        <time>2023-11-19T11:01:22Z</time>
      </trkpt>
      <trkpt lat="42.98696" lon="1.13993">
        <ele>391.4</ele>
        <time>2023-11-19T11:01:24Z</time>
      </trkpt>
      <trkpt lat="42.98699" lon="1.13989">
        <ele>391.4</ele>
        <time>2023-11-19T11:01:26Z</time>
      </trkpt>
      <trkpt lat="42.98703" lon="1.13983">
        <ele>391.4</ele>
        <time>2023-11-19T11:01:30Z</time>
      </trkpt>
      <trkpt lat="42.98713" lon="1.13967">
        <ele>391.4</ele>
        <time>2023-11-19T11:01:35Z</time>
      </trkpt>
      <trkpt lat="42.98714" lon="1.13959">
        <ele>391.4</ele>
        <time>2023-11-19T11:01:37Z</time>
        <extensions>
          <visugpx:TrkExtension xmlns:visugpx="https://www.visugpx.com/editgpx/">
            <visugpx:node>1</visugpx:node>
            </visugpx:TrkExtension>
        </extensions>
      </trkpt>
      <trkpt lat="42.98707" lon="1.13928">
        <ele>387.2</ele>
        <time>2023-11-19T08:02:04Z</time>
        <extensions>
          <visugpx:TrkExtension xmlns:visugpx="https://www.visugpx.com/editgpx/">
            <visugpx:node>2</visugpx:node>
            </visugpx:TrkExtension>
        </extensions>
      </trkpt>
      <trkpt lat="42.98698" lon="1.13939">
        <ele>387.2</ele>
        <time>2023-11-19T08:02:12Z</time>
      </trkpt>
      <trkpt lat="42.98696" lon="1.13939">
        <ele>387.2</ele>
        <time>2023-11-19T08:02:14Z</time>
      </trkpt>
      <trkpt lat="42.98695" lon="1.13936">
        <ele>387.2</ele>
        <time>2023-11-19T08:02:16Z</time>
      </trkpt>
      <trkpt lat="42.98691" lon="1.13929">
        <ele>387.2</ele>
        <time>2023-11-19T08:02:19Z</time>
      </trkpt>
      <trkpt lat="42.9869" lon="1.13926">
        <ele>387.2</ele>
        <time>2023-11-19T08:02:20Z</time>
      </trkpt>
      <trkpt lat="42.98687" lon="1.1391">
        <ele>387.2</ele>
        <time>2023-11-19T08:02:25Z</time>
      </trkpt>
      <trkpt lat="42.98684" lon="1.13911">
        <ele>387.2</ele>
        <time>2023-11-19T08:02:26Z</time>
      </trkpt>
      <trkpt lat="42.9868" lon="1.13915">
        <ele>387.2</ele>
        <time>2023-11-19T08:02:28Z</time>
      </trkpt>
      <trkpt lat="42.98664" lon="1.13921">
        <ele>387.2</ele>
        <time>2023-11-19T08:02:33Z</time>
      </trkpt>
      <trkpt lat="42.98657" lon="1.1392">
        <ele>387.2</ele>
        <time>2023-11-19T08:02:35Z</time>
      </trkpt>
      <trkpt lat="42.98641" lon="1.13922">
        <ele>387.2</ele>
        <time>2023-11-19T08:02:40Z</time>
      </trkpt>
      <trkpt lat="42.9862" lon="1.1393">
        <ele>387.2</ele>
        <time>2023-11-19T08:02:47Z</time>
      </trkpt>
      <trkpt lat="42.98608" lon="1.13935">
        <ele>387.2</ele>
        <time>2023-11-19T08:02:52Z</time>
      </trkpt>
      <trkpt lat="42.98599" lon="1.13934">
        <ele>387.2</ele>
        <time>2023-11-19T08:02:56Z</time>
      </trkpt>
      <trkpt lat="42.98597" lon="1.1393">
        <ele>387.2</ele>
        <time>2023-11-19T08:02:58Z</time>
      </trkpt>
      <trkpt lat="42.98596" lon="1.13925">
        <ele>387.2</ele>
        <time>2023-11-19T08:03:00Z</time>
      </trkpt>
      <trkpt lat="42.98597" lon="1.13912">
        <ele>387.2</ele>
        <time>2023-11-19T08:03:03Z</time>
      </trkpt>
      <trkpt lat="42.98598" lon="1.13907">
        <ele>387.6</ele>
        <time>2023-11-19T08:03:04Z</time>
      </trkpt>
      <trkpt lat="42.98599" lon="1.13903">
        <ele>387.8</ele>
        <time>2023-11-19T08:03:05Z</time>
      </trkpt>
      <trkpt lat="42.98599" lon="1.13899">
        <ele>388</ele>
        <time>2023-11-19T08:03:06Z</time>
      </trkpt>
      <trkpt lat="42.986" lon="1.13895">
        <ele>388.2</ele>
        <time>2023-11-19T08:03:07Z</time>
      </trkpt>
      <trkpt lat="42.986" lon="1.13891">
        <ele>388.6</ele>
        <time>2023-11-19T08:03:08Z</time>
      </trkpt>
      <trkpt lat="42.98601" lon="1.13887">
        <ele>388.6</ele>
        <time>2023-11-19T08:03:09Z</time>
      </trkpt>
      <trkpt lat="42.98601" lon="1.13882">
        <ele>389</ele>
        <time>2023-11-19T08:03:11Z</time>
      </trkpt>
      <trkpt lat="42.98599" lon="1.1388">
        <ele>389.4</ele>
        <time>2023-11-19T08:03:12Z</time>
      </trkpt>
      <trkpt lat="42.98597" lon="1.13879">
        <ele>389.8</ele>
        <time>2023-11-19T08:03:13Z</time>
      </trkpt>
      <trkpt lat="42.98595" lon="1.13878">
        <ele>390.2</ele>
        <time>2023-11-19T08:03:14Z</time>
      </trkpt>
      <trkpt lat="42.98592" lon="1.13877">
        <ele>390.6</ele>
        <time>2023-11-19T08:03:15Z</time>
      </trkpt>
      <trkpt lat="42.9859" lon="1.13877">
        <ele>390.6</ele>
        <time>2023-11-19T08:03:16Z</time>
      </trkpt>
      <trkpt lat="42.98584" lon="1.13873">
        <ele>390.6</ele>
        <time>2023-11-19T08:03:19Z</time>
      </trkpt>
      <trkpt lat="42.98573" lon="1.13867">
        <ele>390.6</ele>
        <time>2023-11-19T08:03:25Z</time>
      </trkpt>
      <trkpt lat="42.98573" lon="1.13864">
        <ele>390.6</ele>
        <time>2023-11-19T08:03:26Z</time>
      </trkpt>
      <trkpt lat="42.98576" lon="1.13856">
        <ele>390.6</ele>
        <time>2023-11-19T08:03:29Z</time>
      </trkpt>
      <trkpt lat="42.98585" lon="1.13839">
        <ele>391</ele>
        <time>2023-11-19T08:03:37Z</time>
      </trkpt>
      <trkpt lat="42.98587" lon="1.13837">
        <ele>391.4</ele>
        <time>2023-11-19T08:03:38Z</time>
      </trkpt>
      <trkpt lat="42.98588" lon="1.13834">
        <ele>391.8</ele>
        <time>2023-11-19T08:03:39Z</time>
      </trkpt>
      <trkpt lat="42.98588" lon="1.13832">
        <ele>392.2</ele>
        <time>2023-11-19T08:03:40Z</time>
      </trkpt>
      <trkpt lat="42.98589" lon="1.1383">
        <ele>392.6</ele>
        <time>2023-11-19T08:03:41Z</time>
      </trkpt>
      <trkpt lat="42.98592" lon="1.13823">
        <ele>392.6</ele>
        <time>2023-11-19T08:03:44Z</time>
      </trkpt>
      <trkpt lat="42.98593" lon="1.13821">
        <ele>393</ele>
        <time>2023-11-19T08:03:45Z</time>
      </trkpt>
      <trkpt lat="42.98594" lon="1.13818">
        <ele>393.4</ele>
        <time>2023-11-19T08:03:46Z</time>
      </trkpt>
      <trkpt lat="42.98595" lon="1.13816">
        <ele>393.8</ele>
        <time>2023-11-19T08:03:47Z</time>
      </trkpt>
      <trkpt lat="42.98596" lon="1.13814">
        <ele>394.2</ele>
        <time>2023-11-19T08:03:48Z</time>
      </trkpt>
      <trkpt lat="42.98597" lon="1.13811">
        <ele>394.6</ele>
        <time>2023-11-19T08:03:49Z</time>
      </trkpt>
      <trkpt lat="42.98602" lon="1.13802">
        <ele>394.6</ele>
        <time>2023-11-19T08:03:53Z</time>
      </trkpt>
      <trkpt lat="42.98603" lon="1.138">
        <ele>395.4</ele>
        <time>2023-11-19T08:03:54Z</time>
      </trkpt>
      <trkpt lat="42.98603" lon="1.13798">
        <ele>396</ele>
        <time>2023-11-19T08:03:55Z</time>
      </trkpt>
      <trkpt lat="42.98605" lon="1.13796">
        <ele>396.4</ele>
        <time>2023-11-19T08:03:56Z</time>
      </trkpt>
      <trkpt lat="42.98606" lon="1.13793">
        <ele>396.8</ele>
        <time>2023-11-19T08:03:57Z</time>
      </trkpt>
      <trkpt lat="42.98608" lon="1.13787">
        <ele>396.8</ele>
        <time>2023-11-19T08:04:00Z</time>
      </trkpt>
      <trkpt lat="42.98609" lon="1.13786">
        <ele>397.2</ele>
        <time>2023-11-19T08:04:01Z</time>
      </trkpt>
      <trkpt lat="42.9861" lon="1.13784">
        <ele>397.6</ele>
        <time>2023-11-19T08:04:02Z</time>
      </trkpt>
      <trkpt lat="42.9861" lon="1.13782">
        <ele>398.2</ele>
        <time>2023-11-19T08:04:03Z</time>
      </trkpt>
      <trkpt lat="42.98611" lon="1.13779">
        <ele>398.6</ele>
        <time>2023-11-19T08:04:04Z</time>
      </trkpt>
      <trkpt lat="42.98612" lon="1.13777">
        <ele>399</ele>
        <time>2023-11-19T08:04:05Z</time>
      </trkpt>
      <trkpt lat="42.98613" lon="1.13776">
        <ele>399</ele>
        <time>2023-11-19T08:04:06Z</time>
      </trkpt>
      <trkpt lat="42.98617" lon="1.13768">
        <ele>399.4</ele>
        <time>2023-11-19T08:04:10Z</time>
      </trkpt>
      <trkpt lat="42.98618" lon="1.13766">
        <ele>400</ele>
        <time>2023-11-19T08:04:11Z</time>
      </trkpt>
      <trkpt lat="42.9862" lon="1.13765">
        <ele>400.4</ele>
        <time>2023-11-19T08:04:12Z</time>
      </trkpt>
      <trkpt lat="42.98621" lon="1.13764">
        <ele>400.8</ele>
        <time>2023-11-19T08:04:13Z</time>
      </trkpt>
      <trkpt lat="42.98622" lon="1.13763">
        <ele>401.4</ele>
        <time>2023-11-19T08:04:14Z</time>
      </trkpt>
      <trkpt lat="42.98628" lon="1.13757">
        <ele>401.4</ele>
        <time>2023-11-19T08:04:18Z</time>
      </trkpt>
      <trkpt lat="42.9863" lon="1.13756">
        <ele>401.8</ele>
        <time>2023-11-19T08:04:19Z</time>
      </trkpt>
      <trkpt lat="42.98632" lon="1.13755">
        <ele>402.2</ele>
        <time>2023-11-19T08:04:20Z</time>
      </trkpt>
      <trkpt lat="42.98634" lon="1.13755">
        <ele>402.6</ele>
        <time>2023-11-19T08:04:21Z</time>
      </trkpt>
      <trkpt lat="42.98636" lon="1.13753">
        <ele>403</ele>
        <time>2023-11-19T08:04:22Z</time>
      </trkpt>
      <trkpt lat="42.98638" lon="1.13752">
        <ele>403.4</ele>
        <time>2023-11-19T08:04:23Z</time>
      </trkpt>
      <trkpt lat="42.98643" lon="1.13749">
        <ele>403.4</ele>
        <time>2023-11-19T08:04:25Z</time>
      </trkpt>
      <trkpt lat="42.98659" lon="1.13745">
        <ele>403.8</ele>
        <time>2023-11-19T08:04:32Z</time>
      </trkpt>
      <trkpt lat="42.98662" lon="1.13745">
        <ele>404.2</ele>
        <time>2023-11-19T08:04:33Z</time>
      </trkpt>
      <trkpt lat="42.98664" lon="1.13745">
        <ele>404.6</ele>
        <time>2023-11-19T08:04:34Z</time>
      </trkpt>
      <trkpt lat="42.98666" lon="1.13744">
        <ele>405</ele>
        <time>2023-11-19T08:04:35Z</time>
      </trkpt>
      <trkpt lat="42.98669" lon="1.13743">
        <ele>405.4</ele>
        <time>2023-11-19T08:04:36Z</time>
      </trkpt>
      <trkpt lat="42.9868" lon="1.13741">
        <ele>405.4</ele>
        <time>2023-11-19T08:04:40Z</time>
      </trkpt>
      <trkpt lat="42.98699" lon="1.13742">
        <ele>405.4</ele>
        <time>2023-11-19T08:04:47Z</time>
      </trkpt>
      <trkpt lat="42.98729" lon="1.13742">
        <ele>405.4</ele>
        <time>2023-11-19T08:04:56Z</time>
      </trkpt>
      <trkpt lat="42.9875" lon="1.1374">
        <ele>405.4</ele>
        <time>2023-11-19T08:05:03Z</time>
      </trkpt>
      <trkpt lat="42.98763" lon="1.1374">
        <ele>405.8</ele>
        <time>2023-11-19T08:05:07Z</time>
      </trkpt>
      <trkpt lat="42.98766" lon="1.1374">
        <ele>406.6</ele>
        <time>2023-11-19T08:05:08Z</time>
      </trkpt>
      <trkpt lat="42.98769" lon="1.13739">
        <ele>407</ele>
        <time>2023-11-19T08:05:09Z</time>
      </trkpt>
      <trkpt lat="42.98772" lon="1.13739">
        <ele>407.4</ele>
        <time>2023-11-19T08:05:10Z</time>
      </trkpt>
      <trkpt lat="42.98797" lon="1.13735">
        <ele>407.4</ele>
        <time>2023-11-19T08:05:17Z</time>
      </trkpt>
      <trkpt lat="42.98823" lon="1.1373">
        <ele>407.4</ele>
        <time>2023-11-19T08:05:24Z</time>
      </trkpt>
      <trkpt lat="42.9885" lon="1.13721">
        <ele>407.4</ele>
        <time>2023-11-19T08:05:32Z</time>
      </trkpt>
      <trkpt lat="42.98871" lon="1.13708">
        <ele>407.4</ele>
        <time>2023-11-19T08:05:39Z</time>
      </trkpt>
      <trkpt lat="42.98892" lon="1.13679">
        <ele>407.4</ele>
        <time>2023-11-19T08:05:47Z</time>
      </trkpt>
      <trkpt lat="42.98905" lon="1.1365">
        <ele>407.4</ele>
        <time>2023-11-19T08:05:54Z</time>
      </trkpt>
      <trkpt lat="42.98903" lon="1.13621">
        <ele>407.4</ele>
        <time>2023-11-19T08:06:00Z</time>
      </trkpt>
      <trkpt lat="42.98895" lon="1.13578">
        <ele>407.4</ele>
        <time>2023-11-19T08:06:09Z</time>
      </trkpt>
      <trkpt lat="42.98889" lon="1.13545">
        <ele>407.4</ele>
        <time>2023-11-19T08:06:16Z</time>
      </trkpt>
      <trkpt lat="42.98889" lon="1.13512">
        <ele>407.4</ele>
        <time>2023-11-19T08:06:23Z</time>
      </trkpt>
      <trkpt lat="42.98895" lon="1.13481">
        <ele>407.4</ele>
        <time>2023-11-19T08:06:30Z</time>
      </trkpt>
      <trkpt lat="42.98899" lon="1.13461">
        <ele>407.4</ele>
        <time>2023-11-19T08:06:35Z</time>
      </trkpt>
      <trkpt lat="42.98904" lon="1.1344">
        <ele>407.4</ele>
        <time>2023-11-19T08:06:40Z</time>
      </trkpt>
      <trkpt lat="42.98913" lon="1.13413">
        <ele>407.8</ele>
        <time>2023-11-19T08:06:46Z</time>
      </trkpt>
      <trkpt lat="42.98915" lon="1.13409">
        <ele>408.8</ele>
        <time>2023-11-19T08:06:47Z</time>
      </trkpt>
      <trkpt lat="42.98916" lon="1.13406">
        <ele>409.2</ele>
        <time>2023-11-19T08:06:48Z</time>
      </trkpt>
      <trkpt lat="42.98918" lon="1.13402">
        <ele>409.6</ele>
        <time>2023-11-19T08:06:49Z</time>
      </trkpt>
      <trkpt lat="42.98919" lon="1.13398">
        <ele>409.6</ele>
        <time>2023-11-19T08:06:50Z</time>
      </trkpt>
      <trkpt lat="42.98926" lon="1.13384">
        <ele>410</ele>
        <time>2023-11-19T08:06:54Z</time>
      </trkpt>
      <trkpt lat="42.98927" lon="1.1338">
        <ele>410.4</ele>
        <time>2023-11-19T08:06:55Z</time>
      </trkpt>
      <trkpt lat="42.98928" lon="1.13377">
        <ele>410.8</ele>
        <time>2023-11-19T08:06:56Z</time>
      </trkpt>
      <trkpt lat="42.9893" lon="1.13373">
        <ele>411.2</ele>
        <time>2023-11-19T08:06:57Z</time>
      </trkpt>
      <trkpt lat="42.98931" lon="1.1337">
        <ele>411.6</ele>
        <time>2023-11-19T08:06:58Z</time>
      </trkpt>
      <trkpt lat="42.98937" lon="1.13357">
        <ele>411.6</ele>
        <time>2023-11-19T08:07:02Z</time>
      </trkpt>
      <trkpt lat="42.98939" lon="1.13353">
        <ele>412</ele>
        <time>2023-11-19T08:07:03Z</time>
      </trkpt>
      <trkpt lat="42.98941" lon="1.13349">
        <ele>412.4</ele>
        <time>2023-11-19T08:07:04Z</time>
      </trkpt>
      <trkpt lat="42.98942" lon="1.13345">
        <ele>412.8</ele>
        <time>2023-11-19T08:07:05Z</time>
      </trkpt>
      <trkpt lat="42.98944" lon="1.13342">
        <ele>413.2</ele>
        <time>2023-11-19T08:07:06Z</time>
      </trkpt>
      <trkpt lat="42.98946" lon="1.13338">
        <ele>413.8</ele>
        <time>2023-11-19T08:07:07Z</time>
      </trkpt>
      <trkpt lat="42.98948" lon="1.13334">
        <ele>413.8</ele>
        <time>2023-11-19T08:07:08Z</time>
      </trkpt>
      <trkpt lat="42.98956" lon="1.13313">
        <ele>413.8</ele>
        <time>2023-11-19T08:07:14Z</time>
      </trkpt>
      <trkpt lat="42.98959" lon="1.13306">
        <ele>414.2</ele>
        <time>2023-11-19T08:07:16Z</time>
      </trkpt>
      <trkpt lat="42.98961" lon="1.13302">
        <ele>414.6</ele>
        <time>2023-11-19T08:07:17Z</time>
      </trkpt>
      <trkpt lat="42.98963" lon="1.13299">
        <ele>415</ele>
        <time>2023-11-19T08:07:18Z</time>
      </trkpt>
      <trkpt lat="42.98965" lon="1.13296">
        <ele>415.4</ele>
        <time>2023-11-19T08:07:19Z</time>
      </trkpt>
      <trkpt lat="42.98967" lon="1.13293">
        <ele>415.8</ele>
        <time>2023-11-19T08:07:20Z</time>
      </trkpt>
      <trkpt lat="42.9897" lon="1.13287">
        <ele>415.8</ele>
        <time>2023-11-19T08:07:22Z</time>
      </trkpt>
      <trkpt lat="42.98977" lon="1.13275">
        <ele>416.4</ele>
        <time>2023-11-19T08:07:26Z</time>
      </trkpt>
      <trkpt lat="42.98978" lon="1.13271">
        <ele>416.8</ele>
        <time>2023-11-19T08:07:27Z</time>
      </trkpt>
      <trkpt lat="42.9898" lon="1.13268">
        <ele>417.2</ele>
        <time>2023-11-19T08:07:28Z</time>
      </trkpt>
      <trkpt lat="42.98982" lon="1.13265">
        <ele>417.8</ele>
        <time>2023-11-19T08:07:29Z</time>
      </trkpt>
      <trkpt lat="42.98984" lon="1.13262">
        <ele>418.2</ele>
        <time>2023-11-19T08:07:30Z</time>
      </trkpt>
      <trkpt lat="42.98994" lon="1.13243">
        <ele>418.6</ele>
        <time>2023-11-19T08:07:36Z</time>
      </trkpt>
      <trkpt lat="42.98996" lon="1.1324">
        <ele>419.4</ele>
        <time>2023-11-19T08:07:37Z</time>
      </trkpt>
      <trkpt lat="42.98998" lon="1.13237">
        <ele>419.8</ele>
        <time>2023-11-19T08:07:38Z</time>
      </trkpt>
      <trkpt lat="42.99" lon="1.13234">
        <ele>420.2</ele>
        <time>2023-11-19T08:07:39Z</time>
      </trkpt>
      <trkpt lat="42.99005" lon="1.13226">
        <ele>420.2</ele>
        <time>2023-11-19T08:07:42Z</time>
      </trkpt>
      <trkpt lat="42.99011" lon="1.13215">
        <ele>420.6</ele>
        <time>2023-11-19T08:07:46Z</time>
      </trkpt>
      <trkpt lat="42.99012" lon="1.13213">
        <ele>421</ele>
        <time>2023-11-19T08:07:47Z</time>
      </trkpt>
      <trkpt lat="42.99014" lon="1.1321">
        <ele>421.4</ele>
        <time>2023-11-19T08:07:48Z</time>
      </trkpt>
      <trkpt lat="42.99015" lon="1.13207">
        <ele>422</ele>
        <time>2023-11-19T08:07:49Z</time>
      </trkpt>
      <trkpt lat="42.99016" lon="1.13205">
        <ele>422.4</ele>
        <time>2023-11-19T08:07:50Z</time>
      </trkpt>
      <trkpt lat="42.99022" lon="1.13192">
        <ele>422.4</ele>
        <time>2023-11-19T08:07:55Z</time>
      </trkpt>
      <trkpt lat="42.99022" lon="1.13189">
        <ele>422.8</ele>
        <time>2023-11-19T08:07:56Z</time>
      </trkpt>
      <trkpt lat="42.99023" lon="1.13186">
        <ele>423.2</ele>
        <time>2023-11-19T08:07:57Z</time>
      </trkpt>
      <trkpt lat="42.99025" lon="1.13184">
        <ele>423.6</ele>
        <time>2023-11-19T08:07:58Z</time>
      </trkpt>
      <trkpt lat="42.99026" lon="1.13181">
        <ele>424</ele>
        <time>2023-11-19T08:07:59Z</time>
      </trkpt>
      <trkpt lat="42.99027" lon="1.13178">
        <ele>424.4</ele>
        <time>2023-11-19T08:08:00Z</time>
      </trkpt>
      <trkpt lat="42.99028" lon="1.13176">
        <ele>424.4</ele>
        <time>2023-11-19T08:08:01Z</time>
      </trkpt>
      <trkpt lat="42.99028" lon="1.13174">
        <ele>424.4</ele>
        <time>2023-11-19T08:08:02Z</time>
      </trkpt>
      <trkpt lat="42.99031" lon="1.13167">
        <ele>424.4</ele>
        <time>2023-11-19T08:08:05Z</time>
      </trkpt>
      <trkpt lat="42.99033" lon="1.13165">
        <ele>424.4</ele>
        <time>2023-11-19T08:08:06Z</time>
      </trkpt>
      <trkpt lat="42.99035" lon="1.13159">
        <ele>424.8</ele>
        <time>2023-11-19T08:08:08Z</time>
      </trkpt>
      <trkpt lat="42.99036" lon="1.13156">
        <ele>425.2</ele>
        <time>2023-11-19T08:08:09Z</time>
      </trkpt>
      <trkpt lat="42.99037" lon="1.13153">
        <ele>425.6</ele>
        <time>2023-11-19T08:08:10Z</time>
      </trkpt>
      <trkpt lat="42.99038" lon="1.1315">
        <ele>426</ele>
        <time>2023-11-19T08:08:11Z</time>
      </trkpt>
      <trkpt lat="42.99038" lon="1.13147">
        <ele>426.4</ele>
        <time>2023-11-19T08:08:12Z</time>
      </trkpt>
      <trkpt lat="42.99044" lon="1.13131">
        <ele>426.8</ele>
        <time>2023-11-19T08:08:17Z</time>
      </trkpt>
      <trkpt lat="42.99045" lon="1.13128">
        <ele>427.2</ele>
        <time>2023-11-19T08:08:18Z</time>
      </trkpt>
      <trkpt lat="42.99046" lon="1.13125">
        <ele>427.6</ele>
        <time>2023-11-19T08:08:19Z</time>
      </trkpt>
      <trkpt lat="42.99047" lon="1.13123">
        <ele>428</ele>
        <time>2023-11-19T08:08:20Z</time>
      </trkpt>
      <trkpt lat="42.99048" lon="1.1312">
        <ele>428.4</ele>
        <time>2023-11-19T08:08:21Z</time>
      </trkpt>
      <trkpt lat="42.9905" lon="1.13113">
        <ele>428.4</ele>
        <time>2023-11-19T08:08:24Z</time>
      </trkpt>
      <trkpt lat="42.99051" lon="1.1311">
        <ele>428.4</ele>
        <time>2023-11-19T08:08:25Z</time>
      </trkpt>
      <trkpt lat="42.99052" lon="1.13107">
        <ele>429.4</ele>
        <time>2023-11-19T08:08:26Z</time>
      </trkpt>
      <trkpt lat="42.99053" lon="1.13104">
        <ele>429.8</ele>
        <time>2023-11-19T08:08:27Z</time>
      </trkpt>
      <trkpt lat="42.99054" lon="1.13101">
        <ele>430.2</ele>
        <time>2023-11-19T08:08:28Z</time>
      </trkpt>
      <trkpt lat="42.99055" lon="1.13098">
        <ele>430.6</ele>
        <time>2023-11-19T08:08:29Z</time>
      </trkpt>
      <trkpt lat="42.99059" lon="1.13091">
        <ele>431</ele>
        <time>2023-11-19T08:08:33Z</time>
      </trkpt>
      <trkpt lat="42.9906" lon="1.13089">
        <ele>431.6</ele>
        <time>2023-11-19T08:08:34Z</time>
      </trkpt>
      <trkpt lat="42.99061" lon="1.13086">
        <ele>432</ele>
        <time>2023-11-19T08:08:35Z</time>
      </trkpt>
      <trkpt lat="42.99061" lon="1.13083">
        <ele>432.4</ele>
        <time>2023-11-19T08:08:36Z</time>
      </trkpt>
      <trkpt lat="42.99062" lon="1.1308">
        <ele>432.8</ele>
        <time>2023-11-19T08:08:37Z</time>
      </trkpt>
      <trkpt lat="42.99064" lon="1.13073">
        <ele>432.8</ele>
        <time>2023-11-19T08:08:40Z</time>
      </trkpt>
      <trkpt lat="42.99065" lon="1.13071">
        <ele>433.4</ele>
        <time>2023-11-19T08:08:41Z</time>
      </trkpt>
      <trkpt lat="42.99066" lon="1.13069">
        <ele>433.8</ele>
        <time>2023-11-19T08:08:42Z</time>
      </trkpt>
      <trkpt lat="42.99066" lon="1.13068">
        <ele>434.2</ele>
        <time>2023-11-19T08:08:43Z</time>
      </trkpt>
      <trkpt lat="42.99066" lon="1.13066">
        <ele>434.6</ele>
        <time>2023-11-19T08:08:44Z</time>
      </trkpt>
      <trkpt lat="42.99066" lon="1.13065">
        <ele>435</ele>
        <time>2023-11-19T08:08:45Z</time>
      </trkpt>
      <trkpt lat="42.99068" lon="1.13061">
        <ele>435</ele>
        <time>2023-11-19T08:08:47Z</time>
      </trkpt>
      <trkpt lat="42.9907" lon="1.13057">
        <ele>435.4</ele>
        <time>2023-11-19T08:08:49Z</time>
      </trkpt>
      <trkpt lat="42.9907" lon="1.13055">
        <ele>435.8</ele>
        <time>2023-11-19T08:08:50Z</time>
      </trkpt>
      <trkpt lat="42.99071" lon="1.13054">
        <ele>436.6</ele>
        <time>2023-11-19T08:08:51Z</time>
      </trkpt>
      <trkpt lat="42.99073" lon="1.13052">
        <ele>437</ele>
        <time>2023-11-19T08:08:52Z</time>
      </trkpt>
      <trkpt lat="42.99077" lon="1.13047">
        <ele>437</ele>
        <time>2023-11-19T08:08:54Z</time>
      </trkpt>
      <trkpt lat="42.99079" lon="1.13045">
        <ele>437</ele>
        <time>2023-11-19T08:08:55Z</time>
      </trkpt>
      <trkpt lat="42.99082" lon="1.13041">
        <ele>437.6</ele>
        <time>2023-11-19T08:08:57Z</time>
      </trkpt>
      <trkpt lat="42.99083" lon="1.13039">
        <ele>438</ele>
        <time>2023-11-19T08:08:58Z</time>
      </trkpt>
      <trkpt lat="42.99084" lon="1.13037">
        <ele>438.4</ele>
        <time>2023-11-19T08:08:59Z</time>
      </trkpt>
      <trkpt lat="42.99085" lon="1.13035">
        <ele>438.8</ele>
        <time>2023-11-19T08:09:00Z</time>
      </trkpt>
      <trkpt lat="42.99086" lon="1.13033">
        <ele>439.2</ele>
        <time>2023-11-19T08:09:01Z</time>
      </trkpt>
      <trkpt lat="42.99087" lon="1.1303">
        <ele>439.2</ele>
        <time>2023-11-19T08:09:02Z</time>
      </trkpt>
      <trkpt lat="42.99089" lon="1.13026">
        <ele>439.6</ele>
        <time>2023-11-19T08:09:04Z</time>
      </trkpt>
      <trkpt lat="42.9909" lon="1.13024">
        <ele>440</ele>
        <time>2023-11-19T08:09:05Z</time>
      </trkpt>
      <trkpt lat="42.99091" lon="1.13022">
        <ele>440.4</ele>
        <time>2023-11-19T08:09:06Z</time>
      </trkpt>
      <trkpt lat="42.99093" lon="1.1302">
        <ele>440.8</ele>
        <time>2023-11-19T08:09:07Z</time>
      </trkpt>
      <trkpt lat="42.99094" lon="1.13017">
        <ele>441.2</ele>
        <time>2023-11-19T08:09:08Z</time>
      </trkpt>
      <trkpt lat="42.99096" lon="1.13014">
        <ele>441.2</ele>
        <time>2023-11-19T08:09:10Z</time>
      </trkpt>
      <trkpt lat="42.99102" lon="1.13004">
        <ele>441.2</ele>
        <time>2023-11-19T08:09:15Z</time>
      </trkpt>
      <trkpt lat="42.99103" lon="1.13003">
        <ele>441.2</ele>
        <time>2023-11-19T08:09:16Z</time>
      </trkpt>
      <trkpt lat="42.99103" lon="1.13001">
        <ele>441.2</ele>
        <time>2023-11-19T08:09:17Z</time>
      </trkpt>
      <trkpt lat="42.99104" lon="1.13">
        <ele>441.6</ele>
        <time>2023-11-19T08:09:18Z</time>
      </trkpt>
      <trkpt lat="42.99104" lon="1.12997">
        <ele>442.2</ele>
        <time>2023-11-19T08:09:19Z</time>
      </trkpt>
      <trkpt lat="42.99105" lon="1.12995">
        <ele>442.6</ele>
        <time>2023-11-19T08:09:20Z</time>
      </trkpt>
      <trkpt lat="42.99105" lon="1.12993">
        <ele>443</ele>
        <time>2023-11-19T08:09:21Z</time>
      </trkpt>
      <trkpt lat="42.99106" lon="1.12991">
        <ele>443.4</ele>
        <time>2023-11-19T08:09:22Z</time>
      </trkpt>
      <trkpt lat="42.99109" lon="1.12982">
        <ele>443.4</ele>
        <time>2023-11-19T08:09:26Z</time>
      </trkpt>
      <trkpt lat="42.9911" lon="1.12979">
        <ele>443.4</ele>
        <time>2023-11-19T08:09:27Z</time>
      </trkpt>
      <trkpt lat="42.99115" lon="1.1297">
        <ele>443.8</ele>
        <time>2023-11-19T08:09:31Z</time>
      </trkpt>
      <trkpt lat="42.99117" lon="1.12968">
        <ele>444.2</ele>
        <time>2023-11-19T08:09:32Z</time>
      </trkpt>
      <trkpt lat="42.99118" lon="1.12965">
        <ele>444.6</ele>
        <time>2023-11-19T08:09:33Z</time>
      </trkpt>
      <trkpt lat="42.99119" lon="1.12963">
        <ele>445</ele>
        <time>2023-11-19T08:09:34Z</time>
      </trkpt>
      <trkpt lat="42.99119" lon="1.12961">
        <ele>445.4</ele>
        <time>2023-11-19T08:09:35Z</time>
      </trkpt>
      <trkpt lat="42.99119" lon="1.12959">
        <ele>445.4</ele>
        <time>2023-11-19T08:09:36Z</time>
      </trkpt>
      <trkpt lat="42.99119" lon="1.12956">
        <ele>445.4</ele>
        <time>2023-11-19T08:09:37Z</time>
      </trkpt>
      <trkpt lat="42.9912" lon="1.12952">
        <ele>445.4</ele>
        <time>2023-11-19T08:09:39Z</time>
      </trkpt>
      <trkpt lat="42.99121" lon="1.1295">
        <ele>445.4</ele>
        <time>2023-11-19T08:09:40Z</time>
      </trkpt>
      <trkpt lat="42.99122" lon="1.12949">
        <ele>445.8</ele>
        <time>2023-11-19T08:09:41Z</time>
      </trkpt>
      <trkpt lat="42.99122" lon="1.12947">
        <ele>446.2</ele>
        <time>2023-11-19T08:09:42Z</time>
      </trkpt>
      <trkpt lat="42.99123" lon="1.12945">
        <ele>446.6</ele>
        <time>2023-11-19T08:09:43Z</time>
      </trkpt>
      <trkpt lat="42.99123" lon="1.12942">
        <ele>447.2</ele>
        <time>2023-11-19T08:09:44Z</time>
      </trkpt>
      <trkpt lat="42.99123" lon="1.1294">
        <ele>447.6</ele>
        <time>2023-11-19T08:09:45Z</time>
      </trkpt>
      <trkpt lat="42.99125" lon="1.12938">
        <ele>447.6</ele>
        <time>2023-11-19T08:09:47Z</time>
      </trkpt>
      <trkpt lat="42.99126" lon="1.12936">
        <ele>447.6</ele>
        <time>2023-11-19T08:09:48Z</time>
      </trkpt>
      <trkpt lat="42.99129" lon="1.12927">
        <ele>447.6</ele>
        <time>2023-11-19T08:09:51Z</time>
      </trkpt>
      <trkpt lat="42.99129" lon="1.12925">
        <ele>448</ele>
        <time>2023-11-19T08:09:52Z</time>
      </trkpt>
      <trkpt lat="42.99129" lon="1.12922">
        <ele>448.4</ele>
        <time>2023-11-19T08:09:53Z</time>
      </trkpt>
      <trkpt lat="42.9913" lon="1.1292">
        <ele>448.8</ele>
        <time>2023-11-19T08:09:54Z</time>
      </trkpt>
      <trkpt lat="42.9913" lon="1.12918">
        <ele>449.2</ele>
        <time>2023-11-19T08:09:55Z</time>
      </trkpt>
      <trkpt lat="42.99131" lon="1.12914">
        <ele>449.8</ele>
        <time>2023-11-19T08:09:56Z</time>
      </trkpt>
      <trkpt lat="42.99132" lon="1.12912">
        <ele>449.8</ele>
        <time>2023-11-19T08:09:57Z</time>
      </trkpt>
      <trkpt lat="42.99135" lon="1.12901">
        <ele>449.8</ele>
        <time>2023-11-19T08:10:01Z</time>
      </trkpt>
      <trkpt lat="42.99136" lon="1.12895">
        <ele>450.2</ele>
        <time>2023-11-19T08:10:03Z</time>
      </trkpt>
      <trkpt lat="42.99137" lon="1.12893">
        <ele>450.6</ele>
        <time>2023-11-19T08:10:04Z</time>
      </trkpt>
      <trkpt lat="42.99137" lon="1.1289">
        <ele>451.4</ele>
        <time>2023-11-19T08:10:05Z</time>
      </trkpt>
      <trkpt lat="42.99138" lon="1.12888">
        <ele>451.8</ele>
        <time>2023-11-19T08:10:06Z</time>
      </trkpt>
      <trkpt lat="42.99141" lon="1.12883">
        <ele>451.8</ele>
        <time>2023-11-19T08:10:09Z</time>
      </trkpt>
      <trkpt lat="42.99141" lon="1.1288">
        <ele>451.8</ele>
        <time>2023-11-19T08:10:10Z</time>
      </trkpt>
      <trkpt lat="42.99143" lon="1.12876">
        <ele>452.2</ele>
        <time>2023-11-19T08:10:12Z</time>
      </trkpt>
      <trkpt lat="42.99144" lon="1.12874">
        <ele>452.6</ele>
        <time>2023-11-19T08:10:13Z</time>
      </trkpt>
      <trkpt lat="42.99145" lon="1.12871">
        <ele>453</ele>
        <time>2023-11-19T08:10:14Z</time>
      </trkpt>
      <trkpt lat="42.99146" lon="1.12869">
        <ele>453.4</ele>
        <time>2023-11-19T08:10:15Z</time>
      </trkpt>
      <trkpt lat="42.99146" lon="1.12867">
        <ele>453.8</ele>
        <time>2023-11-19T08:10:16Z</time>
      </trkpt>
      <trkpt lat="42.99149" lon="1.12861">
        <ele>453.8</ele>
        <time>2023-11-19T08:10:19Z</time>
      </trkpt>
      <trkpt lat="42.9915" lon="1.12859">
        <ele>453.8</ele>
        <time>2023-11-19T08:10:20Z</time>
      </trkpt>
      <trkpt lat="42.99152" lon="1.12855">
        <ele>454.2</ele>
        <time>2023-11-19T08:10:22Z</time>
      </trkpt>
      <trkpt lat="42.99153" lon="1.12853">
        <ele>454.6</ele>
        <time>2023-11-19T08:10:23Z</time>
      </trkpt>
      <trkpt lat="42.99154" lon="1.12851">
        <ele>455</ele>
        <time>2023-11-19T08:10:24Z</time>
      </trkpt>
      <trkpt lat="42.99155" lon="1.12848">
        <ele>455.4</ele>
        <time>2023-11-19T08:10:25Z</time>
      </trkpt>
      <trkpt lat="42.99156" lon="1.12846">
        <ele>455.8</ele>
        <time>2023-11-19T08:10:26Z</time>
      </trkpt>
      <trkpt lat="42.9916" lon="1.12833">
        <ele>455.8</ele>
        <time>2023-11-19T08:10:32Z</time>
      </trkpt>
      <trkpt lat="42.99166" lon="1.12819">
        <ele>455.8</ele>
        <time>2023-11-19T08:10:37Z</time>
      </trkpt>
      <trkpt lat="42.99172" lon="1.12802">
        <ele>455.8</ele>
        <time>2023-11-19T08:10:43Z</time>
      </trkpt>
      <trkpt lat="42.99172" lon="1.12793">
        <ele>455.8</ele>
        <time>2023-11-19T08:10:47Z</time>
      </trkpt>
      <trkpt lat="42.99171" lon="1.12791">
        <ele>455.8</ele>
        <time>2023-11-19T08:10:48Z</time>
      </trkpt>
      <trkpt lat="42.99167" lon="1.12778">
        <ele>455.8</ele>
        <time>2023-11-19T08:10:53Z</time>
      </trkpt>
      <trkpt lat="42.99165" lon="1.1277">
        <ele>455.4</ele>
        <time>2023-11-19T08:10:56Z</time>
      </trkpt>
      <trkpt lat="42.99164" lon="1.12767">
        <ele>455</ele>
        <time>2023-11-19T08:10:57Z</time>
      </trkpt>
      <trkpt lat="42.99163" lon="1.12764">
        <ele>454.6</ele>
        <time>2023-11-19T08:10:58Z</time>
      </trkpt>
      <trkpt lat="42.99163" lon="1.1276">
        <ele>454.2</ele>
        <time>2023-11-19T08:10:59Z</time>
      </trkpt>
      <trkpt lat="42.99162" lon="1.12757">
        <ele>453.8</ele>
        <time>2023-11-19T08:11:00Z</time>
      </trkpt>
      <trkpt lat="42.99159" lon="1.12753">
        <ele>453.8</ele>
        <time>2023-11-19T08:11:02Z</time>
      </trkpt>
      <trkpt lat="42.99156" lon="1.1275">
        <ele>453.8</ele>
        <time>2023-11-19T08:11:04Z</time>
      </trkpt>
      <trkpt lat="42.99149" lon="1.12748">
        <ele>453.8</ele>
        <time>2023-11-19T08:11:07Z</time>
      </trkpt>
      <trkpt lat="42.99142" lon="1.12745">
        <ele>454.2</ele>
        <time>2023-11-19T08:11:10Z</time>
      </trkpt>
      <trkpt lat="42.9914" lon="1.12744">
        <ele>454.6</ele>
        <time>2023-11-19T08:11:11Z</time>
      </trkpt>
      <trkpt lat="42.99137" lon="1.12744">
        <ele>455.2</ele>
        <time>2023-11-19T08:11:12Z</time>
      </trkpt>
      <trkpt lat="42.99135" lon="1.12745">
        <ele>455.6</ele>
        <time>2023-11-19T08:11:13Z</time>
      </trkpt>
      <trkpt lat="42.99133" lon="1.12745">
        <ele>456</ele>
        <time>2023-11-19T08:11:14Z</time>
      </trkpt>
      <trkpt lat="42.99131" lon="1.12742">
        <ele>456.6</ele>
        <time>2023-11-19T08:11:16Z</time>
      </trkpt>
      <trkpt lat="42.9913" lon="1.12742">
        <ele>457</ele>
        <time>2023-11-19T08:11:17Z</time>
      </trkpt>
      <trkpt lat="42.99129" lon="1.1274">
        <ele>457.4</ele>
        <time>2023-11-19T08:11:18Z</time>
      </trkpt>
      <trkpt lat="42.99127" lon="1.1274">
        <ele>458.2</ele>
        <time>2023-11-19T08:11:19Z</time>
      </trkpt>
      <trkpt lat="42.99121" lon="1.12733">
        <ele>458.8</ele>
        <time>2023-11-19T08:11:23Z</time>
      </trkpt>
      <trkpt lat="42.99119" lon="1.1273">
        <ele>459.2</ele>
        <time>2023-11-19T08:11:24Z</time>
      </trkpt>
      <trkpt lat="42.99117" lon="1.12728">
        <ele>459.6</ele>
        <time>2023-11-19T08:11:25Z</time>
      </trkpt>
      <trkpt lat="42.99116" lon="1.12726">
        <ele>460</ele>
        <time>2023-11-19T08:11:26Z</time>
      </trkpt>
      <trkpt lat="42.99114" lon="1.12726">
        <ele>460.4</ele>
        <time>2023-11-19T08:11:27Z</time>
      </trkpt>
      <trkpt lat="42.9911" lon="1.12722">
        <ele>460.4</ele>
        <time>2023-11-19T08:11:29Z</time>
      </trkpt>
      <trkpt lat="42.99108" lon="1.12722">
        <ele>460.4</ele>
        <time>2023-11-19T08:11:30Z</time>
      </trkpt>
      <trkpt lat="42.99106" lon="1.12723">
        <ele>461</ele>
        <time>2023-11-19T08:11:31Z</time>
      </trkpt>
      <trkpt lat="42.99104" lon="1.12724">
        <ele>461.4</ele>
        <time>2023-11-19T08:11:32Z</time>
      </trkpt>
      <trkpt lat="42.99103" lon="1.12725">
        <ele>461.8</ele>
        <time>2023-11-19T08:11:33Z</time>
      </trkpt>
      <trkpt lat="42.99101" lon="1.12726">
        <ele>462.4</ele>
        <time>2023-11-19T08:11:34Z</time>
      </trkpt>
      <trkpt lat="42.99099" lon="1.12726">
        <ele>462.8</ele>
        <time>2023-11-19T08:11:35Z</time>
      </trkpt>
      <trkpt lat="42.99097" lon="1.12726">
        <ele>463.2</ele>
        <time>2023-11-19T08:11:36Z</time>
      </trkpt>
      <trkpt lat="42.99095" lon="1.12726">
        <ele>463.6</ele>
        <time>2023-11-19T08:11:37Z</time>
      </trkpt>
      <trkpt lat="42.99093" lon="1.12726">
        <ele>464</ele>
        <time>2023-11-19T08:11:38Z</time>
      </trkpt>
      <trkpt lat="42.99091" lon="1.12726">
        <ele>464.4</ele>
        <time>2023-11-19T08:11:39Z</time>
      </trkpt>
      <trkpt lat="42.99089" lon="1.12725">
        <ele>464.8</ele>
        <time>2023-11-19T08:11:40Z</time>
      </trkpt>
      <trkpt lat="42.99086" lon="1.12724">
        <ele>465.8</ele>
        <time>2023-11-19T08:11:42Z</time>
      </trkpt>
      <trkpt lat="42.99083" lon="1.12723">
        <ele>466.2</ele>
        <time>2023-11-19T08:11:43Z</time>
      </trkpt>
      <trkpt lat="42.99081" lon="1.12722">
        <ele>466.6</ele>
        <time>2023-11-19T08:11:44Z</time>
      </trkpt>
      <trkpt lat="42.99079" lon="1.12722">
        <ele>467</ele>
        <time>2023-11-19T08:11:45Z</time>
      </trkpt>
      <trkpt lat="42.99077" lon="1.1272">
        <ele>467</ele>
        <time>2023-11-19T08:11:46Z</time>
      </trkpt>
      <trkpt lat="42.99075" lon="1.1272">
        <ele>467.6</ele>
        <time>2023-11-19T08:11:47Z</time>
      </trkpt>
      <trkpt lat="42.99072" lon="1.1272">
        <ele>468</ele>
        <time>2023-11-19T08:11:48Z</time>
      </trkpt>
      <trkpt lat="42.99069" lon="1.12721">
        <ele>468.4</ele>
        <time>2023-11-19T08:11:49Z</time>
      </trkpt>
      <trkpt lat="42.99067" lon="1.1272">
        <ele>468.8</ele>
        <time>2023-11-19T08:11:50Z</time>
      </trkpt>
      <trkpt lat="42.99065" lon="1.1272">
        <ele>469.2</ele>
        <time>2023-11-19T08:11:51Z</time>
      </trkpt>
      <trkpt lat="42.99059" lon="1.12715">
        <ele>469.6</ele>
        <time>2023-11-19T08:11:54Z</time>
      </trkpt>
      <trkpt lat="42.99057" lon="1.12712">
        <ele>470</ele>
        <time>2023-11-19T08:11:55Z</time>
      </trkpt>
      <trkpt lat="42.99055" lon="1.12709">
        <ele>470.4</ele>
        <time>2023-11-19T08:11:56Z</time>
      </trkpt>
      <trkpt lat="42.99054" lon="1.12707">
        <ele>470.8</ele>
        <time>2023-11-19T08:11:57Z</time>
      </trkpt>
      <trkpt lat="42.99052" lon="1.12705">
        <ele>471.2</ele>
        <time>2023-11-19T08:11:58Z</time>
      </trkpt>
      <trkpt lat="42.99049" lon="1.127">
        <ele>471.2</ele>
        <time>2023-11-19T08:12:00Z</time>
      </trkpt>
      <trkpt lat="42.9904" lon="1.12692">
        <ele>471.2</ele>
        <time>2023-11-19T08:12:04Z</time>
      </trkpt>
      <trkpt lat="42.99038" lon="1.1269">
        <ele>471.2</ele>
        <time>2023-11-19T08:12:05Z</time>
      </trkpt>
      <trkpt lat="42.99025" lon="1.12681">
        <ele>471.2</ele>
        <time>2023-11-19T08:12:10Z</time>
      </trkpt>
      <trkpt lat="42.99022" lon="1.12678">
        <ele>471.2</ele>
        <time>2023-11-19T08:12:11Z</time>
      </trkpt>
      <trkpt lat="42.99017" lon="1.12674">
        <ele>471.2</ele>
        <time>2023-11-19T08:12:13Z</time>
      </trkpt>
      <trkpt lat="42.99007" lon="1.12669">
        <ele>471.2</ele>
        <time>2023-11-19T08:12:17Z</time>
      </trkpt>
      <trkpt lat="42.99004" lon="1.12668">
        <ele>471.2</ele>
        <time>2023-11-19T08:12:18Z</time>
      </trkpt>
      <trkpt lat="42.98995" lon="1.12659">
        <ele>471.2</ele>
        <time>2023-11-19T08:12:22Z</time>
      </trkpt>
      <trkpt lat="42.98995" lon="1.12657">
        <ele>471.2</ele>
        <time>2023-11-19T08:12:23Z</time>
      </trkpt>
      <trkpt lat="42.98993" lon="1.12645">
        <ele>471.2</ele>
        <time>2023-11-19T08:12:27Z</time>
      </trkpt>
      <trkpt lat="42.98987" lon="1.12632">
        <ele>471.2</ele>
        <time>2023-11-19T08:12:32Z</time>
      </trkpt>
      <trkpt lat="42.98984" lon="1.1262">
        <ele>471.2</ele>
        <time>2023-11-19T08:12:36Z</time>
      </trkpt>
      <trkpt lat="42.98989" lon="1.12613">
        <ele>470.6</ele>
        <time>2023-11-19T08:12:39Z</time>
      </trkpt>
      <trkpt lat="42.98991" lon="1.12611">
        <ele>470.2</ele>
        <time>2023-11-19T08:12:40Z</time>
      </trkpt>
      <trkpt lat="42.98993" lon="1.12609">
        <ele>469.6</ele>
        <time>2023-11-19T08:12:41Z</time>
      </trkpt>
      <trkpt lat="42.98996" lon="1.12607">
        <ele>469</ele>
        <time>2023-11-19T08:12:42Z</time>
      </trkpt>
      <trkpt lat="42.98998" lon="1.12606">
        <ele>468.4</ele>
        <time>2023-11-19T08:12:43Z</time>
      </trkpt>
      <trkpt lat="42.98999" lon="1.12605">
        <ele>467.8</ele>
        <time>2023-11-19T08:12:44Z</time>
      </trkpt>
      <trkpt lat="42.98999" lon="1.12603">
        <ele>467.2</ele>
        <time>2023-11-19T08:12:45Z</time>
      </trkpt>
      <trkpt lat="42.98999" lon="1.12601">
        <ele>466.6</ele>
        <time>2023-11-19T08:12:46Z</time>
      </trkpt>
      <trkpt lat="42.98998" lon="1.12599">
        <ele>466</ele>
        <time>2023-11-19T08:12:47Z</time>
      </trkpt>
      <trkpt lat="42.98997" lon="1.12598">
        <ele>465.4</ele>
        <time>2023-11-19T08:12:48Z</time>
      </trkpt>
      <trkpt lat="42.98995" lon="1.12595">
        <ele>464.8</ele>
        <time>2023-11-19T08:12:49Z</time>
      </trkpt>
      <trkpt lat="42.98994" lon="1.12592">
        <ele>464.2</ele>
        <time>2023-11-19T08:12:50Z</time>
      </trkpt>
      <trkpt lat="42.98989" lon="1.12586">
        <ele>464.2</ele>
        <time>2023-11-19T08:12:53Z</time>
      </trkpt>
      <trkpt lat="42.98987" lon="1.12584">
        <ele>463.8</ele>
        <time>2023-11-19T08:12:54Z</time>
      </trkpt>
      <trkpt lat="42.98986" lon="1.12582">
        <ele>463.4</ele>
        <time>2023-11-19T08:12:55Z</time>
      </trkpt>
      <trkpt lat="42.98985" lon="1.12581">
        <ele>462.4</ele>
        <time>2023-11-19T08:12:56Z</time>
      </trkpt>
      <trkpt lat="42.98982" lon="1.12574">
        <ele>462</ele>
        <time>2023-11-19T08:12:57Z</time>
      </trkpt>
      <trkpt lat="42.98974" lon="1.12567">
        <ele>462</ele>
        <time>2023-11-19T08:13:08Z</time>
      </trkpt>
      <trkpt lat="42.98963" lon="1.12556">
        <ele>462</ele>
        <time>2023-11-19T08:13:12Z</time>
      </trkpt>
      <trkpt lat="42.98961" lon="1.12553">
        <ele>462</ele>
        <time>2023-11-19T08:13:13Z</time>
      </trkpt>
      <trkpt lat="42.98958" lon="1.12552">
        <ele>462</ele>
        <time>2023-11-19T08:13:14Z</time>
      </trkpt>
      <trkpt lat="42.9895" lon="1.12546">
        <ele>462</ele>
        <time>2023-11-19T08:13:16Z</time>
      </trkpt>
      <trkpt lat="42.98931" lon="1.12536">
        <ele>461.2</ele>
        <time>2023-11-19T08:13:21Z</time>
      </trkpt>
      <trkpt lat="42.98927" lon="1.12535">
        <ele>460.8</ele>
        <time>2023-11-19T08:13:22Z</time>
      </trkpt>
      <trkpt lat="42.98923" lon="1.12534">
        <ele>460.4</ele>
        <time>2023-11-19T08:13:23Z</time>
      </trkpt>
      <trkpt lat="42.9892" lon="1.12531">
        <ele>460</ele>
        <time>2023-11-19T08:13:24Z</time>
      </trkpt>
      <trkpt lat="42.98917" lon="1.12526">
        <ele>460</ele>
        <time>2023-11-19T08:13:25Z</time>
      </trkpt>
      <trkpt lat="42.98907" lon="1.12521">
        <ele>460</ele>
        <time>2023-11-19T08:13:28Z</time>
      </trkpt>
      <trkpt lat="42.98893" lon="1.12517">
        <ele>460</ele>
        <time>2023-11-19T08:13:33Z</time>
      </trkpt>
      <trkpt lat="42.9889" lon="1.12516">
        <ele>460</ele>
        <time>2023-11-19T08:13:34Z</time>
      </trkpt>
      <trkpt lat="42.9888" lon="1.12508">
        <ele>460</ele>
        <time>2023-11-19T08:13:38Z</time>
      </trkpt>
      <trkpt lat="42.98873" lon="1.12492">
        <ele>460</ele>
        <time>2023-11-19T08:13:42Z</time>
      </trkpt>
      <trkpt lat="42.98868" lon="1.12486">
        <ele>460</ele>
        <time>2023-11-19T08:13:45Z</time>
      </trkpt>
      <trkpt lat="42.98866" lon="1.12483">
        <ele>460</ele>
        <time>2023-11-19T08:13:46Z</time>
      </trkpt>
      <trkpt lat="42.98861" lon="1.12479">
        <ele>460.4</ele>
        <time>2023-11-19T08:13:48Z</time>
      </trkpt>
      <trkpt lat="42.98859" lon="1.12477">
        <ele>460.8</ele>
        <time>2023-11-19T08:13:49Z</time>
      </trkpt>
      <trkpt lat="42.98856" lon="1.12475">
        <ele>461.2</ele>
        <time>2023-11-19T08:13:50Z</time>
      </trkpt>
      <trkpt lat="42.98854" lon="1.12474">
        <ele>461.8</ele>
        <time>2023-11-19T08:13:51Z</time>
      </trkpt>
      <trkpt lat="42.98852" lon="1.12471">
        <ele>462.2</ele>
        <time>2023-11-19T08:13:52Z</time>
      </trkpt>
      <trkpt lat="42.98838" lon="1.12462">
        <ele>462.2</ele>
        <time>2023-11-19T08:13:57Z</time>
      </trkpt>
      <trkpt lat="42.98826" lon="1.12459">
        <ele>462.2</ele>
        <time>2023-11-19T08:14:01Z</time>
      </trkpt>
      <trkpt lat="42.98824" lon="1.12459">
        <ele>462.2</ele>
        <time>2023-11-19T08:14:02Z</time>
      </trkpt>
      <trkpt lat="42.9882" lon="1.12461">
        <ele>462.2</ele>
        <time>2023-11-19T08:14:05Z</time>
      </trkpt>
      <trkpt lat="42.98818" lon="1.12461">
        <ele>462.2</ele>
        <time>2023-11-19T08:14:06Z</time>
      </trkpt>
      <trkpt lat="42.98813" lon="1.1246">
        <ele>462.2</ele>
        <time>2023-11-19T08:14:08Z</time>
      </trkpt>
      <trkpt lat="42.9881" lon="1.12459">
        <ele>462.2</ele>
        <time>2023-11-19T08:14:09Z</time>
      </trkpt>
      <trkpt lat="42.98794" lon="1.12454">
        <ele>462.2</ele>
        <time>2023-11-19T08:14:13Z</time>
      </trkpt>
      <trkpt lat="42.98785" lon="1.12452">
        <ele>462.2</ele>
        <time>2023-11-19T08:14:16Z</time>
      </trkpt>
      <trkpt lat="42.98774" lon="1.12453">
        <ele>462.2</ele>
        <time>2023-11-19T08:14:20Z</time>
      </trkpt>
      <trkpt lat="42.98766" lon="1.12455">
        <ele>462.2</ele>
        <time>2023-11-19T08:14:23Z</time>
      </trkpt>
      <trkpt lat="42.98761" lon="1.12454">
        <ele>462.2</ele>
        <time>2023-11-19T08:14:25Z</time>
      </trkpt>
      <trkpt lat="42.98755" lon="1.12454">
        <ele>462.2</ele>
        <time>2023-11-19T08:14:27Z</time>
      </trkpt>
      <trkpt lat="42.98743" lon="1.12453">
        <ele>462.2</ele>
        <time>2023-11-19T08:14:30Z</time>
      </trkpt>
      <trkpt lat="42.98724" lon="1.12463">
        <ele>462.2</ele>
        <time>2023-11-19T08:14:36Z</time>
      </trkpt>
      <trkpt lat="42.98711" lon="1.12461">
        <ele>462.2</ele>
        <time>2023-11-19T08:14:39Z</time>
      </trkpt>
      <trkpt lat="42.9869" lon="1.12455">
        <ele>462.2</ele>
        <time>2023-11-19T08:14:44Z</time>
      </trkpt>
      <trkpt lat="42.98679" lon="1.12445">
        <ele>462.2</ele>
        <time>2023-11-19T08:14:48Z</time>
      </trkpt>
      <trkpt lat="42.98669" lon="1.12431">
        <ele>462.2</ele>
        <time>2023-11-19T08:14:52Z</time>
      </trkpt>
      <trkpt lat="42.98661" lon="1.12419">
        <ele>462.2</ele>
        <time>2023-11-19T08:14:56Z</time>
      </trkpt>
      <trkpt lat="42.98659" lon="1.12414">
        <ele>461.8</ele>
        <time>2023-11-19T08:14:57Z</time>
      </trkpt>
      <trkpt lat="42.98658" lon="1.12411">
        <ele>461.4</ele>
        <time>2023-11-19T08:14:58Z</time>
      </trkpt>
      <trkpt lat="42.98657" lon="1.12406">
        <ele>460.8</ele>
        <time>2023-11-19T08:14:59Z</time>
      </trkpt>
      <trkpt lat="42.98655" lon="1.12402">
        <ele>460</ele>
        <time>2023-11-19T08:15:00Z</time>
      </trkpt>
      <trkpt lat="42.98642" lon="1.12389">
        <ele>460</ele>
        <time>2023-11-19T08:15:05Z</time>
      </trkpt>
      <trkpt lat="42.98632" lon="1.12379">
        <ele>460</ele>
        <time>2023-11-19T08:15:09Z</time>
      </trkpt>
      <trkpt lat="42.98629" lon="1.12376">
        <ele>460</ele>
        <time>2023-11-19T08:15:10Z</time>
      </trkpt>
      <trkpt lat="42.98619" lon="1.12366">
        <ele>460</ele>
        <time>2023-11-19T08:15:14Z</time>
      </trkpt>
      <trkpt lat="42.98608" lon="1.12353">
        <ele>460</ele>
        <time>2023-11-19T08:15:18Z</time>
      </trkpt>
      <trkpt lat="42.98596" lon="1.12343">
        <ele>460</ele>
        <time>2023-11-19T08:15:22Z</time>
      </trkpt>
      <trkpt lat="42.9858" lon="1.12342">
        <ele>460</ele>
        <time>2023-11-19T08:15:28Z</time>
      </trkpt>
      <trkpt lat="42.98569" lon="1.1234">
        <ele>460</ele>
        <time>2023-11-19T08:15:32Z</time>
      </trkpt>
      <trkpt lat="42.98563" lon="1.12344">
        <ele>460.4</ele>
        <time>2023-11-19T08:15:35Z</time>
      </trkpt>
      <trkpt lat="42.98562" lon="1.12345">
        <ele>460.8</ele>
        <time>2023-11-19T08:15:36Z</time>
      </trkpt>
      <trkpt lat="42.9856" lon="1.12347">
        <ele>461.2</ele>
        <time>2023-11-19T08:15:37Z</time>
      </trkpt>
      <trkpt lat="42.98558" lon="1.12349">
        <ele>461.8</ele>
        <time>2023-11-19T08:15:38Z</time>
      </trkpt>
      <trkpt lat="42.98556" lon="1.12349">
        <ele>462.2</ele>
        <time>2023-11-19T08:15:39Z</time>
      </trkpt>
      <trkpt lat="42.98552" lon="1.12348">
        <ele>462.2</ele>
        <time>2023-11-19T08:15:41Z</time>
      </trkpt>
      <trkpt lat="42.98544" lon="1.12339">
        <ele>461.6</ele>
        <time>2023-11-19T08:15:47Z</time>
      </trkpt>
      <trkpt lat="42.9854" lon="1.12337">
        <ele>461</ele>
        <time>2023-11-19T08:15:48Z</time>
      </trkpt>
      <trkpt lat="42.98537" lon="1.12336">
        <ele>460.6</ele>
        <time>2023-11-19T08:15:49Z</time>
      </trkpt>
      <trkpt lat="42.98535" lon="1.12337">
        <ele>459.4</ele>
        <time>2023-11-19T08:15:50Z</time>
      </trkpt>
      <trkpt lat="42.98534" lon="1.12338">
        <ele>459</ele>
        <time>2023-11-19T08:15:51Z</time>
      </trkpt>
      <trkpt lat="42.98532" lon="1.12339">
        <ele>458.4</ele>
        <time>2023-11-19T08:15:52Z</time>
      </trkpt>
      <trkpt lat="42.9853" lon="1.12339">
        <ele>457.8</ele>
        <time>2023-11-19T08:15:53Z</time>
      </trkpt>
      <trkpt lat="42.98527" lon="1.12338">
        <ele>457.2</ele>
        <time>2023-11-19T08:15:54Z</time>
      </trkpt>
      <trkpt lat="42.98524" lon="1.1234">
        <ele>457.2</ele>
        <time>2023-11-19T08:15:56Z</time>
      </trkpt>
      <trkpt lat="42.9852" lon="1.12341">
        <ele>457.2</ele>
        <time>2023-11-19T08:15:59Z</time>
      </trkpt>
      <trkpt lat="42.98518" lon="1.1234">
        <ele>457.2</ele>
        <time>2023-11-19T08:16:00Z</time>
      </trkpt>
      <trkpt lat="42.98515" lon="1.1234">
        <ele>456.8</ele>
        <time>2023-11-19T08:16:01Z</time>
      </trkpt>
      <trkpt lat="42.98513" lon="1.1234">
        <ele>456.4</ele>
        <time>2023-11-19T08:16:02Z</time>
      </trkpt>
      <trkpt lat="42.98511" lon="1.12341">
        <ele>456</ele>
        <time>2023-11-19T08:16:03Z</time>
      </trkpt>
      <trkpt lat="42.98508" lon="1.12342">
        <ele>455.6</ele>
        <time>2023-11-19T08:16:04Z</time>
      </trkpt>
      <trkpt lat="42.98506" lon="1.12341">
        <ele>455.2</ele>
        <time>2023-11-19T08:16:05Z</time>
      </trkpt>
      <trkpt lat="42.98503" lon="1.12339">
        <ele>455.2</ele>
        <time>2023-11-19T08:16:07Z</time>
      </trkpt>
      <trkpt lat="42.98503" lon="1.12337">
        <ele>455.2</ele>
        <time>2023-11-19T08:16:08Z</time>
      </trkpt>
      <trkpt lat="42.98503" lon="1.12334">
        <ele>454.8</ele>
        <time>2023-11-19T08:16:09Z</time>
      </trkpt>
      <trkpt lat="42.98503" lon="1.12331">
        <ele>454.4</ele>
        <time>2023-11-19T08:16:10Z</time>
      </trkpt>
      <trkpt lat="42.98502" lon="1.1233">
        <ele>454</ele>
        <time>2023-11-19T08:16:11Z</time>
      </trkpt>
      <trkpt lat="42.98503" lon="1.12329">
        <ele>453.6</ele>
        <time>2023-11-19T08:16:12Z</time>
      </trkpt>
      <trkpt lat="42.98503" lon="1.12327">
        <ele>453.2</ele>
        <time>2023-11-19T08:16:13Z</time>
      </trkpt>
      <trkpt lat="42.98501" lon="1.12322">
        <ele>453.2</ele>
        <time>2023-11-19T08:16:15Z</time>
      </trkpt>
      <trkpt lat="42.98499" lon="1.12317">
        <ele>453.2</ele>
        <time>2023-11-19T08:16:17Z</time>
      </trkpt>
      <trkpt lat="42.98495" lon="1.12312">
        <ele>453.2</ele>
        <time>2023-11-19T08:16:19Z</time>
      </trkpt>
      <trkpt lat="42.98485" lon="1.12299">
        <ele>453.2</ele>
        <time>2023-11-19T08:16:24Z</time>
      </trkpt>
      <trkpt lat="42.98478" lon="1.12289">
        <ele>453.2</ele>
        <time>2023-11-19T08:16:28Z</time>
      </trkpt>
      <trkpt lat="42.98474" lon="1.12283">
        <ele>453.6</ele>
        <time>2023-11-19T08:16:31Z</time>
      </trkpt>
      <trkpt lat="42.98473" lon="1.12281">
        <ele>454</ele>
        <time>2023-11-19T08:16:32Z</time>
      </trkpt>
      <trkpt lat="42.98471" lon="1.1228">
        <ele>454.6</ele>
        <time>2023-11-19T08:16:33Z</time>
      </trkpt>
      <trkpt lat="42.9847" lon="1.12279">
        <ele>455</ele>
        <time>2023-11-19T08:16:34Z</time>
      </trkpt>
      <trkpt lat="42.98468" lon="1.12277">
        <ele>455.4</ele>
        <time>2023-11-19T08:16:35Z</time>
      </trkpt>
      <trkpt lat="42.98461" lon="1.12272">
        <ele>455.4</ele>
        <time>2023-11-19T08:16:38Z</time>
      </trkpt>
      <trkpt lat="42.9846" lon="1.12272">
        <ele>456.2</ele>
        <time>2023-11-19T08:16:39Z</time>
      </trkpt>
      <trkpt lat="42.98459" lon="1.12272">
        <ele>456.6</ele>
        <time>2023-11-19T08:16:40Z</time>
      </trkpt>
      <trkpt lat="42.98449" lon="1.12266">
        <ele>457.4</ele>
        <time>2023-11-19T08:17:40Z</time>
      </trkpt>
      <trkpt lat="42.98444" lon="1.12266">
        <ele>457.4</ele>
        <time>2023-11-19T08:17:42Z</time>
      </trkpt>
      <trkpt lat="42.98442" lon="1.12265">
        <ele>457.4</ele>
        <time>2023-11-19T08:17:43Z</time>
      </trkpt>
      <trkpt lat="42.98436" lon="1.12261">
        <ele>457.4</ele>
        <time>2023-11-19T08:17:46Z</time>
      </trkpt>
      <trkpt lat="42.98434" lon="1.1226">
        <ele>458</ele>
        <time>2023-11-19T08:17:47Z</time>
      </trkpt>
      <trkpt lat="42.98432" lon="1.12259">
        <ele>458.4</ele>
        <time>2023-11-19T08:17:48Z</time>
      </trkpt>
      <trkpt lat="42.98431" lon="1.12258">
        <ele>458.8</ele>
        <time>2023-11-19T08:17:49Z</time>
      </trkpt>
      <trkpt lat="42.98429" lon="1.12256">
        <ele>459.2</ele>
        <time>2023-11-19T08:17:50Z</time>
      </trkpt>
      <trkpt lat="42.98427" lon="1.12256">
        <ele>459.6</ele>
        <time>2023-11-19T08:17:51Z</time>
      </trkpt>
      <trkpt lat="42.98426" lon="1.12253">
        <ele>459.6</ele>
        <time>2023-11-19T08:17:52Z</time>
      </trkpt>
      <trkpt lat="42.98424" lon="1.1225">
        <ele>459.6</ele>
        <time>2023-11-19T08:17:53Z</time>
      </trkpt>
      <trkpt lat="42.98415" lon="1.12239">
        <ele>460</ele>
        <time>2023-11-19T08:17:58Z</time>
      </trkpt>
      <trkpt lat="42.98414" lon="1.12238">
        <ele>460.4</ele>
        <time>2023-11-19T08:17:59Z</time>
      </trkpt>
      <trkpt lat="42.98413" lon="1.12237">
        <ele>460.8</ele>
        <time>2023-11-19T08:18:00Z</time>
      </trkpt>
      <trkpt lat="42.98412" lon="1.12236">
        <ele>461.4</ele>
        <time>2023-11-19T08:18:01Z</time>
      </trkpt>
      <trkpt lat="42.98411" lon="1.12234">
        <ele>461.8</ele>
        <time>2023-11-19T08:18:02Z</time>
      </trkpt>
      <trkpt lat="42.98408" lon="1.1223">
        <ele>461.8</ele>
        <time>2023-11-19T08:18:04Z</time>
      </trkpt>
      <trkpt lat="42.98399" lon="1.12218">
        <ele>461.8</ele>
        <time>2023-11-19T08:18:09Z</time>
      </trkpt>
      <trkpt lat="42.98391" lon="1.12201">
        <ele>462.2</ele>
        <time>2023-11-19T08:18:14Z</time>
      </trkpt>
      <trkpt lat="42.98389" lon="1.12198">
        <ele>462.6</ele>
        <time>2023-11-19T08:18:15Z</time>
      </trkpt>
      <trkpt lat="42.98388" lon="1.12195">
        <ele>463</ele>
        <time>2023-11-19T08:18:16Z</time>
      </trkpt>
      <trkpt lat="42.98386" lon="1.12193">
        <ele>463.4</ele>
        <time>2023-11-19T08:18:17Z</time>
      </trkpt>
      <trkpt lat="42.98384" lon="1.1219">
        <ele>463.8</ele>
        <time>2023-11-19T08:18:18Z</time>
      </trkpt>
      <trkpt lat="42.98381" lon="1.12188">
        <ele>463.8</ele>
        <time>2023-11-19T08:18:19Z</time>
      </trkpt>
      <trkpt lat="42.98366" lon="1.1218">
        <ele>464.2</ele>
        <time>2023-11-19T08:18:25Z</time>
      </trkpt>
      <trkpt lat="42.98364" lon="1.12179">
        <ele>464.6</ele>
        <time>2023-11-19T08:18:26Z</time>
      </trkpt>
      <trkpt lat="42.98362" lon="1.12178">
        <ele>465</ele>
        <time>2023-11-19T08:18:27Z</time>
      </trkpt>
      <trkpt lat="42.98359" lon="1.12177">
        <ele>465.4</ele>
        <time>2023-11-19T08:18:28Z</time>
      </trkpt>
      <trkpt lat="42.98357" lon="1.12176">
        <ele>465.8</ele>
        <time>2023-11-19T08:18:29Z</time>
      </trkpt>
      <trkpt lat="42.98351" lon="1.12172">
        <ele>465.8</ele>
        <time>2023-11-19T08:18:31Z</time>
      </trkpt>
      <trkpt lat="42.98336" lon="1.12162">
        <ele>465.4</ele>
        <time>2023-11-19T08:18:36Z</time>
      </trkpt>
      <trkpt lat="42.98333" lon="1.12162">
        <ele>465</ele>
        <time>2023-11-19T08:18:37Z</time>
      </trkpt>
      <trkpt lat="42.9833" lon="1.12164">
        <ele>464.4</ele>
        <time>2023-11-19T08:18:38Z</time>
      </trkpt>
      <trkpt lat="42.98329" lon="1.12166">
        <ele>464</ele>
        <time>2023-11-19T08:18:39Z</time>
      </trkpt>
      <trkpt lat="42.98327" lon="1.12168">
        <ele>463.6</ele>
        <time>2023-11-19T08:18:40Z</time>
      </trkpt>
      <trkpt lat="42.98326" lon="1.12171">
        <ele>463.6</ele>
        <time>2023-11-19T08:18:41Z</time>
      </trkpt>
      <trkpt lat="42.98324" lon="1.12178">
        <ele>463.6</ele>
        <time>2023-11-19T08:18:43Z</time>
      </trkpt>
      <trkpt lat="42.98322" lon="1.12189">
        <ele>463.6</ele>
        <time>2023-11-19T08:18:46Z</time>
      </trkpt>
      <trkpt lat="42.98322" lon="1.12192">
        <ele>464</ele>
        <time>2023-11-19T08:18:47Z</time>
      </trkpt>
      <trkpt lat="42.98321" lon="1.12196">
        <ele>464.6</ele>
        <time>2023-11-19T08:18:48Z</time>
      </trkpt>
      <trkpt lat="42.98321" lon="1.12199">
        <ele>465</ele>
        <time>2023-11-19T08:18:49Z</time>
      </trkpt>
      <trkpt lat="42.9832" lon="1.12202">
        <ele>465.4</ele>
        <time>2023-11-19T08:18:50Z</time>
      </trkpt>
      <trkpt lat="42.9832" lon="1.12206">
        <ele>465.8</ele>
        <time>2023-11-19T08:18:51Z</time>
      </trkpt>
      <trkpt lat="42.9832" lon="1.12213">
        <ele>465.8</ele>
        <time>2023-11-19T08:18:53Z</time>
      </trkpt>
      <trkpt lat="42.9832" lon="1.12217">
        <ele>466.2</ele>
        <time>2023-11-19T08:18:54Z</time>
      </trkpt>
      <trkpt lat="42.98319" lon="1.1222">
        <ele>466.6</ele>
        <time>2023-11-19T08:18:55Z</time>
      </trkpt>
      <trkpt lat="42.98319" lon="1.12223">
        <ele>467</ele>
        <time>2023-11-19T08:18:56Z</time>
      </trkpt>
      <trkpt lat="42.98318" lon="1.12226">
        <ele>467.4</ele>
        <time>2023-11-19T08:18:57Z</time>
      </trkpt>
      <trkpt lat="42.98317" lon="1.12229">
        <ele>467.8</ele>
        <time>2023-11-19T08:18:58Z</time>
      </trkpt>
      <trkpt lat="42.9831" lon="1.12248">
        <ele>467.8</ele>
        <time>2023-11-19T08:19:02Z</time>
      </trkpt>
      <trkpt lat="42.98308" lon="1.12252">
        <ele>467.4</ele>
        <time>2023-11-19T08:19:03Z</time>
      </trkpt>
      <trkpt lat="42.98306" lon="1.12257">
        <ele>466.8</ele>
        <time>2023-11-19T08:19:04Z</time>
      </trkpt>
      <trkpt lat="42.983" lon="1.12261">
        <ele>466.4</ele>
        <time>2023-11-19T08:19:05Z</time>
      </trkpt>
      <trkpt lat="42.98294" lon="1.12264">
        <ele>465.8</ele>
        <time>2023-11-19T08:19:06Z</time>
      </trkpt>
      <trkpt lat="42.98287" lon="1.12267">
        <ele>464.8</ele>
        <time>2023-11-19T08:19:07Z</time>
      </trkpt>
      <trkpt lat="42.98282" lon="1.12271">
        <ele>464.2</ele>
        <time>2023-11-19T08:19:08Z</time>
      </trkpt>
      <trkpt lat="42.98277" lon="1.12275">
        <ele>463.8</ele>
        <time>2023-11-19T08:19:09Z</time>
      </trkpt>
      <trkpt lat="42.98272" lon="1.1228">
        <ele>463.2</ele>
        <time>2023-11-19T08:19:10Z</time>
      </trkpt>
      <trkpt lat="42.98269" lon="1.12287">
        <ele>462.4</ele>
        <time>2023-11-19T08:19:11Z</time>
      </trkpt>
      <trkpt lat="42.98265" lon="1.12291">
        <ele>461.8</ele>
        <time>2023-11-19T08:19:12Z</time>
      </trkpt>
      <trkpt lat="42.98261" lon="1.12296">
        <ele>461.2</ele>
        <time>2023-11-19T08:19:13Z</time>
      </trkpt>
      <trkpt lat="42.98259" lon="1.123">
        <ele>460.4</ele>
        <time>2023-11-19T08:19:14Z</time>
      </trkpt>
      <trkpt lat="42.98257" lon="1.12306">
        <ele>460.4</ele>
        <time>2023-11-19T08:19:17Z</time>
      </trkpt>
      <trkpt lat="42.98252" lon="1.12314">
        <ele>460.4</ele>
        <time>2023-11-19T08:19:22Z</time>
      </trkpt>
      <trkpt lat="42.98248" lon="1.12323">
        <ele>460.4</ele>
        <time>2023-11-19T08:19:24Z</time>
      </trkpt>
      <trkpt lat="42.98239" lon="1.12339">
        <ele>460.4</ele>
        <time>2023-11-19T08:19:28Z</time>
      </trkpt>
      <trkpt lat="42.98234" lon="1.12355">
        <ele>460</ele>
        <time>2023-11-19T08:19:31Z</time>
      </trkpt>
      <trkpt lat="42.98234" lon="1.12362">
        <ele>458.6</ele>
        <time>2023-11-19T08:19:32Z</time>
      </trkpt>
      <trkpt lat="42.98233" lon="1.12368">
        <ele>457.8</ele>
        <time>2023-11-19T08:19:33Z</time>
      </trkpt>
      <trkpt lat="42.98234" lon="1.12375">
        <ele>457</ele>
        <time>2023-11-19T08:19:34Z</time>
      </trkpt>
      <trkpt lat="42.98234" lon="1.12381">
        <ele>456.2</ele>
        <time>2023-11-19T08:19:35Z</time>
      </trkpt>
      <trkpt lat="42.98234" lon="1.12386">
        <ele>455.4</ele>
        <time>2023-11-19T08:19:36Z</time>
      </trkpt>
      <trkpt lat="42.98233" lon="1.1239">
        <ele>454.6</ele>
        <time>2023-11-19T08:19:37Z</time>
      </trkpt>
      <trkpt lat="42.98222" lon="1.12425">
        <ele>451.4</ele>
      </trkpt>
      <trkpt lat="42.98225" lon="1.12433">
        <ele>450.8</ele>
      </trkpt>
      <trkpt lat="42.98227" lon="1.12439">
        <ele>450.4</ele>
      </trkpt>
      <trkpt lat="42.98229" lon="1.12445">
        <ele>450</ele>
      </trkpt>
      <trkpt lat="42.98229" lon="1.1245">
        <ele>449.6</ele>
      </trkpt>
      <trkpt lat="42.98227" lon="1.12454">
        <ele>449.3</ele>
      </trkpt>
      <trkpt lat="42.98223" lon="1.12463">
        <ele>448.7</ele>
      </trkpt>
      <trkpt lat="42.98212" lon="1.12481">
        <ele>445.4</ele>
      </trkpt>
      <trkpt lat="42.98205" lon="1.12494">
        <ele>443.5</ele>
      </trkpt>
      <trkpt lat="42.982" lon="1.12502">
        <ele>442.4</ele>
      </trkpt>
      <trkpt lat="42.98198" lon="1.12509">
        <ele>441.4</ele>
      </trkpt>
      <trkpt lat="42.98198" lon="1.12514">
        <ele>440.9</ele>
      </trkpt>
      <trkpt lat="42.982" lon="1.12519">
        <ele>440.5</ele>
      </trkpt>
      <trkpt lat="42.98205" lon="1.12524">
        <ele>440.5</ele>
      </trkpt>
      <trkpt lat="42.9821" lon="1.1253">
        <ele>440.4</ele>
      </trkpt>
      <trkpt lat="42.98218" lon="1.12537">
        <ele>440.3</ele>
      </trkpt>
      <trkpt lat="42.98227" lon="1.12545">
        <ele>439.2</ele>
      </trkpt>
      <trkpt lat="42.98239" lon="1.12556">
        <ele>436.8</ele>
      </trkpt>
      <trkpt lat="42.98249" lon="1.12564">
        <ele>435.5</ele>
      </trkpt>
      <trkpt lat="42.98248" lon="1.12567">
        <ele>435.3</ele>
        <extensions>
          <visugpx:TrkExtension xmlns:visugpx="https://www.visugpx.com/editgpx/">
            <visugpx:node>3</visugpx:node>
            </visugpx:TrkExtension>
        </extensions>
      </trkpt>
      <trkpt lat="42.98229" lon="1.12608">
        <ele>432.3</ele>
      </trkpt>
      <trkpt lat="42.9821" lon="1.12651">
        <ele>429.8</ele>
      </trkpt>
      <trkpt lat="42.98188" lon="1.12701">
        <ele>427.7</ele>
      </trkpt>
      <trkpt lat="42.98181" lon="1.12721">
        <ele>426.6</ele>
        <extensions>
          <visugpx:TrkExtension xmlns:visugpx="https://www.visugpx.com/editgpx/">
            <visugpx:node>4</visugpx:node>
            </visugpx:TrkExtension>
        </extensions>
      </trkpt>
    </trkseg>
  </trk>
</gpx>